﻿<?xml version="1.0" encoding="utf-8"?><gpx creator="Garmin Desktop App" version="1.1" xsi:schemaLocation="http://www.topografix.com/GPX/1/1 http://www.topografix.com/GPX/1/1/gpx.xsd http://www.garmin.com/xmlschemas/WaypointExtension/v1 http://www8.garmin.com/xmlschemas/WaypointExtensionv1.xsd http://www.garmin.com/xmlschemas/TrackPointExtension/v1 http://www.garmin.com/xmlschemas/TrackPointExtensionv1.xsd http://www.garmin.com/xmlschemas/GpxExtensions/v3 http://www8.garmin.com/xmlschemas/GpxExtensionsv3.xsd http://www.garmin.com/xmlschemas/ActivityExtension/v1 http://www8.garmin.com/xmlschemas/ActivityExtensionv1.xsd http://www.garmin.com/xmlschemas/AdventuresExtensions/v1 http://www8.garmin.com/xmlschemas/AdventuresExtensionv1.xsd http://www.garmin.com/xmlschemas/PressureExtension/v1 http://www.garmin.com/xmlschemas/PressureExtensionv1.xsd http://www.garmin.com/xmlschemas/TripExtensions/v1 http://www.garmin.com/xmlschemas/TripExtensionsv1.xsd http://www.garmin.com/xmlschemas/TripMetaDataExtensions/v1 http://www.garmin.com/xmlschemas/TripMetaDataExtensionsv1.xsd http://www.garmin.com/xmlschemas/ViaPointTransportationModeExtensions/v1 http://www.garmin.com/xmlschemas/ViaPointTransportationModeExtensionsv1.xsd http://www.garmin.com/xmlschemas/CreationTimeExtension/v1 http://www.garmin.com/xmlschemas/CreationTimeExtensionsv1.xsd http://www.garmin.com/xmlschemas/AccelerationExtension/v1 http://www.garmin.com/xmlschemas/AccelerationExtensionv1.xsd http://www.garmin.com/xmlschemas/PowerExtension/v1 http://www.garmin.com/xmlschemas/PowerExtensionv1.xsd http://www.garmin.com/xmlschemas/VideoExtension/v1 http://www.garmin.com/xmlschemas/VideoExtensionv1.xsd" xmlns="http://www.topografix.com/GPX/1/1" xmlns:xsi="http://www.w3.org/2001/XMLSchema-instance" xmlns:wptx1="http://www.garmin.com/xmlschemas/WaypointExtension/v1" xmlns:gpxtrx="http://www.garmin.com/xmlschemas/GpxExtensions/v3" xmlns:gpxtpx="http://www.garmin.com/xmlschemas/TrackPointExtension/v1" xmlns:gpxx="http://www.garmin.com/xmlschemas/GpxExtensions/v3" xmlns:trp="http://www.garmin.com/xmlschemas/TripExtensions/v1" xmlns:adv="http://www.garmin.com/xmlschemas/AdventuresExtensions/v1" xmlns:prs="http://www.garmin.com/xmlschemas/PressureExtension/v1" xmlns:tmd="http://www.garmin.com/xmlschemas/TripMetaDataExtensions/v1" xmlns:vptm="http://www.garmin.com/xmlschemas/ViaPointTransportationModeExtensions/v1" xmlns:ctx="http://www.garmin.com/xmlschemas/CreationTimeExtension/v1" xmlns:gpxacc="http://www.garmin.com/xmlschemas/AccelerationExtension/v1" xmlns:gpxpx="http://www.garmin.com/xmlschemas/PowerExtension/v1" xmlns:vidx1="http://www.garmin.com/xmlschemas/VideoExtension/v1">

  <metadata>
    <link href="http://www.garmin.com">
      <text>Garmin International</text>
    </link>
    <time>2018-03-26T07:46:47Z</time>
    <bounds maxlat="46.472050622105598" maxlon="8.773876922205091" minlat="46.441897815093398" minlon="8.72958124615252" />
  </metadata>

  <trk>
    <name>Campo tencia2018-03-25</name>
    <extensions>
      <gpxx:TrackExtension>
        <gpxx:DisplayColor>Yellow</gpxx:DisplayColor>
      </gpxx:TrackExtension>
      <gpxtrkx:TrackStatsExtension xmlns:gpxtrkx="http://www.garmin.com/xmlschemas/TrackStatsExtension/v1">
        <gpxtrkx:Distance>16308</gpxtrkx:Distance>
        <gpxtrkx:TotalElapsedTime>26023</gpxtrkx:TotalElapsedTime>
        <gpxtrkx:MovingTime>18763</gpxtrkx:MovingTime>
        <gpxtrkx:StoppedTime>7249</gpxtrkx:StoppedTime>
        <gpxtrkx:MovingSpeed>1</gpxtrkx:MovingSpeed>
        <gpxtrkx:MaxSpeed>2</gpxtrkx:MaxSpeed>
        <gpxtrkx:MaxElevation>2192</gpxtrkx:MaxElevation>
        <gpxtrkx:MinElevation>1203</gpxtrkx:MinElevation>
        <gpxtrkx:Ascent>901</gpxtrkx:Ascent>
        <gpxtrkx:Descent>1044</gpxtrkx:Descent>
        <gpxtrkx:AvgAscentRate>0</gpxtrkx:AvgAscentRate>
        <gpxtrkx:MaxAscentRate>0</gpxtrkx:MaxAscentRate>
        <gpxtrkx:AvgDescentRate>0</gpxtrkx:AvgDescentRate>
        <gpxtrkx:MaxDescentRate>-1</gpxtrkx:MaxDescentRate>
      </gpxtrkx:TrackStatsExtension>
    </extensions>
    <trkseg>
      <trkpt lat="46.467285677790642" lon="8.767687557265163">
        <ele>1345.98</ele>
        <time>2018-03-25T07:21:42Z</time>
      </trkpt>
      <trkpt lat="46.467284085229039" lon="8.767685294151306">
        <ele>1345.98</ele>
        <time>2018-03-25T07:21:43Z</time>
      </trkpt>
      <trkpt lat="46.467251311987638" lon="8.767680767923594">
        <ele>1347.9100000000001</ele>
        <time>2018-03-25T07:21:55Z</time>
      </trkpt>
      <trkpt lat="46.467246282845736" lon="8.767673559486866">
        <ele>1347.9100000000001</ele>
        <time>2018-03-25T07:21:56Z</time>
      </trkpt>
      <trkpt lat="46.46719129756093" lon="8.767666351050139">
        <ele>1349.8299999999999</ele>
        <time>2018-03-25T07:22:06Z</time>
      </trkpt>
      <trkpt lat="46.467118375003338" lon="8.767674062401056">
        <ele>1352.23</ele>
        <time>2018-03-25T07:22:17Z</time>
      </trkpt>
      <trkpt lat="46.467057773843408" lon="8.767667356878519">
        <ele>1353.6700000000001</ele>
        <time>2018-03-25T07:22:26Z</time>
      </trkpt>
      <trkpt lat="46.467006476595998" lon="8.76769233494997">
        <ele>1355.5999999999999</ele>
        <time>2018-03-25T07:22:35Z</time>
      </trkpt>
      <trkpt lat="46.46693866699934" lon="8.7676752358675">
        <ele>1357.52</ele>
        <time>2018-03-25T07:22:46Z</time>
      </trkpt>
      <trkpt lat="46.466889549046755" lon="8.767655454576016">
        <ele>1359.4400000000001</ele>
        <time>2018-03-25T07:22:56Z</time>
      </trkpt>
      <trkpt lat="46.466835904866457" lon="8.767661741003394">
        <ele>1361.3599999999999</ele>
        <time>2018-03-25T07:23:06Z</time>
      </trkpt>
      <trkpt lat="46.466828612610698" lon="8.767661741003394">
        <ele>1361.3599999999999</ele>
        <time>2018-03-25T07:23:07Z</time>
      </trkpt>
      <trkpt lat="46.466807490214705" lon="8.767663417384028">
        <ele>1361.8399999999999</ele>
        <time>2018-03-25T07:23:10Z</time>
      </trkpt>
      <trkpt lat="46.466734483838081" lon="8.7676458992064">
        <ele>1363.29</ele>
        <time>2018-03-25T07:23:20Z</time>
      </trkpt>
      <trkpt lat="46.466649742797017" lon="8.767596194520593">
        <ele>1364.73</ele>
        <time>2018-03-25T07:23:30Z</time>
      </trkpt>
      <trkpt lat="46.466536587104201" lon="8.767560990527272">
        <ele>1365.21</ele>
        <time>2018-03-25T07:23:42Z</time>
      </trkpt>
      <trkpt lat="46.466463916003704" lon="8.76755210570991">
        <ele>1366.1700000000001</ele>
        <time>2018-03-25T07:23:52Z</time>
      </trkpt>
      <trkpt lat="46.466410104185343" lon="8.767555793747306">
        <ele>1367.6099999999999</ele>
        <time>2018-03-25T07:24:01Z</time>
      </trkpt>
      <trkpt lat="46.466401806101203" lon="8.767562247812748">
        <ele>1367.1300000000001</ele>
        <time>2018-03-25T07:24:15Z</time>
      </trkpt>
      <trkpt lat="46.466400297358632" lon="8.767553362995386">
        <ele>1367.6099999999999</ele>
        <time>2018-03-25T07:24:28Z</time>
      </trkpt>
      <trkpt lat="46.466409265995026" lon="8.76760876737535">
        <ele>1367.6099999999999</ele>
        <time>2018-03-25T07:24:47Z</time>
      </trkpt>
      <trkpt lat="46.466408763080835" lon="8.767619244754314">
        <ele>1367.6099999999999</ele>
        <time>2018-03-25T07:25:01Z</time>
      </trkpt>
      <trkpt lat="46.466404320672154" lon="8.767616646364331">
        <ele>1367.6099999999999</ele>
        <time>2018-03-25T07:25:21Z</time>
      </trkpt>
      <trkpt lat="46.466407254338264" lon="8.767614383250475">
        <ele>1368.0899999999999</ele>
        <time>2018-03-25T07:25:32Z</time>
      </trkpt>
      <trkpt lat="46.466424688696861" lon="8.767598709091544">
        <ele>1368.5699999999999</ele>
        <time>2018-03-25T07:25:46Z</time>
      </trkpt>
      <trkpt lat="46.466385796666145" lon="8.767626117914915">
        <ele>1369.05</ele>
        <time>2018-03-25T07:25:56Z</time>
      </trkpt>
      <trkpt lat="46.466356543824077" lon="8.76763416454196">
        <ele>1369.05</ele>
        <time>2018-03-25T07:26:05Z</time>
      </trkpt>
      <trkpt lat="46.466336343437433" lon="8.76764296554029">
        <ele>1369.05</ele>
        <time>2018-03-25T07:26:11Z</time>
      </trkpt>
      <trkpt lat="46.466270629316568" lon="8.767693424597383">
        <ele>1369.54</ele>
        <time>2018-03-25T07:26:19Z</time>
      </trkpt>
      <trkpt lat="46.466161664575338" lon="8.767710858955979">
        <ele>1369.54</ele>
        <time>2018-03-25T07:26:29Z</time>
      </trkpt>
      <trkpt lat="46.466053538024426" lon="8.767709685489535">
        <ele>1369.54</ele>
        <time>2018-03-25T07:26:39Z</time>
      </trkpt>
      <trkpt lat="46.46605915389955" lon="8.767689149826765">
        <ele>1369.54</ele>
        <time>2018-03-25T07:26:50Z</time>
      </trkpt>
      <trkpt lat="46.466034930199385" lon="8.767684455960989">
        <ele>1369.54</ele>
        <time>2018-03-25T07:26:53Z</time>
      </trkpt>
      <trkpt lat="46.465905765071511" lon="8.767649419605732">
        <ele>1369.54</ele>
        <time>2018-03-25T07:27:05Z</time>
      </trkpt>
      <trkpt lat="46.465790597721934" lon="8.767600636929274">
        <ele>1369.54</ele>
        <time>2018-03-25T07:27:16Z</time>
      </trkpt>
      <trkpt lat="46.465695714578032" lon="8.76756283454597">
        <ele>1369.54</ele>
        <time>2018-03-25T07:27:25Z</time>
      </trkpt>
      <trkpt lat="46.465666713193059" lon="8.767560739070177">
        <ele>1369.54</ele>
        <time>2018-03-25T07:27:28Z</time>
      </trkpt>
      <trkpt lat="46.465568896383047" lon="8.767649754881859">
        <ele>1369.05</ele>
        <time>2018-03-25T07:27:40Z</time>
      </trkpt>
      <trkpt lat="46.465539894998074" lon="8.76780565828085">
        <ele>1368.5699999999999</ele>
        <time>2018-03-25T07:27:52Z</time>
      </trkpt>
      <trkpt lat="46.465527825057507" lon="8.767834659665823">
        <ele>1368.5699999999999</ele>
        <time>2018-03-25T07:27:56Z</time>
      </trkpt>
      <trkpt lat="46.465498236939311" lon="8.767903978005052">
        <ele>1368.0899999999999</ele>
        <time>2018-03-25T07:28:01Z</time>
      </trkpt>
      <trkpt lat="46.465419949963689" lon="8.768044039607048">
        <ele>1367.1300000000001</ele>
        <time>2018-03-25T07:28:13Z</time>
      </trkpt>
      <trkpt lat="46.465405449271202" lon="8.76806516200304">
        <ele>1367.1300000000001</ele>
        <time>2018-03-25T07:28:15Z</time>
      </trkpt>
      <trkpt lat="46.465395810082555" lon="8.768089972436428">
        <ele>1366.1700000000001</ele>
        <time>2018-03-25T07:28:17Z</time>
      </trkpt>
      <trkpt lat="46.465346943587065" lon="8.768219221383333">
        <ele>1365.6900000000001</ele>
        <time>2018-03-25T07:28:29Z</time>
      </trkpt>
      <trkpt lat="46.465350296348333" lon="8.768233973532915">
        <ele>1365.6900000000001</ele>
        <time>2018-03-25T07:28:33Z</time>
      </trkpt>
      <trkpt lat="46.465293047949672" lon="8.768294742330909">
        <ele>1365.21</ele>
        <time>2018-03-25T07:28:39Z</time>
      </trkpt>
      <trkpt lat="46.465176371857524" lon="8.768452741205692">
        <ele>1364.25</ele>
        <time>2018-03-25T07:28:52Z</time>
      </trkpt>
      <trkpt lat="46.465145358815789" lon="8.768478976562619">
        <ele>1364.25</ele>
        <time>2018-03-25T07:29:04Z</time>
      </trkpt>
      <trkpt lat="46.465128427371383" lon="8.768489621579647">
        <ele>1364.73</ele>
        <time>2018-03-25T07:29:12Z</time>
      </trkpt>
      <trkpt lat="46.465098923072219" lon="8.768509067595005">
        <ele>1364.73</ele>
        <time>2018-03-25T07:29:16Z</time>
      </trkpt>
      <trkpt lat="46.465044775977731" lon="8.768524657934904">
        <ele>1365.21</ele>
        <time>2018-03-25T07:29:21Z</time>
      </trkpt>
      <trkpt lat="46.464959364384413" lon="8.768540332093835">
        <ele>1367.1300000000001</ele>
        <time>2018-03-25T07:29:32Z</time>
      </trkpt>
      <trkpt lat="46.464889626950026" lon="8.768555084243417">
        <ele>1368.0899999999999</ele>
        <time>2018-03-25T07:29:40Z</time>
      </trkpt>
      <trkpt lat="46.46478577516973" lon="8.768582409247756">
        <ele>1370.5</ele>
        <time>2018-03-25T07:29:51Z</time>
      </trkpt>
      <trkpt lat="46.464701201766729" lon="8.768600597977638">
        <ele>1370.98</ele>
        <time>2018-03-25T07:30:01Z</time>
      </trkpt>
      <trkpt lat="46.464660214260221" lon="8.768601687625051">
        <ele>1371.9400000000001</ele>
        <time>2018-03-25T07:30:06Z</time>
      </trkpt>
      <trkpt lat="46.464634062722325" lon="8.768599843606353">
        <ele>1372.4200000000001</ele>
        <time>2018-03-25T07:30:09Z</time>
      </trkpt>
      <trkpt lat="46.464512022212148" lon="8.768601603806019">
        <ele>1373.8599999999999</ele>
        <time>2018-03-25T07:30:22Z</time>
      </trkpt>
      <trkpt lat="46.464479584246874" lon="8.768615936860442">
        <ele>1374.3399999999999</ele>
        <time>2018-03-25T07:30:26Z</time>
      </trkpt>
      <trkpt lat="46.464407499879599" lon="8.768664468079805">
        <ele>1374.3399999999999</ele>
        <time>2018-03-25T07:30:35Z</time>
      </trkpt>
      <trkpt lat="46.464348575100303" lon="8.768711742013693">
        <ele>1374.8199999999999</ele>
        <time>2018-03-25T07:30:44Z</time>
      </trkpt>
      <trkpt lat="46.464252518489957" lon="8.768738564103842">
        <ele>1376.26</ele>
        <time>2018-03-25T07:30:55Z</time>
      </trkpt>
      <trkpt lat="46.464232401922345" lon="8.768734121695161">
        <ele>1377.23</ele>
        <time>2018-03-25T07:31:04Z</time>
      </trkpt>
      <trkpt lat="46.464206334203482" lon="8.768737558275461">
        <ele>1377.71</ele>
        <time>2018-03-25T07:31:09Z</time>
      </trkpt>
      <trkpt lat="46.464112708345056" lon="8.768775947391987">
        <ele>1378.6700000000001</ele>
        <time>2018-03-25T07:31:20Z</time>
      </trkpt>
      <trkpt lat="46.464029811322689" lon="8.768811738118529">
        <ele>1380.1099999999999</ele>
        <time>2018-03-25T07:31:30Z</time>
      </trkpt>
      <trkpt lat="46.463976418599486" lon="8.768837973475456">
        <ele>1381.0699999999999</ele>
        <time>2018-03-25T07:31:37Z</time>
      </trkpt>
      <trkpt lat="46.463898466899991" lon="8.768893713131547">
        <ele>1382.99</ele>
        <time>2018-03-25T07:31:47Z</time>
      </trkpt>
      <trkpt lat="46.463891342282295" lon="8.768900753930211">
        <ele>1382.51</ele>
        <time>2018-03-25T07:31:48Z</time>
      </trkpt>
      <trkpt lat="46.463838284835219" lon="8.768980214372277">
        <ele>1382.03</ele>
        <time>2018-03-25T07:31:56Z</time>
      </trkpt>
      <trkpt lat="46.463764607906342" lon="8.769075181335211">
        <ele>1382.03</ele>
        <time>2018-03-25T07:32:04Z</time>
      </trkpt>
      <trkpt lat="46.463662516325712" lon="8.769131675362587">
        <ele>1382.99</ele>
        <time>2018-03-25T07:32:14Z</time>
      </trkpt>
      <trkpt lat="46.46356956101954" lon="8.769159251824021">
        <ele>1384.4400000000001</ele>
        <time>2018-03-25T07:32:23Z</time>
      </trkpt>
      <trkpt lat="46.463523795828223" lon="8.769169310107827">
        <ele>1384.4400000000001</ele>
        <time>2018-03-25T07:32:27Z</time>
      </trkpt>
      <trkpt lat="46.463427403941751" lon="8.769145337864757">
        <ele>1385.4000000000001</ele>
        <time>2018-03-25T07:32:36Z</time>
      </trkpt>
      <trkpt lat="46.463320199400187" lon="8.769094292074442">
        <ele>1386.3599999999999</ele>
        <time>2018-03-25T07:32:48Z</time>
      </trkpt>
      <trkpt lat="46.463221460580826" lon="8.769070655107498">
        <ele>1387.8</ele>
        <time>2018-03-25T07:33:01Z</time>
      </trkpt>
      <trkpt lat="46.463178629055619" lon="8.769068978726864">
        <ele>1388.76</ele>
        <time>2018-03-25T07:33:07Z</time>
      </trkpt>
      <trkpt lat="46.463101264089346" lon="8.769076522439718">
        <ele>1389.72</ele>
        <time>2018-03-25T07:33:18Z</time>
      </trkpt>
      <trkpt lat="46.463062791153789" lon="8.769088173285127">
        <ele>1390.2</ele>
        <time>2018-03-25T07:33:22Z</time>
      </trkpt>
      <trkpt lat="46.46295583806932" lon="8.769145924597979">
        <ele>1391.1700000000001</ele>
        <time>2018-03-25T07:33:34Z</time>
      </trkpt>
      <trkpt lat="46.462874533608556" lon="8.769195126369596">
        <ele>1392.1300000000001</ele>
        <time>2018-03-25T07:33:45Z</time>
      </trkpt>
      <trkpt lat="46.462824074551463" lon="8.769205268472433">
        <ele>1393.0899999999999</ele>
        <time>2018-03-25T07:33:53Z</time>
      </trkpt>
      <trkpt lat="46.462798174470663" lon="8.769202921539545">
        <ele>1393.0899999999999</ele>
        <time>2018-03-25T07:33:56Z</time>
      </trkpt>
      <trkpt lat="46.462707063183188" lon="8.769217003136873">
        <ele>1394.05</ele>
        <time>2018-03-25T07:34:08Z</time>
      </trkpt>
      <trkpt lat="46.462653670459986" lon="8.769233850762248">
        <ele>1395.01</ele>
        <time>2018-03-25T07:34:15Z</time>
      </trkpt>
      <trkpt lat="46.462571779266" lon="8.769210213795304">
        <ele>1395.97</ele>
        <time>2018-03-25T07:34:24Z</time>
      </trkpt>
      <trkpt lat="46.462483434006572" lon="8.769185319542885">
        <ele>1396.9300000000001</ele>
        <time>2018-03-25T07:34:35Z</time>
      </trkpt>
      <trkpt lat="46.462420234456658" lon="8.769209291785955">
        <ele>1396.45</ele>
        <time>2018-03-25T07:34:42Z</time>
      </trkpt>
      <trkpt lat="46.462349910289049" lon="8.76924910582602">
        <ele>1397.4100000000001</ele>
        <time>2018-03-25T07:34:52Z</time>
      </trkpt>
      <trkpt lat="46.462283693253994" lon="8.769304761663079">
        <ele>1398.8599999999999</ele>
        <time>2018-03-25T07:35:02Z</time>
      </trkpt>
      <trkpt lat="46.462216470390558" lon="8.769354047253728">
        <ele>1398.8599999999999</ele>
        <time>2018-03-25T07:35:11Z</time>
      </trkpt>
      <trkpt lat="46.462147990241647" lon="8.769428562372923">
        <ele>1398.8599999999999</ele>
        <time>2018-03-25T07:35:19Z</time>
      </trkpt>
      <trkpt lat="46.462069535627961" lon="8.76948120072484">
        <ele>1398.8599999999999</ele>
        <time>2018-03-25T07:35:28Z</time>
      </trkpt>
      <trkpt lat="46.462012371048331" lon="8.769529396668077">
        <ele>1399.8199999999999</ele>
        <time>2018-03-25T07:35:37Z</time>
      </trkpt>
      <trkpt lat="46.461939867585897" lon="8.769580693915486">
        <ele>1399.8199999999999</ele>
        <time>2018-03-25T07:35:45Z</time>
      </trkpt>
      <trkpt lat="46.461870633065701" lon="8.769645318388939">
        <ele>1400.3</ele>
        <time>2018-03-25T07:35:54Z</time>
      </trkpt>
      <trkpt lat="46.461802488192916" lon="8.769710529595614">
        <ele>1399.8199999999999</ele>
        <time>2018-03-25T07:36:02Z</time>
      </trkpt>
      <trkpt lat="46.461734594777226" lon="8.76977632753551">
        <ele>1400.78</ele>
        <time>2018-03-25T07:36:12Z</time>
      </trkpt>
      <trkpt lat="46.461668126285076" lon="8.769834497943521">
        <ele>1401.26</ele>
        <time>2018-03-25T07:36:23Z</time>
      </trkpt>
      <trkpt lat="46.46161699667573" lon="8.769857212901115">
        <ele>1401.74</ele>
        <time>2018-03-25T07:36:31Z</time>
      </trkpt>
      <trkpt lat="46.461631413549185" lon="8.769841119647026">
        <ele>1401.74</ele>
        <time>2018-03-25T07:36:39Z</time>
      </trkpt>
      <trkpt lat="46.46160040050745" lon="8.769823852926493">
        <ele>1401.26</ele>
        <time>2018-03-25T07:36:47Z</time>
      </trkpt>
      <trkpt lat="46.461495961993933" lon="8.769865008071065">
        <ele>1401.74</ele>
        <time>2018-03-25T07:36:57Z</time>
      </trkpt>
      <trkpt lat="46.461457321420312" lon="8.769862409681082">
        <ele>1402.22</ele>
        <time>2018-03-25T07:37:02Z</time>
      </trkpt>
      <trkpt lat="46.46142739802599" lon="8.76982125453651">
        <ele>1402.7</ele>
        <time>2018-03-25T07:37:14Z</time>
      </trkpt>
      <trkpt lat="46.461389595642686" lon="8.769789068028331">
        <ele>1402.7</ele>
        <time>2018-03-25T07:37:21Z</time>
      </trkpt>
      <trkpt lat="46.461344249546528" lon="8.769759396091104">
        <ele>1402.7</ele>
        <time>2018-03-25T07:37:27Z</time>
      </trkpt>
      <trkpt lat="46.461289012804627" lon="8.769752690568566">
        <ele>1403.1800000000001</ele>
        <time>2018-03-25T07:37:38Z</time>
      </trkpt>
      <trkpt lat="46.461269147694111" lon="8.769750259816647">
        <ele>1403.1800000000001</ele>
        <time>2018-03-25T07:37:50Z</time>
      </trkpt>
      <trkpt lat="46.461210725829005" lon="8.76975386403501">
        <ele>1404.1400000000001</ele>
        <time>2018-03-25T07:38:01Z</time>
      </trkpt>
      <trkpt lat="46.461150208488107" lon="8.769747074693441">
        <ele>1405.0999999999999</ele>
        <time>2018-03-25T07:38:07Z</time>
      </trkpt>
      <trkpt lat="46.461019618436694" lon="8.769745733588934">
        <ele>1406.0699999999999</ele>
        <time>2018-03-25T07:38:18Z</time>
      </trkpt>
      <trkpt lat="46.460924651473761" lon="8.76974112354219">
        <ele>1406.55</ele>
        <time>2018-03-25T07:38:27Z</time>
      </trkpt>
      <trkpt lat="46.460915179923177" lon="8.769743051379919">
        <ele>1406.55</ele>
        <time>2018-03-25T07:38:28Z</time>
      </trkpt>
      <trkpt lat="46.460806131362915" lon="8.76974162645638">
        <ele>1407.03</ele>
        <time>2018-03-25T07:38:39Z</time>
      </trkpt>
      <trkpt lat="46.4606964122504" lon="8.76972796395421">
        <ele>1407.99</ele>
        <time>2018-03-25T07:38:49Z</time>
      </trkpt>
      <trkpt lat="46.460603456944227" lon="8.769738273695111">
        <ele>1408.47</ele>
        <time>2018-03-25T07:39:00Z</time>
      </trkpt>
      <trkpt lat="46.460552243515849" lon="8.769744392484427">
        <ele>1407.99</ele>
        <time>2018-03-25T07:39:11Z</time>
      </trkpt>
      <trkpt lat="46.460496922954917" lon="8.769730981439352">
        <ele>1408.47</ele>
        <time>2018-03-25T07:39:20Z</time>
      </trkpt>
      <trkpt lat="46.460489630699158" lon="8.769729556515813">
        <ele>1407.99</ele>
        <time>2018-03-25T07:39:31Z</time>
      </trkpt>
      <trkpt lat="46.460481667891145" lon="8.769762665033341">
        <ele>1407.99</ele>
        <time>2018-03-25T07:39:45Z</time>
      </trkpt>
      <trkpt lat="46.460476722568274" lon="8.769758893176913">
        <ele>1407.03</ele>
        <time>2018-03-25T07:39:55Z</time>
      </trkpt>
      <trkpt lat="46.460474962368608" lon="8.7697474937886">
        <ele>1408.47</ele>
        <time>2018-03-25T07:39:56Z</time>
      </trkpt>
      <trkpt lat="46.460469095036387" lon="8.769746823236346">
        <ele>1407.03</ele>
        <time>2018-03-25T07:39:57Z</time>
      </trkpt>
      <trkpt lat="46.460471861064434" lon="8.769752606749535">
        <ele>1406.55</ele>
        <time>2018-03-25T07:40:12Z</time>
      </trkpt>
      <trkpt lat="46.460504550486803" lon="8.769668536260724">
        <ele>1407.03</ele>
        <time>2018-03-25T07:40:27Z</time>
      </trkpt>
      <trkpt lat="46.460503125563264" lon="8.769646156579256">
        <ele>1406.55</ele>
        <time>2018-03-25T07:40:46Z</time>
      </trkpt>
      <trkpt lat="46.460480326786637" lon="8.769658477976918">
        <ele>1407.03</ele>
        <time>2018-03-25T07:41:04Z</time>
      </trkpt>
      <trkpt lat="46.460448056459427" lon="8.769659567624331">
        <ele>1406.55</ele>
        <time>2018-03-25T07:41:27Z</time>
      </trkpt>
      <trkpt lat="46.460466664284468" lon="8.769690077751875">
        <ele>1407.03</ele>
        <time>2018-03-25T07:41:46Z</time>
      </trkpt>
      <trkpt lat="46.460466831922531" lon="8.769683372229338">
        <ele>1407.03</ele>
        <time>2018-03-25T07:41:54Z</time>
      </trkpt>
      <trkpt lat="46.460455013439059" lon="8.769657807424665">
        <ele>1407.03</ele>
        <time>2018-03-25T07:42:09Z</time>
      </trkpt>
      <trkpt lat="46.460454594343901" lon="8.769591255113483">
        <ele>1408.47</ele>
        <time>2018-03-25T07:42:16Z</time>
      </trkpt>
      <trkpt lat="46.460471022874117" lon="8.769565187394619">
        <ele>1409.4300000000001</ele>
        <time>2018-03-25T07:42:26Z</time>
      </trkpt>
      <trkpt lat="46.46045995876193" lon="8.769566444680095">
        <ele>1409.4300000000001</ele>
        <time>2018-03-25T07:42:40Z</time>
      </trkpt>
      <trkpt lat="46.460435818880796" lon="8.769601481035352">
        <ele>1408.95</ele>
        <time>2018-03-25T07:42:45Z</time>
      </trkpt>
      <trkpt lat="46.460380246862769" lon="8.769615981727839">
        <ele>1407.99</ele>
        <time>2018-03-25T07:42:53Z</time>
      </trkpt>
      <trkpt lat="46.460360800847411" lon="8.769601481035352">
        <ele>1408.47</ele>
        <time>2018-03-25T07:42:59Z</time>
      </trkpt>
      <trkpt lat="46.460349569097161" lon="8.769602319225669">
        <ele>1408.47</ele>
        <time>2018-03-25T07:43:01Z</time>
      </trkpt>
      <trkpt lat="46.460281927138567" lon="8.76960332505405">
        <ele>1408.95</ele>
        <time>2018-03-25T07:43:11Z</time>
      </trkpt>
      <trkpt lat="46.460307324305177" lon="8.769601145759225">
        <ele>1408.47</ele>
        <time>2018-03-25T07:43:16Z</time>
      </trkpt>
      <trkpt lat="46.460353676229715" lon="8.769596116617322">
        <ele>1407.99</ele>
        <time>2018-03-25T07:43:28Z</time>
      </trkpt>
      <trkpt lat="46.460329201072454" lon="8.769595697522163">
        <ele>1407.99</ele>
        <time>2018-03-25T07:43:41Z</time>
      </trkpt>
      <trkpt lat="46.460316460579634" lon="8.769636014476419">
        <ele>1407.99</ele>
        <time>2018-03-25T07:43:53Z</time>
      </trkpt>
      <trkpt lat="46.460334649309516" lon="8.769654538482428">
        <ele>1407.51</ele>
        <time>2018-03-25T07:44:11Z</time>
      </trkpt>
      <trkpt lat="46.46030506119132" lon="8.769678929820657">
        <ele>1406.55</ele>
        <time>2018-03-25T07:44:22Z</time>
      </trkpt>
      <trkpt lat="46.460296930745244" lon="8.769681276753545">
        <ele>1406.55</ele>
        <time>2018-03-25T07:44:33Z</time>
      </trkpt>
      <trkpt lat="46.460325261577964" lon="8.76965562812984">
        <ele>1407.03</ele>
        <time>2018-03-25T07:44:48Z</time>
      </trkpt>
      <trkpt lat="46.460339678451419" lon="8.769655544310808">
        <ele>1407.51</ele>
        <time>2018-03-25T07:44:50Z</time>
      </trkpt>
      <trkpt lat="46.460371781140566" lon="8.769632242619991">
        <ele>1407.51</ele>
        <time>2018-03-25T07:44:59Z</time>
      </trkpt>
      <trkpt lat="46.460371362045407" lon="8.769635343924165">
        <ele>1407.51</ele>
        <time>2018-03-25T07:45:11Z</time>
      </trkpt>
      <trkpt lat="46.460363566875458" lon="8.769642133265734">
        <ele>1407.51</ele>
        <time>2018-03-25T07:45:28Z</time>
      </trkpt>
      <trkpt lat="46.460374295711517" lon="8.769625285640359">
        <ele>1407.51</ele>
        <time>2018-03-25T07:45:45Z</time>
      </trkpt>
      <trkpt lat="46.460357196629047" lon="8.769644815474749">
        <ele>1407.99</ele>
        <time>2018-03-25T07:46:00Z</time>
      </trkpt>
      <trkpt lat="46.460364488884807" lon="8.769632242619991">
        <ele>1407.51</ele>
        <time>2018-03-25T07:46:16Z</time>
      </trkpt>
      <trkpt lat="46.460361974313855" lon="8.769637607038021">
        <ele>1407.51</ele>
        <time>2018-03-25T07:46:31Z</time>
      </trkpt>
      <trkpt lat="46.460363399237394" lon="8.769645988941193">
        <ele>1407.51</ele>
        <time>2018-03-25T07:46:39Z</time>
      </trkpt>
      <trkpt lat="46.460359711199999" lon="8.769641211256385">
        <ele>1407.51</ele>
        <time>2018-03-25T07:46:48Z</time>
      </trkpt>
      <trkpt lat="46.460370272397995" lon="8.769655544310808">
        <ele>1407.51</ele>
        <time>2018-03-25T07:47:09Z</time>
      </trkpt>
      <trkpt lat="46.460365662351251" lon="8.769653029739857">
        <ele>1407.99</ele>
        <time>2018-03-25T07:47:21Z</time>
      </trkpt>
      <trkpt lat="46.460347808897495" lon="8.769651520997286">
        <ele>1407.51</ele>
        <time>2018-03-25T07:47:39Z</time>
      </trkpt>
      <trkpt lat="46.460352167487144" lon="8.769622519612312">
        <ele>1407.99</ele>
        <time>2018-03-25T07:47:50Z</time>
      </trkpt>
      <trkpt lat="46.460354598239064" lon="8.769620005041361">
        <ele>1407.99</ele>
        <time>2018-03-25T07:48:04Z</time>
      </trkpt>
      <trkpt lat="46.460348982363939" lon="8.769632074981928">
        <ele>1407.99</ele>
        <time>2018-03-25T07:48:19Z</time>
      </trkpt>
      <trkpt lat="46.460336744785309" lon="8.769619753584266">
        <ele>1407.99</ele>
        <time>2018-03-25T07:48:25Z</time>
      </trkpt>
      <trkpt lat="46.46024982444942" lon="8.769570719450712">
        <ele>1408.47</ele>
        <time>2018-03-25T07:48:36Z</time>
      </trkpt>
      <trkpt lat="46.460166424512863" lon="8.769508693367243">
        <ele>1407.99</ele>
        <time>2018-03-25T07:48:46Z</time>
      </trkpt>
      <trkpt lat="46.460149325430393" lon="8.769500982016325">
        <ele>1407.99</ele>
        <time>2018-03-25T07:48:48Z</time>
      </trkpt>
      <trkpt lat="46.460084784775972" lon="8.769489750266075">
        <ele>1408.47</ele>
        <time>2018-03-25T07:48:55Z</time>
      </trkpt>
      <trkpt lat="46.460043042898178" lon="8.769476506859064">
        <ele>1408.95</ele>
        <time>2018-03-25T07:49:00Z</time>
      </trkpt>
      <trkpt lat="46.459950758144259" lon="8.769446248188615">
        <ele>1409.4300000000001</ele>
        <time>2018-03-25T07:49:10Z</time>
      </trkpt>
      <trkpt lat="46.459898119792342" lon="8.769444571807981">
        <ele>1409.4300000000001</ele>
        <time>2018-03-25T07:49:18Z</time>
      </trkpt>
      <trkpt lat="46.459894347935915" lon="8.769454210996628">
        <ele>1409.4300000000001</ele>
        <time>2018-03-25T07:49:28Z</time>
      </trkpt>
      <trkpt lat="46.459899712353945" lon="8.769477345049381">
        <ele>1409.4300000000001</ele>
        <time>2018-03-25T07:49:47Z</time>
      </trkpt>
      <trkpt lat="46.459837602451444" lon="8.769429819658399">
        <ele>1408.95</ele>
        <time>2018-03-25T07:49:56Z</time>
      </trkpt>
      <trkpt lat="46.459807343780994" lon="8.76941523514688">
        <ele>1408.95</ele>
        <time>2018-03-25T07:50:00Z</time>
      </trkpt>
      <trkpt lat="46.459758644923568" lon="8.769407523795962">
        <ele>1409.4300000000001</ele>
        <time>2018-03-25T07:50:10Z</time>
      </trkpt>
      <trkpt lat="46.45970843732357" lon="8.769412050023675">
        <ele>1409.9100000000001</ele>
        <time>2018-03-25T07:50:18Z</time>
      </trkpt>
      <trkpt lat="46.459681615233421" lon="8.769396292045713">
        <ele>1409.9100000000001</ele>
        <time>2018-03-25T07:50:22Z</time>
      </trkpt>
      <trkpt lat="46.459617996588349" lon="8.769398555159569">
        <ele>1410.8699999999999</ele>
        <time>2018-03-25T07:50:32Z</time>
      </trkpt>
      <trkpt lat="46.459561670199037" lon="8.76938003115356">
        <ele>1410.8699999999999</ele>
        <time>2018-03-25T07:50:39Z</time>
      </trkpt>
      <trkpt lat="46.459494112059474" lon="8.76935463398695">
        <ele>1411.8299999999999</ele>
        <time>2018-03-25T07:50:47Z</time>
      </trkpt>
      <trkpt lat="46.459481874480844" lon="8.769351113587618">
        <ele>1412.3099999999999</ele>
        <time>2018-03-25T07:50:49Z</time>
      </trkpt>
      <trkpt lat="46.459425045177341" lon="8.769320100545883">
        <ele>1412.79</ele>
        <time>2018-03-25T07:50:55Z</time>
      </trkpt>
      <trkpt lat="46.459350697696209" lon="8.769286489114165">
        <ele>1413.76</ele>
        <time>2018-03-25T07:51:04Z</time>
      </trkpt>
      <trkpt lat="46.45925204269588" lon="8.769239550456405">
        <ele>1414.72</ele>
        <time>2018-03-25T07:51:15Z</time>
      </trkpt>
      <trkpt lat="46.459171995520592" lon="8.769204765558243">
        <ele>1415.6800000000001</ele>
        <time>2018-03-25T07:51:25Z</time>
      </trkpt>
      <trkpt lat="46.459175432100892" lon="8.769215075299144">
        <ele>1415.6800000000001</ele>
        <time>2018-03-25T07:51:35Z</time>
      </trkpt>
      <trkpt lat="46.459134193137288" lon="8.769166460260749">
        <ele>1416.1600000000001</ele>
        <time>2018-03-25T07:51:45Z</time>
      </trkpt>
      <trkpt lat="46.459085494279861" lon="8.769149780273438">
        <ele>1416.6400000000001</ele>
        <time>2018-03-25T07:51:50Z</time>
      </trkpt>
      <trkpt lat="46.458990275859833" lon="8.769109128043056">
        <ele>1418.0799999999999</ele>
        <time>2018-03-25T07:52:01Z</time>
      </trkpt>
      <trkpt lat="46.4589021820575" lon="8.769057830795646">
        <ele>1419.04</ele>
        <time>2018-03-25T07:52:11Z</time>
      </trkpt>
      <trkpt lat="46.45885574631393" lon="8.769040983170271">
        <ele>1419.52</ele>
        <time>2018-03-25T07:52:17Z</time>
      </trkpt>
      <trkpt lat="46.458833701908588" lon="8.769036373123527">
        <ele>1419.52</ele>
        <time>2018-03-25T07:52:19Z</time>
      </trkpt>
      <trkpt lat="46.45880444906652" lon="8.769008545204997">
        <ele>1420</ele>
        <time>2018-03-25T07:52:23Z</time>
      </trkpt>
      <trkpt lat="46.458721049129963" lon="8.768911063671112">
        <ele>1420.49</ele>
        <time>2018-03-25T07:52:34Z</time>
      </trkpt>
      <trkpt lat="46.458667740225792" lon="8.768887342885137">
        <ele>1420.97</ele>
        <time>2018-03-25T07:52:40Z</time>
      </trkpt>
      <trkpt lat="46.45860705524683" lon="8.768892539665103">
        <ele>1421.45</ele>
        <time>2018-03-25T07:52:47Z</time>
      </trkpt>
      <trkpt lat="46.458519715815783" lon="8.768917685374618">
        <ele>1422.4100000000001</ele>
        <time>2018-03-25T07:52:57Z</time>
      </trkpt>
      <trkpt lat="46.458511669188738" lon="8.768923636525869">
        <ele>1422.8900000000001</ele>
        <time>2018-03-25T07:52:59Z</time>
      </trkpt>
      <trkpt lat="46.458481829613447" lon="8.768941070884466">
        <ele>1422.8900000000001</ele>
        <time>2018-03-25T07:53:02Z</time>
      </trkpt>
      <trkpt lat="46.458448302000761" lon="8.768969485536218">
        <ele>1422.8900000000001</ele>
        <time>2018-03-25T07:53:07Z</time>
      </trkpt>
      <trkpt lat="46.458374625071883" lon="8.768989350646734">
        <ele>1423.8499999999999</ele>
        <time>2018-03-25T07:53:16Z</time>
      </trkpt>
      <trkpt lat="46.458352245390415" lon="8.769002007320523">
        <ele>1423.8499999999999</ele>
        <time>2018-03-25T07:53:18Z</time>
      </trkpt>
      <trkpt lat="46.458304217085242" lon="8.768999660387635">
        <ele>1424.3299999999999</ele>
        <time>2018-03-25T07:53:24Z</time>
      </trkpt>
      <trkpt lat="46.45829482935369" lon="8.769006533548236">
        <ele>1424.3299999999999</ele>
        <time>2018-03-25T07:53:25Z</time>
      </trkpt>
      <trkpt lat="46.458204807713628" lon="8.769060680642724">
        <ele>1425.29</ele>
        <time>2018-03-25T07:53:35Z</time>
      </trkpt>
      <trkpt lat="46.458193240687251" lon="8.769099824130535">
        <ele>1425.77</ele>
        <time>2018-03-25T07:53:39Z</time>
      </trkpt>
      <trkpt lat="46.458177817985415" lon="8.769125808030367">
        <ele>1426.25</ele>
        <time>2018-03-25T07:53:41Z</time>
      </trkpt>
      <trkpt lat="46.458127610385418" lon="8.76915187574923">
        <ele>1426.25</ele>
        <time>2018-03-25T07:53:46Z</time>
      </trkpt>
      <trkpt lat="46.458093160763383" lon="8.769162185490131">
        <ele>1426.25</ele>
        <time>2018-03-25T07:53:49Z</time>
      </trkpt>
      <trkpt lat="46.457999618723989" lon="8.769184816628695">
        <ele>1426.73</ele>
        <time>2018-03-25T07:53:59Z</time>
      </trkpt>
      <trkpt lat="46.457919655367732" lon="8.769198395311832">
        <ele>1427.21</ele>
        <time>2018-03-25T07:54:08Z</time>
      </trkpt>
      <trkpt lat="46.457906160503626" lon="8.769199317321181">
        <ele>1427.21</ele>
        <time>2018-03-25T07:54:09Z</time>
      </trkpt>
      <trkpt lat="46.457859892398119" lon="8.769186241552234">
        <ele>1427.7</ele>
        <time>2018-03-25T07:54:15Z</time>
      </trkpt>
      <trkpt lat="46.457813121378422" lon="8.769170735031366">
        <ele>1427.7</ele>
        <time>2018-03-25T07:54:19Z</time>
      </trkpt>
      <trkpt lat="46.457758219912648" lon="8.769156150519848">
        <ele>1428.1800000000001</ele>
        <time>2018-03-25T07:54:26Z</time>
      </trkpt>
      <trkpt lat="46.457658056169748" lon="8.769170651212335">
        <ele>1428.6600000000001</ele>
        <time>2018-03-25T07:54:36Z</time>
      </trkpt>
      <trkpt lat="46.457589995115995" lon="8.769226390868425">
        <ele>1430.0999999999999</ele>
        <time>2018-03-25T07:54:45Z</time>
      </trkpt>
      <trkpt lat="46.457581613212824" lon="8.769230162724853">
        <ele>1430.5799999999999</ele>
        <time>2018-03-25T07:54:46Z</time>
      </trkpt>
      <trkpt lat="46.457565855234861" lon="8.769231252372265">
        <ele>1430.5799999999999</ele>
        <time>2018-03-25T07:54:48Z</time>
      </trkpt>
      <trkpt lat="46.457505002617836" lon="8.769243573769927">
        <ele>1431.0599999999999</ele>
        <time>2018-03-25T07:54:56Z</time>
      </trkpt>
      <trkpt lat="46.457495279610157" lon="8.769247261807323">
        <ele>1431.0599999999999</ele>
        <time>2018-03-25T07:54:57Z</time>
      </trkpt>
      <trkpt lat="46.45748320966959" lon="8.769250530749559">
        <ele>1431.0599999999999</ele>
        <time>2018-03-25T07:54:58Z</time>
      </trkpt>
      <trkpt lat="46.457418166100979" lon="8.769253129139543">
        <ele>1431.54</ele>
        <time>2018-03-25T07:55:06Z</time>
      </trkpt>
      <trkpt lat="46.457384806126356" lon="8.769253883510828">
        <ele>1432.02</ele>
        <time>2018-03-25T07:55:12Z</time>
      </trkpt>
      <trkpt lat="46.457314230501652" lon="8.769309539347887">
        <ele>1432.5</ele>
        <time>2018-03-25T07:55:22Z</time>
      </trkpt>
      <trkpt lat="46.457241307944059" lon="8.76936879940331">
        <ele>1432.5</ele>
        <time>2018-03-25T07:55:32Z</time>
      </trkpt>
      <trkpt lat="46.457157656550407" lon="8.769455133005977">
        <ele>1432.98</ele>
        <time>2018-03-25T07:55:43Z</time>
      </trkpt>
      <trkpt lat="46.457117423415184" lon="8.769468208774924">
        <ele>1433.46</ele>
        <time>2018-03-25T07:55:47Z</time>
      </trkpt>
      <trkpt lat="46.457025473937392" lon="8.769433507695794">
        <ele>1433.9400000000001</ele>
        <time>2018-03-25T07:55:57Z</time>
      </trkpt>
      <trkpt lat="46.456994796171784" lon="8.769429819658399">
        <ele>1434.4200000000001</ele>
        <time>2018-03-25T07:56:01Z</time>
      </trkpt>
      <trkpt lat="46.456905528903008" lon="8.769399896264076">
        <ele>1434.9100000000001</ele>
        <time>2018-03-25T07:56:11Z</time>
      </trkpt>
      <trkpt lat="46.456868899986148" lon="8.769409116357565">
        <ele>1435.3900000000001</ele>
        <time>2018-03-25T07:56:16Z</time>
      </trkpt>
      <trkpt lat="46.456788433715701" lon="8.769399980083108">
        <ele>1435.3900000000001</ele>
        <time>2018-03-25T07:56:25Z</time>
      </trkpt>
      <trkpt lat="46.456692712381482" lon="8.769421940669417">
        <ele>1435.3900000000001</ele>
        <time>2018-03-25T07:56:35Z</time>
      </trkpt>
      <trkpt lat="46.456634039059281" lon="8.769411128014326">
        <ele>1435.3900000000001</ele>
        <time>2018-03-25T07:56:42Z</time>
      </trkpt>
      <trkpt lat="46.456552399322391" lon="8.769354550167918">
        <ele>1437.3099999999999</ele>
        <time>2018-03-25T07:56:52Z</time>
      </trkpt>
      <trkpt lat="46.456492887809873" lon="8.769317921251059">
        <ele>1438.75</ele>
        <time>2018-03-25T07:57:01Z</time>
      </trkpt>
      <trkpt lat="46.456471094861627" lon="8.769314484670758">
        <ele>1439.23</ele>
        <time>2018-03-25T07:57:03Z</time>
      </trkpt>
      <trkpt lat="46.45638870075345" lon="8.769280202686787">
        <ele>1439.71</ele>
        <time>2018-03-25T07:57:13Z</time>
      </trkpt>
      <trkpt lat="46.456352658569813" lon="8.769266540184617">
        <ele>1440.1900000000001</ele>
        <time>2018-03-25T07:57:17Z</time>
      </trkpt>
      <trkpt lat="46.456281915307045" lon="8.769222786650062">
        <ele>1441.1500000000001</ele>
        <time>2018-03-25T07:57:27Z</time>
      </trkpt>
      <trkpt lat="46.45619566552341" lon="8.769182553514838">
        <ele>1441.6300000000001</ele>
        <time>2018-03-25T07:57:37Z</time>
      </trkpt>
      <trkpt lat="46.456096172332764" lon="8.769139889627695">
        <ele>1442.5999999999999</ele>
        <time>2018-03-25T07:57:48Z</time>
      </trkpt>
      <trkpt lat="46.456069182604551" lon="8.769134441390634">
        <ele>1442.5999999999999</ele>
        <time>2018-03-25T07:57:51Z</time>
      </trkpt>
      <trkpt lat="46.455968851223588" lon="8.769095297902823">
        <ele>1443.5599999999999</ele>
        <time>2018-03-25T07:58:02Z</time>
      </trkpt>
      <trkpt lat="46.455904142931104" lon="8.769045090302825">
        <ele>1444.04</ele>
        <time>2018-03-25T07:58:09Z</time>
      </trkpt>
      <trkpt lat="46.455842116847634" lon="8.768979208543897">
        <ele>1445.48</ele>
        <time>2018-03-25T07:58:19Z</time>
      </trkpt>
      <trkpt lat="46.455763159319758" lon="8.768951715901494">
        <ele>1445.48</ele>
        <time>2018-03-25T07:58:29Z</time>
      </trkpt>
      <trkpt lat="46.455697361379862" lon="8.768931599333882">
        <ele>1446.4400000000001</ele>
        <time>2018-03-25T07:58:39Z</time>
      </trkpt>
      <trkpt lat="46.455661067739129" lon="8.76897937618196">
        <ele>1446.4400000000001</ele>
        <time>2018-03-25T07:58:44Z</time>
      </trkpt>
      <trkpt lat="46.45556534640491" lon="8.769074510782957">
        <ele>1446.9200000000001</ele>
        <time>2018-03-25T07:58:55Z</time>
      </trkpt>
      <trkpt lat="46.455485885962844" lon="8.769049197435379">
        <ele>1447.8800000000001</ele>
        <time>2018-03-25T07:59:04Z</time>
      </trkpt>
      <trkpt lat="46.455459985882044" lon="8.769042911008">
        <ele>1447.4000000000001</ele>
        <time>2018-03-25T07:59:12Z</time>
      </trkpt>
      <trkpt lat="46.455371556803584" lon="8.76904584467411">
        <ele>1447.4000000000001</ele>
        <time>2018-03-25T07:59:22Z</time>
      </trkpt>
      <trkpt lat="46.455349428579211" lon="8.769003767520189">
        <ele>1447.8800000000001</ele>
        <time>2018-03-25T07:59:35Z</time>
      </trkpt>
      <trkpt lat="46.455341298133135" lon="8.769008880481124">
        <ele>1447.4000000000001</ele>
        <time>2018-03-25T07:59:38Z</time>
      </trkpt>
      <trkpt lat="46.455269465222955" lon="8.768921373412013">
        <ele>1448.3599999999999</ele>
        <time>2018-03-25T07:59:50Z</time>
      </trkpt>
      <trkpt lat="46.455203583464026" lon="8.768904022872448">
        <ele>1449.3199999999999</ele>
        <time>2018-03-25T07:59:59Z</time>
      </trkpt>
      <trkpt lat="46.455130996182561" lon="8.768895892426372">
        <ele>1451.73</ele>
        <time>2018-03-25T08:00:09Z</time>
      </trkpt>
      <trkpt lat="46.455087661743164" lon="8.768882732838392">
        <ele>1451.25</ele>
        <time>2018-03-25T08:00:13Z</time>
      </trkpt>
      <trkpt lat="46.455008201301098" lon="8.768823724240065">
        <ele>1452.6900000000001</ele>
        <time>2018-03-25T08:00:24Z</time>
      </trkpt>
      <trkpt lat="46.454938799142838" lon="8.768773349002004">
        <ele>1454.1300000000001</ele>
        <time>2018-03-25T08:00:33Z</time>
      </trkpt>
      <trkpt lat="46.454881215468049" lon="8.768725069239736">
        <ele>1455.0899999999999</ele>
        <time>2018-03-25T08:00:43Z</time>
      </trkpt>
      <trkpt lat="46.454870821908116" lon="8.768716184422374">
        <ele>1455.0899999999999</ele>
        <time>2018-03-25T08:00:44Z</time>
      </trkpt>
      <trkpt lat="46.454789349809289" lon="8.768685171380639">
        <ele>1455.0899999999999</ele>
        <time>2018-03-25T08:00:54Z</time>
      </trkpt>
      <trkpt lat="46.45477426238358" lon="8.768689194694161">
        <ele>1455.0899999999999</ele>
        <time>2018-03-25T08:00:56Z</time>
      </trkpt>
      <trkpt lat="46.454714834690094" lon="8.768750801682472">
        <ele>1454.6099999999999</ele>
        <time>2018-03-25T08:01:03Z</time>
      </trkpt>
      <trkpt lat="46.454722378402948" lon="8.768754573538899">
        <ele>1454.1300000000001</ele>
        <time>2018-03-25T08:01:11Z</time>
      </trkpt>
      <trkpt lat="46.454701004549861" lon="8.76876630820334">
        <ele>1454.6099999999999</ele>
        <time>2018-03-25T08:01:26Z</time>
      </trkpt>
      <trkpt lat="46.454682648181915" lon="8.768709395080805">
        <ele>1454.6099999999999</ele>
        <time>2018-03-25T08:01:37Z</time>
      </trkpt>
      <trkpt lat="46.454680971801281" lon="8.768701935186982">
        <ele>1455.0899999999999</ele>
        <time>2018-03-25T08:01:50Z</time>
      </trkpt>
      <trkpt lat="46.4546765293926" lon="8.768714843317866">
        <ele>1455.5699999999999</ele>
        <time>2018-03-25T08:02:03Z</time>
      </trkpt>
      <trkpt lat="46.454685498028994" lon="8.7687062099576">
        <ele>1455.5699999999999</ele>
        <time>2018-03-25T08:02:15Z</time>
      </trkpt>
      <trkpt lat="46.454644091427326" lon="8.768722219392657">
        <ele>1456.05</ele>
        <time>2018-03-25T08:02:28Z</time>
      </trkpt>
      <trkpt lat="46.454627327620983" lon="8.768758932128549">
        <ele>1456.05</ele>
        <time>2018-03-25T08:02:41Z</time>
      </trkpt>
      <trkpt lat="46.454625986516476" lon="8.768740994855762">
        <ele>1456.53</ele>
        <time>2018-03-25T08:02:51Z</time>
      </trkpt>
      <trkpt lat="46.454613665118814" lon="8.768700761720538">
        <ele>1456.05</ele>
        <time>2018-03-25T08:03:06Z</time>
      </trkpt>
      <trkpt lat="46.454627411440015" lon="8.768704030662775">
        <ele>1456.05</ele>
        <time>2018-03-25T08:03:19Z</time>
      </trkpt>
      <trkpt lat="46.454559098929167" lon="8.768719956278801">
        <ele>1457.5</ele>
        <time>2018-03-25T08:03:29Z</time>
      </trkpt>
      <trkpt lat="46.454533282667398" lon="8.768739234656096">
        <ele>1457.5</ele>
        <time>2018-03-25T08:03:32Z</time>
      </trkpt>
      <trkpt lat="46.454461449757218" lon="8.768753232434392">
        <ele>1457.5</ele>
        <time>2018-03-25T08:03:40Z</time>
      </trkpt>
      <trkpt lat="46.454380815848708" lon="8.768710987642407">
        <ele>1458.46</ele>
        <time>2018-03-25T08:03:50Z</time>
      </trkpt>
      <trkpt lat="46.454326333478093" lon="8.768604788929224">
        <ele>1459.4200000000001</ele>
        <time>2018-03-25T08:04:00Z</time>
      </trkpt>
      <trkpt lat="46.454288698732853" lon="8.768537566065788">
        <ele>1462.78</ele>
        <time>2018-03-25T08:04:10Z</time>
      </trkpt>
      <trkpt lat="46.454244693741202" lon="8.768443604931235">
        <ele>1462.78</ele>
        <time>2018-03-25T08:04:21Z</time>
      </trkpt>
      <trkpt lat="46.45420940592885" lon="8.768321564421058">
        <ele>1465.1900000000001</ele>
        <time>2018-03-25T08:04:33Z</time>
      </trkpt>
      <trkpt lat="46.45416833460331" lon="8.768223077058792">
        <ele>1467.1099999999999</ele>
        <time>2018-03-25T08:04:44Z</time>
      </trkpt>
      <trkpt lat="46.45412340760231" lon="8.768183346837759">
        <ele>1468.0699999999999</ele>
        <time>2018-03-25T08:04:54Z</time>
      </trkpt>
      <trkpt lat="46.454088790342212" lon="8.768140515312553">
        <ele>1469.03</ele>
        <time>2018-03-25T08:05:03Z</time>
      </trkpt>
      <trkpt lat="46.45408233627677" lon="8.768141269683838">
        <ele>1469.51</ele>
        <time>2018-03-25T08:05:04Z</time>
      </trkpt>
      <trkpt lat="46.454035816714168" lon="8.76812819391489">
        <ele>1470.47</ele>
        <time>2018-03-25T08:05:12Z</time>
      </trkpt>
      <trkpt lat="46.453962558880448" lon="8.768103383481503">
        <ele>1471.9200000000001</ele>
        <time>2018-03-25T08:05:22Z</time>
      </trkpt>
      <trkpt lat="46.453890055418015" lon="8.768080500885844">
        <ele>1471.9200000000001</ele>
        <time>2018-03-25T08:05:30Z</time>
      </trkpt>
      <trkpt lat="46.453853258863091" lon="8.768061473965645">
        <ele>1472.8800000000001</ele>
        <time>2018-03-25T08:05:39Z</time>
      </trkpt>
      <trkpt lat="46.453788131475449" lon="8.768067508935928">
        <ele>1474.3199999999999</ele>
        <time>2018-03-25T08:05:51Z</time>
      </trkpt>
      <trkpt lat="46.453740103170276" lon="8.768092235550284">
        <ele>1474.3199999999999</ele>
        <time>2018-03-25T08:05:57Z</time>
      </trkpt>
      <trkpt lat="46.453657625243068" lon="8.768069772049785">
        <ele>1474.8</ele>
        <time>2018-03-25T08:06:07Z</time>
      </trkpt>
      <trkpt lat="46.453626779839396" lon="8.768056612461805">
        <ele>1474.8</ele>
        <time>2018-03-25T08:06:10Z</time>
      </trkpt>
      <trkpt lat="46.453615967184305" lon="8.768048984929919">
        <ele>1476.72</ele>
        <time>2018-03-25T08:06:11Z</time>
      </trkpt>
      <trkpt lat="46.453542374074459" lon="8.768011014908552">
        <ele>1476.24</ele>
        <time>2018-03-25T08:06:20Z</time>
      </trkpt>
      <trkpt lat="46.453512366861105" lon="8.767958879470825">
        <ele>1476.72</ele>
        <time>2018-03-25T08:06:29Z</time>
      </trkpt>
      <trkpt lat="46.453448748216033" lon="8.767825271934271">
        <ele>1479.1300000000001</ele>
        <time>2018-03-25T08:06:45Z</time>
      </trkpt>
      <trkpt lat="46.453400887548923" lon="8.76772846095264">
        <ele>1479.6099999999999</ele>
        <time>2018-03-25T08:06:56Z</time>
      </trkpt>
      <trkpt lat="46.453373143449426" lon="8.767625447362661">
        <ele>1480.5699999999999</ele>
        <time>2018-03-25T08:07:05Z</time>
      </trkpt>
      <trkpt lat="46.453362666070461" lon="8.767544226720929">
        <ele>1480.5699999999999</ele>
        <time>2018-03-25T08:07:14Z</time>
      </trkpt>
      <trkpt lat="46.45337138324976" lon="8.767490163445473">
        <ele>1480.5699999999999</ele>
        <time>2018-03-25T08:07:20Z</time>
      </trkpt>
      <trkpt lat="46.453379597514868" lon="8.767353957518935">
        <ele>1482.01</ele>
        <time>2018-03-25T08:07:29Z</time>
      </trkpt>
      <trkpt lat="46.453381357714534" lon="8.767237113788724">
        <ele>1482.97</ele>
        <time>2018-03-25T08:07:37Z</time>
      </trkpt>
      <trkpt lat="46.453364929184318" lon="8.767102416604757">
        <ele>1482.97</ele>
        <time>2018-03-25T08:07:48Z</time>
      </trkpt>
      <trkpt lat="46.453376580029726" lon="8.767024716362357">
        <ele>1483.45</ele>
        <time>2018-03-25T08:07:54Z</time>
      </trkpt>
      <trkpt lat="46.453377585858107" lon="8.767011137679219">
        <ele>1483.45</ele>
        <time>2018-03-25T08:07:55Z</time>
      </trkpt>
      <trkpt lat="46.453366270288825" lon="8.76690418459475">
        <ele>1483.45</ele>
        <time>2018-03-25T08:08:03Z</time>
      </trkpt>
      <trkpt lat="46.453367779031396" lon="8.766892198473215">
        <ele>1483.9300000000001</ele>
        <time>2018-03-25T08:08:04Z</time>
      </trkpt>
      <trkpt lat="46.453369539231062" lon="8.76688021235168">
        <ele>1483.45</ele>
        <time>2018-03-25T08:08:05Z</time>
      </trkpt>
      <trkpt lat="46.453372053802013" lon="8.766744090244174">
        <ele>1483.9300000000001</ele>
        <time>2018-03-25T08:08:15Z</time>
      </trkpt>
      <trkpt lat="46.453369790688157" lon="8.766628671437502">
        <ele>1484.4100000000001</ele>
        <time>2018-03-25T08:08:24Z</time>
      </trkpt>
      <trkpt lat="46.453347997739911" lon="8.766549713909626">
        <ele>1485.3699999999999</ele>
        <time>2018-03-25T08:08:34Z</time>
      </trkpt>
      <trkpt lat="46.453346824273467" lon="8.766548624262214">
        <ele>1485.3699999999999</ele>
        <time>2018-03-25T08:08:48Z</time>
      </trkpt>
      <trkpt lat="46.453371215611696" lon="8.766536386683583">
        <ele>1485.3699999999999</ele>
        <time>2018-03-25T08:08:59Z</time>
      </trkpt>
      <trkpt lat="46.45336844958365" lon="8.766529178246856">
        <ele>1485.8499999999999</ele>
        <time>2018-03-25T08:09:10Z</time>
      </trkpt>
      <trkpt lat="46.453355457633734" lon="8.766501685604453">
        <ele>1485.8499999999999</ele>
        <time>2018-03-25T08:09:17Z</time>
      </trkpt>
      <trkpt lat="46.453361492604017" lon="8.766464637592435">
        <ele>1486.3399999999999</ele>
        <time>2018-03-25T08:09:20Z</time>
      </trkpt>
      <trkpt lat="46.453377166762948" lon="8.766408814117312">
        <ele>1486.3399999999999</ele>
        <time>2018-03-25T08:09:25Z</time>
      </trkpt>
      <trkpt lat="46.453364090994" lon="8.766328850761056">
        <ele>1486.8199999999999</ele>
        <time>2018-03-25T08:09:31Z</time>
      </trkpt>
      <trkpt lat="46.45335528999567" lon="8.766269171610475">
        <ele>1487.3</ele>
        <time>2018-03-25T08:09:37Z</time>
      </trkpt>
      <trkpt lat="46.453318577259779" lon="8.766207229346037">
        <ele>1488.26</ele>
        <time>2018-03-25T08:09:49Z</time>
      </trkpt>
      <trkpt lat="46.453323354944587" lon="8.766176551580429">
        <ele>1488.26</ele>
        <time>2018-03-25T08:10:01Z</time>
      </trkpt>
      <trkpt lat="46.453277673572302" lon="8.766110586002469">
        <ele>1488.74</ele>
        <time>2018-03-25T08:10:11Z</time>
      </trkpt>
      <trkpt lat="46.453258395195007" lon="8.766079153865576">
        <ele>1489.22</ele>
        <time>2018-03-25T08:10:21Z</time>
      </trkpt>
      <trkpt lat="46.453206427395344" lon="8.765987204387784">
        <ele>1489.7</ele>
        <time>2018-03-25T08:10:30Z</time>
      </trkpt>
      <trkpt lat="46.453175833448768" lon="8.765926938503981">
        <ele>1489.7</ele>
        <time>2018-03-25T08:10:36Z</time>
      </trkpt>
      <trkpt lat="46.453150771558285" lon="8.765893829986453">
        <ele>1490.1800000000001</ele>
        <time>2018-03-25T08:10:40Z</time>
      </trkpt>
      <trkpt lat="46.453079609200358" lon="8.765832390636206">
        <ele>1491.1400000000001</ele>
        <time>2018-03-25T08:10:52Z</time>
      </trkpt>
      <trkpt lat="46.453044405207038" lon="8.765833983197808">
        <ele>1491.6199999999999</ele>
        <time>2018-03-25T08:10:55Z</time>
      </trkpt>
      <trkpt lat="46.453014146536589" lon="8.765816213563085">
        <ele>1491.6199999999999</ele>
        <time>2018-03-25T08:10:59Z</time>
      </trkpt>
      <trkpt lat="46.452946253120899" lon="8.765806322917342">
        <ele>1492.0999999999999</ele>
        <time>2018-03-25T08:11:08Z</time>
      </trkpt>
      <trkpt lat="46.452856650575995" lon="8.765783105045557">
        <ele>1493.55</ele>
        <time>2018-03-25T08:11:17Z</time>
      </trkpt>
      <trkpt lat="46.452755564823747" lon="8.765690652653575">
        <ele>1494.03</ele>
        <time>2018-03-25T08:11:28Z</time>
      </trkpt>
      <trkpt lat="46.452697142958641" lon="8.765630386769772">
        <ele>1494.03</ele>
        <time>2018-03-25T08:11:37Z</time>
      </trkpt>
      <trkpt lat="46.45268926396966" lon="8.765626614913344">
        <ele>1494.51</ele>
        <time>2018-03-25T08:11:38Z</time>
      </trkpt>
      <trkpt lat="46.452607875689864" lon="8.765549836680293">
        <ele>1494.99</ele>
        <time>2018-03-25T08:11:48Z</time>
      </trkpt>
      <trkpt lat="46.452534198760986" lon="8.765496527776122">
        <ele>1495.95</ele>
        <time>2018-03-25T08:11:58Z</time>
      </trkpt>
      <trkpt lat="46.452501090243459" lon="8.765449253842235">
        <ele>1495.95</ele>
        <time>2018-03-25T08:12:09Z</time>
      </trkpt>
      <trkpt lat="46.452505197376013" lon="8.765382533892989">
        <ele>1495.95</ele>
        <time>2018-03-25T08:12:24Z</time>
      </trkpt>
      <trkpt lat="46.45246353931725" lon="8.765359735116363">
        <ele>1496.4300000000001</ele>
        <time>2018-03-25T08:12:42Z</time>
      </trkpt>
      <trkpt lat="46.452450128272176" lon="8.765401225537062">
        <ele>1495.95</ele>
        <time>2018-03-25T08:13:02Z</time>
      </trkpt>
      <trkpt lat="46.452463287860155" lon="8.765426706522703">
        <ele>1496.4300000000001</ele>
        <time>2018-03-25T08:13:18Z</time>
      </trkpt>
      <trkpt lat="46.452469993382692" lon="8.765438692644239">
        <ele>1496.4300000000001</ele>
        <time>2018-03-25T08:13:35Z</time>
      </trkpt>
      <trkpt lat="46.452409476041794" lon="8.765468699857593">
        <ele>1496.4300000000001</ele>
        <time>2018-03-25T08:13:52Z</time>
      </trkpt>
      <trkpt lat="46.452436801046133" lon="8.765434334054589">
        <ele>1495.95</ele>
        <time>2018-03-25T08:14:10Z</time>
      </trkpt>
      <trkpt lat="46.452455744147301" lon="8.765411954373121">
        <ele>1496.4300000000001</ele>
        <time>2018-03-25T08:14:31Z</time>
      </trkpt>
      <trkpt lat="46.452441494911909" lon="8.765447745099664">
        <ele>1496.4300000000001</ele>
        <time>2018-03-25T08:14:49Z</time>
      </trkpt>
      <trkpt lat="46.452465215697885" lon="8.765445565804839">
        <ele>1496.9100000000001</ele>
        <time>2018-03-25T08:15:08Z</time>
      </trkpt>
      <trkpt lat="46.452459180727601" lon="8.765431232750416">
        <ele>1496.9100000000001</ele>
        <time>2018-03-25T08:15:22Z</time>
      </trkpt>
      <trkpt lat="46.452427664771676" lon="8.765388233587146">
        <ele>1497.3900000000001</ele>
        <time>2018-03-25T08:15:31Z</time>
      </trkpt>
      <trkpt lat="46.452336134389043" lon="8.765316400676966">
        <ele>1498.8299999999999</ele>
        <time>2018-03-25T08:15:43Z</time>
      </trkpt>
      <trkpt lat="46.452292297035456" lon="8.765291506424546">
        <ele>1499.3099999999999</ele>
        <time>2018-03-25T08:15:51Z</time>
      </trkpt>
      <trkpt lat="46.452245861291885" lon="8.765253871679306">
        <ele>1499.79</ele>
        <time>2018-03-25T08:15:59Z</time>
      </trkpt>
      <trkpt lat="46.452231109142303" lon="8.765265606343746">
        <ele>1500.27</ele>
        <time>2018-03-25T08:16:07Z</time>
      </trkpt>
      <trkpt lat="46.45212784409523" lon="8.765195198357105">
        <ele>1502.2</ele>
        <time>2018-03-25T08:16:19Z</time>
      </trkpt>
      <trkpt lat="46.452103955671191" lon="8.765188492834568">
        <ele>1501.72</ele>
        <time>2018-03-25T08:16:21Z</time>
      </trkpt>
      <trkpt lat="46.452017957344651" lon="8.765116240829229">
        <ele>1502.2</ele>
        <time>2018-03-25T08:16:31Z</time>
      </trkpt>
      <trkpt lat="46.452010162174702" lon="8.765100315213203">
        <ele>1502.6800000000001</ele>
        <time>2018-03-25T08:16:32Z</time>
      </trkpt>
      <trkpt lat="46.451949309557676" lon="8.764989757910371">
        <ele>1504.1199999999999</ele>
        <time>2018-03-25T08:16:43Z</time>
      </trkpt>
      <trkpt lat="46.451888708397746" lon="8.764906777068973">
        <ele>1505.0799999999999</ele>
        <time>2018-03-25T08:16:52Z</time>
      </trkpt>
      <trkpt lat="46.451847134158015" lon="8.764797057956457">
        <ele>1505.0799999999999</ele>
        <time>2018-03-25T08:17:02Z</time>
      </trkpt>
      <trkpt lat="46.451818887144327" lon="8.76465062610805">
        <ele>1506.04</ele>
        <time>2018-03-25T08:17:14Z</time>
      </trkpt>
      <trkpt lat="46.451796675100923" lon="8.76450159586966">
        <ele>1506.52</ele>
        <time>2018-03-25T08:17:25Z</time>
      </trkpt>
      <trkpt lat="46.451753340661526" lon="8.764336220920086">
        <ele>1507.48</ele>
        <time>2018-03-25T08:17:37Z</time>
      </trkpt>
      <trkpt lat="46.451725848019123" lon="8.764218958094716">
        <ele>1508.45</ele>
        <time>2018-03-25T08:17:50Z</time>
      </trkpt>
      <trkpt lat="46.451758872717619" lon="8.764214348047972">
        <ele>1507.97</ele>
        <time>2018-03-25T08:18:05Z</time>
      </trkpt>
      <trkpt lat="46.451729703694582" lon="8.76420789398253">
        <ele>1508.45</ele>
        <time>2018-03-25T08:18:23Z</time>
      </trkpt>
      <trkpt lat="46.451710676774383" lon="8.764173360541463">
        <ele>1508.45</ele>
        <time>2018-03-25T08:18:38Z</time>
      </trkpt>
      <trkpt lat="46.451702127233148" lon="8.764174114912748">
        <ele>1508.9300000000001</ele>
        <time>2018-03-25T08:18:50Z</time>
      </trkpt>
      <trkpt lat="46.451682765036821" lon="8.764106137678027">
        <ele>1508.9300000000001</ele>
        <time>2018-03-25T08:19:00Z</time>
      </trkpt>
      <trkpt lat="46.451645046472549" lon="8.764014355838299">
        <ele>1509.8900000000001</ele>
        <time>2018-03-25T08:19:10Z</time>
      </trkpt>
      <trkpt lat="46.451570447534323" lon="8.763903379440308">
        <ele>1511.8099999999999</ele>
        <time>2018-03-25T08:19:22Z</time>
      </trkpt>
      <trkpt lat="46.451561897993088" lon="8.763838922604919">
        <ele>1512.29</ele>
        <time>2018-03-25T08:19:26Z</time>
      </trkpt>
      <trkpt lat="46.45154538564384" lon="8.763803550973535">
        <ele>1512.77</ele>
        <time>2018-03-25T08:19:29Z</time>
      </trkpt>
      <trkpt lat="46.451460057869554" lon="8.763765664771199">
        <ele>1512.77</ele>
        <time>2018-03-25T08:19:41Z</time>
      </trkpt>
      <trkpt lat="46.451449831947684" lon="8.763742363080382">
        <ele>1513.25</ele>
        <time>2018-03-25T08:19:43Z</time>
      </trkpt>
      <trkpt lat="46.451368946582079" lon="8.763698190450668">
        <ele>1513.73</ele>
        <time>2018-03-25T08:19:54Z</time>
      </trkpt>
      <trkpt lat="46.451306585222483" lon="8.763667512685061">
        <ele>1513.25</ele>
        <time>2018-03-25T08:20:03Z</time>
      </trkpt>
      <trkpt lat="46.451262161135674" lon="8.763625435531139">
        <ele>1515.1800000000001</ele>
        <time>2018-03-25T08:20:15Z</time>
      </trkpt>
      <trkpt lat="46.451181108132005" lon="8.763490570709109">
        <ele>1515.6600000000001</ele>
        <time>2018-03-25T08:20:27Z</time>
      </trkpt>
      <trkpt lat="46.451118998229504" lon="8.763422342017293">
        <ele>1516.6199999999999</ele>
        <time>2018-03-25T08:20:35Z</time>
      </trkpt>
      <trkpt lat="46.451051188632846" lon="8.763335673138499">
        <ele>1517.5799999999999</ele>
        <time>2018-03-25T08:20:48Z</time>
      </trkpt>
      <trkpt lat="46.450987150892615" lon="8.763292757794261">
        <ele>1518.0599999999999</ele>
        <time>2018-03-25T08:20:57Z</time>
      </trkpt>
      <trkpt lat="46.450965441763401" lon="8.763240454718471">
        <ele>1518.54</ele>
        <time>2018-03-25T08:21:08Z</time>
      </trkpt>
      <trkpt lat="46.450903918594122" lon="8.763149594888091">
        <ele>1519.5</ele>
        <time>2018-03-25T08:21:17Z</time>
      </trkpt>
      <trkpt lat="46.45088329911232" lon="8.763145906850696">
        <ele>1519.98</ele>
        <time>2018-03-25T08:21:20Z</time>
      </trkpt>
      <trkpt lat="46.450839713215828" lon="8.763055047020316">
        <ele>1520.46</ele>
        <time>2018-03-25T08:21:31Z</time>
      </trkpt>
      <trkpt lat="46.450813477858901" lon="8.763007940724492">
        <ele>1520.9400000000001</ele>
        <time>2018-03-25T08:21:37Z</time>
      </trkpt>
      <trkpt lat="46.450739968568087" lon="8.76294918358326">
        <ele>1521.4200000000001</ele>
        <time>2018-03-25T08:21:47Z</time>
      </trkpt>
      <trkpt lat="46.450697807595134" lon="8.76292915083468">
        <ele>1521.9000000000001</ele>
        <time>2018-03-25T08:21:56Z</time>
      </trkpt>
      <trkpt lat="46.450662016868591" lon="8.762893192470074">
        <ele>1521.9000000000001</ele>
        <time>2018-03-25T08:22:04Z</time>
      </trkpt>
      <trkpt lat="46.450602170079947" lon="8.762839967384934">
        <ele>1521.9000000000001</ele>
        <time>2018-03-25T08:22:13Z</time>
      </trkpt>
      <trkpt lat="46.450555147603154" lon="8.762838542461395">
        <ele>1522.3900000000001</ele>
        <time>2018-03-25T08:22:19Z</time>
      </trkpt>
      <trkpt lat="46.450503095984459" lon="8.762848600745201">
        <ele>1522.8699999999999</ele>
        <time>2018-03-25T08:22:24Z</time>
      </trkpt>
      <trkpt lat="46.450413493439555" lon="8.762795627117157">
        <ele>1523.8299999999999</ele>
        <time>2018-03-25T08:22:36Z</time>
      </trkpt>
      <trkpt lat="46.450340487062931" lon="8.762772995978594">
        <ele>1525.27</ele>
        <time>2018-03-25T08:22:49Z</time>
      </trkpt>
      <trkpt lat="46.450275778770447" lon="8.762732679024339">
        <ele>1524.79</ele>
        <time>2018-03-25T08:22:59Z</time>
      </trkpt>
      <trkpt lat="46.450232611969113" lon="8.762734439224005">
        <ele>1525.27</ele>
        <time>2018-03-25T08:23:06Z</time>
      </trkpt>
      <trkpt lat="46.450209394097328" lon="8.762724967673421">
        <ele>1525.75</ele>
        <time>2018-03-25T08:23:11Z</time>
      </trkpt>
      <trkpt lat="46.450114594772458" lon="8.76270342618227">
        <ele>1526.71</ele>
        <time>2018-03-25T08:23:22Z</time>
      </trkpt>
      <trkpt lat="46.450047120451927" lon="8.762638717889786">
        <ele>1527.6700000000001</ele>
        <time>2018-03-25T08:23:32Z</time>
      </trkpt>
      <trkpt lat="46.449990039691329" lon="8.762589432299137">
        <ele>1528.6300000000001</ele>
        <time>2018-03-25T08:23:40Z</time>
      </trkpt>
      <trkpt lat="46.449941173195839" lon="8.76253335736692">
        <ele>1529.5899999999999</ele>
        <time>2018-03-25T08:23:50Z</time>
      </trkpt>
      <trkpt lat="46.449866071343422" lon="8.762470241636038">
        <ele>1530.5599999999999</ele>
        <time>2018-03-25T08:23:59Z</time>
      </trkpt>
      <trkpt lat="46.449812175706029" lon="8.762391451746225">
        <ele>1531.04</ele>
        <time>2018-03-25T08:24:09Z</time>
      </trkpt>
      <trkpt lat="46.449794406071305" lon="8.762309476733208">
        <ele>1532.48</ele>
        <time>2018-03-25T08:24:17Z</time>
      </trkpt>
      <trkpt lat="46.449784515425563" lon="8.762271339073777">
        <ele>1532.96</ele>
        <time>2018-03-25T08:24:20Z</time>
      </trkpt>
      <trkpt lat="46.449749311432242" lon="8.762239152565599">
        <ele>1532.96</ele>
        <time>2018-03-25T08:24:32Z</time>
      </trkpt>
      <trkpt lat="46.449723495170474" lon="8.762182826176286">
        <ele>1533.9200000000001</ele>
        <time>2018-03-25T08:24:40Z</time>
      </trkpt>
      <trkpt lat="46.449692901223898" lon="8.762118201702833">
        <ele>1535.3599999999999</ele>
        <time>2018-03-25T08:24:49Z</time>
      </trkpt>
      <trkpt lat="46.449656942859292" lon="8.762033628299832">
        <ele>1536.3199999999999</ele>
        <time>2018-03-25T08:24:58Z</time>
      </trkpt>
      <trkpt lat="46.44963632337749" lon="8.761929692700505">
        <ele>1538.25</ele>
        <time>2018-03-25T08:25:10Z</time>
      </trkpt>
      <trkpt lat="46.449606902897358" lon="8.761827182024717">
        <ele>1540.1700000000001</ele>
        <time>2018-03-25T08:25:22Z</time>
      </trkpt>
      <trkpt lat="46.449590725824237" lon="8.761761300265789">
        <ele>1540.6500000000001</ele>
        <time>2018-03-25T08:25:31Z</time>
      </trkpt>
      <trkpt lat="46.449546134099364" lon="8.761679911985993">
        <ele>1541.1300000000001</ele>
        <time>2018-03-25T08:25:42Z</time>
      </trkpt>
      <trkpt lat="46.44950095564127" lon="8.761609587818384">
        <ele>1542.5699999999999</ele>
        <time>2018-03-25T08:25:54Z</time>
      </trkpt>
      <trkpt lat="46.449457956478" lon="8.761467011645436">
        <ele>1543.53</ele>
        <time>2018-03-25T08:26:06Z</time>
      </trkpt>
      <trkpt lat="46.449413783848286" lon="8.761426946148276">
        <ele>1544.5</ele>
        <time>2018-03-25T08:26:14Z</time>
      </trkpt>
      <trkpt lat="46.449373802170157" lon="8.761381767690182">
        <ele>1545.46</ele>
        <time>2018-03-25T08:26:24Z</time>
      </trkpt>
      <trkpt lat="46.449340274557471" lon="8.761299289762974">
        <ele>1545.9400000000001</ele>
        <time>2018-03-25T08:26:33Z</time>
      </trkpt>
      <trkpt lat="46.449308590963483" lon="8.761244220659137">
        <ele>1546.9000000000001</ele>
        <time>2018-03-25T08:26:41Z</time>
      </trkpt>
      <trkpt lat="46.44924933090806" lon="8.761166939511895">
        <ele>1547.3800000000001</ele>
        <time>2018-03-25T08:26:51Z</time>
      </trkpt>
      <trkpt lat="46.449212366715074" lon="8.761095609515905">
        <ele>1548.8199999999999</ele>
        <time>2018-03-25T08:27:02Z</time>
      </trkpt>
      <trkpt lat="46.449177162721753" lon="8.761020507663488">
        <ele>1549.78</ele>
        <time>2018-03-25T08:27:13Z</time>
      </trkpt>
      <trkpt lat="46.44916919991374" lon="8.760924953967333">
        <ele>1551.22</ele>
        <time>2018-03-25T08:27:28Z</time>
      </trkpt>
      <trkpt lat="46.449160482734442" lon="8.760867873206735">
        <ele>1551.22</ele>
        <time>2018-03-25T08:27:33Z</time>
      </trkpt>
      <trkpt lat="46.449165511876345" lon="8.760775253176689">
        <ele>1552.6700000000001</ele>
        <time>2018-03-25T08:27:43Z</time>
      </trkpt>
      <trkpt lat="46.449168361723423" lon="8.760665031149983">
        <ele>1553.6300000000001</ele>
        <time>2018-03-25T08:27:53Z</time>
      </trkpt>
      <trkpt lat="46.44916282966733" lon="8.760615745559335">
        <ele>1554.5899999999999</ele>
        <time>2018-03-25T08:27:58Z</time>
      </trkpt>
      <trkpt lat="46.44917263649404" lon="8.76049336977303">
        <ele>1555.55</ele>
        <time>2018-03-25T08:28:08Z</time>
      </trkpt>
      <trkpt lat="46.449191411957145" lon="8.760392619296908">
        <ele>1555.55</ele>
        <time>2018-03-25T08:28:15Z</time>
      </trkpt>
      <trkpt lat="46.449213791638613" lon="8.760255826637149">
        <ele>1556.03</ele>
        <time>2018-03-25T08:28:25Z</time>
      </trkpt>
      <trkpt lat="46.449244134128094" lon="8.76017527654767">
        <ele>1556.99</ele>
        <time>2018-03-25T08:28:35Z</time>
      </trkpt>
      <trkpt lat="46.44929233007133" lon="8.760114507749677">
        <ele>1557.47</ele>
        <time>2018-03-25T08:28:44Z</time>
      </trkpt>
      <trkpt lat="46.449303310364485" lon="8.760019456967711">
        <ele>1559.4000000000001</ele>
        <time>2018-03-25T08:28:54Z</time>
      </trkpt>
      <trkpt lat="46.449346728622913" lon="8.759961118921638">
        <ele>1560.3599999999999</ele>
        <time>2018-03-25T08:29:05Z</time>
      </trkpt>
      <trkpt lat="46.449316553771496" lon="8.759934715926647">
        <ele>1561.8</ele>
        <time>2018-03-25T08:29:14Z</time>
      </trkpt>
      <trkpt lat="46.449257293716073" lon="8.759879311546683">
        <ele>1562.76</ele>
        <time>2018-03-25T08:29:24Z</time>
      </trkpt>
      <trkpt lat="46.449201302602887" lon="8.759853160008788">
        <ele>1562.76</ele>
        <time>2018-03-25T08:29:35Z</time>
      </trkpt>
      <trkpt lat="46.449179844930768" lon="8.759861038997769">
        <ele>1563.24</ele>
        <time>2018-03-25T08:29:39Z</time>
      </trkpt>
      <trkpt lat="46.44917213357985" lon="8.759888364002109">
        <ele>1563.24</ele>
        <time>2018-03-25T08:29:40Z</time>
      </trkpt>
      <trkpt lat="46.449096528813243" lon="8.759849555790424">
        <ele>1564.2</ele>
        <time>2018-03-25T08:29:49Z</time>
      </trkpt>
      <trkpt lat="46.449053194373846" lon="8.759803622961044">
        <ele>1566.1199999999999</ele>
        <time>2018-03-25T08:29:59Z</time>
      </trkpt>
      <trkpt lat="46.449029473587871" lon="8.759777136147022">
        <ele>1566.6099999999999</ele>
        <time>2018-03-25T08:30:09Z</time>
      </trkpt>
      <trkpt lat="46.448977505788207" lon="8.759735310450196">
        <ele>1568.53</ele>
        <time>2018-03-25T08:30:21Z</time>
      </trkpt>
      <trkpt lat="46.448958311229944" lon="8.75968954525888">
        <ele>1570.45</ele>
        <time>2018-03-25T08:30:26Z</time>
      </trkpt>
      <trkpt lat="46.448933416977525" lon="8.759630117565393">
        <ele>1570.9300000000001</ele>
        <time>2018-03-25T08:30:35Z</time>
      </trkpt>
      <trkpt lat="46.448891423642635" lon="8.759597009047866">
        <ele>1571.4100000000001</ele>
        <time>2018-03-25T08:30:43Z</time>
      </trkpt>
      <trkpt lat="46.448889663442969" lon="8.759570019319654">
        <ele>1572.3699999999999</ele>
        <time>2018-03-25T08:30:57Z</time>
      </trkpt>
      <trkpt lat="46.448875414207578" lon="8.759551243856549">
        <ele>1572.8499999999999</ele>
        <time>2018-03-25T08:31:12Z</time>
      </trkpt>
      <trkpt lat="46.44887013360858" lon="8.759495504200459">
        <ele>1573.8199999999999</ele>
        <time>2018-03-25T08:31:20Z</time>
      </trkpt>
      <trkpt lat="46.448841635137796" lon="8.759437333792448">
        <ele>1575.26</ele>
        <time>2018-03-25T08:31:28Z</time>
      </trkpt>
      <trkpt lat="46.448790421709418" lon="8.75938268378377">
        <ele>1577.6600000000001</ele>
        <time>2018-03-25T08:31:40Z</time>
      </trkpt>
      <trkpt lat="46.448774076998234" lon="8.759375056251884">
        <ele>1577.6600000000001</ele>
        <time>2018-03-25T08:31:42Z</time>
      </trkpt>
      <trkpt lat="46.448728311806917" lon="8.75931235961616">
        <ele>1579.5799999999999</ele>
        <time>2018-03-25T08:31:53Z</time>
      </trkpt>
      <trkpt lat="46.448716912418604" lon="8.759230468422175">
        <ele>1581.51</ele>
        <time>2018-03-25T08:32:04Z</time>
      </trkpt>
      <trkpt lat="46.448695454746485" lon="8.759172130376101">
        <ele>1583.4300000000001</ele>
        <time>2018-03-25T08:32:16Z</time>
      </trkpt>
      <trkpt lat="46.448703249916434" lon="8.759104236960411">
        <ele>1586.79</ele>
        <time>2018-03-25T08:32:26Z</time>
      </trkpt>
      <trkpt lat="46.448704088106751" lon="8.759097615256906">
        <ele>1586.79</ele>
        <time>2018-03-25T08:32:27Z</time>
      </trkpt>
      <trkpt lat="46.448676260188222" lon="8.75903039239347">
        <ele>1587.27</ele>
        <time>2018-03-25T08:32:39Z</time>
      </trkpt>
      <trkpt lat="46.448644325137138" lon="8.75899326056242">
        <ele>1588.72</ele>
        <time>2018-03-25T08:32:50Z</time>
      </trkpt>
      <trkpt lat="46.4486238732934" lon="8.758929474279285">
        <ele>1589.6800000000001</ele>
        <time>2018-03-25T08:32:59Z</time>
      </trkpt>
      <trkpt lat="46.448619347065687" lon="8.758869711309671">
        <ele>1591.5999999999999</ele>
        <time>2018-03-25T08:33:10Z</time>
      </trkpt>
      <trkpt lat="46.44864390604198" lon="8.758824616670609">
        <ele>1593.52</ele>
        <time>2018-03-25T08:33:20Z</time>
      </trkpt>
      <trkpt lat="46.448634015396237" lon="8.758777678012848">
        <ele>1594.96</ele>
        <time>2018-03-25T08:33:32Z</time>
      </trkpt>
      <trkpt lat="46.448601996526122" lon="8.758679945021868">
        <ele>1595.9300000000001</ele>
        <time>2018-03-25T08:33:40Z</time>
      </trkpt>
      <trkpt lat="46.448581544682384" lon="8.758597383275628">
        <ele>1597.3699999999999</ele>
        <time>2018-03-25T08:33:52Z</time>
      </trkpt>
      <trkpt lat="46.448548603802919" lon="8.758490346372128">
        <ele>1598.3299999999999</ele>
        <time>2018-03-25T08:34:04Z</time>
      </trkpt>
      <trkpt lat="46.448550364002585" lon="8.758481126278639">
        <ele>1597.8499999999999</ele>
        <time>2018-03-25T08:34:12Z</time>
      </trkpt>
      <trkpt lat="46.448546759784222" lon="8.758369479328394">
        <ele>1599.29</ele>
        <time>2018-03-25T08:34:23Z</time>
      </trkpt>
      <trkpt lat="46.448518009856343" lon="8.758322708308697">
        <ele>1601.6900000000001</ele>
        <time>2018-03-25T08:34:28Z</time>
      </trkpt>
      <trkpt lat="46.448521027341485" lon="8.758282223716378">
        <ele>1601.21</ele>
        <time>2018-03-25T08:34:34Z</time>
      </trkpt>
      <trkpt lat="46.448514657095075" lon="8.758258670568466">
        <ele>1601.21</ele>
        <time>2018-03-25T08:34:36Z</time>
      </trkpt>
      <trkpt lat="46.448505353182554" lon="8.75818164087832">
        <ele>1602.6600000000001</ele>
        <time>2018-03-25T08:34:45Z</time>
      </trkpt>
      <trkpt lat="46.44848708063364" lon="8.758104527369142">
        <ele>1603.6199999999999</ele>
        <time>2018-03-25T08:34:55Z</time>
      </trkpt>
      <trkpt lat="46.448489176109433" lon="8.758036382496357">
        <ele>1604.5799999999999</ele>
        <time>2018-03-25T08:35:03Z</time>
      </trkpt>
      <trkpt lat="46.448422204703093" lon="8.75788894481957">
        <ele>1606.02</ele>
        <time>2018-03-25T08:35:14Z</time>
      </trkpt>
      <trkpt lat="46.448411643505096" lon="8.757829433307052">
        <ele>1606.98</ele>
        <time>2018-03-25T08:35:26Z</time>
      </trkpt>
      <trkpt lat="46.448399908840656" lon="8.757747206836939">
        <ele>1608.4200000000001</ele>
        <time>2018-03-25T08:35:36Z</time>
      </trkpt>
      <trkpt lat="46.448388425633311" lon="8.757721893489361">
        <ele>1609.3800000000001</ele>
        <time>2018-03-25T08:35:43Z</time>
      </trkpt>
      <trkpt lat="46.448393706232309" lon="8.757688868790865">
        <ele>1610.3499999999999</ele>
        <time>2018-03-25T08:35:51Z</time>
      </trkpt>
      <trkpt lat="46.448368728160858" lon="8.757623238489032">
        <ele>1610.8299999999999</ele>
        <time>2018-03-25T08:36:01Z</time>
      </trkpt>
      <trkpt lat="46.448367973789573" lon="8.757560374215245">
        <ele>1612.27</ele>
        <time>2018-03-25T08:36:11Z</time>
      </trkpt>
      <trkpt lat="46.44834634847939" lon="8.757472950965166">
        <ele>1613.23</ele>
        <time>2018-03-25T08:36:21Z</time>
      </trkpt>
      <trkpt lat="46.448313491418958" lon="8.757377984002233">
        <ele>1615.6300000000001</ele>
        <time>2018-03-25T08:36:31Z</time>
      </trkpt>
      <trkpt lat="46.448299242183566" lon="8.757300870493054">
        <ele>1617.0699999999999</ele>
        <time>2018-03-25T08:36:42Z</time>
      </trkpt>
      <trkpt lat="46.44829454831779" lon="8.757213447242975">
        <ele>1619</ele>
        <time>2018-03-25T08:36:52Z</time>
      </trkpt>
      <trkpt lat="46.448280047625303" lon="8.757114121690393">
        <ele>1619.96</ele>
        <time>2018-03-25T08:37:04Z</time>
      </trkpt>
      <trkpt lat="46.448263367637992" lon="8.756980430334806">
        <ele>1621.4000000000001</ele>
        <time>2018-03-25T08:37:14Z</time>
      </trkpt>
      <trkpt lat="46.448259009048343" lon="8.756879596039653">
        <ele>1622.3599999999999</ele>
        <time>2018-03-25T08:37:24Z</time>
      </trkpt>
      <trkpt lat="46.448229253292084" lon="8.756786556914449">
        <ele>1623.3199999999999</ele>
        <time>2018-03-25T08:37:37Z</time>
      </trkpt>
      <trkpt lat="46.448207460343838" lon="8.756667114794254">
        <ele>1625.25</ele>
        <time>2018-03-25T08:37:49Z</time>
      </trkpt>
      <trkpt lat="46.448177872225642" lon="8.756584720686078">
        <ele>1626.6900000000001</ele>
        <time>2018-03-25T08:38:00Z</time>
      </trkpt>
      <trkpt lat="46.448188181966543" lon="8.756478186696768">
        <ele>1628.1300000000001</ele>
        <time>2018-03-25T08:38:12Z</time>
      </trkpt>
      <trkpt lat="46.448214668780565" lon="8.756385063752532">
        <ele>1630.53</ele>
        <time>2018-03-25T08:38:25Z</time>
      </trkpt>
      <trkpt lat="46.448232773691416" lon="8.756304932758212">
        <ele>1631.98</ele>
        <time>2018-03-25T08:38:35Z</time>
      </trkpt>
      <trkpt lat="46.448245430365205" lon="8.756210971623659">
        <ele>1632.9400000000001</ele>
        <time>2018-03-25T08:38:45Z</time>
      </trkpt>
      <trkpt lat="46.448252890259027" lon="8.756146766245365">
        <ele>1634.3800000000001</ele>
        <time>2018-03-25T08:38:56Z</time>
      </trkpt>
      <trkpt lat="46.448247442021966" lon="8.756085997447372">
        <ele>1636.3</ele>
        <time>2018-03-25T08:39:05Z</time>
      </trkpt>
      <trkpt lat="46.448237299919128" lon="8.756062109023333">
        <ele>1637.26</ele>
        <time>2018-03-25T08:39:13Z</time>
      </trkpt>
      <trkpt lat="46.448201760649681" lon="8.756016092374921">
        <ele>1638.7</ele>
        <time>2018-03-25T08:39:23Z</time>
      </trkpt>
      <trkpt lat="46.448170160874724" lon="8.755907379090786">
        <ele>1640.1500000000001</ele>
        <time>2018-03-25T08:39:35Z</time>
      </trkpt>
      <trkpt lat="46.448142835870385" lon="8.755802270025015">
        <ele>1641.1099999999999</ele>
        <time>2018-03-25T08:39:47Z</time>
      </trkpt>
      <trkpt lat="46.448114337399602" lon="8.755728593096137">
        <ele>1642.0699999999999</ele>
        <time>2018-03-25T08:39:57Z</time>
      </trkpt>
      <trkpt lat="46.448098160326481" lon="8.755640415474773">
        <ele>1643.51</ele>
        <time>2018-03-25T08:40:08Z</time>
      </trkpt>
      <trkpt lat="46.448093047365546" lon="8.755537569522858">
        <ele>1644.95</ele>
        <time>2018-03-25T08:40:18Z</time>
      </trkpt>
      <trkpt lat="46.448074690997601" lon="8.755503287538886">
        <ele>1645.4300000000001</ele>
        <time>2018-03-25T08:40:22Z</time>
      </trkpt>
      <trkpt lat="46.448049293830991" lon="8.755401447415352">
        <ele>1647.3599999999999</ele>
        <time>2018-03-25T08:40:31Z</time>
      </trkpt>
      <trkpt lat="46.448057927191257" lon="8.755339840427041">
        <ele>1647.3599999999999</ele>
        <time>2018-03-25T08:40:41Z</time>
      </trkpt>
      <trkpt lat="46.448065051808953" lon="8.755264990031719">
        <ele>1647.8399999999999</ele>
        <time>2018-03-25T08:40:49Z</time>
      </trkpt>
      <trkpt lat="46.448076702654362" lon="8.75517169944942">
        <ele>1648.3199999999999</ele>
        <time>2018-03-25T08:40:59Z</time>
      </trkpt>
      <trkpt lat="46.448065303266048" lon="8.755072625353932">
        <ele>1648.3199999999999</ele>
        <time>2018-03-25T08:41:08Z</time>
      </trkpt>
      <trkpt lat="46.448044180870056" lon="8.754934826865792">
        <ele>1648.3199999999999</ele>
        <time>2018-03-25T08:41:22Z</time>
      </trkpt>
      <trkpt lat="46.448033032938838" lon="8.754910854622722">
        <ele>1650.24</ele>
        <time>2018-03-25T08:41:24Z</time>
      </trkpt>
      <trkpt lat="46.448019705712795" lon="8.75478470697999">
        <ele>1650.24</ele>
        <time>2018-03-25T08:41:36Z</time>
      </trkpt>
      <trkpt lat="46.447965977713466" lon="8.754669204354286">
        <ele>1650.24</ele>
        <time>2018-03-25T08:41:50Z</time>
      </trkpt>
      <trkpt lat="46.447946112602949" lon="8.75464447773993">
        <ele>1652.1600000000001</ele>
        <time>2018-03-25T08:41:54Z</time>
      </trkpt>
      <trkpt lat="46.447936641052365" lon="8.754566358402371">
        <ele>1652.6400000000001</ele>
        <time>2018-03-25T08:42:05Z</time>
      </trkpt>
      <trkpt lat="46.447895485907793" lon="8.754478264600039">
        <ele>1654.5699999999999</ele>
        <time>2018-03-25T08:42:17Z</time>
      </trkpt>
      <trkpt lat="46.447887104004622" lon="8.754467535763979">
        <ele>1654.5699999999999</ele>
        <time>2018-03-25T08:42:19Z</time>
      </trkpt>
      <trkpt lat="46.447845194488764" lon="8.754364438354969">
        <ele>1655.05</ele>
        <time>2018-03-25T08:42:29Z</time>
      </trkpt>
      <trkpt lat="46.447828933596611" lon="8.754342226311564">
        <ele>1656.97</ele>
        <time>2018-03-25T08:42:33Z</time>
      </trkpt>
      <trkpt lat="46.447819545865059" lon="8.754311548545957">
        <ele>1655.53</ele>
        <time>2018-03-25T08:42:41Z</time>
      </trkpt>
      <trkpt lat="46.447799345478415" lon="8.754266537725925">
        <ele>1655.53</ele>
        <time>2018-03-25T08:42:48Z</time>
      </trkpt>
      <trkpt lat="46.447763806208968" lon="8.754124967381358">
        <ele>1656.49</ele>
        <time>2018-03-25T08:43:01Z</time>
      </trkpt>
      <trkpt lat="46.447718879207969" lon="8.754075095057488">
        <ele>1656.49</ele>
        <time>2018-03-25T08:43:09Z</time>
      </trkpt>
      <trkpt lat="46.447699349373579" lon="8.753954982385039">
        <ele>1657.45</ele>
        <time>2018-03-25T08:43:21Z</time>
      </trkpt>
      <trkpt lat="46.447653668001294" lon="8.75384216196835">
        <ele>1659.3699999999999</ele>
        <time>2018-03-25T08:43:34Z</time>
      </trkpt>
      <trkpt lat="46.447608573362231" lon="8.753831433132291">
        <ele>1660.3299999999999</ele>
        <time>2018-03-25T08:43:43Z</time>
      </trkpt>
      <trkpt lat="46.447585355490446" lon="8.753723809495568">
        <ele>1660.8099999999999</ele>
        <time>2018-03-25T08:43:54Z</time>
      </trkpt>
      <trkpt lat="46.447567250579596" lon="8.75367159023881">
        <ele>1661.3</ele>
        <time>2018-03-25T08:44:05Z</time>
      </trkpt>
      <trkpt lat="46.44756599329412" lon="8.753621131181717">
        <ele>1661.3</ele>
        <time>2018-03-25T08:44:17Z</time>
      </trkpt>
      <trkpt lat="46.447547050192952" lon="8.753598919138312">
        <ele>1661.3</ele>
        <time>2018-03-25T08:44:25Z</time>
      </trkpt>
      <trkpt lat="46.447558701038361" lon="8.753594560548663">
        <ele>1662.74</ele>
        <time>2018-03-25T08:44:35Z</time>
      </trkpt>
      <trkpt lat="46.447560880333185" lon="8.753594560548663">
        <ele>1661.3</ele>
        <time>2018-03-25T08:44:36Z</time>
      </trkpt>
      <trkpt lat="46.447561886161566" lon="8.753589363768697">
        <ele>1660.3299999999999</ele>
        <time>2018-03-25T08:44:44Z</time>
      </trkpt>
      <trkpt lat="46.447543613612652" lon="8.753554914146662">
        <ele>1660.3299999999999</ele>
        <time>2018-03-25T08:45:00Z</time>
      </trkpt>
      <trkpt lat="46.447547050192952" lon="8.753524068742991">
        <ele>1660.3299999999999</ele>
        <time>2018-03-25T08:45:27Z</time>
      </trkpt>
      <trkpt lat="46.447558952495456" lon="8.753546280786395">
        <ele>1661.3</ele>
        <time>2018-03-25T08:45:35Z</time>
      </trkpt>
      <trkpt lat="46.447585355490446" lon="8.753594476729631">
        <ele>1661.3</ele>
        <time>2018-03-25T08:45:48Z</time>
      </trkpt>
      <trkpt lat="46.447574039921165" lon="8.753606295213103">
        <ele>1661.3</ele>
        <time>2018-03-25T08:46:06Z</time>
      </trkpt>
      <trkpt lat="46.447577476501465" lon="8.75360319390893">
        <ele>1660.8099999999999</ele>
        <time>2018-03-25T08:46:24Z</time>
      </trkpt>
      <trkpt lat="46.447565909475088" lon="8.753622639924288">
        <ele>1662.74</ele>
        <time>2018-03-25T08:46:35Z</time>
      </trkpt>
      <trkpt lat="46.447566831484437" lon="8.753611240535975">
        <ele>1661.3</ele>
        <time>2018-03-25T08:46:53Z</time>
      </trkpt>
      <trkpt lat="46.447520479559898" lon="8.75360076315701">
        <ele>1661.3</ele>
        <time>2018-03-25T08:47:07Z</time>
      </trkpt>
      <trkpt lat="46.447489634156227" lon="8.753576120361686">
        <ele>1662.74</ele>
        <time>2018-03-25T08:47:20Z</time>
      </trkpt>
      <trkpt lat="46.447468511760235" lon="8.753479393199086">
        <ele>1663.7</ele>
        <time>2018-03-25T08:47:30Z</time>
      </trkpt>
      <trkpt lat="46.447460548952222" lon="8.753457935526967">
        <ele>1664.1800000000001</ele>
        <time>2018-03-25T08:47:32Z</time>
      </trkpt>
      <trkpt lat="46.447425680235028" lon="8.753396077081561">
        <ele>1664.6600000000001</ele>
        <time>2018-03-25T08:47:38Z</time>
      </trkpt>
      <trkpt lat="46.44737496972084" lon="8.753308402374387">
        <ele>1666.0999999999999</ele>
        <time>2018-03-25T08:47:48Z</time>
      </trkpt>
      <trkpt lat="46.447324175387621" lon="8.753258194774389">
        <ele>1668.02</ele>
        <time>2018-03-25T08:47:59Z</time>
      </trkpt>
      <trkpt lat="46.447276566177607" lon="8.753221062943339">
        <ele>1669.47</ele>
        <time>2018-03-25T08:48:09Z</time>
      </trkpt>
      <trkpt lat="46.447265753522515" lon="8.753215782344341">
        <ele>1669.95</ele>
        <time>2018-03-25T08:48:11Z</time>
      </trkpt>
      <trkpt lat="46.447223508730531" lon="8.753137243911624">
        <ele>1670.4300000000001</ele>
        <time>2018-03-25T08:48:20Z</time>
      </trkpt>
      <trkpt lat="46.447180928662419" lon="8.753106314688921">
        <ele>1671.8699999999999</ele>
        <time>2018-03-25T08:48:32Z</time>
      </trkpt>
      <trkpt lat="46.447170116007328" lon="8.753090808168054">
        <ele>1673.3099999999999</ele>
        <time>2018-03-25T08:48:36Z</time>
      </trkpt>
      <trkpt lat="46.447131391614676" lon="8.753062980249524">
        <ele>1673.3099999999999</ele>
        <time>2018-03-25T08:48:45Z</time>
      </trkpt>
      <trkpt lat="46.447080094367266" lon="8.753061722964048">
        <ele>1674.75</ele>
        <time>2018-03-25T08:48:56Z</time>
      </trkpt>
      <trkpt lat="46.447052098810673" lon="8.753074882552028">
        <ele>1675.23</ele>
        <time>2018-03-25T08:49:01Z</time>
      </trkpt>
      <trkpt lat="46.447025947272778" lon="8.753060717135668">
        <ele>1675.23</ele>
        <time>2018-03-25T08:49:04Z</time>
      </trkpt>
      <trkpt lat="46.4469781704247" lon="8.753036158159375">
        <ele>1674.27</ele>
        <time>2018-03-25T08:49:14Z</time>
      </trkpt>
      <trkpt lat="46.446934333071113" lon="8.753041606396437">
        <ele>1674.27</ele>
        <time>2018-03-25T08:49:22Z</time>
      </trkpt>
      <trkpt lat="46.44685453735292" lon="8.75307940877974">
        <ele>1675.72</ele>
        <time>2018-03-25T08:49:32Z</time>
      </trkpt>
      <trkpt lat="46.446816064417362" lon="8.753001624718308">
        <ele>1676.6800000000001</ele>
        <time>2018-03-25T08:49:42Z</time>
      </trkpt>
      <trkpt lat="46.446782955899835" lon="8.752954853698611">
        <ele>1678.5999999999999</ele>
        <time>2018-03-25T08:49:52Z</time>
      </trkpt>
      <trkpt lat="46.446748757734895" lon="8.752906741574407">
        <ele>1680.04</ele>
        <time>2018-03-25T08:50:03Z</time>
      </trkpt>
      <trkpt lat="46.446720091626048" lon="8.752894252538681">
        <ele>1681</ele>
        <time>2018-03-25T08:50:12Z</time>
      </trkpt>
      <trkpt lat="46.446675835177302" lon="8.752866508439183">
        <ele>1682.4400000000001</ele>
        <time>2018-03-25T08:50:22Z</time>
      </trkpt>
      <trkpt lat="46.446667956188321" lon="8.75283750705421">
        <ele>1683.4100000000001</ele>
        <time>2018-03-25T08:50:29Z</time>
      </trkpt>
      <trkpt lat="46.446640379726887" lon="8.75285024754703">
        <ele>1685.3299999999999</ele>
        <time>2018-03-25T08:50:38Z</time>
      </trkpt>
      <trkpt lat="46.446604672819376" lon="8.75277497805655">
        <ele>1685.8099999999999</ele>
        <time>2018-03-25T08:50:49Z</time>
      </trkpt>
      <trkpt lat="46.446563769131899" lon="8.752761650830507">
        <ele>1686.77</ele>
        <time>2018-03-25T08:50:59Z</time>
      </trkpt>
      <trkpt lat="46.446552537381649" lon="8.752816384658217">
        <ele>1688.21</ele>
        <time>2018-03-25T08:51:08Z</time>
      </trkpt>
      <trkpt lat="46.446515824645758" lon="8.752816803753376">
        <ele>1689.6500000000001</ele>
        <time>2018-03-25T08:51:17Z</time>
      </trkpt>
      <trkpt lat="46.446475926786661" lon="8.752768523991108">
        <ele>1691.0999999999999</ele>
        <time>2018-03-25T08:51:27Z</time>
      </trkpt>
      <trkpt lat="46.446465533226728" lon="8.75282434746623">
        <ele>1692.0599999999999</ele>
        <time>2018-03-25T08:51:36Z</time>
      </trkpt>
      <trkpt lat="46.446467963978648" lon="8.752894084900618">
        <ele>1693.5</ele>
        <time>2018-03-25T08:51:46Z</time>
      </trkpt>
      <trkpt lat="46.446483889594674" lon="8.752975976094604">
        <ele>1694.9400000000001</ele>
        <time>2018-03-25T08:51:56Z</time>
      </trkpt>
      <trkpt lat="46.446495288982987" lon="8.753065997734666">
        <ele>1694.9400000000001</ele>
        <time>2018-03-25T08:52:05Z</time>
      </trkpt>
      <trkpt lat="46.446483889594674" lon="8.753131963312626">
        <ele>1695.4200000000001</ele>
        <time>2018-03-25T08:52:14Z</time>
      </trkpt>
      <trkpt lat="46.446449942886829" lon="8.75318736769259">
        <ele>1697.3399999999999</ele>
        <time>2018-03-25T08:52:24Z</time>
      </trkpt>
      <trkpt lat="46.44640551880002" lon="8.753156438469887">
        <ele>1698.79</ele>
        <time>2018-03-25T08:52:34Z</time>
      </trkpt>
      <trkpt lat="46.446371488273144" lon="8.75310966745019">
        <ele>1699.75</ele>
        <time>2018-03-25T08:52:43Z</time>
      </trkpt>
      <trkpt lat="46.446337793022394" lon="8.753087036311626">
        <ele>1701.1900000000001</ele>
        <time>2018-03-25T08:52:53Z</time>
      </trkpt>
      <trkpt lat="46.446331506595016" lon="8.753172196447849">
        <ele>1702.6300000000001</ele>
        <time>2018-03-25T08:53:05Z</time>
      </trkpt>
      <trkpt lat="46.446307534351945" lon="8.753229780122638">
        <ele>1704.0699999999999</ele>
        <time>2018-03-25T08:53:16Z</time>
      </trkpt>
      <trkpt lat="46.446286914870143" lon="8.753295075148344">
        <ele>1706</ele>
        <time>2018-03-25T08:53:28Z</time>
      </trkpt>
      <trkpt lat="46.446256404742599" lon="8.753327010199428">
        <ele>1706.96</ele>
        <time>2018-03-25T08:53:38Z</time>
      </trkpt>
      <trkpt lat="46.446237126365304" lon="8.753328267484903">
        <ele>1707.4400000000001</ele>
        <time>2018-03-25T08:53:47Z</time>
      </trkpt>
      <trkpt lat="46.44619538448751" lon="8.753286106511951">
        <ele>1709.3599999999999</ele>
        <time>2018-03-25T08:53:58Z</time>
      </trkpt>
      <trkpt lat="46.446164287626743" lon="8.753253081813455">
        <ele>1710.8</ele>
        <time>2018-03-25T08:54:07Z</time>
      </trkpt>
      <trkpt lat="46.446126569062471" lon="8.753208490088582">
        <ele>1712.25</ele>
        <time>2018-03-25T08:54:16Z</time>
      </trkpt>
      <trkpt lat="46.446096142753959" lon="8.753213519230485">
        <ele>1713.6900000000001</ele>
        <time>2018-03-25T08:54:26Z</time>
      </trkpt>
      <trkpt lat="46.446067979559302" lon="8.753262469545007">
        <ele>1715.6099999999999</ele>
        <time>2018-03-25T08:54:35Z</time>
      </trkpt>
      <trkpt lat="46.446066554635763" lon="8.753311336040497">
        <ele>1716.5699999999999</ele>
        <time>2018-03-25T08:54:44Z</time>
      </trkpt>
      <trkpt lat="46.44604149274528" lon="8.753344863653183">
        <ele>1717.53</ele>
        <time>2018-03-25T08:54:52Z</time>
      </trkpt>
      <trkpt lat="46.446017185226083" lon="8.753389287739992">
        <ele>1719.46</ele>
        <time>2018-03-25T08:55:03Z</time>
      </trkpt>
      <trkpt lat="46.446020035073161" lon="8.753433041274548">
        <ele>1720.9000000000001</ele>
        <time>2018-03-25T08:55:11Z</time>
      </trkpt>
      <trkpt lat="46.44599748775363" lon="8.753472352400422">
        <ele>1722.3399999999999</ele>
        <time>2018-03-25T08:55:20Z</time>
      </trkpt>
      <trkpt lat="46.4459627866745" lon="8.753518369048834">
        <ele>1723.3</ele>
        <time>2018-03-25T08:55:30Z</time>
      </trkpt>
      <trkpt lat="46.445954153314233" lon="8.753557428717613">
        <ele>1724.74</ele>
        <time>2018-03-25T08:55:40Z</time>
      </trkpt>
      <trkpt lat="46.445936886593699" lon="8.753603948280215">
        <ele>1726.1800000000001</ele>
        <time>2018-03-25T08:55:50Z</time>
      </trkpt>
      <trkpt lat="46.445892211049795" lon="8.753545945510268">
        <ele>1727.6300000000001</ele>
        <time>2018-03-25T08:55:58Z</time>
      </trkpt>
      <trkpt lat="46.445868154987693" lon="8.753476208075881">
        <ele>1728.5899999999999</ele>
        <time>2018-03-25T08:56:08Z</time>
      </trkpt>
      <trkpt lat="46.445855246856809" lon="8.753432705998421">
        <ele>1729.55</ele>
        <time>2018-03-25T08:56:16Z</time>
      </trkpt>
      <trkpt lat="46.445830352604389" lon="8.753393897786737">
        <ele>1730.03</ele>
        <time>2018-03-25T08:56:25Z</time>
      </trkpt>
      <trkpt lat="46.44579372368753" lon="8.753369254991412">
        <ele>1731.47</ele>
        <time>2018-03-25T08:56:35Z</time>
      </trkpt>
      <trkpt lat="46.445789281278849" lon="8.753459611907601">
        <ele>1733.3900000000001</ele>
        <time>2018-03-25T08:56:46Z</time>
      </trkpt>
      <trkpt lat="46.445782911032438" lon="8.753530690446496">
        <ele>1734.3599999999999</ele>
        <time>2018-03-25T08:56:56Z</time>
      </trkpt>
      <trkpt lat="46.445769499987364" lon="8.753587938845158">
        <ele>1736.28</ele>
        <time>2018-03-25T08:57:07Z</time>
      </trkpt>
      <trkpt lat="46.445749131962657" lon="8.753661867231131">
        <ele>1737.24</ele>
        <time>2018-03-25T08:57:15Z</time>
      </trkpt>
      <trkpt lat="46.445726668462157" lon="8.75372682698071">
        <ele>1738.2</ele>
        <time>2018-03-25T08:57:24Z</time>
      </trkpt>
      <trkpt lat="46.44571359269321" lon="8.753779465332627">
        <ele>1739.1600000000001</ele>
        <time>2018-03-25T08:57:34Z</time>
      </trkpt>
      <trkpt lat="46.44567939452827" lon="8.75382942147553">
        <ele>1741.0799999999999</ele>
        <time>2018-03-25T08:57:45Z</time>
      </trkpt>
      <trkpt lat="46.445635976269841" lon="8.753873258829117">
        <ele>1742.53</ele>
        <time>2018-03-25T08:57:55Z</time>
      </trkpt>
      <trkpt lat="46.445601023733616" lon="8.753907708451152">
        <ele>1743.49</ele>
        <time>2018-03-25T08:58:05Z</time>
      </trkpt>
      <trkpt lat="46.445567579939961" lon="8.753937715664506">
        <ele>1744.9300000000001</ele>
        <time>2018-03-25T08:58:14Z</time>
      </trkpt>
      <trkpt lat="46.44552743062377" lon="8.753969985991716">
        <ele>1746.3699999999999</ele>
        <time>2018-03-25T08:58:24Z</time>
      </trkpt>
      <trkpt lat="46.445489209145308" lon="8.75400242395699">
        <ele>1747.8099999999999</ele>
        <time>2018-03-25T08:58:34Z</time>
      </trkpt>
      <trkpt lat="46.445451071485877" lon="8.754035197198391">
        <ele>1749.26</ele>
        <time>2018-03-25T08:58:44Z</time>
      </trkpt>
      <trkpt lat="46.445445120334625" lon="8.754053302109242">
        <ele>1749.74</ele>
        <time>2018-03-25T08:58:47Z</time>
      </trkpt>
      <trkpt lat="46.445431122556329" lon="8.754084901884198">
        <ele>1750.22</ele>
        <time>2018-03-25T08:58:51Z</time>
      </trkpt>
      <trkpt lat="46.445397930219769" lon="8.754109293222427">
        <ele>1751.6600000000001</ele>
        <time>2018-03-25T08:59:00Z</time>
      </trkpt>
      <trkpt lat="46.445353338494897" lon="8.754115998744965">
        <ele>1752.6199999999999</ele>
        <time>2018-03-25T08:59:09Z</time>
      </trkpt>
      <trkpt lat="46.445311848074198" lon="8.754166206344962">
        <ele>1753.5799999999999</ele>
        <time>2018-03-25T08:59:19Z</time>
      </trkpt>
      <trkpt lat="46.445284187793732" lon="8.754192190244794">
        <ele>1754.0599999999999</ele>
        <time>2018-03-25T08:59:29Z</time>
      </trkpt>
      <trkpt lat="46.445259209722281" lon="8.754137037321925">
        <ele>1755.02</ele>
        <time>2018-03-25T08:59:40Z</time>
      </trkpt>
      <trkpt lat="46.445271363481879" lon="8.754063108935952">
        <ele>1756.95</ele>
        <time>2018-03-25T08:59:52Z</time>
      </trkpt>
      <trkpt lat="46.445264155045152" lon="8.754055481404066">
        <ele>1756.95</ele>
        <time>2018-03-25T09:00:04Z</time>
      </trkpt>
      <trkpt lat="46.445267759263515" lon="8.754040645435453">
        <ele>1756.95</ele>
        <time>2018-03-25T09:00:15Z</time>
      </trkpt>
      <trkpt lat="46.445248648524284" lon="8.75403611920774">
        <ele>1757.4300000000001</ele>
        <time>2018-03-25T09:00:25Z</time>
      </trkpt>
      <trkpt lat="46.445226352661848" lon="8.754084818065167">
        <ele>1758.3900000000001</ele>
        <time>2018-03-25T09:00:33Z</time>
      </trkpt>
      <trkpt lat="46.445205146446824" lon="8.754156734794378">
        <ele>1760.3099999999999</ele>
        <time>2018-03-25T09:00:47Z</time>
      </trkpt>
      <trkpt lat="46.445190729573369" lon="8.754215491935611">
        <ele>1761.75</ele>
        <time>2018-03-25T09:00:57Z</time>
      </trkpt>
      <trkpt lat="46.445154352113605" lon="8.754225634038448">
        <ele>1762.71</ele>
        <time>2018-03-25T09:01:07Z</time>
      </trkpt>
      <trkpt lat="46.445124261081219" lon="8.754215240478516">
        <ele>1763.6800000000001</ele>
        <time>2018-03-25T09:01:16Z</time>
      </trkpt>
      <trkpt lat="46.445075226947665" lon="8.754234267398715">
        <ele>1765.1199999999999</ele>
        <time>2018-03-25T09:01:25Z</time>
      </trkpt>
      <trkpt lat="46.445075813680887" lon="8.754218006506562">
        <ele>1765.5999999999999</ele>
        <time>2018-03-25T09:01:37Z</time>
      </trkpt>
      <trkpt lat="46.445071790367365" lon="8.754200991243124">
        <ele>1766.0799999999999</ele>
        <time>2018-03-25T09:01:49Z</time>
      </trkpt>
      <trkpt lat="46.445029461756349" lon="8.75419344753027">
        <ele>1768</ele>
        <time>2018-03-25T09:02:02Z</time>
      </trkpt>
      <trkpt lat="46.44501538015902" lon="8.754259999841452">
        <ele>1769.9200000000001</ele>
        <time>2018-03-25T09:02:11Z</time>
      </trkpt>
      <trkpt lat="46.444997861981392" lon="8.754322864115238">
        <ele>1771.3699999999999</ele>
        <time>2018-03-25T09:02:20Z</time>
      </trkpt>
      <trkpt lat="46.444982187822461" lon="8.754327641800046">
        <ele>1772.8099999999999</ele>
        <time>2018-03-25T09:02:30Z</time>
      </trkpt>
      <trkpt lat="46.444974560290575" lon="8.754242146387696">
        <ele>1773.77</ele>
        <time>2018-03-25T09:02:41Z</time>
      </trkpt>
      <trkpt lat="46.444957125931978" lon="8.754168301820755">
        <ele>1774.73</ele>
        <time>2018-03-25T09:02:50Z</time>
      </trkpt>
      <trkpt lat="46.444937093183398" lon="8.754212725907564">
        <ele>1776.1700000000001</ele>
        <time>2018-03-25T09:02:58Z</time>
      </trkpt>
      <trkpt lat="46.444926112890244" lon="8.754285732284188">
        <ele>1777.6099999999999</ele>
        <time>2018-03-25T09:03:08Z</time>
      </trkpt>
      <trkpt lat="46.44490004517138" lon="8.754327390342951">
        <ele>1778.5799999999999</ele>
        <time>2018-03-25T09:03:20Z</time>
      </trkpt>
      <trkpt lat="46.444880599156022" lon="8.754344740882516">
        <ele>1778.5799999999999</ele>
        <time>2018-03-25T09:03:29Z</time>
      </trkpt>
      <trkpt lat="46.444844137877226" lon="8.754370138049126">
        <ele>1780.02</ele>
        <time>2018-03-25T09:03:36Z</time>
      </trkpt>
      <trkpt lat="46.444824021309614" lon="8.75429411418736">
        <ele>1781.9400000000001</ele>
        <time>2018-03-25T09:03:46Z</time>
      </trkpt>
      <trkpt lat="46.444807006046176" lon="8.754332084208727">
        <ele>1782.9000000000001</ele>
        <time>2018-03-25T09:03:55Z</time>
      </trkpt>
      <trkpt lat="46.444761827588081" lon="8.754373993724585">
        <ele>1784.3399999999999</ele>
        <time>2018-03-25T09:04:06Z</time>
      </trkpt>
      <trkpt lat="46.444732323288918" lon="8.754398385062814">
        <ele>1785.79</ele>
        <time>2018-03-25T09:04:15Z</time>
      </trkpt>
      <trkpt lat="46.444700723513961" lon="8.754420848563314">
        <ele>1786.75</ele>
        <time>2018-03-25T09:04:24Z</time>
      </trkpt>
      <trkpt lat="46.44467867910862" lon="8.754433253780007">
        <ele>1787.71</ele>
        <time>2018-03-25T09:04:33Z</time>
      </trkpt>
      <trkpt lat="46.444655628874898" lon="8.754467284306884">
        <ele>1789.6300000000001</ele>
        <time>2018-03-25T09:04:42Z</time>
      </trkpt>
      <trkpt lat="46.444613635540009" lon="8.754522940143943">
        <ele>1790.1099999999999</ele>
        <time>2018-03-25T09:04:51Z</time>
      </trkpt>
      <trkpt lat="46.444594273343682" lon="8.754541799426079">
        <ele>1790.5899999999999</ele>
        <time>2018-03-25T09:05:05Z</time>
      </trkpt>
      <trkpt lat="46.44456434994936" lon="8.75455261208117">
        <ele>1792.03</ele>
        <time>2018-03-25T09:05:13Z</time>
      </trkpt>
      <trkpt lat="46.44453015178442" lon="8.754468373954296">
        <ele>1792.52</ele>
        <time>2018-03-25T09:05:22Z</time>
      </trkpt>
      <trkpt lat="46.44446762278676" lon="8.754459153860807">
        <ele>1793.48</ele>
        <time>2018-03-25T09:05:31Z</time>
      </trkpt>
      <trkpt lat="46.44441875629127" lon="8.754418669268489">
        <ele>1794.9200000000001</ele>
        <time>2018-03-25T09:05:39Z</time>
      </trkpt>
      <trkpt lat="46.444400483742356" lon="8.75436645001173">
        <ele>1795.4000000000001</ele>
        <time>2018-03-25T09:05:49Z</time>
      </trkpt>
      <trkpt lat="46.444391347467899" lon="8.754358235746622">
        <ele>1795.4000000000001</ele>
        <time>2018-03-25T09:05:59Z</time>
      </trkpt>
      <trkpt lat="46.444379193708301" lon="8.754358487203717">
        <ele>1795.4000000000001</ele>
        <time>2018-03-25T09:06:01Z</time>
      </trkpt>
      <trkpt lat="46.444363938644528" lon="8.754350272938609">
        <ele>1795.4000000000001</ele>
        <time>2018-03-25T09:06:03Z</time>
      </trkpt>
      <trkpt lat="46.444314317777753" lon="8.754246588796377">
        <ele>1796.3599999999999</ele>
        <time>2018-03-25T09:06:14Z</time>
      </trkpt>
      <trkpt lat="46.44428975880146" lon="8.754194872453809">
        <ele>1796.8399999999999</ele>
        <time>2018-03-25T09:06:21Z</time>
      </trkpt>
      <trkpt lat="46.444255309179425" lon="8.754137875512242">
        <ele>1798.28</ele>
        <time>2018-03-25T09:06:31Z</time>
      </trkpt>
      <trkpt lat="46.444236701354384" lon="8.754075514152646">
        <ele>1799.73</ele>
        <time>2018-03-25T09:06:40Z</time>
      </trkpt>
      <trkpt lat="46.444206777960062" lon="8.753961687907577">
        <ele>1799.73</ele>
        <time>2018-03-25T09:06:51Z</time>
      </trkpt>
      <trkpt lat="46.44418029114604" lon="8.753970069810748">
        <ele>1799.24</ele>
        <time>2018-03-25T09:07:02Z</time>
      </trkpt>
      <trkpt lat="46.444174675270915" lon="8.753939643502235">
        <ele>1799.24</ele>
        <time>2018-03-25T09:07:17Z</time>
      </trkpt>
      <trkpt lat="46.44421256147325" lon="8.753940146416426">
        <ele>1799.73</ele>
        <time>2018-03-25T09:07:28Z</time>
      </trkpt>
      <trkpt lat="46.444215830415487" lon="8.753943582996726">
        <ele>1798.28</ele>
        <time>2018-03-25T09:07:42Z</time>
      </trkpt>
      <trkpt lat="46.444208454340696" lon="8.753980211913586">
        <ele>1798.28</ele>
        <time>2018-03-25T09:07:51Z</time>
      </trkpt>
      <trkpt lat="46.444203089922667" lon="8.753980295732617">
        <ele>1798.28</ele>
        <time>2018-03-25T09:08:18Z</time>
      </trkpt>
      <trkpt lat="46.444190349429846" lon="8.753957916051149">
        <ele>1799.24</ele>
        <time>2018-03-25T09:08:29Z</time>
      </trkpt>
      <trkpt lat="46.44421448931098" lon="8.753915755078197">
        <ele>1799.24</ele>
        <time>2018-03-25T09:08:40Z</time>
      </trkpt>
      <trkpt lat="46.44423401914537" lon="8.753925561904907">
        <ele>1799.24</ele>
        <time>2018-03-25T09:08:56Z</time>
      </trkpt>
      <trkpt lat="46.444243071600795" lon="8.753926483914256">
        <ele>1799.24</ele>
        <time>2018-03-25T09:09:16Z</time>
      </trkpt>
      <trkpt lat="46.444231504574418" lon="8.7539242208004">
        <ele>1799.24</ele>
        <time>2018-03-25T09:09:41Z</time>
      </trkpt>
      <trkpt lat="46.444232929497957" lon="8.753946516662836">
        <ele>1799.24</ele>
        <time>2018-03-25T09:09:54Z</time>
      </trkpt>
      <trkpt lat="46.444226643070579" lon="8.753929752856493">
        <ele>1799.73</ele>
        <time>2018-03-25T09:10:12Z</time>
      </trkpt>
      <trkpt lat="46.444224547594786" lon="8.753951964899898">
        <ele>1799.73</ele>
        <time>2018-03-25T09:10:33Z</time>
      </trkpt>
      <trkpt lat="46.444217255339026" lon="8.753936626017094">
        <ele>1799.73</ele>
        <time>2018-03-25T09:10:51Z</time>
      </trkpt>
      <trkpt lat="46.444213818758726" lon="8.753922628238797">
        <ele>1799.73</ele>
        <time>2018-03-25T09:11:10Z</time>
      </trkpt>
      <trkpt lat="46.444217758253217" lon="8.75392522662878">
        <ele>1799.73</ele>
        <time>2018-03-25T09:11:29Z</time>
      </trkpt>
      <trkpt lat="46.444224631413817" lon="8.753956155851483">
        <ele>1799.73</ele>
        <time>2018-03-25T09:11:42Z</time>
      </trkpt>
      <trkpt lat="46.444210633635521" lon="8.753913743421435">
        <ele>1800.21</ele>
        <time>2018-03-25T09:11:52Z</time>
      </trkpt>
      <trkpt lat="46.444178363308311" lon="8.753840317949653">
        <ele>1801.1700000000001</ele>
        <time>2018-03-25T09:12:02Z</time>
      </trkpt>
      <trkpt lat="46.444161599501967" lon="8.753755409270525">
        <ele>1802.1300000000001</ele>
        <time>2018-03-25T09:12:11Z</time>
      </trkpt>
      <trkpt lat="46.444116840139031" lon="8.753734370693564">
        <ele>1804.05</ele>
        <time>2018-03-25T09:12:23Z</time>
      </trkpt>
      <trkpt lat="46.444058921188116" lon="8.753741662949324">
        <ele>1806.45</ele>
        <time>2018-03-25T09:12:37Z</time>
      </trkpt>
      <trkpt lat="46.444012736901641" lon="8.753755241632462">
        <ele>1807.9000000000001</ele>
        <time>2018-03-25T09:12:46Z</time>
      </trkpt>
      <trkpt lat="46.443952722474933" lon="8.75380352139473">
        <ele>1808.8599999999999</ele>
        <time>2018-03-25T09:12:55Z</time>
      </trkpt>
      <trkpt lat="46.443922631442547" lon="8.753846520558">
        <ele>1810.3</ele>
        <time>2018-03-25T09:13:05Z</time>
      </trkpt>
      <trkpt lat="46.443875022232533" lon="8.75390226021409">
        <ele>1811.74</ele>
        <time>2018-03-25T09:13:16Z</time>
      </trkpt>
      <trkpt lat="46.443817522376776" lon="8.753917012363672">
        <ele>1812.7</ele>
        <time>2018-03-25T09:13:24Z</time>
      </trkpt>
      <trkpt lat="46.443730937317014" lon="8.753930255770683">
        <ele>1813.6600000000001</ele>
        <time>2018-03-25T09:13:38Z</time>
      </trkpt>
      <trkpt lat="46.44367360509932" lon="8.753932351246476">
        <ele>1815.1099999999999</ele>
        <time>2018-03-25T09:13:50Z</time>
      </trkpt>
      <trkpt lat="46.443610321730375" lon="8.753958335146308">
        <ele>1816.55</ele>
        <time>2018-03-25T09:14:00Z</time>
      </trkpt>
      <trkpt lat="46.443540500476956" lon="8.75397652387619">
        <ele>1817.51</ele>
        <time>2018-03-25T09:14:11Z</time>
      </trkpt>
      <trkpt lat="46.443486604839563" lon="8.753976104781032">
        <ele>1818.47</ele>
        <time>2018-03-25T09:14:20Z</time>
      </trkpt>
      <trkpt lat="46.443410748615861" lon="8.753992114216089">
        <ele>1820.3900000000001</ele>
        <time>2018-03-25T09:14:33Z</time>
      </trkpt>
      <trkpt lat="46.443400522693992" lon="8.753989180549979">
        <ele>1820.3900000000001</ele>
        <time>2018-03-25T09:14:43Z</time>
      </trkpt>
      <trkpt lat="46.443408653140068" lon="8.753979289904237">
        <ele>1820.3900000000001</ele>
        <time>2018-03-25T09:14:55Z</time>
      </trkpt>
      <trkpt lat="46.443377137184143" lon="8.753982055932283">
        <ele>1820.8699999999999</ele>
        <time>2018-03-25T09:15:05Z</time>
      </trkpt>
      <trkpt lat="46.443320140242577" lon="8.753969902172685">
        <ele>1822.3199999999999</ele>
        <time>2018-03-25T09:15:16Z</time>
      </trkpt>
      <trkpt lat="46.443327097222209" lon="8.753893794491887">
        <ele>1824.24</ele>
        <time>2018-03-25T09:15:25Z</time>
      </trkpt>
      <trkpt lat="46.443361882120371" lon="8.753834282979369">
        <ele>1825.2</ele>
        <time>2018-03-25T09:15:34Z</time>
      </trkpt>
      <trkpt lat="46.443394822999835" lon="8.753781728446484">
        <ele>1826.1600000000001</ele>
        <time>2018-03-25T09:15:43Z</time>
      </trkpt>
      <trkpt lat="46.443422818556428" lon="8.753768149763346">
        <ele>1826.6400000000001</ele>
        <time>2018-03-25T09:15:53Z</time>
      </trkpt>
      <trkpt lat="46.443453580141068" lon="8.75375566072762">
        <ele>1827.5999999999999</ele>
        <time>2018-03-25T09:16:04Z</time>
      </trkpt>
      <trkpt lat="46.443493645638227" lon="8.753745518624783">
        <ele>1827.5999999999999</ele>
        <time>2018-03-25T09:16:21Z</time>
      </trkpt>
      <trkpt lat="46.443481156602502" lon="8.753735376521945">
        <ele>1829.05</ele>
        <time>2018-03-25T09:16:29Z</time>
      </trkpt>
      <trkpt lat="46.443473948165774" lon="8.753702268004417">
        <ele>1830.01</ele>
        <time>2018-03-25T09:16:42Z</time>
      </trkpt>
      <trkpt lat="46.44346640445292" lon="8.753667650744319">
        <ele>1830.01</ele>
        <time>2018-03-25T09:16:56Z</time>
      </trkpt>
      <trkpt lat="46.443485179916024" lon="8.753605876117945">
        <ele>1831.45</ele>
        <time>2018-03-25T09:17:06Z</time>
      </trkpt>
      <trkpt lat="46.443466823548079" lon="8.753589866682887">
        <ele>1833.3699999999999</ele>
        <time>2018-03-25T09:17:16Z</time>
      </trkpt>
      <trkpt lat="46.443442264571786" lon="8.753622220829129">
        <ele>1834.8099999999999</ele>
        <time>2018-03-25T09:17:27Z</time>
      </trkpt>
      <trkpt lat="46.44341996870935" lon="8.753563463687897">
        <ele>1836.26</ele>
        <time>2018-03-25T09:17:36Z</time>
      </trkpt>
      <trkpt lat="46.443445701152086" lon="8.753510657697916">
        <ele>1837.22</ele>
        <time>2018-03-25T09:17:45Z</time>
      </trkpt>
      <trkpt lat="46.443475792184472" lon="8.753467071801424">
        <ele>1838.1800000000001</ele>
        <time>2018-03-25T09:17:55Z</time>
      </trkpt>
      <trkpt lat="46.443479815497994" lon="8.753428934141994">
        <ele>1840.0999999999999</ele>
        <time>2018-03-25T09:18:06Z</time>
      </trkpt>
      <trkpt lat="46.443455088883638" lon="8.753464138135314">
        <ele>1841.0599999999999</ele>
        <time>2018-03-25T09:18:16Z</time>
      </trkpt>
      <trkpt lat="46.443361965939403" lon="8.753499342128635">
        <ele>1841.0599999999999</ele>
        <time>2018-03-25T09:18:27Z</time>
      </trkpt>
      <trkpt lat="46.443313350901008" lon="8.753554914146662">
        <ele>1842.5</ele>
        <time>2018-03-25T09:18:37Z</time>
      </trkpt>
      <trkpt lat="46.443278649821877" lon="8.753505041822791">
        <ele>1843.47</ele>
        <time>2018-03-25T09:18:46Z</time>
      </trkpt>
      <trkpt lat="46.443272614851594" lon="8.753416864201427">
        <ele>1844.4300000000001</ele>
        <time>2018-03-25T09:18:55Z</time>
      </trkpt>
      <trkpt lat="46.443241350352764" lon="8.753376295790076">
        <ele>1845.3900000000001</ele>
        <time>2018-03-25T09:19:05Z</time>
      </trkpt>
      <trkpt lat="46.44320354796946" lon="8.753318879753351">
        <ele>1847.3099999999999</ele>
        <time>2018-03-25T09:19:16Z</time>
      </trkpt>
      <trkpt lat="46.443179994821548" lon="8.753252243623138">
        <ele>1848.27</ele>
        <time>2018-03-25T09:19:25Z</time>
      </trkpt>
      <trkpt lat="46.443168176338077" lon="8.75323724001646">
        <ele>1848.27</ele>
        <time>2018-03-25T09:19:36Z</time>
      </trkpt>
      <trkpt lat="46.443176809698343" lon="8.75326506793499">
        <ele>1848.27</ele>
        <time>2018-03-25T09:19:58Z</time>
      </trkpt>
      <trkpt lat="46.443163566291332" lon="8.753204047679901">
        <ele>1848.75</ele>
        <time>2018-03-25T09:20:09Z</time>
      </trkpt>
      <trkpt lat="46.443151412531734" lon="8.753148643299937">
        <ele>1849.23</ele>
        <time>2018-03-25T09:20:19Z</time>
      </trkpt>
      <trkpt lat="46.443134313449264" lon="8.753113858401775">
        <ele>1849.23</ele>
        <time>2018-03-25T09:20:31Z</time>
      </trkpt>
      <trkpt lat="46.443125763908029" lon="8.753093490377069">
        <ele>1849.23</ele>
        <time>2018-03-25T09:20:44Z</time>
      </trkpt>
      <trkpt lat="46.443121992051601" lon="8.753080414608121">
        <ele>1849.23</ele>
        <time>2018-03-25T09:20:46Z</time>
      </trkpt>
      <trkpt lat="46.443098187446594" lon="8.75296164304018">
        <ele>1849.71</ele>
        <time>2018-03-25T09:20:57Z</time>
      </trkpt>
      <trkpt lat="46.443100115284324" lon="8.752889642491937">
        <ele>1851.6400000000001</ele>
        <time>2018-03-25T09:21:07Z</time>
      </trkpt>
      <trkpt lat="46.443088799715042" lon="8.752832477912307">
        <ele>1852.5999999999999</ele>
        <time>2018-03-25T09:21:20Z</time>
      </trkpt>
      <trkpt lat="46.443077148869634" lon="8.752822503447533">
        <ele>1853.0799999999999</ele>
        <time>2018-03-25T09:21:35Z</time>
      </trkpt>
      <trkpt lat="46.443066755309701" lon="8.75275838188827">
        <ele>1854.04</ele>
        <time>2018-03-25T09:21:45Z</time>
      </trkpt>
      <trkpt lat="46.443033562973142" lon="8.752672215923667">
        <ele>1855.48</ele>
        <time>2018-03-25T09:21:56Z</time>
      </trkpt>
      <trkpt lat="46.443016631528735" lon="8.752611698582768">
        <ele>1856.9200000000001</ele>
        <time>2018-03-25T09:22:06Z</time>
      </trkpt>
      <trkpt lat="46.443018559366465" lon="8.752586971968412">
        <ele>1856.9200000000001</ele>
        <time>2018-03-25T09:22:17Z</time>
      </trkpt>
      <trkpt lat="46.443004561588168" lon="8.752535842359066">
        <ele>1858.3699999999999</ele>
        <time>2018-03-25T09:22:30Z</time>
      </trkpt>
      <trkpt lat="46.442979415878654" lon="8.752475660294294">
        <ele>1859.3299999999999</ele>
        <time>2018-03-25T09:22:40Z</time>
      </trkpt>
      <trkpt lat="46.442930549383163" lon="8.752426542341709">
        <ele>1859.8099999999999</ele>
        <time>2018-03-25T09:22:55Z</time>
      </trkpt>
      <trkpt lat="46.442952761426568" lon="8.752400726079941">
        <ele>1859.8099999999999</ele>
        <time>2018-03-25T09:23:08Z</time>
      </trkpt>
      <trkpt lat="46.442954270169139" lon="8.752412544563413">
        <ele>1860.29</ele>
        <time>2018-03-25T09:23:17Z</time>
      </trkpt>
      <trkpt lat="46.442936416715384" lon="8.752425536513329">
        <ele>1860.29</ele>
        <time>2018-03-25T09:23:32Z</time>
      </trkpt>
      <trkpt lat="46.442912863567472" lon="8.752394104376435">
        <ele>1860.29</ele>
        <time>2018-03-25T09:23:48Z</time>
      </trkpt>
      <trkpt lat="46.442922418937087" lon="8.752379938960075">
        <ele>1859.8099999999999</ele>
        <time>2018-03-25T09:24:03Z</time>
      </trkpt>
      <trkpt lat="46.442911857739091" lon="8.752383040264249">
        <ele>1860.77</ele>
        <time>2018-03-25T09:24:17Z</time>
      </trkpt>
      <trkpt lat="46.442818399518728" lon="8.752327300608158">
        <ele>1861.25</ele>
        <time>2018-03-25T09:24:30Z</time>
      </trkpt>
      <trkpt lat="46.442773975431919" lon="8.752257898449898">
        <ele>1862.21</ele>
        <time>2018-03-25T09:24:41Z</time>
      </trkpt>
      <trkpt lat="46.442736843600869" lon="8.75220668502152">
        <ele>1862.6900000000001</ele>
        <time>2018-03-25T09:24:49Z</time>
      </trkpt>
      <trkpt lat="46.442701052874327" lon="8.752153208479285">
        <ele>1863.6500000000001</ele>
        <time>2018-03-25T09:24:59Z</time>
      </trkpt>
      <trkpt lat="46.442610612139106" lon="8.752049021422863">
        <ele>1865.5799999999999</ele>
        <time>2018-03-25T09:25:15Z</time>
      </trkpt>
      <trkpt lat="46.442555543035269" lon="8.751961262896657">
        <ele>1867.98</ele>
        <time>2018-03-25T09:25:29Z</time>
      </trkpt>
      <trkpt lat="46.442516734823585" lon="8.751889429986477">
        <ele>1868.9400000000001</ele>
        <time>2018-03-25T09:25:38Z</time>
      </trkpt>
      <trkpt lat="46.442461917176843" lon="8.751807622611523">
        <ele>1870.3800000000001</ele>
        <time>2018-03-25T09:25:49Z</time>
      </trkpt>
      <trkpt lat="46.442412631586194" lon="8.751749452203512">
        <ele>1871.3399999999999</ele>
        <time>2018-03-25T09:26:01Z</time>
      </trkpt>
      <trkpt lat="46.442366279661655" lon="8.751686587929726">
        <ele>1872.79</ele>
        <time>2018-03-25T09:26:11Z</time>
      </trkpt>
      <trkpt lat="46.442319508641958" lon="8.751652389764786">
        <ele>1874.23</ele>
        <time>2018-03-25T09:26:22Z</time>
      </trkpt>
      <trkpt lat="46.442267037928104" lon="8.75163353048265">
        <ele>1875.1900000000001</ele>
        <time>2018-03-25T09:26:32Z</time>
      </trkpt>
      <trkpt lat="46.442213729023933" lon="8.751653730869293">
        <ele>1876.6300000000001</ele>
        <time>2018-03-25T09:26:43Z</time>
      </trkpt>
      <trkpt lat="46.442198976874352" lon="8.751654317602515">
        <ele>1877.1099999999999</ele>
        <time>2018-03-25T09:27:01Z</time>
      </trkpt>
      <trkpt lat="46.442165952175856" lon="8.751649623736739">
        <ele>1877.5899999999999</ele>
        <time>2018-03-25T09:27:16Z</time>
      </trkpt>
      <trkpt lat="46.442130915820599" lon="8.751627160236239">
        <ele>1878.55</ele>
        <time>2018-03-25T09:27:29Z</time>
      </trkpt>
      <trkpt lat="46.442123623564839" lon="8.75157343223691">
        <ele>1879.51</ele>
        <time>2018-03-25T09:27:46Z</time>
      </trkpt>
      <trkpt lat="46.44209872931242" lon="8.751499503850937">
        <ele>1880.48</ele>
        <time>2018-03-25T09:27:55Z</time>
      </trkpt>
      <trkpt lat="46.442074086517096" lon="8.751436388120055">
        <ele>1881.9200000000001</ele>
        <time>2018-03-25T09:28:05Z</time>
      </trkpt>
      <trkpt lat="46.442057657986879" lon="8.751382660120726">
        <ele>1883.3599999999999</ele>
        <time>2018-03-25T09:28:16Z</time>
      </trkpt>
      <trkpt lat="46.442042822018266" lon="8.751317365095019">
        <ele>1884.3199999999999</ele>
        <time>2018-03-25T09:28:26Z</time>
      </trkpt>
      <trkpt lat="46.442017089575529" lon="8.751269252970815">
        <ele>1885.28</ele>
        <time>2018-03-25T09:28:34Z</time>
      </trkpt>
      <trkpt lat="46.441992614418268" lon="8.751229103654623">
        <ele>1886.24</ele>
        <time>2018-03-25T09:28:42Z</time>
      </trkpt>
      <trkpt lat="46.441969145089388" lon="8.751199850812554">
        <ele>1887.6900000000001</ele>
        <time>2018-03-25T09:28:54Z</time>
      </trkpt>
      <trkpt lat="46.441952800378203" lon="8.751145787537098">
        <ele>1888.6500000000001</ele>
        <time>2018-03-25T09:29:04Z</time>
      </trkpt>
      <trkpt lat="46.441929079592228" lon="8.751104464754462">
        <ele>1889.6099999999999</ele>
        <time>2018-03-25T09:29:16Z</time>
      </trkpt>
      <trkpt lat="46.441902006044984" lon="8.751081330701709">
        <ele>1890.5699999999999</ele>
        <time>2018-03-25T09:29:26Z</time>
      </trkpt>
      <trkpt lat="46.441897815093398" lon="8.751055598258972">
        <ele>1891.05</ele>
        <time>2018-03-25T09:29:34Z</time>
      </trkpt>
      <trkpt lat="46.441936958581209" lon="8.750999355688691">
        <ele>1892.01</ele>
        <time>2018-03-25T09:29:45Z</time>
      </trkpt>
      <trkpt lat="46.441982053220272" lon="8.750963229686022">
        <ele>1893.45</ele>
        <time>2018-03-25T09:29:54Z</time>
      </trkpt>
      <trkpt lat="46.442018011584878" lon="8.750935150310397">
        <ele>1894.4200000000001</ele>
        <time>2018-03-25T09:30:02Z</time>
      </trkpt>
      <trkpt lat="46.442065117880702" lon="8.750919895246625">
        <ele>1895.8599999999999</ele>
        <time>2018-03-25T09:30:14Z</time>
      </trkpt>
      <trkpt lat="46.44211289472878" lon="8.750886283814907">
        <ele>1897.3</ele>
        <time>2018-03-25T09:30:25Z</time>
      </trkpt>
      <trkpt lat="46.442148517817259" lon="8.750866502523422">
        <ele>1898.26</ele>
        <time>2018-03-25T09:30:35Z</time>
      </trkpt>
      <trkpt lat="46.442193947732449" lon="8.750829789787531">
        <ele>1898.74</ele>
        <time>2018-03-25T09:30:45Z</time>
      </trkpt>
      <trkpt lat="46.442219177260995" lon="8.750792406499386">
        <ele>1899.7</ele>
        <time>2018-03-25T09:30:55Z</time>
      </trkpt>
      <trkpt lat="46.442246250808239" lon="8.750759465619922">
        <ele>1900.6600000000001</ele>
        <time>2018-03-25T09:31:04Z</time>
      </trkpt>
      <trkpt lat="46.44227709621191" lon="8.750736834481359">
        <ele>1901.6300000000001</ele>
        <time>2018-03-25T09:31:13Z</time>
      </trkpt>
      <trkpt lat="46.442313641309738" lon="8.750676652416587">
        <ele>1902.5899999999999</ele>
        <time>2018-03-25T09:31:24Z</time>
      </trkpt>
      <trkpt lat="46.442357394844294" lon="8.750634156167507">
        <ele>1903.55</ele>
        <time>2018-03-25T09:31:33Z</time>
      </trkpt>
      <trkpt lat="46.442381115630269" lon="8.750574979931116">
        <ele>1903.55</ele>
        <time>2018-03-25T09:31:42Z</time>
      </trkpt>
      <trkpt lat="46.442429646849632" lon="8.750508930534124">
        <ele>1903.55</ele>
        <time>2018-03-25T09:31:53Z</time>
      </trkpt>
      <trkpt lat="46.442435765638947" lon="8.750471966341138">
        <ele>1902.5899999999999</ele>
        <time>2018-03-25T09:32:03Z</time>
      </trkpt>
      <trkpt lat="46.442437525838614" lon="8.750480767339468">
        <ele>1903.55</ele>
        <time>2018-03-25T09:32:19Z</time>
      </trkpt>
      <trkpt lat="46.442464012652636" lon="8.750375993549824">
        <ele>1904.03</ele>
        <time>2018-03-25T09:32:30Z</time>
      </trkpt>
      <trkpt lat="46.442515728995204" lon="8.750265436246991">
        <ele>1904.03</ele>
        <time>2018-03-25T09:32:42Z</time>
      </trkpt>
      <trkpt lat="46.442554788663983" lon="8.750150101259351">
        <ele>1904.03</ele>
        <time>2018-03-25T09:32:52Z</time>
      </trkpt>
      <trkpt lat="46.442579263821244" lon="8.750055888667703">
        <ele>1904.99</ele>
        <time>2018-03-25T09:33:02Z</time>
      </trkpt>
      <trkpt lat="46.442564679309726" lon="8.750087572261691">
        <ele>1904.99</ele>
        <time>2018-03-25T09:33:18Z</time>
      </trkpt>
      <trkpt lat="46.442584125325084" lon="8.750072568655014">
        <ele>1904.99</ele>
        <time>2018-03-25T09:33:35Z</time>
      </trkpt>
      <trkpt lat="46.442612707614899" lon="8.750012470409274">
        <ele>1905.47</ele>
        <time>2018-03-25T09:33:43Z</time>
      </trkpt>
      <trkpt lat="46.442651096731424" lon="8.749898141250014">
        <ele>1905.95</ele>
        <time>2018-03-25T09:33:52Z</time>
      </trkpt>
      <trkpt lat="46.442695017904043" lon="8.749827314168215">
        <ele>1906.9100000000001</ele>
        <time>2018-03-25T09:34:01Z</time>
      </trkpt>
      <trkpt lat="46.44275008700788" lon="8.749702507629991">
        <ele>1907.3900000000001</ele>
        <time>2018-03-25T09:34:14Z</time>
      </trkpt>
      <trkpt lat="46.442829631268978" lon="8.749634781852365">
        <ele>1907.3900000000001</ele>
        <time>2018-03-25T09:34:26Z</time>
      </trkpt>
      <trkpt lat="46.442884365096688" lon="8.749564625322819">
        <ele>1908.3499999999999</ele>
        <time>2018-03-25T09:34:37Z</time>
      </trkpt>
      <trkpt lat="46.442953934893012" lon="8.749453648924828">
        <ele>1909.3199999999999</ele>
        <time>2018-03-25T09:34:53Z</time>
      </trkpt>
      <trkpt lat="46.442994251847267" lon="8.749398998916149">
        <ele>1909.8</ele>
        <time>2018-03-25T09:35:00Z</time>
      </trkpt>
      <trkpt lat="46.443031635135412" lon="8.74933454208076">
        <ele>1909.8</ele>
        <time>2018-03-25T09:35:09Z</time>
      </trkpt>
      <trkpt lat="46.443038005381823" lon="8.749276790767908">
        <ele>1910.76</ele>
        <time>2018-03-25T09:35:18Z</time>
      </trkpt>
      <trkpt lat="46.443045297637582" lon="8.749209651723504">
        <ele>1911.72</ele>
        <time>2018-03-25T09:35:28Z</time>
      </trkpt>
      <trkpt lat="46.443053679540753" lon="8.749174783006311">
        <ele>1912.2</ele>
        <time>2018-03-25T09:35:35Z</time>
      </trkpt>
      <trkpt lat="46.443072957918048" lon="8.749078642576933">
        <ele>1913.6400000000001</ele>
        <time>2018-03-25T09:35:47Z</time>
      </trkpt>
      <trkpt lat="46.443080585449934" lon="8.748998763039708">
        <ele>1914.1199999999999</ele>
        <time>2018-03-25T09:35:56Z</time>
      </trkpt>
      <trkpt lat="46.443085614591837" lon="8.74893045052886">
        <ele>1915.0799999999999</ele>
        <time>2018-03-25T09:36:06Z</time>
      </trkpt>
      <trkpt lat="46.443085027858615" lon="8.748880578204989">
        <ele>1916.04</ele>
        <time>2018-03-25T09:36:15Z</time>
      </trkpt>
      <trkpt lat="46.443090308457613" lon="8.748839423060417">
        <ele>1917.01</ele>
        <time>2018-03-25T09:36:25Z</time>
      </trkpt>
      <trkpt lat="46.443063654005527" lon="8.748819390311837">
        <ele>1917.97</ele>
        <time>2018-03-25T09:36:34Z</time>
      </trkpt>
      <trkpt lat="46.443045381456614" lon="8.748785024508834">
        <ele>1919.4100000000001</ele>
        <time>2018-03-25T09:36:48Z</time>
      </trkpt>
      <trkpt lat="46.443041944876313" lon="8.748785359784961">
        <ele>1919.4100000000001</ele>
        <time>2018-03-25T09:37:01Z</time>
      </trkpt>
      <trkpt lat="46.443034904077649" lon="8.748772703111172">
        <ele>1919.4100000000001</ele>
        <time>2018-03-25T09:37:12Z</time>
      </trkpt>
      <trkpt lat="46.443040017038584" lon="8.748738085851073">
        <ele>1919.4100000000001</ele>
        <time>2018-03-25T09:37:25Z</time>
      </trkpt>
      <trkpt lat="46.443049069494009" lon="8.748673126101494">
        <ele>1920.8499999999999</ele>
        <time>2018-03-25T09:37:34Z</time>
      </trkpt>
      <trkpt lat="46.443044291809201" lon="8.748638844117522">
        <ele>1921.8099999999999</ele>
        <time>2018-03-25T09:37:42Z</time>
      </trkpt>
      <trkpt lat="46.44307404756546" lon="8.748570196330547">
        <ele>1923.25</ele>
        <time>2018-03-25T09:37:51Z</time>
      </trkpt>
      <trkpt lat="46.443070694804192" lon="8.748532980680466">
        <ele>1924.22</ele>
        <time>2018-03-25T09:37:59Z</time>
      </trkpt>
      <trkpt lat="46.443107072263956" lon="8.748485539108515">
        <ele>1925.1800000000001</ele>
        <time>2018-03-25T09:38:09Z</time>
      </trkpt>
      <trkpt lat="46.443132469430566" lon="8.748440276831389">
        <ele>1926.1400000000001</ele>
        <time>2018-03-25T09:38:17Z</time>
      </trkpt>
      <trkpt lat="46.443173121660948" lon="8.748409850522876">
        <ele>1927.0999999999999</ele>
        <time>2018-03-25T09:38:25Z</time>
      </trkpt>
      <trkpt lat="46.443214025348425" lon="8.748424937948585">
        <ele>1928.0599999999999</ele>
        <time>2018-03-25T09:38:33Z</time>
      </trkpt>
      <trkpt lat="46.443266412243247" lon="8.748443126678467">
        <ele>1928.54</ele>
        <time>2018-03-25T09:38:42Z</time>
      </trkpt>
      <trkpt lat="46.443317290395498" lon="8.748442120850086">
        <ele>1929.02</ele>
        <time>2018-03-25T09:38:53Z</time>
      </trkpt>
      <trkpt lat="46.443339502438903" lon="8.748449077829719">
        <ele>1929.5</ele>
        <time>2018-03-25T09:38:56Z</time>
      </trkpt>
      <trkpt lat="46.443415358662605" lon="8.748450502753258">
        <ele>1930.46</ele>
        <time>2018-03-25T09:39:06Z</time>
      </trkpt>
      <trkpt lat="46.443427260965109" lon="8.748388728126884">
        <ele>1931.4300000000001</ele>
        <time>2018-03-25T09:39:18Z</time>
      </trkpt>
      <trkpt lat="46.4434415102005" lon="8.748300215229392">
        <ele>1932.3900000000001</ele>
        <time>2018-03-25T09:39:28Z</time>
      </trkpt>
      <trkpt lat="46.443443689495325" lon="8.748224191367626">
        <ele>1932.3900000000001</ele>
        <time>2018-03-25T09:39:38Z</time>
      </trkpt>
      <trkpt lat="46.443445617333055" lon="8.748102569952607">
        <ele>1932.3900000000001</ele>
        <time>2018-03-25T09:39:47Z</time>
      </trkpt>
      <trkpt lat="46.443445533514023" lon="8.747999724000692">
        <ele>1932.3900000000001</ele>
        <time>2018-03-25T09:39:56Z</time>
      </trkpt>
      <trkpt lat="46.443464225158095" lon="8.747893692925572">
        <ele>1932.8699999999999</ele>
        <time>2018-03-25T09:40:06Z</time>
      </trkpt>
      <trkpt lat="46.443485766649246" lon="8.747821189463139">
        <ele>1933.3499999999999</ele>
        <time>2018-03-25T09:40:16Z</time>
      </trkpt>
      <trkpt lat="46.443493226543069" lon="8.747812891378999">
        <ele>1933.8299999999999</ele>
        <time>2018-03-25T09:40:26Z</time>
      </trkpt>
      <trkpt lat="46.443517450243235" lon="8.747773161157966">
        <ele>1934.3099999999999</ele>
        <time>2018-03-25T09:40:37Z</time>
      </trkpt>
      <trkpt lat="46.443544356152415" lon="8.747713817283511">
        <ele>1935.27</ele>
        <time>2018-03-25T09:40:45Z</time>
      </trkpt>
      <trkpt lat="46.443577380850911" lon="8.74763410538435">
        <ele>1937.1900000000001</ele>
        <time>2018-03-25T09:40:55Z</time>
      </trkpt>
      <trkpt lat="46.443579895421863" lon="8.747561350464821">
        <ele>1938.1600000000001</ele>
        <time>2018-03-25T09:41:06Z</time>
      </trkpt>
      <trkpt lat="46.443591546267271" lon="8.747477782890201">
        <ele>1939.1199999999999</ele>
        <time>2018-03-25T09:41:16Z</time>
      </trkpt>
      <trkpt lat="46.443627588450909" lon="8.74740251339972">
        <ele>1940.0799999999999</ele>
        <time>2018-03-25T09:41:26Z</time>
      </trkpt>
      <trkpt lat="46.443623900413513" lon="8.747352892532945">
        <ele>1941.52</ele>
        <time>2018-03-25T09:41:35Z</time>
      </trkpt>
      <trkpt lat="46.443646950647235" lon="8.74729061499238">
        <ele>1942.48</ele>
        <time>2018-03-25T09:41:45Z</time>
      </trkpt>
      <trkpt lat="46.443643430247903" lon="8.747212830930948">
        <ele>1943.9200000000001</ele>
        <time>2018-03-25T09:41:57Z</time>
      </trkpt>
      <trkpt lat="46.443640161305666" lon="8.747146027162671">
        <ele>1944.8800000000001</ele>
        <time>2018-03-25T09:42:07Z</time>
      </trkpt>
      <trkpt lat="46.443671844899654" lon="8.74710638076067">
        <ele>1945.8499999999999</ele>
        <time>2018-03-25T09:42:14Z</time>
      </trkpt>
      <trkpt lat="46.443676706403494" lon="8.747045192867518">
        <ele>1947.29</ele>
        <time>2018-03-25T09:42:25Z</time>
      </trkpt>
      <trkpt lat="46.443697493523359" lon="8.747008312493563">
        <ele>1948.25</ele>
        <time>2018-03-25T09:42:34Z</time>
      </trkpt>
      <trkpt lat="46.443737726658583" lon="8.746963888406754">
        <ele>1948.73</ele>
        <time>2018-03-25T09:42:43Z</time>
      </trkpt>
      <trkpt lat="46.443769494071603" lon="8.74692264944315">
        <ele>1950.1700000000001</ele>
        <time>2018-03-25T09:42:52Z</time>
      </trkpt>
      <trkpt lat="46.443789945915341" lon="8.746875459328294">
        <ele>1950.1700000000001</ele>
        <time>2018-03-25T09:43:00Z</time>
      </trkpt>
      <trkpt lat="46.443788437172771" lon="8.746874704957008">
        <ele>1951.1300000000001</ele>
        <time>2018-03-25T09:43:11Z</time>
      </trkpt>
      <trkpt lat="46.443773685023189" lon="8.746890043839812">
        <ele>1950.6500000000001</ele>
        <time>2018-03-25T09:43:31Z</time>
      </trkpt>
      <trkpt lat="46.443748371675611" lon="8.746937653049827">
        <ele>1950.6500000000001</ele>
        <time>2018-03-25T09:43:58Z</time>
      </trkpt>
      <trkpt lat="46.443753316998482" lon="8.746907394379377">
        <ele>1950.6500000000001</ele>
        <time>2018-03-25T09:44:20Z</time>
      </trkpt>
      <trkpt lat="46.443772595375776" lon="8.746897168457508">
        <ele>1950.6500000000001</ele>
        <time>2018-03-25T09:44:36Z</time>
      </trkpt>
      <trkpt lat="46.443777289241552" lon="8.746879063546658">
        <ele>1950.6500000000001</ele>
        <time>2018-03-25T09:44:51Z</time>
      </trkpt>
      <trkpt lat="46.443787598982453" lon="8.746803961694241">
        <ele>1951.6099999999999</ele>
        <time>2018-03-25T09:45:01Z</time>
      </trkpt>
      <trkpt lat="46.44379572942853" lon="8.746750485152006">
        <ele>1953.0599999999999</ele>
        <time>2018-03-25T09:45:09Z</time>
      </trkpt>
      <trkpt lat="46.443814421072602" lon="8.746686866506934">
        <ele>1954.98</ele>
        <time>2018-03-25T09:45:18Z</time>
      </trkpt>
      <trkpt lat="46.443829173222184" lon="8.746647974476218">
        <ele>1955.46</ele>
        <time>2018-03-25T09:45:25Z</time>
      </trkpt>
      <trkpt lat="46.443841159343719" lon="8.746578572317958">
        <ele>1956.4200000000001</ele>
        <time>2018-03-25T09:45:34Z</time>
      </trkpt>
      <trkpt lat="46.443865718320012" lon="8.746481593698263">
        <ele>1958.3399999999999</ele>
        <time>2018-03-25T09:45:44Z</time>
      </trkpt>
      <trkpt lat="46.443903269246221" lon="8.746438678354025">
        <ele>1959.3</ele>
        <time>2018-03-25T09:45:52Z</time>
      </trkpt>
      <trkpt lat="46.44392766058445" lon="8.746386710554361">
        <ele>1960.75</ele>
        <time>2018-03-25T09:46:02Z</time>
      </trkpt>
      <trkpt lat="46.443950710818172" lon="8.746312027797103">
        <ele>1961.23</ele>
        <time>2018-03-25T09:46:11Z</time>
      </trkpt>
      <trkpt lat="46.44395892508328" lon="8.746251510456204">
        <ele>1962.1900000000001</ele>
        <time>2018-03-25T09:46:19Z</time>
      </trkpt>
      <trkpt lat="46.443964624777436" lon="8.74621169641614">
        <ele>1962.6700000000001</ele>
        <time>2018-03-25T09:46:26Z</time>
      </trkpt>
      <trkpt lat="46.443988429382443" lon="8.746173642575741">
        <ele>1963.1500000000001</ele>
        <time>2018-03-25T09:46:33Z</time>
      </trkpt>
      <trkpt lat="46.444008126854897" lon="8.746100636199117">
        <ele>1964.1099999999999</ele>
        <time>2018-03-25T09:46:39Z</time>
      </trkpt>
      <trkpt lat="46.443998487666249" lon="8.746048919856548">
        <ele>1964.5899999999999</ele>
        <time>2018-03-25T09:46:50Z</time>
      </trkpt>
      <trkpt lat="46.443992536514997" lon="8.746061241254211">
        <ele>1965.55</ele>
        <time>2018-03-25T09:47:04Z</time>
      </trkpt>
      <trkpt lat="46.444006115198135" lon="8.746050763875246">
        <ele>1963.6300000000001</ele>
        <time>2018-03-25T09:47:12Z</time>
      </trkpt>
      <trkpt lat="46.44402053207159" lon="8.746042214334011">
        <ele>1963.1500000000001</ele>
        <time>2018-03-25T09:47:40Z</time>
      </trkpt>
      <trkpt lat="46.444022711366415" lon="8.746071299538016">
        <ele>1963.1500000000001</ele>
        <time>2018-03-25T09:48:00Z</time>
      </trkpt>
      <trkpt lat="46.444076942279935" lon="8.746081190183759">
        <ele>1963.1500000000001</ele>
        <time>2018-03-25T09:48:24Z</time>
      </trkpt>
      <trkpt lat="46.444058585911989" lon="8.746042968705297">
        <ele>1962.6700000000001</ele>
        <time>2018-03-25T09:48:37Z</time>
      </trkpt>
      <trkpt lat="46.444028159603477" lon="8.746046656742692">
        <ele>1963.1500000000001</ele>
        <time>2018-03-25T09:48:58Z</time>
      </trkpt>
      <trkpt lat="46.44400192424655" lon="8.746044058352709">
        <ele>1963.1500000000001</ele>
        <time>2018-03-25T09:49:17Z</time>
      </trkpt>
      <trkpt lat="46.444001672789454" lon="8.746076663956046">
        <ele>1963.6300000000001</ele>
        <time>2018-03-25T09:49:29Z</time>
      </trkpt>
      <trkpt lat="46.444005947560072" lon="8.746074736118317">
        <ele>1964.5899999999999</ele>
        <time>2018-03-25T09:49:38Z</time>
      </trkpt>
      <trkpt lat="46.443983903154731" lon="8.746074065566063">
        <ele>1963.1500000000001</ele>
        <time>2018-03-25T09:49:51Z</time>
      </trkpt>
      <trkpt lat="46.443991530686617" lon="8.746051518246532">
        <ele>1963.6300000000001</ele>
        <time>2018-03-25T09:50:04Z</time>
      </trkpt>
      <trkpt lat="46.443984741345048" lon="8.746073897928">
        <ele>1963.1500000000001</ele>
        <time>2018-03-25T09:50:16Z</time>
      </trkpt>
      <trkpt lat="46.444007372483611" lon="8.746071215718985">
        <ele>1963.1500000000001</ele>
        <time>2018-03-25T09:50:34Z</time>
      </trkpt>
      <trkpt lat="46.444003013893962" lon="8.746049255132675">
        <ele>1963.1500000000001</ele>
        <time>2018-03-25T09:50:44Z</time>
      </trkpt>
      <trkpt lat="46.444005193188787" lon="8.746043974533677">
        <ele>1964.5899999999999</ele>
        <time>2018-03-25T09:50:57Z</time>
      </trkpt>
      <trkpt lat="46.443992368876934" lon="8.746034419164062">
        <ele>1963.1500000000001</ele>
        <time>2018-03-25T09:51:14Z</time>
      </trkpt>
      <trkpt lat="46.443989183753729" lon="8.746019499376416">
        <ele>1963.6300000000001</ele>
        <time>2018-03-25T09:51:34Z</time>
      </trkpt>
      <trkpt lat="46.443990021944046" lon="8.746040957048535">
        <ele>1963.1500000000001</ele>
        <time>2018-03-25T09:51:58Z</time>
      </trkpt>
      <trkpt lat="46.443990524858236" lon="8.74604263342917">
        <ele>1963.6300000000001</ele>
        <time>2018-03-25T09:52:15Z</time>
      </trkpt>
      <trkpt lat="46.4439975656569" lon="8.746030060574412">
        <ele>1963.1500000000001</ele>
        <time>2018-03-25T09:52:28Z</time>
      </trkpt>
      <trkpt lat="46.443980969488621" lon="8.74603089876473">
        <ele>1963.1500000000001</ele>
        <time>2018-03-25T09:52:41Z</time>
      </trkpt>
      <trkpt lat="46.444001672789454" lon="8.74601673334837">
        <ele>1963.6300000000001</ele>
        <time>2018-03-25T09:52:59Z</time>
      </trkpt>
      <trkpt lat="46.444002091884613" lon="8.745988653972745">
        <ele>1962.1900000000001</ele>
        <time>2018-03-25T09:53:13Z</time>
      </trkpt>
      <trkpt lat="46.444005109369755" lon="8.745913971215487">
        <ele>1962.1900000000001</ele>
        <time>2018-03-25T09:53:20Z</time>
      </trkpt>
      <trkpt lat="46.444000164046884" lon="8.745886143296957">
        <ele>1964.5899999999999</ele>
        <time>2018-03-25T09:53:23Z</time>
      </trkpt>
      <trkpt lat="46.444006953388453" lon="8.745773155242205">
        <ele>1965.55</ele>
        <time>2018-03-25T09:53:35Z</time>
      </trkpt>
      <trkpt lat="46.444003768265247" lon="8.745693024247885">
        <ele>1967.48</ele>
        <time>2018-03-25T09:53:44Z</time>
      </trkpt>
      <trkpt lat="46.44399899058044" lon="8.745592944324017">
        <ele>1968.4400000000001</ele>
        <time>2018-03-25T09:53:54Z</time>
      </trkpt>
      <trkpt lat="46.443989267572761" lon="8.745485488325357">
        <ele>1969.4000000000001</ele>
        <time>2018-03-25T09:54:05Z</time>
      </trkpt>
      <trkpt lat="46.443956913426518" lon="8.745396807789803">
        <ele>1971.3199999999999</ele>
        <time>2018-03-25T09:54:19Z</time>
      </trkpt>
      <trkpt lat="46.443946268409491" lon="8.745308630168438">
        <ele>1972.76</ele>
        <time>2018-03-25T09:54:30Z</time>
      </trkpt>
      <trkpt lat="46.443940652534366" lon="8.745229169726372">
        <ele>1973.72</ele>
        <time>2018-03-25T09:54:41Z</time>
      </trkpt>
      <trkpt lat="46.443948112428188" lon="8.745167898014188">
        <ele>1974.6900000000001</ele>
        <time>2018-03-25T09:54:48Z</time>
      </trkpt>
      <trkpt lat="46.443938808515668" lon="8.74509179033339">
        <ele>1976.1300000000001</ele>
        <time>2018-03-25T09:54:58Z</time>
      </trkpt>
      <trkpt lat="46.443936880677938" lon="8.745033871382475">
        <ele>1978.53</ele>
        <time>2018-03-25T09:55:08Z</time>
      </trkpt>
      <trkpt lat="46.443946268409491" lon="8.744950639083982">
        <ele>1978.53</ele>
        <time>2018-03-25T09:55:18Z</time>
      </trkpt>
      <trkpt lat="46.44395649433136" lon="8.744868915528059">
        <ele>1979.49</ele>
        <time>2018-03-25T09:55:26Z</time>
      </trkpt>
      <trkpt lat="46.443964960053563" lon="8.744826167821884">
        <ele>1979.97</ele>
        <time>2018-03-25T09:55:32Z</time>
      </trkpt>
      <trkpt lat="46.443973928689957" lon="8.744792807847261">
        <ele>1980.45</ele>
        <time>2018-03-25T09:55:35Z</time>
      </trkpt>
      <trkpt lat="46.443983232602477" lon="8.744702870026231">
        <ele>1980.9300000000001</ele>
        <time>2018-03-25T09:55:44Z</time>
      </trkpt>
      <trkpt lat="46.444002008065581" lon="8.744618380442262">
        <ele>1981.9000000000001</ele>
        <time>2018-03-25T09:55:57Z</time>
      </trkpt>
      <trkpt lat="46.444024639204144" lon="8.744544954970479">
        <ele>1982.3800000000001</ele>
        <time>2018-03-25T09:56:07Z</time>
      </trkpt>
      <trkpt lat="46.444040313363075" lon="8.744467254728079">
        <ele>1983.3399999999999</ele>
        <time>2018-03-25T09:56:15Z</time>
      </trkpt>
      <trkpt lat="46.444052970036864" lon="8.744375975802541">
        <ele>1984.3</ele>
        <time>2018-03-25T09:56:26Z</time>
      </trkpt>
      <trkpt lat="46.444061435759068" lon="8.744329707697034">
        <ele>1985.26</ele>
        <time>2018-03-25T09:56:35Z</time>
      </trkpt>
      <trkpt lat="46.444050036370754" lon="8.744255863130093">
        <ele>1986.22</ele>
        <time>2018-03-25T09:56:43Z</time>
      </trkpt>
      <trkpt lat="46.444036960601807" lon="8.744196938350797">
        <ele>1987.6600000000001</ele>
        <time>2018-03-25T09:56:54Z</time>
      </trkpt>
      <trkpt lat="46.444042911753058" lon="8.744119321927428">
        <ele>1988.6199999999999</ele>
        <time>2018-03-25T09:57:02Z</time>
      </trkpt>
      <trkpt lat="46.444056322798133" lon="8.744035167619586">
        <ele>1989.5899999999999</ele>
        <time>2018-03-25T09:57:12Z</time>
      </trkpt>
      <trkpt lat="46.444061603397131" lon="8.744005411863327">
        <ele>1990.55</ele>
        <time>2018-03-25T09:57:20Z</time>
      </trkpt>
      <trkpt lat="46.444073086604476" lon="8.743945481255651">
        <ele>1991.51</ele>
        <time>2018-03-25T09:57:29Z</time>
      </trkpt>
      <trkpt lat="46.444077780470252" lon="8.743887981399894">
        <ele>1992.47</ele>
        <time>2018-03-25T09:57:37Z</time>
      </trkpt>
      <trkpt lat="46.444061687216163" lon="8.743829475715756">
        <ele>1993.4300000000001</ele>
        <time>2018-03-25T09:57:45Z</time>
      </trkpt>
      <trkpt lat="46.44407476298511" lon="8.743766359984875">
        <ele>1994.3900000000001</ele>
        <time>2018-03-25T09:57:55Z</time>
      </trkpt>
      <trkpt lat="46.444094209000468" lon="8.743723947554827">
        <ele>1995.3499999999999</ele>
        <time>2018-03-25T09:58:03Z</time>
      </trkpt>
      <trkpt lat="46.444112313911319" lon="8.743678014725447">
        <ele>1995.8299999999999</ele>
        <time>2018-03-25T09:58:11Z</time>
      </trkpt>
      <trkpt lat="46.44412656314671" lon="8.743619006127119">
        <ele>1996.8</ele>
        <time>2018-03-25T09:58:19Z</time>
      </trkpt>
      <trkpt lat="46.444139387458563" lon="8.743562595918775">
        <ele>1997.76</ele>
        <time>2018-03-25T09:58:27Z</time>
      </trkpt>
      <trkpt lat="46.444129412993789" lon="8.743532253429294">
        <ele>1998.72</ele>
        <time>2018-03-25T09:58:36Z</time>
      </trkpt>
      <trkpt lat="46.444148356094956" lon="8.743478022515774">
        <ele>1999.6800000000001</ele>
        <time>2018-03-25T09:58:43Z</time>
      </trkpt>
      <trkpt lat="46.444166041910648" lon="8.743425467982888">
        <ele>2000.1600000000001</ele>
        <time>2018-03-25T09:58:52Z</time>
      </trkpt>
      <trkpt lat="46.44416662864387" lon="8.743386408314109">
        <ele>2001.5999999999999</ele>
        <time>2018-03-25T09:59:00Z</time>
      </trkpt>
      <trkpt lat="46.444152798503637" lon="8.743330333381891">
        <ele>2003.04</ele>
        <time>2018-03-25T09:59:13Z</time>
      </trkpt>
      <trkpt lat="46.44415489397943" lon="8.743269313126802">
        <ele>2004.01</ele>
        <time>2018-03-25T09:59:23Z</time>
      </trkpt>
      <trkpt lat="46.444145925343037" lon="8.743221452459693">
        <ele>2004.49</ele>
        <time>2018-03-25T09:59:30Z</time>
      </trkpt>
      <trkpt lat="46.444142488762736" lon="8.743173759430647">
        <ele>2005.45</ele>
        <time>2018-03-25T09:59:38Z</time>
      </trkpt>
      <trkpt lat="46.444147685542703" lon="8.74312506057322">
        <ele>2006.8900000000001</ele>
        <time>2018-03-25T09:59:48Z</time>
      </trkpt>
      <trkpt lat="46.444146009162068" lon="8.743128161877394">
        <ele>2005.9300000000001</ele>
        <time>2018-03-25T10:00:00Z</time>
      </trkpt>
      <trkpt lat="46.444135867059231" lon="8.743137381970882">
        <ele>2006.8900000000001</ele>
        <time>2018-03-25T10:00:15Z</time>
      </trkpt>
      <trkpt lat="46.444139303639531" lon="8.743126569315791">
        <ele>2006.4100000000001</ele>
        <time>2018-03-25T10:00:34Z</time>
      </trkpt>
      <trkpt lat="46.444122120738029" lon="8.743085917085409">
        <ele>2006.8900000000001</ele>
        <time>2018-03-25T10:00:43Z</time>
      </trkpt>
      <trkpt lat="46.44412949681282" lon="8.743047108873725">
        <ele>2007.3699999999999</ele>
        <time>2018-03-25T10:00:53Z</time>
      </trkpt>
      <trkpt lat="46.444139638915658" lon="8.743005115538836">
        <ele>2009.29</ele>
        <time>2018-03-25T10:01:10Z</time>
      </trkpt>
      <trkpt lat="46.444160509854555" lon="8.742964882403612">
        <ele>2008.8099999999999</ele>
        <time>2018-03-25T10:01:18Z</time>
      </trkpt>
      <trkpt lat="46.444191355258226" lon="8.742861282080412">
        <ele>2009.77</ele>
        <time>2018-03-25T10:01:30Z</time>
      </trkpt>
      <trkpt lat="46.44420619122684" lon="8.742802189663053">
        <ele>2010.25</ele>
        <time>2018-03-25T10:01:39Z</time>
      </trkpt>
      <trkpt lat="46.444240808486938" lon="8.742740247398615">
        <ele>2010.73</ele>
        <time>2018-03-25T10:01:49Z</time>
      </trkpt>
      <trkpt lat="46.44424868747592" lon="8.742744941264391">
        <ele>2010.73</ele>
        <time>2018-03-25T10:02:00Z</time>
      </trkpt>
      <trkpt lat="46.444252291694283" lon="8.742717951536179">
        <ele>2010.73</ele>
        <time>2018-03-25T10:02:06Z</time>
      </trkpt>
      <trkpt lat="46.444290261715651" lon="8.742639496922493">
        <ele>2011.22</ele>
        <time>2018-03-25T10:02:15Z</time>
      </trkpt>
      <trkpt lat="46.444328231737018" lon="8.742545116692781">
        <ele>2011.7</ele>
        <time>2018-03-25T10:02:24Z</time>
      </trkpt>
      <trkpt lat="46.444334350526333" lon="8.742474457249045">
        <ele>2013.1400000000001</ele>
        <time>2018-03-25T10:02:34Z</time>
      </trkpt>
      <trkpt lat="46.444354550912976" lon="8.742385189980269">
        <ele>2014.0999999999999</ele>
        <time>2018-03-25T10:02:43Z</time>
      </trkpt>
      <trkpt lat="46.444368464872241" lon="8.7422816734761">
        <ele>2015.54</ele>
        <time>2018-03-25T10:02:56Z</time>
      </trkpt>
      <trkpt lat="46.44438355229795" lon="8.74221621081233">
        <ele>2016.5</ele>
        <time>2018-03-25T10:03:05Z</time>
      </trkpt>
      <trkpt lat="46.444398388266563" lon="8.742239428684115">
        <ele>2016.02</ele>
        <time>2018-03-25T10:03:17Z</time>
      </trkpt>
      <trkpt lat="46.444409536197782" lon="8.742208667099476">
        <ele>2016.5</ele>
        <time>2018-03-25T10:03:27Z</time>
      </trkpt>
      <trkpt lat="46.444440046325326" lon="8.742148568853736">
        <ele>2016.5</ele>
        <time>2018-03-25T10:03:35Z</time>
      </trkpt>
      <trkpt lat="46.444426216185093" lon="8.742054775357246">
        <ele>2017.9400000000001</ele>
        <time>2018-03-25T10:03:46Z</time>
      </trkpt>
      <trkpt lat="46.444407273083925" lon="8.741984535008669">
        <ele>2019.3900000000001</ele>
        <time>2018-03-25T10:03:55Z</time>
      </trkpt>
      <trkpt lat="46.444401489570737" lon="8.741921251639724">
        <ele>2019.8699999999999</ele>
        <time>2018-03-25T10:04:03Z</time>
      </trkpt>
      <trkpt lat="46.444397550076246" lon="8.741904068738222">
        <ele>2019.8699999999999</ele>
        <time>2018-03-25T10:04:05Z</time>
      </trkpt>
      <trkpt lat="46.444376427680254" lon="8.741845982149243">
        <ele>2020.8299999999999</ele>
        <time>2018-03-25T10:04:14Z</time>
      </trkpt>
      <trkpt lat="46.444388329982758" lon="8.741836175322533">
        <ele>2020.8299999999999</ele>
        <time>2018-03-25T10:04:24Z</time>
      </trkpt>
      <trkpt lat="46.444355472922325" lon="8.741795439273119">
        <ele>2021.3099999999999</ele>
        <time>2018-03-25T10:04:35Z</time>
      </trkpt>
      <trkpt lat="46.444340301677585" lon="8.741776160895824">
        <ele>2021.3099999999999</ele>
        <time>2018-03-25T10:04:47Z</time>
      </trkpt>
      <trkpt lat="46.444344073534012" lon="8.741755709052086">
        <ele>2021.3099999999999</ele>
        <time>2018-03-25T10:04:59Z</time>
      </trkpt>
      <trkpt lat="46.444341726601124" lon="8.741752607747912">
        <ele>2021.3099999999999</ele>
        <time>2018-03-25T10:05:16Z</time>
      </trkpt>
      <trkpt lat="46.444343402981758" lon="8.741771802306175">
        <ele>2021.3099999999999</ele>
        <time>2018-03-25T10:05:30Z</time>
      </trkpt>
      <trkpt lat="46.444336613640189" lon="8.741766856983304">
        <ele>2020.8299999999999</ele>
        <time>2018-03-25T10:05:47Z</time>
      </trkpt>
      <trkpt lat="46.444336110725999" lon="8.741789571940899">
        <ele>2021.3099999999999</ele>
        <time>2018-03-25T10:05:58Z</time>
      </trkpt>
      <trkpt lat="46.444341307505965" lon="8.74175981618464">
        <ele>2021.3099999999999</ele>
        <time>2018-03-25T10:06:07Z</time>
      </trkpt>
      <trkpt lat="46.44434692338109" lon="8.741765934973955">
        <ele>2021.3099999999999</ele>
        <time>2018-03-25T10:06:19Z</time>
      </trkpt>
      <trkpt lat="46.444342480972409" lon="8.741770628839731">
        <ele>2021.3099999999999</ele>
        <time>2018-03-25T10:06:30Z</time>
      </trkpt>
      <trkpt lat="46.444339966401458" lon="8.741757050156593">
        <ele>2021.3099999999999</ele>
        <time>2018-03-25T10:06:43Z</time>
      </trkpt>
      <trkpt lat="46.444339463487267" lon="8.741735005751252">
        <ele>2021.3099999999999</ele>
        <time>2018-03-25T10:06:56Z</time>
      </trkpt>
      <trkpt lat="46.444347091019154" lon="8.741750931367278">
        <ele>2021.3099999999999</ele>
        <time>2018-03-25T10:07:08Z</time>
      </trkpt>
      <trkpt lat="46.444345330819488" lon="8.741768030449748">
        <ele>2021.3099999999999</ele>
        <time>2018-03-25T10:07:22Z</time>
      </trkpt>
      <trkpt lat="46.444339295849204" lon="8.74176274985075">
        <ele>2021.3099999999999</ele>
        <time>2018-03-25T10:07:35Z</time>
      </trkpt>
      <trkpt lat="46.444324124604464" lon="8.741745734587312">
        <ele>2021.3099999999999</ele>
        <time>2018-03-25T10:07:51Z</time>
      </trkpt>
      <trkpt lat="46.444287914782763" lon="8.741685636341572">
        <ele>2020.8299999999999</ele>
        <time>2018-03-25T10:08:00Z</time>
      </trkpt>
      <trkpt lat="46.444288501515985" lon="8.741675661876798">
        <ele>2020.8299999999999</ele>
        <time>2018-03-25T10:08:17Z</time>
      </trkpt>
      <trkpt lat="46.444288920611143" lon="8.741693180054426">
        <ele>2021.3099999999999</ele>
        <time>2018-03-25T10:08:34Z</time>
      </trkpt>
      <trkpt lat="46.444307193160057" lon="8.741666693240404">
        <ele>2020.8299999999999</ele>
        <time>2018-03-25T10:08:50Z</time>
      </trkpt>
      <trkpt lat="46.444289842620492" lon="8.741680271923542">
        <ele>2021.3099999999999</ele>
        <time>2018-03-25T10:09:03Z</time>
      </trkpt>
      <trkpt lat="46.44424675963819" lon="8.741656970232725">
        <ele>2020.8299999999999</ele>
        <time>2018-03-25T10:09:11Z</time>
      </trkpt>
      <trkpt lat="46.444254806265235" lon="8.741626795381308">
        <ele>2020.3499999999999</ele>
        <time>2018-03-25T10:09:25Z</time>
      </trkpt>
      <trkpt lat="46.44426092505455" lon="8.741636518388987">
        <ele>2020.3499999999999</ele>
        <time>2018-03-25T10:09:44Z</time>
      </trkpt>
      <trkpt lat="46.444249944761395" lon="8.741614725440741">
        <ele>2020.3499999999999</ele>
        <time>2018-03-25T10:10:00Z</time>
      </trkpt>
      <trkpt lat="46.444265116006136" lon="8.741620844230056">
        <ele>2020.3499999999999</ele>
        <time>2018-03-25T10:10:14Z</time>
      </trkpt>
      <trkpt lat="46.444228906184435" lon="8.741604248061776">
        <ele>2020.3499999999999</ele>
        <time>2018-03-25T10:10:28Z</time>
      </trkpt>
      <trkpt lat="46.444269055500627" lon="8.741639954969287">
        <ele>2020.8299999999999</ele>
        <time>2018-03-25T10:10:44Z</time>
      </trkpt>
      <trkpt lat="46.444324040785432" lon="8.741630902513862">
        <ele>2020.3499999999999</ele>
        <time>2018-03-25T10:11:04Z</time>
      </trkpt>
      <trkpt lat="46.444278443232179" lon="8.741626543924213">
        <ele>2020.3499999999999</ele>
        <time>2018-03-25T10:11:21Z</time>
      </trkpt>
      <trkpt lat="46.444270731881261" lon="8.741607181727886">
        <ele>2020.3499999999999</ele>
        <time>2018-03-25T10:11:34Z</time>
      </trkpt>
      <trkpt lat="46.444255141541362" lon="8.741607265546918">
        <ele>2019.8699999999999</ele>
        <time>2018-03-25T10:11:52Z</time>
      </trkpt>
      <trkpt lat="46.444260086864233" lon="8.741563931107521">
        <ele>2020.3499999999999</ele>
        <time>2018-03-25T10:12:05Z</time>
      </trkpt>
      <trkpt lat="46.444269642233849" lon="8.741464857012034">
        <ele>2019.8699999999999</ele>
        <time>2018-03-25T10:12:17Z</time>
      </trkpt>
      <trkpt lat="46.444259751588106" lon="8.741347845643759">
        <ele>2019.3900000000001</ele>
        <time>2018-03-25T10:12:29Z</time>
      </trkpt>
      <trkpt lat="46.444268384948373" lon="8.741191606968641">
        <ele>2018.9100000000001</ele>
        <time>2018-03-25T10:12:41Z</time>
      </trkpt>
      <trkpt lat="46.444285651668906" lon="8.741112146526575">
        <ele>2019.3900000000001</ele>
        <time>2018-03-25T10:12:51Z</time>
      </trkpt>
      <trkpt lat="46.4442946203053" lon="8.741045845672488">
        <ele>2019.3900000000001</ele>
        <time>2018-03-25T10:13:01Z</time>
      </trkpt>
      <trkpt lat="46.444313479587436" lon="8.740980885922909">
        <ele>2019.8699999999999</ele>
        <time>2018-03-25T10:13:09Z</time>
      </trkpt>
      <trkpt lat="46.444308282807469" lon="8.74095699749887">
        <ele>2020.3499999999999</ele>
        <time>2018-03-25T10:13:11Z</time>
      </trkpt>
      <trkpt lat="46.444322448223829" lon="8.740866640582681">
        <ele>2020.8299999999999</ele>
        <time>2018-03-25T10:13:20Z</time>
      </trkpt>
      <trkpt lat="46.444344744086266" lon="8.740737894549966">
        <ele>2020.8299999999999</ele>
        <time>2018-03-25T10:13:31Z</time>
      </trkpt>
      <trkpt lat="46.444363184273243" lon="8.740664552897215">
        <ele>2021.3099999999999</ele>
        <time>2018-03-25T10:13:40Z</time>
      </trkpt>
      <trkpt lat="46.444365866482258" lon="8.740649800747633">
        <ele>2021.3099999999999</ele>
        <time>2018-03-25T10:13:41Z</time>
      </trkpt>
      <trkpt lat="46.444378858432174" lon="8.740561036393046">
        <ele>2021.79</ele>
        <time>2018-03-25T10:13:51Z</time>
      </trkpt>
      <trkpt lat="46.444379026070237" lon="8.740447545424104">
        <ele>2022.27</ele>
        <time>2018-03-25T10:14:01Z</time>
      </trkpt>
      <trkpt lat="46.44437475129962" lon="8.740431116893888">
        <ele>2022.27</ele>
        <time>2018-03-25T10:14:06Z</time>
      </trkpt>
      <trkpt lat="46.444361675530672" lon="8.7403545062989">
        <ele>2021.79</ele>
        <time>2018-03-25T10:14:12Z</time>
      </trkpt>
      <trkpt lat="46.444381373003125" lon="8.740296168252826">
        <ele>2021.79</ele>
        <time>2018-03-25T10:14:21Z</time>
      </trkpt>
      <trkpt lat="46.444372488185763" lon="8.740241434425116">
        <ele>2021.79</ele>
        <time>2018-03-25T10:14:27Z</time>
      </trkpt>
      <trkpt lat="46.444387910887599" lon="8.740125428885222">
        <ele>2021.79</ele>
        <time>2018-03-25T10:14:37Z</time>
      </trkpt>
      <trkpt lat="46.444356143474579" lon="8.740029959008098">
        <ele>2022.27</ele>
        <time>2018-03-25T10:14:47Z</time>
      </trkpt>
      <trkpt lat="46.444349689409137" lon="8.739928370341659">
        <ele>2022.27</ele>
        <time>2018-03-25T10:14:55Z</time>
      </trkpt>
      <trkpt lat="46.444338876754045" lon="8.739894507452846">
        <ele>2021.79</ele>
        <time>2018-03-25T10:14:57Z</time>
      </trkpt>
      <trkpt lat="46.444326806813478" lon="8.739828960970044">
        <ele>2022.27</ele>
        <time>2018-03-25T10:15:03Z</time>
      </trkpt>
      <trkpt lat="46.444333596155047" lon="8.739708513021469">
        <ele>2022.27</ele>
        <time>2018-03-25T10:15:12Z</time>
      </trkpt>
      <trkpt lat="46.444372655823827" lon="8.739653611555696">
        <ele>2022.75</ele>
        <time>2018-03-25T10:15:23Z</time>
      </trkpt>
      <trkpt lat="46.444382462650537" lon="8.739555459469557">
        <ele>2023.71</ele>
        <time>2018-03-25T10:15:34Z</time>
      </trkpt>
      <trkpt lat="46.444395119324327" lon="8.73953215777874">
        <ele>2024.1900000000001</ele>
        <time>2018-03-25T10:15:37Z</time>
      </trkpt>
      <trkpt lat="46.444445746019483" lon="8.739496702328324">
        <ele>2025.6400000000001</ele>
        <time>2018-03-25T10:15:47Z</time>
      </trkpt>
      <trkpt lat="46.444496121257544" lon="8.739475915208459">
        <ele>2027.0799999999999</ele>
        <time>2018-03-25T10:15:57Z</time>
      </trkpt>
      <trkpt lat="46.444529229775071" lon="8.739458564668894">
        <ele>2027.0799999999999</ele>
        <time>2018-03-25T10:16:04Z</time>
      </trkpt>
      <trkpt lat="46.44459268078208" lon="8.739398634061217">
        <ele>2028.52</ele>
        <time>2018-03-25T10:16:14Z</time>
      </trkpt>
      <trkpt lat="46.444610450416803" lon="8.739372314885259">
        <ele>2029</ele>
        <time>2018-03-25T10:16:20Z</time>
      </trkpt>
      <trkpt lat="46.444642636924982" lon="8.739354461431503">
        <ele>2029.48</ele>
        <time>2018-03-25T10:16:29Z</time>
      </trkpt>
      <trkpt lat="46.444626795127988" lon="8.739358484745026">
        <ele>2029.48</ele>
        <time>2018-03-25T10:16:46Z</time>
      </trkpt>
      <trkpt lat="46.44462495110929" lon="8.739335518330336">
        <ele>2029.48</ele>
        <time>2018-03-25T10:16:57Z</time>
      </trkpt>
      <trkpt lat="46.444655042141676" lon="8.739289669319987">
        <ele>2029.96</ele>
        <time>2018-03-25T10:17:05Z</time>
      </trkpt>
      <trkpt lat="46.44466987811029" lon="8.739266116172075">
        <ele>2030.4400000000001</ele>
        <time>2018-03-25T10:17:18Z</time>
      </trkpt>
      <trkpt lat="46.444696113467216" lon="8.739280868321657">
        <ele>2030.4400000000001</ele>
        <time>2018-03-25T10:17:28Z</time>
      </trkpt>
      <trkpt lat="46.444703573361039" lon="8.739252202212811">
        <ele>2030.4400000000001</ele>
        <time>2018-03-25T10:17:37Z</time>
      </trkpt>
      <trkpt lat="46.444724611938" lon="8.739188751205802">
        <ele>2030.4400000000001</ele>
        <time>2018-03-25T10:17:43Z</time>
      </trkpt>
      <trkpt lat="46.444729473441839" lon="8.739097220823169">
        <ele>2030.9200000000001</ele>
        <time>2018-03-25T10:17:52Z</time>
      </trkpt>
      <trkpt lat="46.44474271684885" lon="8.739034188911319">
        <ele>2031.8800000000001</ele>
        <time>2018-03-25T10:18:00Z</time>
      </trkpt>
      <trkpt lat="46.444762079045177" lon="8.738958835601807">
        <ele>2032.8399999999999</ele>
        <time>2018-03-25T10:18:09Z</time>
      </trkpt>
      <trkpt lat="46.444764425978065" lon="8.738908208906651">
        <ele>2033.8099999999999</ele>
        <time>2018-03-25T10:18:16Z</time>
      </trkpt>
      <trkpt lat="46.444752691313624" lon="8.738835789263248">
        <ele>2034.29</ele>
        <time>2018-03-25T10:18:27Z</time>
      </trkpt>
      <trkpt lat="46.444788062945008" lon="8.738790610805154">
        <ele>2035.25</ele>
        <time>2018-03-25T10:18:36Z</time>
      </trkpt>
      <trkpt lat="46.444793092086911" lon="8.738754317164421">
        <ele>2034.29</ele>
        <time>2018-03-25T10:18:48Z</time>
      </trkpt>
      <trkpt lat="46.444829888641834" lon="8.738660858944058">
        <ele>2034.77</ele>
        <time>2018-03-25T10:18:59Z</time>
      </trkpt>
      <trkpt lat="46.444838438183069" lon="8.738561701029539">
        <ele>2035.73</ele>
        <time>2018-03-25T10:19:08Z</time>
      </trkpt>
      <trkpt lat="46.444842796772718" lon="8.738547535613179">
        <ele>2035.73</ele>
        <time>2018-03-25T10:19:09Z</time>
      </trkpt>
      <trkpt lat="46.444846149533987" lon="8.738523479551077">
        <ele>2035.73</ele>
        <time>2018-03-25T10:19:11Z</time>
      </trkpt>
      <trkpt lat="46.444901805371046" lon="8.738462878391147">
        <ele>2037.1700000000001</ele>
        <time>2018-03-25T10:19:21Z</time>
      </trkpt>
      <trkpt lat="46.444921419024467" lon="8.738372353836894">
        <ele>2037.6500000000001</ele>
        <time>2018-03-25T10:19:33Z</time>
      </trkpt>
      <trkpt lat="46.444927453994751" lon="8.738354332745075">
        <ele>2037.1700000000001</ele>
        <time>2018-03-25T10:19:36Z</time>
      </trkpt>
      <trkpt lat="46.444947402924299" lon="8.738296329975128">
        <ele>2037.1700000000001</ele>
        <time>2018-03-25T10:19:42Z</time>
      </trkpt>
      <trkpt lat="46.444947822019458" lon="8.738229526206851">
        <ele>2037.1700000000001</ele>
        <time>2018-03-25T10:19:53Z</time>
      </trkpt>
      <trkpt lat="46.444965340197086" lon="8.738239584490657">
        <ele>2037.1700000000001</ele>
        <time>2018-03-25T10:20:03Z</time>
      </trkpt>
      <trkpt lat="46.444974225014448" lon="8.73822801746428">
        <ele>2037.1700000000001</ele>
        <time>2018-03-25T10:20:12Z</time>
      </trkpt>
      <trkpt lat="46.444978415966034" lon="8.738240841776133">
        <ele>2037.1700000000001</ele>
        <time>2018-03-25T10:20:26Z</time>
      </trkpt>
      <trkpt lat="46.444975817576051" lon="8.738231705501676">
        <ele>2037.1700000000001</ele>
        <time>2018-03-25T10:20:39Z</time>
      </trkpt>
      <trkpt lat="46.444978164508939" lon="8.738215193152428">
        <ele>2037.1700000000001</ele>
        <time>2018-03-25T10:20:51Z</time>
      </trkpt>
      <trkpt lat="46.444977996870875" lon="8.738205721601844">
        <ele>2037.1700000000001</ele>
        <time>2018-03-25T10:21:03Z</time>
      </trkpt>
      <trkpt lat="46.444965340197086" lon="8.738146126270294">
        <ele>2036.6900000000001</ele>
        <time>2018-03-25T10:21:17Z</time>
      </trkpt>
      <trkpt lat="46.44496793858707" lon="8.738086447119713">
        <ele>2036.21</ele>
        <time>2018-03-25T10:21:22Z</time>
      </trkpt>
      <trkpt lat="46.444992078468204" lon="8.737992234528065">
        <ele>2036.6900000000001</ele>
        <time>2018-03-25T10:21:33Z</time>
      </trkpt>
      <trkpt lat="46.445071287453175" lon="8.737936494871974">
        <ele>2037.1700000000001</ele>
        <time>2018-03-25T10:21:44Z</time>
      </trkpt>
      <trkpt lat="46.445113196969032" lon="8.737883437424898">
        <ele>2037.1700000000001</ele>
        <time>2018-03-25T10:21:52Z</time>
      </trkpt>
      <trkpt lat="46.445197183638811" lon="8.737821746617556">
        <ele>2037.6500000000001</ele>
        <time>2018-03-25T10:22:01Z</time>
      </trkpt>
      <trkpt lat="46.445258455350995" lon="8.737773802131414">
        <ele>2037.6500000000001</ele>
        <time>2018-03-25T10:22:10Z</time>
      </trkpt>
      <trkpt lat="46.445290222764015" lon="8.737697945907712">
        <ele>2037.6500000000001</ele>
        <time>2018-03-25T10:22:22Z</time>
      </trkpt>
      <trkpt lat="46.445332383736968" lon="8.737629801034927">
        <ele>2038.1300000000001</ele>
        <time>2018-03-25T10:22:32Z</time>
      </trkpt>
      <trkpt lat="46.445374963805079" lon="8.737540449947119">
        <ele>2037.6500000000001</ele>
        <time>2018-03-25T10:22:41Z</time>
      </trkpt>
      <trkpt lat="46.445408826693892" lon="8.737458558753133">
        <ele>2037.6500000000001</ele>
        <time>2018-03-25T10:22:52Z</time>
      </trkpt>
      <trkpt lat="46.445459788665175" lon="8.737392760813236">
        <ele>2037.6500000000001</ele>
        <time>2018-03-25T10:23:01Z</time>
      </trkpt>
      <trkpt lat="46.445479653775692" lon="8.737366106361151">
        <ele>2038.1300000000001</ele>
        <time>2018-03-25T10:23:12Z</time>
      </trkpt>
      <trkpt lat="46.445472612977028" lon="8.737344900146127">
        <ele>2038.1300000000001</ele>
        <time>2018-03-25T10:23:25Z</time>
      </trkpt>
      <trkpt lat="46.445498848333955" lon="8.737342888489366">
        <ele>2038.1300000000001</ele>
        <time>2018-03-25T10:23:36Z</time>
      </trkpt>
      <trkpt lat="46.445534639060497" lon="8.737301398068667">
        <ele>2038.1300000000001</ele>
        <time>2018-03-25T10:23:49Z</time>
      </trkpt>
      <trkpt lat="46.445573111996055" lon="8.737249933183193">
        <ele>2038.6099999999999</ele>
        <time>2018-03-25T10:23:59Z</time>
      </trkpt>
      <trkpt lat="46.445618877187371" lon="8.737276419997215">
        <ele>2038.6099999999999</ele>
        <time>2018-03-25T10:24:12Z</time>
      </trkpt>
      <trkpt lat="46.445617116987705" lon="8.73727616854012">
        <ele>2038.1300000000001</ele>
        <time>2018-03-25T10:24:33Z</time>
      </trkpt>
      <trkpt lat="46.445594737306237" lon="8.737298548221588">
        <ele>2038.1300000000001</ele>
        <time>2018-03-25T10:24:48Z</time>
      </trkpt>
      <trkpt lat="46.445589624345303" lon="8.737316401675344">
        <ele>2038.1300000000001</ele>
        <time>2018-03-25T10:25:03Z</time>
      </trkpt>
      <trkpt lat="46.445583086460829" lon="8.737271474674344">
        <ele>2038.1300000000001</ele>
        <time>2018-03-25T10:25:14Z</time>
      </trkpt>
      <trkpt lat="46.445581493899226" lon="8.737287148833275">
        <ele>2038.1300000000001</ele>
        <time>2018-03-25T10:25:25Z</time>
      </trkpt>
      <trkpt lat="46.445581912994385" lon="8.737273570150137">
        <ele>2038.1300000000001</ele>
        <time>2018-03-25T10:25:37Z</time>
      </trkpt>
      <trkpt lat="46.445583421736956" lon="8.737264014780521">
        <ele>2038.6099999999999</ele>
        <time>2018-03-25T10:25:56Z</time>
      </trkpt>
      <trkpt lat="46.445619380101562" lon="8.737256387248635">
        <ele>2038.1300000000001</ele>
        <time>2018-03-25T10:26:04Z</time>
      </trkpt>
      <trkpt lat="46.44566036760807" lon="8.737178687006235">
        <ele>2038.6099999999999</ele>
        <time>2018-03-25T10:26:12Z</time>
      </trkpt>
      <trkpt lat="46.445704288780689" lon="8.737081456929445">
        <ele>2038.1300000000001</ele>
        <time>2018-03-25T10:26:22Z</time>
      </trkpt>
      <trkpt lat="46.445719543844461" lon="8.737030578777194">
        <ele>2037.6500000000001</ele>
        <time>2018-03-25T10:26:27Z</time>
      </trkpt>
      <trkpt lat="46.44575072452426" lon="8.736937874928117">
        <ele>2037.1700000000001</ele>
        <time>2018-03-25T10:26:35Z</time>
      </trkpt>
      <trkpt lat="46.445769080892205" lon="8.736870735883713">
        <ele>2037.6500000000001</ele>
        <time>2018-03-25T10:26:41Z</time>
      </trkpt>
      <trkpt lat="46.445840410888195" lon="8.736820444464684">
        <ele>2038.1300000000001</ele>
        <time>2018-03-25T10:26:50Z</time>
      </trkpt>
      <trkpt lat="46.445885924622416" lon="8.736790437251329">
        <ele>2038.6099999999999</ele>
        <time>2018-03-25T10:26:59Z</time>
      </trkpt>
      <trkpt lat="46.445898748934269" lon="8.736723633483052">
        <ele>2039.0899999999999</ele>
        <time>2018-03-25T10:27:07Z</time>
      </trkpt>
      <trkpt lat="46.445944095030427" lon="8.736666804179549">
        <ele>2039.5699999999999</ele>
        <time>2018-03-25T10:27:16Z</time>
      </trkpt>
      <trkpt lat="46.445963457226753" lon="8.736569741740823">
        <ele>2039.0899999999999</ele>
        <time>2018-03-25T10:27:27Z</time>
      </trkpt>
      <trkpt lat="46.445997906848788" lon="8.736479803919792">
        <ele>2039.5699999999999</ele>
        <time>2018-03-25T10:27:38Z</time>
      </trkpt>
      <trkpt lat="46.446013497188687" lon="8.73640738427639">
        <ele>2040.05</ele>
        <time>2018-03-25T10:27:48Z</time>
      </trkpt>
      <trkpt lat="46.446008468046784" lon="8.736396487802267">
        <ele>2040.05</ele>
        <time>2018-03-25T10:27:50Z</time>
      </trkpt>
      <trkpt lat="46.445986507460475" lon="8.73632088303566">
        <ele>2040.54</ele>
        <time>2018-03-25T10:27:59Z</time>
      </trkpt>
      <trkpt lat="46.446002181619406" lon="8.736227173358202">
        <ele>2041.02</ele>
        <time>2018-03-25T10:28:08Z</time>
      </trkpt>
      <trkpt lat="46.445986004546285" lon="8.736189873889089">
        <ele>2040.54</ele>
        <time>2018-03-25T10:28:12Z</time>
      </trkpt>
      <trkpt lat="46.445970414206386" lon="8.736155340448022">
        <ele>2040.54</ele>
        <time>2018-03-25T10:28:15Z</time>
      </trkpt>
      <trkpt lat="46.445956164970994" lon="8.736055428162217">
        <ele>2040.54</ele>
        <time>2018-03-25T10:28:24Z</time>
      </trkpt>
      <trkpt lat="46.445954572409391" lon="8.735953336581588">
        <ele>2041.5</ele>
        <time>2018-03-25T10:28:35Z</time>
      </trkpt>
      <trkpt lat="46.445964379236102" lon="8.735876390710473">
        <ele>2042.46</ele>
        <time>2018-03-25T10:28:43Z</time>
      </trkpt>
      <trkpt lat="46.445953315123916" lon="8.735838923603296">
        <ele>2042.46</ele>
        <time>2018-03-25T10:28:46Z</time>
      </trkpt>
      <trkpt lat="46.445951974019408" lon="8.735761474817991">
        <ele>2042.46</ele>
        <time>2018-03-25T10:28:53Z</time>
      </trkpt>
      <trkpt lat="46.445937305688858" lon="8.735711518675089">
        <ele>2042.9400000000001</ele>
        <time>2018-03-25T10:29:01Z</time>
      </trkpt>
      <trkpt lat="46.445910315960646" lon="8.73570422641933">
        <ele>2043.9000000000001</ele>
        <time>2018-03-25T10:29:09Z</time>
      </trkpt>
      <trkpt lat="46.44591199234128" lon="8.735716715455055">
        <ele>2043.4200000000001</ele>
        <time>2018-03-25T10:29:11Z</time>
      </trkpt>
      <trkpt lat="46.44592029042542" lon="8.735583610832691">
        <ele>2042.9400000000001</ele>
        <time>2018-03-25T10:29:20Z</time>
      </trkpt>
      <trkpt lat="46.445949207991362" lon="8.735502809286118">
        <ele>2043.4200000000001</ele>
        <time>2018-03-25T10:29:29Z</time>
      </trkpt>
      <trkpt lat="46.445969240739942" lon="8.735476154834032">
        <ele>2043.9000000000001</ele>
        <time>2018-03-25T10:29:36Z</time>
      </trkpt>
      <trkpt lat="46.445977371186018" lon="8.735415805131197">
        <ele>2044.3800000000001</ele>
        <time>2018-03-25T10:29:43Z</time>
      </trkpt>
      <trkpt lat="46.445971922948956" lon="8.735381439328194">
        <ele>2044.3800000000001</ele>
        <time>2018-03-25T10:29:47Z</time>
      </trkpt>
      <trkpt lat="46.445938646793365" lon="8.735308852046728">
        <ele>2044.3800000000001</ele>
        <time>2018-03-25T10:29:57Z</time>
      </trkpt>
      <trkpt lat="46.445897575467825" lon="8.735207011923194">
        <ele>2042.9400000000001</ele>
        <time>2018-03-25T10:30:07Z</time>
      </trkpt>
      <trkpt lat="46.445890534669161" lon="8.735188404098153">
        <ele>2042.46</ele>
        <time>2018-03-25T10:30:17Z</time>
      </trkpt>
      <trkpt lat="46.445857174694538" lon="8.735169125720859">
        <ele>2041.98</ele>
        <time>2018-03-25T10:30:28Z</time>
      </trkpt>
      <trkpt lat="46.445808140560985" lon="8.73510274104774">
        <ele>2042.46</ele>
        <time>2018-03-25T10:30:38Z</time>
      </trkpt>
      <trkpt lat="46.445809649303555" lon="8.735022526234388">
        <ele>2042.9400000000001</ele>
        <time>2018-03-25T10:30:44Z</time>
      </trkpt>
      <trkpt lat="46.445763297379017" lon="8.734999559819698">
        <ele>2042.9400000000001</ele>
        <time>2018-03-25T10:30:47Z</time>
      </trkpt>
      <trkpt lat="46.445740247145295" lon="8.734885649755597">
        <ele>2042.9400000000001</ele>
        <time>2018-03-25T10:30:56Z</time>
      </trkpt>
      <trkpt lat="46.445751395076513" lon="8.734861509874463">
        <ele>2042.9400000000001</ele>
        <time>2018-03-25T10:30:58Z</time>
      </trkpt>
      <trkpt lat="46.445785760879517" lon="8.734787665307522">
        <ele>2043.9000000000001</ele>
        <time>2018-03-25T10:31:07Z</time>
      </trkpt>
      <trkpt lat="46.445792634040117" lon="8.734765788540244">
        <ele>2043.9000000000001</ele>
        <time>2018-03-25T10:31:10Z</time>
      </trkpt>
      <trkpt lat="46.44580646418035" lon="8.734725136309862">
        <ele>2044.3800000000001</ele>
        <time>2018-03-25T10:31:15Z</time>
      </trkpt>
      <trkpt lat="46.445789700374007" lon="8.734696973115206">
        <ele>2044.3800000000001</ele>
        <time>2018-03-25T10:31:17Z</time>
      </trkpt>
      <trkpt lat="46.445776876062155" lon="8.734611058607698">
        <ele>2044.8599999999999</ele>
        <time>2018-03-25T10:31:26Z</time>
      </trkpt>
      <trkpt lat="46.445759106427431" lon="8.73451785184443">
        <ele>2044.3800000000001</ele>
        <time>2018-03-25T10:31:35Z</time>
      </trkpt>
      <trkpt lat="46.445776289328933" lon="8.734416598454118">
        <ele>2044.8599999999999</ele>
        <time>2018-03-25T10:31:44Z</time>
      </trkpt>
      <trkpt lat="46.445797830820084" lon="8.73436002060771">
        <ele>2045.3399999999999</ele>
        <time>2018-03-25T10:31:52Z</time>
      </trkpt>
      <trkpt lat="46.445811577141285" lon="8.734300257638097">
        <ele>2045.8199999999999</ele>
        <time>2018-03-25T10:31:58Z</time>
      </trkpt>
      <trkpt lat="46.445837393403053" lon="8.734252648428083">
        <ele>2046.78</ele>
        <time>2018-03-25T10:32:06Z</time>
      </trkpt>
      <trkpt lat="46.445833286270499" lon="8.734157430008054">
        <ele>2046.78</ele>
        <time>2018-03-25T10:32:17Z</time>
      </trkpt>
      <trkpt lat="46.445837141945958" lon="8.734091548249126">
        <ele>2047.26</ele>
        <time>2018-03-25T10:32:27Z</time>
      </trkpt>
      <trkpt lat="46.445835465565324" lon="8.734067073091865">
        <ele>2047.26</ele>
        <time>2018-03-25T10:32:29Z</time>
      </trkpt>
      <trkpt lat="46.445806212723255" lon="8.733986020088196">
        <ele>2047.75</ele>
        <time>2018-03-25T10:32:38Z</time>
      </trkpt>
      <trkpt lat="46.445774026215076" lon="8.733921060338616">
        <ele>2047.75</ele>
        <time>2018-03-25T10:32:49Z</time>
      </trkpt>
      <trkpt lat="46.445734212175012" lon="8.733833888545632">
        <ele>2048.71</ele>
        <time>2018-03-25T10:32:58Z</time>
      </trkpt>
      <trkpt lat="46.44572482444346" lon="8.733761385083199">
        <ele>2049.1900000000001</ele>
        <time>2018-03-25T10:33:07Z</time>
      </trkpt>
      <trkpt lat="46.445722226053476" lon="8.733670860528946">
        <ele>2049.6700000000001</ele>
        <time>2018-03-25T10:33:17Z</time>
      </trkpt>
      <trkpt lat="46.445737648755312" lon="8.733581425622106">
        <ele>2050.6300000000001</ele>
        <time>2018-03-25T10:33:29Z</time>
      </trkpt>
      <trkpt lat="46.445750808343291" lon="8.733513532206416">
        <ele>2051.5900000000001</ele>
        <time>2018-03-25T10:33:39Z</time>
      </trkpt>
      <trkpt lat="46.445736307650805" lon="8.733443040400744">
        <ele>2052.0700000000002</ele>
        <time>2018-03-25T10:33:49Z</time>
      </trkpt>
      <trkpt lat="46.445739408954978" lon="8.733404148370028">
        <ele>2052.5500000000002</ele>
        <time>2018-03-25T10:33:54Z</time>
      </trkpt>
      <trkpt lat="46.445738989859819" lon="8.733378332108259">
        <ele>2053.0300000000002</ele>
        <time>2018-03-25T10:34:02Z</time>
      </trkpt>
      <trkpt lat="46.445746282115579" lon="8.733388474211097">
        <ele>2053.0300000000002</ele>
        <time>2018-03-25T10:34:09Z</time>
      </trkpt>
      <trkpt lat="46.445735469460487" lon="8.733396520838141">
        <ele>2052.0700000000002</ele>
        <time>2018-03-25T10:34:17Z</time>
      </trkpt>
      <trkpt lat="46.445672772824764" lon="8.733364753425121">
        <ele>2052.0700000000002</ele>
        <time>2018-03-25T10:34:40Z</time>
      </trkpt>
      <trkpt lat="46.445669671520591" lon="8.733367687091231">
        <ele>2052.0700000000002</ele>
        <time>2018-03-25T10:34:42Z</time>
      </trkpt>
      <trkpt lat="46.445701187476516" lon="8.73340280726552">
        <ele>2052.5500000000002</ele>
        <time>2018-03-25T10:34:50Z</time>
      </trkpt>
      <trkpt lat="46.445735134184361" lon="8.733375063166022">
        <ele>2053.0300000000002</ele>
        <time>2018-03-25T10:35:03Z</time>
      </trkpt>
      <trkpt lat="46.445752400904894" lon="8.733284370973706">
        <ele>2053.5100000000002</ele>
        <time>2018-03-25T10:35:12Z</time>
      </trkpt>
      <trkpt lat="46.445775954052806" lon="8.733224356546998">
        <ele>2053.9899999999998</ele>
        <time>2018-03-25T10:35:20Z</time>
      </trkpt>
      <trkpt lat="46.445800010114908" lon="8.733154283836484">
        <ele>2053.9899999999998</ele>
        <time>2018-03-25T10:35:29Z</time>
      </trkpt>
      <trkpt lat="46.445807302370667" lon="8.733087563887239">
        <ele>2054.96</ele>
        <time>2018-03-25T10:35:38Z</time>
      </trkpt>
      <trkpt lat="46.445813002064824" lon="8.733037188649178">
        <ele>2055.9200000000001</ele>
        <time>2018-03-25T10:35:47Z</time>
      </trkpt>
      <trkpt lat="46.445813504979014" lon="8.733006091788411">
        <ele>2056.8800000000001</ele>
        <time>2018-03-25T10:35:55Z</time>
      </trkpt>
      <trkpt lat="46.44582255743444" lon="8.732956806197763">
        <ele>2057.8400000000001</ele>
        <time>2018-03-25T10:36:02Z</time>
      </trkpt>
      <trkpt lat="46.445816187188029" lon="8.732959069311619">
        <ele>2058.3200000000002</ele>
        <time>2018-03-25T10:36:09Z</time>
      </trkpt>
      <trkpt lat="46.445819037035108" lon="8.732928475365043">
        <ele>2058.8000000000002</ele>
        <time>2018-03-25T10:36:21Z</time>
      </trkpt>
      <trkpt lat="46.445833118632436" lon="8.732877848669887">
        <ele>2060.2399999999998</ele>
        <time>2018-03-25T10:36:32Z</time>
      </trkpt>
      <trkpt lat="46.445846864953637" lon="8.73282277956605">
        <ele>2061.6799999999998</ele>
        <time>2018-03-25T10:36:43Z</time>
      </trkpt>
      <trkpt lat="46.445849379524589" lon="8.732790006324649">
        <ele>2062.6500000000001</ele>
        <time>2018-03-25T10:36:51Z</time>
      </trkpt>
      <trkpt lat="46.445843009278178" lon="8.73272311873734">
        <ele>2064.5700000000002</ele>
        <time>2018-03-25T10:37:03Z</time>
      </trkpt>
      <trkpt lat="46.445836806669831" lon="8.732665702700615">
        <ele>2066.0100000000002</ele>
        <time>2018-03-25T10:37:14Z</time>
      </trkpt>
      <trkpt lat="46.445859102532268" lon="8.732632761821151">
        <ele>2066.9699999999998</ele>
        <time>2018-03-25T10:37:25Z</time>
      </trkpt>
      <trkpt lat="46.445895144715905" lon="8.732577608898282">
        <ele>2068.4099999999999</ele>
        <time>2018-03-25T10:37:37Z</time>
      </trkpt>
      <trkpt lat="46.445892797783017" lon="8.732536621391773">
        <ele>2069.8600000000001</ele>
        <time>2018-03-25T10:37:46Z</time>
      </trkpt>
      <trkpt lat="46.445900341495872" lon="8.732475265860558">
        <ele>2071.3000000000002</ele>
        <time>2018-03-25T10:38:01Z</time>
      </trkpt>
      <trkpt lat="46.445888606831431" lon="8.732442492619157">
        <ele>2072.2600000000002</ele>
        <time>2018-03-25T10:38:10Z</time>
      </trkpt>
      <trkpt lat="46.445877375081182" lon="8.732366384938359">
        <ele>2074.1799999999998</ele>
        <time>2018-03-25T10:38:22Z</time>
      </trkpt>
      <trkpt lat="46.445882488042116" lon="8.732346352189779">
        <ele>2075.1399999999999</ele>
        <time>2018-03-25T10:38:31Z</time>
      </trkpt>
      <trkpt lat="46.445888439193368" lon="8.732303939759731">
        <ele>2076.0999999999999</ele>
        <time>2018-03-25T10:38:43Z</time>
      </trkpt>
      <trkpt lat="46.44591249525547" lon="8.732267478480935">
        <ele>2077.0700000000002</ele>
        <time>2018-03-25T10:38:53Z</time>
      </trkpt>
      <trkpt lat="46.445924984291196" lon="8.732221461832523">
        <ele>2078.0300000000002</ele>
        <time>2018-03-25T10:39:01Z</time>
      </trkpt>
      <trkpt lat="46.445922469720244" lon="8.732161615043879">
        <ele>2079.4699999999998</ele>
        <time>2018-03-25T10:39:12Z</time>
      </trkpt>
      <trkpt lat="46.445932779461145" lon="8.73213185928762">
        <ele>2080.4299999999998</ele>
        <time>2018-03-25T10:39:21Z</time>
      </trkpt>
      <trkpt lat="46.445940323174" lon="8.732078047469258">
        <ele>2081.3899999999999</ele>
        <time>2018-03-25T10:39:29Z</time>
      </trkpt>
      <trkpt lat="46.445969576016068" lon="8.732038233429194">
        <ele>2082.8299999999999</ele>
        <time>2018-03-25T10:39:42Z</time>
      </trkpt>
      <trkpt lat="46.445988100022078" lon="8.732001772150397">
        <ele>2083.79</ele>
        <time>2018-03-25T10:39:49Z</time>
      </trkpt>
      <trkpt lat="46.446020621806383" lon="8.732004119083285">
        <ele>2084.2800000000002</ele>
        <time>2018-03-25T10:39:56Z</time>
      </trkpt>
      <trkpt lat="46.445996062830091" lon="8.731974782422185">
        <ele>2084.2800000000002</ele>
        <time>2018-03-25T10:40:07Z</time>
      </trkpt>
      <trkpt lat="46.445987597107887" lon="8.731926837936044">
        <ele>2085.2399999999998</ele>
        <time>2018-03-25T10:40:17Z</time>
      </trkpt>
      <trkpt lat="46.446018191054463" lon="8.731878139078617">
        <ele>2086.6799999999998</ele>
        <time>2018-03-25T10:40:29Z</time>
      </trkpt>
      <trkpt lat="46.446033278480172" lon="8.731850059702992">
        <ele>2088.1199999999999</ele>
        <time>2018-03-25T10:40:39Z</time>
      </trkpt>
      <trkpt lat="46.446112403646111" lon="8.73186263255775">
        <ele>2088.1199999999999</ele>
        <time>2018-03-25T10:40:52Z</time>
      </trkpt>
      <trkpt lat="46.446132687851787" lon="8.731834134086967">
        <ele>2089.0799999999999</ele>
        <time>2018-03-25T10:41:00Z</time>
      </trkpt>
      <trkpt lat="46.446153894066811" lon="8.731812760233879">
        <ele>2090.04</ele>
        <time>2018-03-25T10:41:08Z</time>
      </trkpt>
      <trkpt lat="46.446135118603706" lon="8.731810664758086">
        <ele>2090.52</ele>
        <time>2018-03-25T10:41:19Z</time>
      </trkpt>
      <trkpt lat="46.446162443608046" lon="8.731849221512675">
        <ele>2090.52</ele>
        <time>2018-03-25T10:41:35Z</time>
      </trkpt>
      <trkpt lat="46.446179542690516" lon="8.731801444664598">
        <ele>2091.4899999999998</ele>
        <time>2018-03-25T10:41:47Z</time>
      </trkpt>
      <trkpt lat="46.446163197979331" lon="8.73173899948597">
        <ele>2092.9299999999998</ele>
        <time>2018-03-25T10:41:57Z</time>
      </trkpt>
      <trkpt lat="46.446174010634422" lon="8.731660796329379">
        <ele>2095.3299999999999</ele>
        <time>2018-03-25T10:42:11Z</time>
      </trkpt>
      <trkpt lat="46.446182979270816" lon="8.731604386121035">
        <ele>2096.77</ele>
        <time>2018-03-25T10:42:22Z</time>
      </trkpt>
      <trkpt lat="46.446206783875823" lon="8.731529116630554">
        <ele>2097.73</ele>
        <time>2018-03-25T10:42:31Z</time>
      </trkpt>
      <trkpt lat="46.446196306496859" lon="8.731491733342409">
        <ele>2099.1799999999998</ele>
        <time>2018-03-25T10:42:43Z</time>
      </trkpt>
      <trkpt lat="46.446185410022736" lon="8.731468096375465">
        <ele>2100.6199999999999</ele>
        <time>2018-03-25T10:42:51Z</time>
      </trkpt>
      <trkpt lat="46.446180967614055" lon="8.731429120525718">
        <ele>2101.0999999999999</ele>
        <time>2018-03-25T10:42:59Z</time>
      </trkpt>
      <trkpt lat="46.446173172444105" lon="8.731381427496672">
        <ele>2103.02</ele>
        <time>2018-03-25T10:43:09Z</time>
      </trkpt>
      <trkpt lat="46.446178955957294" lon="8.731371285393834">
        <ele>2103.5</ele>
        <time>2018-03-25T10:43:15Z</time>
      </trkpt>
      <trkpt lat="46.446177950128913" lon="8.731348738074303">
        <ele>2103.98</ele>
        <time>2018-03-25T10:43:17Z</time>
      </trkpt>
      <trkpt lat="46.44616361707449" lon="8.731325436383486">
        <ele>2104.9400000000001</ele>
        <time>2018-03-25T10:43:27Z</time>
      </trkpt>
      <trkpt lat="46.446163365617394" lon="8.7313246820122">
        <ele>2104.9400000000001</ele>
        <time>2018-03-25T10:43:37Z</time>
      </trkpt>
      <trkpt lat="46.446153139695525" lon="8.731300961226225">
        <ele>2105.4200000000001</ele>
        <time>2018-03-25T10:43:47Z</time>
      </trkpt>
      <trkpt lat="46.446130843833089" lon="8.731276905164123">
        <ele>2105.9099999999999</ele>
        <time>2018-03-25T10:44:00Z</time>
      </trkpt>
      <trkpt lat="46.446144171059132" lon="8.731228960677981">
        <ele>2106.8699999999999</ele>
        <time>2018-03-25T10:44:11Z</time>
      </trkpt>
      <trkpt lat="46.446148697286844" lon="8.731192499399185">
        <ele>2107.8299999999999</ele>
        <time>2018-03-25T10:44:19Z</time>
      </trkpt>
      <trkpt lat="46.446150876581669" lon="8.731130724772811">
        <ele>2109.75</ele>
        <time>2018-03-25T10:44:30Z</time>
      </trkpt>
      <trkpt lat="46.446155738085508" lon="8.73108278028667">
        <ele>2110.71</ele>
        <time>2018-03-25T10:44:39Z</time>
      </trkpt>
      <trkpt lat="46.446156240999699" lon="8.731036176905036">
        <ele>2112.1500000000001</ele>
        <time>2018-03-25T10:44:47Z</time>
      </trkpt>
      <trkpt lat="46.446165964007378" lon="8.730974989011884">
        <ele>2112.6300000000001</ele>
        <time>2018-03-25T10:44:55Z</time>
      </trkpt>
      <trkpt lat="46.446175603196025" lon="8.730927631258965">
        <ele>2113.5999999999999</ele>
        <time>2018-03-25T10:45:03Z</time>
      </trkpt>
      <trkpt lat="46.446176189929247" lon="8.73087901622057">
        <ele>2115.04</ele>
        <time>2018-03-25T10:45:14Z</time>
      </trkpt>
      <trkpt lat="46.446182979270816" lon="8.730832245200872">
        <ele>2116</ele>
        <time>2018-03-25T10:45:22Z</time>
      </trkpt>
      <trkpt lat="46.446192534640431" lon="8.730790922418237">
        <ele>2116.96</ele>
        <time>2018-03-25T10:45:31Z</time>
      </trkpt>
      <trkpt lat="46.446186499670148" lon="8.730740211904049">
        <ele>2117.9200000000001</ele>
        <time>2018-03-25T10:45:41Z</time>
      </trkpt>
      <trkpt lat="46.446185912936926" lon="8.73068111948669">
        <ele>2118.8800000000001</ele>
        <time>2018-03-25T10:45:51Z</time>
      </trkpt>
      <trkpt lat="46.446179039776325" lon="8.730618841946125">
        <ele>2119.8400000000001</ele>
        <time>2018-03-25T10:45:59Z</time>
      </trkpt>
      <trkpt lat="46.446183566004038" lon="8.730576764792204">
        <ele>2120.8099999999999</ele>
        <time>2018-03-25T10:46:10Z</time>
      </trkpt>
      <trkpt lat="46.446189768612385" lon="8.730514738708735">
        <ele>2121.77</ele>
        <time>2018-03-25T10:46:19Z</time>
      </trkpt>
      <trkpt lat="46.446203514933586" lon="8.730413066223264">
        <ele>2122.73</ele>
        <time>2018-03-25T10:46:30Z</time>
      </trkpt>
      <trkpt lat="46.44621005281806" lon="8.730344669893384">
        <ele>2123.6900000000001</ele>
        <time>2018-03-25T10:46:41Z</time>
      </trkpt>
      <trkpt lat="46.446217345073819" lon="8.730291780084372">
        <ele>2124.6500000000001</ele>
        <time>2018-03-25T10:46:50Z</time>
      </trkpt>
      <trkpt lat="46.446228241547942" lon="8.730233022943139">
        <ele>2125.1300000000001</ele>
        <time>2018-03-25T10:46:59Z</time>
      </trkpt>
      <trkpt lat="46.446251291781664" lon="8.730139397084713">
        <ele>2126.5700000000002</ele>
        <time>2018-03-25T10:47:11Z</time>
      </trkpt>
      <trkpt lat="46.446263948455453" lon="8.730093548074365">
        <ele>2127.0500000000002</ele>
        <time>2018-03-25T10:47:21Z</time>
      </trkpt>
      <trkpt lat="46.446284567937255" lon="8.730079047381878">
        <ele>2127.0500000000002</ele>
        <time>2018-03-25T10:47:29Z</time>
      </trkpt>
      <trkpt lat="46.446270737797022" lon="8.730083741247654">
        <ele>2127.0500000000002</ele>
        <time>2018-03-25T10:47:41Z</time>
      </trkpt>
      <trkpt lat="46.446257326751947" lon="8.730101091787219">
        <ele>2127.0500000000002</ele>
        <time>2018-03-25T10:47:59Z</time>
      </trkpt>
      <trkpt lat="46.446255315095186" lon="8.730089189484716">
        <ele>2127.0500000000002</ele>
        <time>2018-03-25T10:48:11Z</time>
      </trkpt>
      <trkpt lat="46.446252465248108" lon="8.730093548074365">
        <ele>2127.0500000000002</ele>
        <time>2018-03-25T10:48:30Z</time>
      </trkpt>
      <trkpt lat="46.446250369772315" lon="8.7300761975348">
        <ele>2127.0500000000002</ele>
        <time>2018-03-25T10:48:44Z</time>
      </trkpt>
      <trkpt lat="46.446244167163968" lon="8.730010567232966">
        <ele>2128.02</ele>
        <time>2018-03-25T10:48:52Z</time>
      </trkpt>
      <trkpt lat="46.446201587095857" lon="8.729973016306758">
        <ele>2129.46</ele>
        <time>2018-03-25T10:49:00Z</time>
      </trkpt>
      <trkpt lat="46.446195133030415" lon="8.729903278872371">
        <ele>2130.4200000000001</ele>
        <time>2018-03-25T10:49:09Z</time>
      </trkpt>
      <trkpt lat="46.446177363395691" lon="8.729851562529802">
        <ele>2131.8600000000001</ele>
        <time>2018-03-25T10:49:19Z</time>
      </trkpt>
      <trkpt lat="46.446167808026075" lon="8.729802696034312">
        <ele>2133.3000000000002</ele>
        <time>2018-03-25T10:49:27Z</time>
      </trkpt>
      <trkpt lat="46.446160599589348" lon="8.729750895872712">
        <ele>2134.7399999999998</ele>
        <time>2018-03-25T10:49:38Z</time>
      </trkpt>
      <trkpt lat="46.446143919602036" lon="8.729723319411278">
        <ele>2135.71</ele>
        <time>2018-03-25T10:49:46Z</time>
      </trkpt>
      <trkpt lat="46.446106033399701" lon="8.729725666344166">
        <ele>2137.1500000000001</ele>
        <time>2018-03-25T10:49:56Z</time>
      </trkpt>
      <trkpt lat="46.446080049499869" lon="8.729717368260026">
        <ele>2138.1100000000001</ele>
        <time>2018-03-25T10:50:04Z</time>
      </trkpt>
      <trkpt lat="46.446057921275496" lon="8.729698592796922">
        <ele>2139.5500000000002</ele>
        <time>2018-03-25T10:50:13Z</time>
      </trkpt>
      <trkpt lat="46.446014000102878" lon="8.729707393795252">
        <ele>2140.5100000000002</ele>
        <time>2018-03-25T10:50:22Z</time>
      </trkpt>
      <trkpt lat="46.445981059223413" lon="8.729682248085737">
        <ele>2141.9499999999998</ele>
        <time>2018-03-25T10:50:32Z</time>
      </trkpt>
      <trkpt lat="46.445957757532597" lon="8.729643942788243">
        <ele>2142.9200000000001</ele>
        <time>2018-03-25T10:50:42Z</time>
      </trkpt>
      <trkpt lat="46.445954153314233" lon="8.729622736573219">
        <ele>2144.3600000000001</ele>
        <time>2018-03-25T10:50:52Z</time>
      </trkpt>
      <trkpt lat="46.445942921563983" lon="8.729584850370884">
        <ele>2145.3200000000002</ele>
        <time>2018-03-25T10:51:02Z</time>
      </trkpt>
      <trkpt lat="46.445925738662481" lon="8.72958124615252">
        <ele>2146.7600000000002</ele>
        <time>2018-03-25T10:51:10Z</time>
      </trkpt>
      <trkpt lat="46.445903526619077" lon="8.729654839262366">
        <ele>2148.1999999999998</ele>
        <time>2018-03-25T10:51:20Z</time>
      </trkpt>
      <trkpt lat="46.445869831368327" lon="8.729698173701763">
        <ele>2149.1599999999999</ele>
        <time>2018-03-25T10:51:29Z</time>
      </trkpt>
      <trkpt lat="46.445849295705557" lon="8.729649223387241">
        <ele>2150.1300000000001</ele>
        <time>2018-03-25T10:51:38Z</time>
      </trkpt>
      <trkpt lat="46.445831190794706" lon="8.729653749614954">
        <ele>2151.0900000000001</ele>
        <time>2018-03-25T10:51:46Z</time>
      </trkpt>
      <trkpt lat="46.445809314027429" lon="8.729695156216621">
        <ele>2152.5300000000002</ele>
        <time>2018-03-25T10:51:56Z</time>
      </trkpt>
      <trkpt lat="46.445789281278849" lon="8.729711417108774">
        <ele>2153.4899999999998</ele>
        <time>2018-03-25T10:52:04Z</time>
      </trkpt>
      <trkpt lat="46.445764470845461" lon="8.729679565876722">
        <ele>2154.9299999999998</ele>
        <time>2018-03-25T10:52:13Z</time>
      </trkpt>
      <trkpt lat="46.445740079507232" lon="8.729679230600596">
        <ele>2156.3699999999999</ele>
        <time>2018-03-25T10:52:22Z</time>
      </trkpt>
      <trkpt lat="46.445736391469836" lon="8.729722397401929">
        <ele>2157.8200000000002</ele>
        <time>2018-03-25T10:52:30Z</time>
      </trkpt>
      <trkpt lat="46.445730188861489" lon="8.729770258069038">
        <ele>2158.7800000000002</ele>
        <time>2018-03-25T10:52:39Z</time>
      </trkpt>
      <trkpt lat="46.445710156112909" lon="8.729808982461691">
        <ele>2159.7399999999998</ele>
        <time>2018-03-25T10:52:47Z</time>
      </trkpt>
      <trkpt lat="46.445688446983695" lon="8.72978744097054">
        <ele>2161.6599999999999</ele>
        <time>2018-03-25T10:52:56Z</time>
      </trkpt>
      <trkpt lat="46.445670258253813" lon="8.729764306917787">
        <ele>2162.1399999999999</ele>
        <time>2018-03-25T10:53:04Z</time>
      </trkpt>
      <trkpt lat="46.445652237161994" lon="8.729800516739488">
        <ele>2163.5799999999999</ele>
        <time>2018-03-25T10:53:12Z</time>
      </trkpt>
      <trkpt lat="46.445649387314916" lon="8.729830356314778">
        <ele>2165.0300000000002</ele>
        <time>2018-03-25T10:53:21Z</time>
      </trkpt>
      <trkpt lat="46.445634132251143" lon="8.729810491204262">
        <ele>2166.4699999999998</ele>
        <time>2018-03-25T10:53:31Z</time>
      </trkpt>
      <trkpt lat="46.445626504719257" lon="8.729813089594245">
        <ele>2167.4299999999998</ele>
        <time>2018-03-25T10:53:40Z</time>
      </trkpt>
      <trkpt lat="46.445597670972347" lon="8.729802696034312">
        <ele>2168.3899999999999</ele>
        <time>2018-03-25T10:53:54Z</time>
      </trkpt>
      <trkpt lat="46.445579063147306" lon="8.729786602780223">
        <ele>2169.3499999999999</ele>
        <time>2018-03-25T10:54:04Z</time>
      </trkpt>
      <trkpt lat="46.445554755628109" lon="8.729754667729139">
        <ele>2171.27</ele>
        <time>2018-03-25T10:54:14Z</time>
      </trkpt>
      <trkpt lat="46.445525670424104" lon="8.72974687255919">
        <ele>2172.2399999999998</ele>
        <time>2018-03-25T10:54:22Z</time>
      </trkpt>
      <trkpt lat="46.445491891354322" lon="8.729759277775884">
        <ele>2174.1599999999999</ele>
        <time>2018-03-25T10:54:31Z</time>
      </trkpt>
      <trkpt lat="46.445459201931953" lon="8.729739328846335">
        <ele>2175.1199999999999</ele>
        <time>2018-03-25T10:54:40Z</time>
      </trkpt>
      <trkpt lat="46.445430787280202" lon="8.729741172865033">
        <ele>2176.5599999999999</ele>
        <time>2018-03-25T10:54:49Z</time>
      </trkpt>
      <trkpt lat="46.445401702076197" lon="8.729722229763866">
        <ele>2178</ele>
        <time>2018-03-25T10:54:58Z</time>
      </trkpt>
      <trkpt lat="46.445373622700572" lon="8.729731366038322">
        <ele>2179.4499999999998</ele>
        <time>2018-03-25T10:55:09Z</time>
      </trkpt>
      <trkpt lat="46.445335065945983" lon="8.729757014662027">
        <ele>2180.8899999999999</ele>
        <time>2018-03-25T10:55:18Z</time>
      </trkpt>
      <trkpt lat="46.445291815325618" lon="8.729767743498087">
        <ele>2181.8499999999999</ele>
        <time>2018-03-25T10:55:27Z</time>
      </trkpt>
      <trkpt lat="46.445248061791062" lon="8.729796661064029">
        <ele>2182.3299999999999</ele>
        <time>2018-03-25T10:55:36Z</time>
      </trkpt>
      <trkpt lat="46.445244709029794" lon="8.729798924177885">
        <ele>2182.8099999999999</ele>
        <time>2018-03-25T10:55:44Z</time>
      </trkpt>
      <trkpt lat="46.445223335176706" lon="8.729872517287731">
        <ele>2182.8099999999999</ele>
        <time>2018-03-25T10:55:55Z</time>
      </trkpt>
      <trkpt lat="46.44521763548255" lon="8.729947032406926">
        <ele>2184.25</ele>
        <time>2018-03-25T10:56:04Z</time>
      </trkpt>
      <trkpt lat="46.445219395682216" lon="8.730022134259343">
        <ele>2185.21</ele>
        <time>2018-03-25T10:56:14Z</time>
      </trkpt>
      <trkpt lat="46.445219730958343" lon="8.730104193091393">
        <ele>2186.6599999999999</ele>
        <time>2018-03-25T10:56:23Z</time>
      </trkpt>
      <trkpt lat="46.445213360711932" lon="8.730146437883377">
        <ele>2188.5799999999999</ele>
        <time>2018-03-25T10:56:34Z</time>
      </trkpt>
      <trkpt lat="46.445218557491899" lon="8.730221455916762">
        <ele>2189.54</ele>
        <time>2018-03-25T10:56:44Z</time>
      </trkpt>
      <trkpt lat="46.445220820605755" lon="8.730302341282368">
        <ele>2190.5</ele>
        <time>2018-03-25T10:56:54Z</time>
      </trkpt>
      <trkpt lat="46.44521520473063" lon="8.73036939650774">
        <ele>2191.46</ele>
        <time>2018-03-25T10:57:04Z</time>
      </trkpt>
      <trkpt lat="46.445194417610765" lon="8.730425387620926">
        <ele>2190.98</ele>
        <time>2018-03-25T10:57:12Z</time>
      </trkpt>
      <trkpt lat="46.445122081786394" lon="8.730499064549804">
        <ele>2189.0599999999999</ele>
        <time>2018-03-25T10:57:23Z</time>
      </trkpt>
      <trkpt lat="46.445101546123624" lon="8.730541225522757">
        <ele>2189.0599999999999</ele>
        <time>2018-03-25T10:57:27Z</time>
      </trkpt>
      <trkpt lat="46.445052679628134" lon="8.730632085353136">
        <ele>2189.54</ele>
        <time>2018-03-25T10:57:36Z</time>
      </trkpt>
      <trkpt lat="46.445038681849837" lon="8.730653710663319">
        <ele>2189.54</ele>
        <time>2018-03-25T10:57:38Z</time>
      </trkpt>
      <trkpt lat="46.445005070418119" lon="8.730739038437605">
        <ele>2190.02</ele>
        <time>2018-03-25T10:57:47Z</time>
      </trkpt>
      <trkpt lat="46.444964669644833" lon="8.730812380090356">
        <ele>2189.0599999999999</ele>
        <time>2018-03-25T10:57:58Z</time>
      </trkpt>
      <trkpt lat="46.444908510893583" lon="8.730920674279332">
        <ele>2188.0999999999999</ele>
        <time>2018-03-25T10:58:09Z</time>
      </trkpt>
      <trkpt lat="46.444855621084571" lon="8.730983287096024">
        <ele>2188.0999999999999</ele>
        <time>2018-03-25T10:58:18Z</time>
      </trkpt>
      <trkpt lat="46.444823769852519" lon="8.731084456667304">
        <ele>2188.0999999999999</ele>
        <time>2018-03-25T10:58:29Z</time>
      </trkpt>
      <trkpt lat="46.444803820922971" lon="8.731142962351441">
        <ele>2187.6199999999999</ele>
        <time>2018-03-25T10:58:34Z</time>
      </trkpt>
      <trkpt lat="46.444769287481904" lon="8.731271121650934">
        <ele>2186.6599999999999</ele>
        <time>2018-03-25T10:58:44Z</time>
      </trkpt>
      <trkpt lat="46.444717738777399" lon="8.731362316757441">
        <ele>2186.6599999999999</ele>
        <time>2018-03-25T10:58:55Z</time>
      </trkpt>
      <trkpt lat="46.444715978577733" lon="8.731355778872967">
        <ele>2186.6599999999999</ele>
        <time>2018-03-25T10:59:00Z</time>
      </trkpt>
      <trkpt lat="46.444637607783079" lon="8.73144487850368">
        <ele>2185.6900000000001</ele>
        <time>2018-03-25T10:59:10Z</time>
      </trkpt>
      <trkpt lat="46.444632327184081" lon="8.731453428044915">
        <ele>2185.6900000000001</ele>
        <time>2018-03-25T10:59:11Z</time>
      </trkpt>
      <trkpt lat="46.444576419889927" lon="8.731572618708015">
        <ele>2185.6900000000001</ele>
        <time>2018-03-25T10:59:22Z</time>
      </trkpt>
      <trkpt lat="46.444573486223817" lon="8.731582509353757">
        <ele>2185.6900000000001</ele>
        <time>2018-03-25T10:59:23Z</time>
      </trkpt>
      <trkpt lat="46.444565607234836" lon="8.731649899855256">
        <ele>2185.21</ele>
        <time>2018-03-25T10:59:32Z</time>
      </trkpt>
      <trkpt lat="46.44456535577774" lon="8.731664484366775">
        <ele>2184.73</ele>
        <time>2018-03-25T10:59:38Z</time>
      </trkpt>
      <trkpt lat="46.444540126249194" lon="8.731673117727041">
        <ele>2184.73</ele>
        <time>2018-03-25T10:59:48Z</time>
      </trkpt>
      <trkpt lat="46.444517830386758" lon="8.73174880631268">
        <ele>2182.3299999999999</ele>
        <time>2018-03-25T10:59:59Z</time>
      </trkpt>
      <trkpt lat="46.444521266967058" lon="8.731760457158089">
        <ele>2180.8899999999999</ele>
        <time>2018-03-25T11:00:10Z</time>
      </trkpt>
      <trkpt lat="46.44451548345387" lon="8.731765653938055">
        <ele>2180.4099999999999</ele>
        <time>2018-03-25T11:00:27Z</time>
      </trkpt>
      <trkpt lat="46.444522608071566" lon="8.731776382774115">
        <ele>2180.4099999999999</ele>
        <time>2018-03-25T11:00:41Z</time>
      </trkpt>
      <trkpt lat="46.444521602243185" lon="8.731776298955083">
        <ele>2180.4099999999999</ele>
        <time>2018-03-25T11:01:02Z</time>
      </trkpt>
      <trkpt lat="46.444505676627159" lon="8.731796583160758">
        <ele>2179.9299999999998</ele>
        <time>2018-03-25T11:01:14Z</time>
      </trkpt>
      <trkpt lat="46.444427724927664" lon="8.731869421899319">
        <ele>2177.04</ele>
        <time>2018-03-25T11:01:25Z</time>
      </trkpt>
      <trkpt lat="46.444371147081256" lon="8.731924323365092">
        <ele>2175.1199999999999</ele>
        <time>2018-03-25T11:01:34Z</time>
      </trkpt>
      <trkpt lat="46.444321861490607" lon="8.731979224830866">
        <ele>2172.7199999999998</ele>
        <time>2018-03-25T11:01:42Z</time>
      </trkpt>
      <trkpt lat="46.444270396605134" lon="8.732011746615171">
        <ele>2169.8299999999999</ele>
        <time>2018-03-25T11:01:50Z</time>
      </trkpt>
      <trkpt lat="46.444260086864233" lon="8.732064301148057">
        <ele>2167.4299999999998</ele>
        <time>2018-03-25T11:02:00Z</time>
      </trkpt>
      <trkpt lat="46.444266540929675" lon="8.732115849852562">
        <ele>2165.0300000000002</ele>
        <time>2018-03-25T11:02:10Z</time>
      </trkpt>
      <trkpt lat="46.444272324442863" lon="8.732106126844883">
        <ele>2165.0300000000002</ele>
        <time>2018-03-25T11:02:27Z</time>
      </trkpt>
      <trkpt lat="46.444268636405468" lon="8.732150886207819">
        <ele>2163.0999999999999</ele>
        <time>2018-03-25T11:02:38Z</time>
      </trkpt>
      <trkpt lat="46.444240724667907" lon="8.732183156535029">
        <ele>2161.6599999999999</ele>
        <time>2018-03-25T11:02:52Z</time>
      </trkpt>
      <trkpt lat="46.444211807101965" lon="8.732232861220837">
        <ele>2159.7399999999998</ele>
        <time>2018-03-25T11:03:00Z</time>
      </trkpt>
      <trkpt lat="46.444188840687275" lon="8.732305029407144">
        <ele>2156.8600000000001</ele>
        <time>2018-03-25T11:03:06Z</time>
      </trkpt>
      <trkpt lat="46.444183057174087" lon="8.732316261157394">
        <ele>2156.3699999999999</ele>
        <time>2018-03-25T11:03:07Z</time>
      </trkpt>
      <trkpt lat="46.444168724119663" lon="8.732384825125337">
        <ele>2153.4899999999998</ele>
        <time>2018-03-25T11:03:15Z</time>
      </trkpt>
      <trkpt lat="46.444168724119663" lon="8.732429333031178">
        <ele>2152.0500000000002</ele>
        <time>2018-03-25T11:03:19Z</time>
      </trkpt>
      <trkpt lat="46.444159587845206" lon="8.732501585036516">
        <ele>2148.6799999999998</ele>
        <time>2018-03-25T11:03:28Z</time>
      </trkpt>
      <trkpt lat="46.444157492369413" lon="8.73255891725421">
        <ele>2146.7600000000002</ele>
        <time>2018-03-25T11:03:33Z</time>
      </trkpt>
      <trkpt lat="46.444172998890281" lon="8.732687579467893">
        <ele>2145.3200000000002</ele>
        <time>2018-03-25T11:03:43Z</time>
      </trkpt>
      <trkpt lat="46.444163778796792" lon="8.732683723792434">
        <ele>2145.8000000000002</ele>
        <time>2018-03-25T11:03:53Z</time>
      </trkpt>
      <trkpt lat="46.444157240912318" lon="8.732688585296273">
        <ele>2145.8000000000002</ele>
        <time>2018-03-25T11:04:04Z</time>
      </trkpt>
      <trkpt lat="46.44415196031332" lon="8.732680203393102">
        <ele>2145.3200000000002</ele>
        <time>2018-03-25T11:04:13Z</time>
      </trkpt>
      <trkpt lat="46.444148607552052" lon="8.732675677165389">
        <ele>2145.3200000000002</ele>
        <time>2018-03-25T11:04:30Z</time>
      </trkpt>
      <trkpt lat="46.444145254790783" lon="8.732677102088928">
        <ele>2145.3200000000002</ele>
        <time>2018-03-25T11:04:41Z</time>
      </trkpt>
      <trkpt lat="46.444125892594457" lon="8.732676431536675">
        <ele>2144.8400000000001</ele>
        <time>2018-03-25T11:04:53Z</time>
      </trkpt>
      <trkpt lat="46.444115079939365" lon="8.732664026319981">
        <ele>2144.8400000000001</ele>
        <time>2018-03-25T11:05:10Z</time>
      </trkpt>
      <trkpt lat="46.444115247577429" lon="8.732660338282585">
        <ele>2145.3200000000002</ele>
        <time>2018-03-25T11:05:24Z</time>
      </trkpt>
      <trkpt lat="46.444129161536694" lon="8.732674084603787">
        <ele>2144.8400000000001</ele>
        <time>2018-03-25T11:05:35Z</time>
      </trkpt>
      <trkpt lat="46.444119270890951" lon="8.73268305324018">
        <ele>2143.8800000000001</ele>
        <time>2018-03-25T11:05:47Z</time>
      </trkpt>
      <trkpt lat="46.444093370810151" lon="8.732682047411799">
        <ele>2143.8800000000001</ele>
        <time>2018-03-25T11:06:12Z</time>
      </trkpt>
      <trkpt lat="46.444105440750718" lon="8.732669474557042">
        <ele>2143.8800000000001</ele>
        <time>2018-03-25T11:06:40Z</time>
      </trkpt>
      <trkpt lat="46.444107536226511" lon="8.732669223099947">
        <ele>2143.8800000000001</ele>
        <time>2018-03-25T11:07:02Z</time>
      </trkpt>
      <trkpt lat="46.444116672500968" lon="8.732685064896941">
        <ele>2143.8800000000001</ele>
        <time>2018-03-25T11:07:22Z</time>
      </trkpt>
      <trkpt lat="46.444101585075259" lon="8.732668301090598">
        <ele>2143.8800000000001</ele>
        <time>2018-03-25T11:07:42Z</time>
      </trkpt>
      <trkpt lat="46.444107871502638" lon="8.732663355767727">
        <ele>2143.8800000000001</ele>
        <time>2018-03-25T11:08:00Z</time>
      </trkpt>
      <trkpt lat="46.444131257012486" lon="8.732680035755038">
        <ele>2143.8800000000001</ele>
        <time>2018-03-25T11:08:19Z</time>
      </trkpt>
      <trkpt lat="46.444137208163738" lon="8.732682382687926">
        <ele>2143.8800000000001</ele>
        <time>2018-03-25T11:08:33Z</time>
      </trkpt>
      <trkpt lat="46.444130754098296" lon="8.732677353546023">
        <ele>2143.8800000000001</ele>
        <time>2018-03-25T11:08:50Z</time>
      </trkpt>
      <trkpt lat="46.444125389680266" lon="8.732700403779745">
        <ele>2143.8800000000001</ele>
        <time>2018-03-25T11:09:09Z</time>
      </trkpt>
      <trkpt lat="46.444120444357395" lon="8.732663858681917">
        <ele>2143.8800000000001</ele>
        <time>2018-03-25T11:09:27Z</time>
      </trkpt>
      <trkpt lat="46.444115918129683" lon="8.732651621103287">
        <ele>2144.3600000000001</ele>
        <time>2018-03-25T11:09:38Z</time>
      </trkpt>
      <trkpt lat="46.444147769361734" lon="8.73270845040679">
        <ele>2144.3600000000001</ele>
        <time>2018-03-25T11:09:56Z</time>
      </trkpt>
      <trkpt lat="46.444146260619164" lon="8.732710797339678">
        <ele>2144.3600000000001</ele>
        <time>2018-03-25T11:10:10Z</time>
      </trkpt>
      <trkpt lat="46.444147350266576" lon="8.7327113840729">
        <ele>2143.8800000000001</ele>
        <time>2018-03-25T11:10:21Z</time>
      </trkpt>
      <trkpt lat="46.444146344438195" lon="8.732694117352366">
        <ele>2143.8800000000001</ele>
        <time>2018-03-25T11:10:38Z</time>
      </trkpt>
      <trkpt lat="46.444148272275925" lon="8.732687663286924">
        <ele>2143.8800000000001</ele>
        <time>2018-03-25T11:11:02Z</time>
      </trkpt>
      <trkpt lat="46.444161012768745" lon="8.732701577246189">
        <ele>2143.4000000000001</ele>
        <time>2018-03-25T11:11:30Z</time>
      </trkpt>
      <trkpt lat="46.444161934778094" lon="8.73270308598876">
        <ele>2143.8800000000001</ele>
        <time>2018-03-25T11:11:59Z</time>
      </trkpt>
      <trkpt lat="46.444179201498628" lon="8.732708198949695">
        <ele>2143.8800000000001</ele>
        <time>2018-03-25T11:12:20Z</time>
      </trkpt>
      <trkpt lat="46.444154810160398" lon="8.732701158151031">
        <ele>2143.8800000000001</ele>
        <time>2018-03-25T11:12:49Z</time>
      </trkpt>
      <trkpt lat="46.444153971970081" lon="8.732689674943686">
        <ele>2144.3600000000001</ele>
        <time>2018-03-25T11:13:15Z</time>
      </trkpt>
      <trkpt lat="46.444170819595456" lon="8.732711132615805">
        <ele>2144.3600000000001</ele>
        <time>2018-03-25T11:13:42Z</time>
      </trkpt>
      <trkpt lat="46.444174759089947" lon="8.732715910300612">
        <ele>2144.3600000000001</ele>
        <time>2018-03-25T11:14:02Z</time>
      </trkpt>
      <trkpt lat="46.444171406328678" lon="8.73271674849093">
        <ele>2144.8400000000001</ele>
        <time>2018-03-25T11:14:23Z</time>
      </trkpt>
      <trkpt lat="46.444168975576758" lon="8.7327079474926">
        <ele>2131.8600000000001</ele>
        <time>2018-03-25T11:14:26Z</time>
      </trkpt>
      <trkpt lat="46.444173166528344" lon="8.732709372416139">
        <ele>2150.1300000000001</ele>
        <time>2018-03-25T11:14:27Z</time>
      </trkpt>
      <trkpt lat="46.444176016375422" lon="8.732709875330329">
        <ele>2145.3200000000002</ele>
        <time>2018-03-25T11:14:28Z</time>
      </trkpt>
      <trkpt lat="46.444170316681266" lon="8.732708534225822">
        <ele>2144.3600000000001</ele>
        <time>2018-03-25T11:14:35Z</time>
      </trkpt>
      <trkpt lat="46.444182554259896" lon="8.732707109302282">
        <ele>2144.3600000000001</ele>
        <time>2018-03-25T11:14:43Z</time>
      </trkpt>
      <trkpt lat="46.444178530946374" lon="8.73268062248826">
        <ele>2144.3600000000001</ele>
        <time>2018-03-25T11:15:10Z</time>
      </trkpt>
      <trkpt lat="46.444158246740699" lon="8.732626726850867">
        <ele>2144.3600000000001</ele>
        <time>2018-03-25T11:15:33Z</time>
      </trkpt>
      <trkpt lat="46.444127233698964" lon="8.732614573091269">
        <ele>2144.8400000000001</ele>
        <time>2018-03-25T11:15:59Z</time>
      </trkpt>
      <trkpt lat="46.444132849574089" lon="8.7326336838305">
        <ele>2144.8400000000001</ele>
        <time>2018-03-25T11:16:27Z</time>
      </trkpt>
      <trkpt lat="46.444162521511316" lon="8.732650447636843">
        <ele>2144.8400000000001</ele>
        <time>2018-03-25T11:16:55Z</time>
      </trkpt>
      <trkpt lat="46.444122372195125" lon="8.732620775699616">
        <ele>2144.8400000000001</ele>
        <time>2018-03-25T11:17:19Z</time>
      </trkpt>
      <trkpt lat="46.444059172645211" lon="8.732586074620485">
        <ele>2144.3600000000001</ele>
        <time>2018-03-25T11:17:49Z</time>
      </trkpt>
      <trkpt lat="46.44410602748394" lon="8.732644831761718">
        <ele>2144.3600000000001</ele>
        <time>2018-03-25T11:18:12Z</time>
      </trkpt>
      <trkpt lat="46.444153217598796" lon="8.732662182301283">
        <ele>2144.8400000000001</ele>
        <time>2018-03-25T11:18:32Z</time>
      </trkpt>
      <trkpt lat="46.444175764918327" lon="8.732676012441516">
        <ele>2144.8400000000001</ele>
        <time>2018-03-25T11:18:58Z</time>
      </trkpt>
      <trkpt lat="46.444158665835857" lon="8.732672911137343">
        <ele>2144.8400000000001</ele>
        <time>2018-03-25T11:19:25Z</time>
      </trkpt>
      <trkpt lat="46.444174842908978" lon="8.732661847025156">
        <ele>2145.3200000000002</ele>
        <time>2018-03-25T11:19:46Z</time>
      </trkpt>
      <trkpt lat="46.444193786010146" lon="8.732669139280915">
        <ele>2145.3200000000002</ele>
        <time>2018-03-25T11:20:08Z</time>
      </trkpt>
      <trkpt lat="46.444218177348375" lon="8.732677940279245">
        <ele>2145.3200000000002</ele>
        <time>2018-03-25T11:20:31Z</time>
      </trkpt>
      <trkpt lat="46.444217758253217" lon="8.732681209221482">
        <ele>2145.3200000000002</ele>
        <time>2018-03-25T11:20:55Z</time>
      </trkpt>
      <trkpt lat="46.444209460169077" lon="8.732670396566391">
        <ele>2145.3200000000002</ele>
        <time>2018-03-25T11:21:15Z</time>
      </trkpt>
      <trkpt lat="46.444172747433186" lon="8.732664361596108">
        <ele>2145.3200000000002</ele>
        <time>2018-03-25T11:21:33Z</time>
      </trkpt>
      <trkpt lat="46.444145757704973" lon="8.732653297483921">
        <ele>2145.3200000000002</ele>
        <time>2018-03-25T11:22:01Z</time>
      </trkpt>
      <trkpt lat="46.444215746596456" lon="8.732679365202785">
        <ele>2145.3200000000002</ele>
        <time>2018-03-25T11:22:29Z</time>
      </trkpt>
      <trkpt lat="46.444198312237859" lon="8.732652459293604">
        <ele>2145.8000000000002</ele>
        <time>2018-03-25T11:22:57Z</time>
      </trkpt>
      <trkpt lat="46.444202670827508" lon="8.732690177857876">
        <ele>2145.8000000000002</ele>
        <time>2018-03-25T11:23:24Z</time>
      </trkpt>
      <trkpt lat="46.444206275045872" lon="8.732692273333669">
        <ele>2146.2800000000002</ele>
        <time>2018-03-25T11:23:45Z</time>
      </trkpt>
      <trkpt lat="46.444174339994788" lon="8.732701074331999">
        <ele>2146.2800000000002</ele>
        <time>2018-03-25T11:24:03Z</time>
      </trkpt>
      <trkpt lat="46.444162018597126" lon="8.732690680772066">
        <ele>2147.2399999999998</ele>
        <time>2018-03-25T11:24:19Z</time>
      </trkpt>
      <trkpt lat="46.444147350266576" lon="8.732669306918979">
        <ele>2146.7600000000002</ele>
        <time>2018-03-25T11:24:28Z</time>
      </trkpt>
      <trkpt lat="46.444177608937025" lon="8.732681879773736">
        <ele>2147.2399999999998</ele>
        <time>2018-03-25T11:24:50Z</time>
      </trkpt>
      <trkpt lat="46.444182889536023" lon="8.732682131230831">
        <ele>2147.7199999999998</ele>
        <time>2018-03-25T11:25:04Z</time>
      </trkpt>
      <trkpt lat="46.444226475432515" lon="8.732705097645521">
        <ele>2147.7199999999998</ele>
        <time>2018-03-25T11:25:19Z</time>
      </trkpt>
      <trkpt lat="46.444228487089276" lon="8.732704427093267">
        <ele>2147.7199999999998</ele>
        <time>2018-03-25T11:25:35Z</time>
      </trkpt>
      <trkpt lat="46.444226475432515" lon="8.732700487598777">
        <ele>2147.7199999999998</ele>
        <time>2018-03-25T11:25:55Z</time>
      </trkpt>
      <trkpt lat="46.444229912012815" lon="8.73270015232265">
        <ele>2147.7199999999998</ele>
        <time>2018-03-25T11:26:09Z</time>
      </trkpt>
      <trkpt lat="46.444225804880261" lon="8.732715155929327">
        <ele>2147.7199999999998</ele>
        <time>2018-03-25T11:26:21Z</time>
      </trkpt>
      <trkpt lat="46.444184482097626" lon="8.732664277777076">
        <ele>2148.1999999999998</ele>
        <time>2018-03-25T11:26:40Z</time>
      </trkpt>
      <trkpt lat="46.444218512624502" lon="8.73268011957407">
        <ele>2148.6799999999998</ele>
        <time>2018-03-25T11:27:01Z</time>
      </trkpt>
      <trkpt lat="46.444235863164067" lon="8.732718760147691">
        <ele>2148.6799999999998</ele>
        <time>2018-03-25T11:27:14Z</time>
      </trkpt>
      <trkpt lat="46.444208286702633" lon="8.732706438750029">
        <ele>2148.6799999999998</ele>
        <time>2018-03-25T11:27:33Z</time>
      </trkpt>
      <trkpt lat="46.444193869829178" lon="8.732703672721982">
        <ele>2148.6799999999998</ele>
        <time>2018-03-25T11:27:47Z</time>
      </trkpt>
      <trkpt lat="46.444172747433186" lon="8.732689339667559">
        <ele>2149.1599999999999</ele>
        <time>2018-03-25T11:27:59Z</time>
      </trkpt>
      <trkpt lat="46.444166712462902" lon="8.732679532840848">
        <ele>2149.1599999999999</ele>
        <time>2018-03-25T11:28:15Z</time>
      </trkpt>
      <trkpt lat="46.444186242297292" lon="8.732712473720312">
        <ele>2149.1599999999999</ele>
        <time>2018-03-25T11:28:33Z</time>
      </trkpt>
      <trkpt lat="46.444187667220831" lon="8.7327148206532">
        <ele>2149.1599999999999</ele>
        <time>2018-03-25T11:28:41Z</time>
      </trkpt>
      <trkpt lat="46.444174759089947" lon="8.732726974412799">
        <ele>2149.1599999999999</ele>
        <time>2018-03-25T11:28:51Z</time>
      </trkpt>
      <trkpt lat="46.444174675270915" lon="8.73272898606956">
        <ele>2149.1599999999999</ele>
        <time>2018-03-25T11:29:04Z</time>
      </trkpt>
      <trkpt lat="46.444172579795122" lon="8.732733931392431">
        <ele>2149.1599999999999</ele>
        <time>2018-03-25T11:29:20Z</time>
      </trkpt>
      <trkpt lat="46.444166712462902" lon="8.732724459841847">
        <ele>2149.1599999999999</ele>
        <time>2018-03-25T11:29:36Z</time>
      </trkpt>
      <trkpt lat="46.44416662864387" lon="8.732718005776405">
        <ele>2149.6500000000001</ele>
        <time>2018-03-25T11:29:49Z</time>
      </trkpt>
      <trkpt lat="46.444169813767076" lon="8.732708785682917">
        <ele>2149.1599999999999</ele>
        <time>2018-03-25T11:30:06Z</time>
      </trkpt>
      <trkpt lat="46.444171573966742" lon="8.732723789289594">
        <ele>2149.6500000000001</ele>
        <time>2018-03-25T11:30:22Z</time>
      </trkpt>
      <trkpt lat="46.444176435470581" lon="8.732727477326989">
        <ele>2149.6500000000001</ele>
        <time>2018-03-25T11:30:39Z</time>
      </trkpt>
      <trkpt lat="46.444171573966742" lon="8.73273191973567">
        <ele>2149.6500000000001</ele>
        <time>2018-03-25T11:30:52Z</time>
      </trkpt>
      <trkpt lat="46.444159671664238" lon="8.732725381851196">
        <ele>2149.6500000000001</ele>
        <time>2018-03-25T11:31:05Z</time>
      </trkpt>
      <trkpt lat="46.444159001111984" lon="8.732726387679577">
        <ele>2149.6500000000001</ele>
        <time>2018-03-25T11:31:19Z</time>
      </trkpt>
      <trkpt lat="46.444150619208813" lon="8.732738122344017">
        <ele>2149.6500000000001</ele>
        <time>2018-03-25T11:31:32Z</time>
      </trkpt>
      <trkpt lat="46.444175848737359" lon="8.732725381851196">
        <ele>2149.6500000000001</ele>
        <time>2018-03-25T11:31:49Z</time>
      </trkpt>
      <trkpt lat="46.444175848737359" lon="8.732729321345687">
        <ele>2149.6500000000001</ele>
        <time>2018-03-25T11:32:11Z</time>
      </trkpt>
      <trkpt lat="46.444175262004137" lon="8.732726974412799">
        <ele>2150.1300000000001</ele>
        <time>2018-03-25T11:32:26Z</time>
      </trkpt>
      <trkpt lat="46.444166461005807" lon="8.732724627479911">
        <ele>2149.6500000000001</ele>
        <time>2018-03-25T11:32:38Z</time>
      </trkpt>
      <trkpt lat="46.444171657785773" lon="8.732733763754368">
        <ele>2149.6500000000001</ele>
        <time>2018-03-25T11:32:50Z</time>
      </trkpt>
      <trkpt lat="46.444171741604805" lon="8.732729740440846">
        <ele>2150.1300000000001</ele>
        <time>2018-03-25T11:33:01Z</time>
      </trkpt>
      <trkpt lat="46.44420912489295" lon="8.732679532840848">
        <ele>2150.1300000000001</ele>
        <time>2018-03-25T11:33:24Z</time>
      </trkpt>
      <trkpt lat="46.444199485704303" lon="8.732711216434836">
        <ele>2150.1300000000001</ele>
        <time>2018-03-25T11:33:39Z</time>
      </trkpt>
      <trkpt lat="46.444207867607474" lon="8.732712725177407">
        <ele>2150.1300000000001</ele>
        <time>2018-03-25T11:33:53Z</time>
      </trkpt>
      <trkpt lat="46.44420082680881" lon="8.732735607773066">
        <ele>2150.1300000000001</ele>
        <time>2018-03-25T11:34:07Z</time>
      </trkpt>
      <trkpt lat="46.444173250347376" lon="8.732719598338008">
        <ele>2150.1300000000001</ele>
        <time>2018-03-25T11:34:24Z</time>
      </trkpt>
      <trkpt lat="46.444173166528344" lon="8.732719765976071">
        <ele>2150.1300000000001</ele>
        <time>2018-03-25T11:34:38Z</time>
      </trkpt>
      <trkpt lat="46.44418959505856" lon="8.732733679935336">
        <ele>2150.6100000000001</ele>
        <time>2018-03-25T11:34:50Z</time>
      </trkpt>
      <trkpt lat="46.444180207327008" lon="8.732693698257208">
        <ele>2150.6100000000001</ele>
        <time>2018-03-25T11:35:09Z</time>
      </trkpt>
      <trkpt lat="46.444204514846206" lon="8.732711970806122">
        <ele>2150.6100000000001</ele>
        <time>2018-03-25T11:35:18Z</time>
      </trkpt>
      <trkpt lat="46.444175597280264" lon="8.732714653015137">
        <ele>2150.1300000000001</ele>
        <time>2018-03-25T11:35:35Z</time>
      </trkpt>
      <trkpt lat="46.444187751039863" lon="8.732775589451194">
        <ele>2149.6500000000001</ele>
        <time>2018-03-25T11:35:43Z</time>
      </trkpt>
      <trkpt lat="46.444200407713652" lon="8.732816157862544">
        <ele>2148.6799999999998</ele>
        <time>2018-03-25T11:35:46Z</time>
      </trkpt>
      <trkpt lat="46.444192444905639" lon="8.732850942760706">
        <ele>2147.7199999999998</ele>
        <time>2018-03-25T11:35:49Z</time>
      </trkpt>
      <trkpt lat="46.444125305861235" lon="8.732861839234829">
        <ele>2146.2800000000002</ele>
        <time>2018-03-25T11:35:56Z</time>
      </trkpt>
      <trkpt lat="46.444062190130353" lon="8.732846500352025">
        <ele>2144.3600000000001</ele>
        <time>2018-03-25T11:36:03Z</time>
      </trkpt>
      <trkpt lat="46.444032685831189" lon="8.732869802042842">
        <ele>2142.9200000000001</ele>
        <time>2018-03-25T11:36:07Z</time>
      </trkpt>
      <trkpt lat="46.443970156833529" lon="8.732895199209452">
        <ele>2140.0300000000002</ele>
        <time>2018-03-25T11:36:14Z</time>
      </trkpt>
      <trkpt lat="46.443912573158741" lon="8.732931409031153">
        <ele>2136.6700000000001</ele>
        <time>2018-03-25T11:36:21Z</time>
      </trkpt>
      <trkpt lat="46.443888517096639" lon="8.7329376116395">
        <ele>2135.23</ele>
        <time>2018-03-25T11:36:24Z</time>
      </trkpt>
      <trkpt lat="46.44387049600482" lon="8.732941132038832">
        <ele>2134.2600000000002</ele>
        <time>2018-03-25T11:36:26Z</time>
      </trkpt>
      <trkpt lat="46.443850882351398" lon="8.73294691555202">
        <ele>2132.8200000000002</ele>
        <time>2018-03-25T11:36:28Z</time>
      </trkpt>
      <trkpt lat="46.443755999207497" lon="8.732985053211451">
        <ele>2130.4200000000001</ele>
        <time>2018-03-25T11:36:38Z</time>
      </trkpt>
      <trkpt lat="46.443628594279289" lon="8.733007097616792">
        <ele>2127.5300000000002</ele>
        <time>2018-03-25T11:36:50Z</time>
      </trkpt>
      <trkpt lat="46.443532202392817" lon="8.73303827829659">
        <ele>2126.0900000000001</ele>
        <time>2018-03-25T11:37:02Z</time>
      </trkpt>
      <trkpt lat="46.443523988127708" lon="8.733041128143668">
        <ele>2125.6100000000001</ele>
        <time>2018-03-25T11:37:03Z</time>
      </trkpt>
      <trkpt lat="46.443450814113021" lon="8.733043726533651">
        <ele>2124.6500000000001</ele>
        <time>2018-03-25T11:37:10Z</time>
      </trkpt>
      <trkpt lat="46.443363726139069" lon="8.733072727918625">
        <ele>2123.21</ele>
        <time>2018-03-25T11:37:20Z</time>
      </trkpt>
      <trkpt lat="46.443267753347754" lon="8.733113296329975">
        <ele>2122.73</ele>
        <time>2018-03-25T11:37:30Z</time>
      </trkpt>
      <trkpt lat="46.443260125815868" lon="8.733118325471878">
        <ele>2122.25</ele>
        <time>2018-03-25T11:37:31Z</time>
      </trkpt>
      <trkpt lat="46.443200446665287" lon="8.733152691274881">
        <ele>2121.77</ele>
        <time>2018-03-25T11:37:38Z</time>
      </trkpt>
      <trkpt lat="46.443124422803521" lon="8.733168868348002">
        <ele>2119.8400000000001</ele>
        <time>2018-03-25T11:37:48Z</time>
      </trkpt>
      <trkpt lat="46.443096594884992" lon="8.733181860297918">
        <ele>2118.8800000000001</ele>
        <time>2018-03-25T11:37:59Z</time>
      </trkpt>
      <trkpt lat="46.44310774281621" lon="8.73318680562079">
        <ele>2118.4000000000001</ele>
        <time>2018-03-25T11:38:16Z</time>
      </trkpt>
      <trkpt lat="46.443061055615544" lon="8.733227709308267">
        <ele>2117.4400000000001</ele>
        <time>2018-03-25T11:38:23Z</time>
      </trkpt>
      <trkpt lat="46.442983942106366" lon="8.733290657401085">
        <ele>2115.52</ele>
        <time>2018-03-25T11:38:34Z</time>
      </trkpt>
      <trkpt lat="46.442944966256618" lon="8.733348492532969">
        <ele>2114.0799999999999</ele>
        <time>2018-03-25T11:38:42Z</time>
      </trkpt>
      <trkpt lat="46.4429269451648" lon="8.733359221369028">
        <ele>2113.5999999999999</ele>
        <time>2018-03-25T11:38:57Z</time>
      </trkpt>
      <trkpt lat="46.442914623767138" lon="8.733354862779379">
        <ele>2113.5999999999999</ele>
        <time>2018-03-25T11:39:10Z</time>
      </trkpt>
      <trkpt lat="46.442899536341429" lon="8.733372297137976">
        <ele>2113.5999999999999</ele>
        <time>2018-03-25T11:39:19Z</time>
      </trkpt>
      <trkpt lat="46.44284781999886" lon="8.733378248289228">
        <ele>2113.5999999999999</ele>
        <time>2018-03-25T11:39:30Z</time>
      </trkpt>
      <trkpt lat="46.442841365933418" lon="8.733381517231464">
        <ele>2113.5999999999999</ele>
        <time>2018-03-25T11:39:31Z</time>
      </trkpt>
      <trkpt lat="46.442789817228913" lon="8.733456954360008">
        <ele>2112.1500000000001</ele>
        <time>2018-03-25T11:39:40Z</time>
      </trkpt>
      <trkpt lat="46.44274178892374" lon="8.733513364568353">
        <ele>2110.71</ele>
        <time>2018-03-25T11:39:49Z</time>
      </trkpt>
      <trkpt lat="46.442697616294026" lon="8.733613612130284">
        <ele>2109.75</ele>
        <time>2018-03-25T11:40:00Z</time>
      </trkpt>
      <trkpt lat="46.442679846659303" lon="8.733665579929948">
        <ele>2108.79</ele>
        <time>2018-03-25T11:40:06Z</time>
      </trkpt>
      <trkpt lat="46.442656209692359" lon="8.733699191361666">
        <ele>2107.3499999999999</ele>
        <time>2018-03-25T11:40:17Z</time>
      </trkpt>
      <trkpt lat="46.442656377330422" lon="8.733698269352317">
        <ele>2107.3499999999999</ele>
        <time>2018-03-25T11:40:18Z</time>
      </trkpt>
      <trkpt lat="46.44262888468802" lon="8.73383229598403">
        <ele>2104.9400000000001</ele>
        <time>2018-03-25T11:40:29Z</time>
      </trkpt>
      <trkpt lat="46.442610612139106" lon="8.733915025368333">
        <ele>2103.5</ele>
        <time>2018-03-25T11:40:41Z</time>
      </trkpt>
      <trkpt lat="46.44261765293777" lon="8.733996162191033">
        <ele>2102.0599999999999</ele>
        <time>2018-03-25T11:40:54Z</time>
      </trkpt>
      <trkpt lat="46.442624107003212" lon="8.734055757522583">
        <ele>2101.0999999999999</ele>
        <time>2018-03-25T11:41:06Z</time>
      </trkpt>
      <trkpt lat="46.442609438672662" lon="8.734106887131929">
        <ele>2099.6599999999999</ele>
        <time>2018-03-25T11:41:10Z</time>
      </trkpt>
      <trkpt lat="46.44258102402091" lon="8.734265891835094">
        <ele>2097.25</ele>
        <time>2018-03-25T11:41:23Z</time>
      </trkpt>
      <trkpt lat="46.442587645724416" lon="8.734394973143935">
        <ele>2094.8499999999999</ele>
        <time>2018-03-25T11:41:33Z</time>
      </trkpt>
      <trkpt lat="46.442586136981845" lon="8.734521875157952">
        <ele>2091.4899999999998</ele>
        <time>2018-03-25T11:41:44Z</time>
      </trkpt>
      <trkpt lat="46.442587478086352" lon="8.734642574563623">
        <ele>2088.5999999999999</ele>
        <time>2018-03-25T11:41:54Z</time>
      </trkpt>
      <trkpt lat="46.442577252164483" lon="8.734696889296174">
        <ele>2087.1599999999999</ele>
        <time>2018-03-25T11:42:04Z</time>
      </trkpt>
      <trkpt lat="46.44256685860455" lon="8.734763106331229">
        <ele>2085.2399999999998</ele>
        <time>2018-03-25T11:42:14Z</time>
      </trkpt>
      <trkpt lat="46.442584376782179" lon="8.734848266467452">
        <ele>2084.2800000000002</ele>
        <time>2018-03-25T11:42:22Z</time>
      </trkpt>
      <trkpt lat="46.442619077861309" lon="8.734860168769956">
        <ele>2082.8299999999999</ele>
        <time>2018-03-25T11:42:32Z</time>
      </trkpt>
      <trkpt lat="46.442659394815564" lon="8.734936276450753">
        <ele>2080.9099999999999</ele>
        <time>2018-03-25T11:42:42Z</time>
      </trkpt>
      <trkpt lat="46.442697867751122" lon="8.735048845410347">
        <ele>2078.0300000000002</ele>
        <time>2018-03-25T11:42:53Z</time>
      </trkpt>
      <trkpt lat="46.442707758396864" lon="8.735058903694153">
        <ele>2077.5500000000002</ele>
        <time>2018-03-25T11:42:55Z</time>
      </trkpt>
      <trkpt lat="46.442729467526078" lon="8.735069716349244">
        <ele>2077.0700000000002</ele>
        <time>2018-03-25T11:42:58Z</time>
      </trkpt>
      <trkpt lat="46.442771041765809" lon="8.735135933384299">
        <ele>2075.1399999999999</ele>
        <time>2018-03-25T11:43:07Z</time>
      </trkpt>
      <trkpt lat="46.442749248817563" lon="8.735257470980287">
        <ele>2072.7399999999998</ele>
        <time>2018-03-25T11:43:17Z</time>
      </trkpt>
      <trkpt lat="46.442741872742772" lon="8.735288567841053">
        <ele>2071.7800000000002</ele>
        <time>2018-03-25T11:43:20Z</time>
      </trkpt>
      <trkpt lat="46.442670375108719" lon="8.735388983041048">
        <ele>2068.8899999999999</ele>
        <time>2018-03-25T11:43:31Z</time>
      </trkpt>
      <trkpt lat="46.44266308285296" lon="8.735392838716507">
        <ele>2068.8899999999999</ele>
        <time>2018-03-25T11:43:32Z</time>
      </trkpt>
      <trkpt lat="46.442631650716066" lon="8.735438603907824">
        <ele>2069.3800000000001</ele>
        <time>2018-03-25T11:43:38Z</time>
      </trkpt>
      <trkpt lat="46.442613797262311" lon="8.735510688275099">
        <ele>2069.3800000000001</ele>
        <time>2018-03-25T11:43:49Z</time>
      </trkpt>
      <trkpt lat="46.442581946030259" lon="8.735547736287117">
        <ele>2070.3400000000001</ele>
        <time>2018-03-25T11:43:58Z</time>
      </trkpt>
      <trkpt lat="46.44254632294178" lon="8.735551675781608">
        <ele>2072.2600000000002</ele>
        <time>2018-03-25T11:44:08Z</time>
      </trkpt>
      <trkpt lat="46.442522183060646" lon="8.735551759600639">
        <ele>2072.7399999999998</ele>
        <time>2018-03-25T11:44:13Z</time>
      </trkpt>
      <trkpt lat="46.44246862269938" lon="8.735604397952557">
        <ele>2073.2199999999998</ele>
        <time>2018-03-25T11:44:23Z</time>
      </trkpt>
      <trkpt lat="46.442443309351802" lon="8.73565292917192">
        <ele>2074.1799999999998</ele>
        <time>2018-03-25T11:44:31Z</time>
      </trkpt>
      <trkpt lat="46.442415984347463" lon="8.735685450956225">
        <ele>2074.1799999999998</ele>
        <time>2018-03-25T11:44:40Z</time>
      </trkpt>
      <trkpt lat="46.442398466169834" lon="8.735697017982602">
        <ele>2074.1799999999998</ele>
        <time>2018-03-25T11:44:49Z</time>
      </trkpt>
      <trkpt lat="46.442397879436612" lon="8.735722918063402">
        <ele>2074.1799999999998</ele>
        <time>2018-03-25T11:45:01Z</time>
      </trkpt>
      <trkpt lat="46.442407602444291" lon="8.735720822587609">
        <ele>2074.6599999999999</ele>
        <time>2018-03-25T11:45:12Z</time>
      </trkpt>
      <trkpt lat="46.442398633807898" lon="8.7357281986624">
        <ele>2074.6599999999999</ele>
        <time>2018-03-25T11:45:24Z</time>
      </trkpt>
      <trkpt lat="46.44239486195147" lon="8.735752841457725">
        <ele>2074.1799999999998</ele>
        <time>2018-03-25T11:45:36Z</time>
      </trkpt>
      <trkpt lat="46.442398382350802" lon="8.735764995217323">
        <ele>2074.1799999999998</ele>
        <time>2018-03-25T11:45:49Z</time>
      </trkpt>
      <trkpt lat="46.442396622151136" lon="8.735772371292114">
        <ele>2074.1799999999998</ele>
        <time>2018-03-25T11:45:59Z</time>
      </trkpt>
      <trkpt lat="46.442389748990536" lon="8.735770611092448">
        <ele>2074.1799999999998</ele>
        <time>2018-03-25T11:46:10Z</time>
      </trkpt>
      <trkpt lat="46.442394694313407" lon="8.735787710174918">
        <ele>2074.1799999999998</ele>
        <time>2018-03-25T11:46:22Z</time>
      </trkpt>
      <trkpt lat="46.442400394007564" lon="8.73580732382834">
        <ele>2074.1799999999998</ele>
        <time>2018-03-25T11:46:33Z</time>
      </trkpt>
      <trkpt lat="46.442399807274342" lon="8.735793074592948">
        <ele>2074.1799999999998</ele>
        <time>2018-03-25T11:46:46Z</time>
      </trkpt>
      <trkpt lat="46.442409697920084" lon="8.735801624134183">
        <ele>2073.6999999999998</ele>
        <time>2018-03-25T11:46:59Z</time>
      </trkpt>
      <trkpt lat="46.442422606050968" lon="8.735832050442696">
        <ele>2073.2199999999998</ele>
        <time>2018-03-25T11:47:10Z</time>
      </trkpt>
      <trkpt lat="46.442428389564157" lon="8.735826853662729">
        <ele>2073.6999999999998</ele>
        <time>2018-03-25T11:47:24Z</time>
      </trkpt>
      <trkpt lat="46.442418750375509" lon="8.73584303073585">
        <ele>2073.2199999999998</ele>
        <time>2018-03-25T11:47:35Z</time>
      </trkpt>
      <trkpt lat="46.442415816709399" lon="8.735873457044363">
        <ele>2072.2600000000002</ele>
        <time>2018-03-25T11:47:44Z</time>
      </trkpt>
      <trkpt lat="46.442432580515742" lon="8.735898770391941">
        <ele>2071.3000000000002</ele>
        <time>2018-03-25T11:47:54Z</time>
      </trkpt>
      <trkpt lat="46.442459402605891" lon="8.735900698229671">
        <ele>2071.7800000000002</ele>
        <time>2018-03-25T11:48:06Z</time>
      </trkpt>
      <trkpt lat="46.442451775074005" lon="8.735894747078419">
        <ele>2071.3000000000002</ele>
        <time>2018-03-25T11:48:16Z</time>
      </trkpt>
      <trkpt lat="46.442429143935442" lon="8.735843785107136">
        <ele>2070.8200000000002</ele>
        <time>2018-03-25T11:48:27Z</time>
      </trkpt>
      <trkpt lat="46.4424485899508" lon="8.735897764563561">
        <ele>2069.3800000000001</ele>
        <time>2018-03-25T11:48:36Z</time>
      </trkpt>
      <trkpt lat="46.442474909126759" lon="8.735930370166898">
        <ele>2066.4899999999998</ele>
        <time>2018-03-25T11:48:47Z</time>
      </trkpt>
      <trkpt lat="46.442497288808227" lon="8.735969429835677">
        <ele>2065.0500000000002</ele>
        <time>2018-03-25T11:48:58Z</time>
      </trkpt>
      <trkpt lat="46.442507766187191" lon="8.736004969105125">
        <ele>2063.6100000000001</ele>
        <time>2018-03-25T11:49:01Z</time>
      </trkpt>
      <trkpt lat="46.442537354305387" lon="8.736084597185254">
        <ele>2060.2399999999998</ele>
        <time>2018-03-25T11:49:10Z</time>
      </trkpt>
      <trkpt lat="46.442580940201879" lon="8.736121896654367">
        <ele>2057.8400000000001</ele>
        <time>2018-03-25T11:49:18Z</time>
      </trkpt>
      <trkpt lat="46.442603822797537" lon="8.736117286607623">
        <ele>2056.4000000000001</ele>
        <time>2018-03-25T11:49:21Z</time>
      </trkpt>
      <trkpt lat="46.44264992326498" lon="8.736125836148858">
        <ele>2053.0300000000002</ele>
        <time>2018-03-25T11:49:29Z</time>
      </trkpt>
      <trkpt lat="46.442658472806215" lon="8.736127596348524">
        <ele>2052.5500000000002</ele>
        <time>2018-03-25T11:49:30Z</time>
      </trkpt>
      <trkpt lat="46.442717062309384" lon="8.73613421805203">
        <ele>2049.1900000000001</ele>
        <time>2018-03-25T11:49:39Z</time>
      </trkpt>
      <trkpt lat="46.44276768900454" lon="8.736150730401278">
        <ele>2046.3</ele>
        <time>2018-03-25T11:49:47Z</time>
      </trkpt>
      <trkpt lat="46.442796774208546" lon="8.736164309084415">
        <ele>2044.3800000000001</ele>
        <time>2018-03-25T11:49:52Z</time>
      </trkpt>
      <trkpt lat="46.442847987636924" lon="8.736180569976568">
        <ele>2041.02</ele>
        <time>2018-03-25T11:50:00Z</time>
      </trkpt>
      <trkpt lat="46.442888807505369" lon="8.736203536391258">
        <ele>2038.6099999999999</ele>
        <time>2018-03-25T11:50:05Z</time>
      </trkpt>
      <trkpt lat="46.442916970700026" lon="8.736220970749855">
        <ele>2037.1700000000001</ele>
        <time>2018-03-25T11:50:09Z</time>
      </trkpt>
      <trkpt lat="46.442934153601527" lon="8.736234465613961">
        <ele>2036.21</ele>
        <time>2018-03-25T11:50:11Z</time>
      </trkpt>
      <trkpt lat="46.442924430593848" lon="8.73624418862164">
        <ele>2035.25</ele>
        <time>2018-03-25T11:50:22Z</time>
      </trkpt>
      <trkpt lat="46.442957539111376" lon="8.736250894144177">
        <ele>2034.29</ele>
        <time>2018-03-25T11:50:30Z</time>
      </trkpt>
      <trkpt lat="46.442944966256618" lon="8.736253492534161">
        <ele>2034.29</ele>
        <time>2018-03-25T11:50:45Z</time>
      </trkpt>
      <trkpt lat="46.442933734506369" lon="8.736232789233327">
        <ele>2033.8099999999999</ele>
        <time>2018-03-25T11:51:03Z</time>
      </trkpt>
      <trkpt lat="46.442930968478322" lon="8.736246284097433">
        <ele>2033.8099999999999</ele>
        <time>2018-03-25T11:51:20Z</time>
      </trkpt>
      <trkpt lat="46.442931136116385" lon="8.736259695142508">
        <ele>2034.29</ele>
        <time>2018-03-25T11:51:38Z</time>
      </trkpt>
      <trkpt lat="46.442971788346767" lon="8.736272938549519">
        <ele>2032.8399999999999</ele>
        <time>2018-03-25T11:51:50Z</time>
      </trkpt>
      <trkpt lat="46.442983606830239" lon="8.736274279654026">
        <ele>2033.8099999999999</ele>
        <time>2018-03-25T11:52:15Z</time>
      </trkpt>
      <trkpt lat="46.442955862730742" lon="8.736264137551189">
        <ele>2034.29</ele>
        <time>2018-03-25T11:52:23Z</time>
      </trkpt>
      <trkpt lat="46.442948570474982" lon="8.736249636858702">
        <ele>2034.29</ele>
        <time>2018-03-25T11:52:33Z</time>
      </trkpt>
      <trkpt lat="46.44293088465929" lon="8.736230358481407">
        <ele>2032.3599999999999</ele>
        <time>2018-03-25T11:52:47Z</time>
      </trkpt>
      <trkpt lat="46.442925520241261" lon="8.73622365295887">
        <ele>2034.29</ele>
        <time>2018-03-25T11:52:54Z</time>
      </trkpt>
      <trkpt lat="46.442952677607536" lon="8.736208900809288">
        <ele>2034.77</ele>
        <time>2018-03-25T11:53:03Z</time>
      </trkpt>
      <trkpt lat="46.442984780296683" lon="8.736225748434663">
        <ele>2034.29</ele>
        <time>2018-03-25T11:53:16Z</time>
      </trkpt>
      <trkpt lat="46.443004980683327" lon="8.736300682649016">
        <ele>2033.3299999999999</ele>
        <time>2018-03-25T11:53:28Z</time>
      </trkpt>
      <trkpt lat="46.443065414205194" lon="8.736381232738495">
        <ele>2030.9200000000001</ele>
        <time>2018-03-25T11:53:38Z</time>
      </trkpt>
      <trkpt lat="46.443099025636911" lon="8.736451724544168">
        <ele>2029</ele>
        <time>2018-03-25T11:53:46Z</time>
      </trkpt>
      <trkpt lat="46.443112101405859" lon="8.7364880181849">
        <ele>2027.5599999999999</ele>
        <time>2018-03-25T11:53:51Z</time>
      </trkpt>
      <trkpt lat="46.443148897960782" lon="8.736562114208937">
        <ele>2025.1500000000001</ele>
        <time>2018-03-25T11:54:01Z</time>
      </trkpt>
      <trkpt lat="46.44317764788866" lon="8.736635455861688">
        <ele>2022.75</ele>
        <time>2018-03-25T11:54:11Z</time>
      </trkpt>
      <trkpt lat="46.443190556019545" lon="8.736688513308764">
        <ele>2021.79</ele>
        <time>2018-03-25T11:54:19Z</time>
      </trkpt>
      <trkpt lat="46.443193657323718" lon="8.736701253801584">
        <ele>2021.3099999999999</ele>
        <time>2018-03-25T11:54:21Z</time>
      </trkpt>
      <trkpt lat="46.44321721047163" lon="8.736782809719443">
        <ele>2018.9100000000001</ele>
        <time>2018-03-25T11:54:29Z</time>
      </trkpt>
      <trkpt lat="46.443219389766455" lon="8.736792197450995">
        <ele>2018.9100000000001</ele>
        <time>2018-03-25T11:54:30Z</time>
      </trkpt>
      <trkpt lat="46.443239087238908" lon="8.736894708126783">
        <ele>2016.5</ele>
        <time>2018-03-25T11:54:40Z</time>
      </trkpt>
      <trkpt lat="46.443249899893999" lon="8.736994285136461">
        <ele>2014.0999999999999</ele>
        <time>2018-03-25T11:54:52Z</time>
      </trkpt>
      <trkpt lat="46.443255012854934" lon="8.737098053097725">
        <ele>2012.1800000000001</ele>
        <time>2018-03-25T11:55:01Z</time>
      </trkpt>
      <trkpt lat="46.443269932642579" lon="8.737208191305399">
        <ele>2010.25</ele>
        <time>2018-03-25T11:55:11Z</time>
      </trkpt>
      <trkpt lat="46.443276386708021" lon="8.737324113026261">
        <ele>2007.8499999999999</ele>
        <time>2018-03-25T11:55:21Z</time>
      </trkpt>
      <trkpt lat="46.443290635943413" lon="8.737427461892366">
        <ele>2005.45</ele>
        <time>2018-03-25T11:55:31Z</time>
      </trkpt>
      <trkpt lat="46.443269262090325" lon="8.737523350864649">
        <ele>2004.97</ele>
        <time>2018-03-25T11:55:40Z</time>
      </trkpt>
      <trkpt lat="46.44325970672071" lon="8.737646732479334">
        <ele>2002.5599999999999</ele>
        <time>2018-03-25T11:55:50Z</time>
      </trkpt>
      <trkpt lat="46.443245876580477" lon="8.737777238711715">
        <ele>2000.1600000000001</ele>
        <time>2018-03-25T11:56:01Z</time>
      </trkpt>
      <trkpt lat="46.443232046440244" lon="8.737894501537085">
        <ele>1998.72</ele>
        <time>2018-03-25T11:56:11Z</time>
      </trkpt>
      <trkpt lat="46.443217126652598" lon="8.73797882348299">
        <ele>1997.76</ele>
        <time>2018-03-25T11:56:21Z</time>
      </trkpt>
      <trkpt lat="46.443199692294002" lon="8.738072952255607">
        <ele>1995.8299999999999</ele>
        <time>2018-03-25T11:56:31Z</time>
      </trkpt>
      <trkpt lat="46.443196423351765" lon="8.738086530938745">
        <ele>1995.8299999999999</ele>
        <time>2018-03-25T11:56:32Z</time>
      </trkpt>
      <trkpt lat="46.443164655938745" lon="8.738221228122711">
        <ele>1994.3900000000001</ele>
        <time>2018-03-25T11:56:43Z</time>
      </trkpt>
      <trkpt lat="46.443156190216541" lon="8.73827638104558">
        <ele>1993.4300000000001</ele>
        <time>2018-03-25T11:56:48Z</time>
      </trkpt>
      <trkpt lat="46.443114448338747" lon="8.738415436819196">
        <ele>1992.47</ele>
        <time>2018-03-25T11:56:59Z</time>
      </trkpt>
      <trkpt lat="46.443085363134742" lon="8.738538986071944">
        <ele>1991.51</ele>
        <time>2018-03-25T11:57:09Z</time>
      </trkpt>
      <trkpt lat="46.443081675097346" lon="8.738542841747403">
        <ele>1991.03</ele>
        <time>2018-03-25T11:57:20Z</time>
      </trkpt>
      <trkpt lat="46.443057032302022" lon="8.738554157316685">
        <ele>1991.03</ele>
        <time>2018-03-25T11:57:30Z</time>
      </trkpt>
      <trkpt lat="46.443030796945095" lon="8.738676449283958">
        <ele>1990.0699999999999</ele>
        <time>2018-03-25T11:57:38Z</time>
      </trkpt>
      <trkpt lat="46.442991485819221" lon="8.738799495622516">
        <ele>1988.6199999999999</ele>
        <time>2018-03-25T11:57:49Z</time>
      </trkpt>
      <trkpt lat="46.442974135279655" lon="8.738844925537705">
        <ele>1988.1400000000001</ele>
        <time>2018-03-25T11:57:54Z</time>
      </trkpt>
      <trkpt lat="46.442956030368805" lon="8.738891109824181">
        <ele>1987.1800000000001</ele>
        <time>2018-03-25T11:57:58Z</time>
      </trkpt>
      <trkpt lat="46.442920239642262" lon="8.738985322415829">
        <ele>1986.22</ele>
        <time>2018-03-25T11:58:07Z</time>
      </trkpt>
      <trkpt lat="46.442917222157121" lon="8.739003092050552">
        <ele>1986.22</ele>
        <time>2018-03-25T11:58:08Z</time>
      </trkpt>
      <trkpt lat="46.442907247692347" lon="8.739142064005137">
        <ele>1985.26</ele>
        <time>2018-03-25T11:58:18Z</time>
      </trkpt>
      <trkpt lat="46.442884616553783" lon="8.739298973232508">
        <ele>1984.3</ele>
        <time>2018-03-25T11:58:29Z</time>
      </trkpt>
      <trkpt lat="46.442888053134084" lon="8.739396957680583">
        <ele>1983.8199999999999</ele>
        <time>2018-03-25T11:58:37Z</time>
      </trkpt>
      <trkpt lat="46.442890064790845" lon="8.739545401185751">
        <ele>1982.3800000000001</ele>
        <time>2018-03-25T11:58:47Z</time>
      </trkpt>
      <trkpt lat="46.442889226600528" lon="8.739557471126318">
        <ele>1982.3800000000001</ele>
        <time>2018-03-25T11:58:48Z</time>
      </trkpt>
      <trkpt lat="46.442885035648942" lon="8.739605331793428">
        <ele>1981.9000000000001</ele>
        <time>2018-03-25T11:58:51Z</time>
      </trkpt>
      <trkpt lat="46.44287615083158" lon="8.739743465557694">
        <ele>1979.97</ele>
        <time>2018-03-25T11:59:01Z</time>
      </trkpt>
      <trkpt lat="46.442868523299694" lon="8.739897022023797">
        <ele>1979.01</ele>
        <time>2018-03-25T11:59:12Z</time>
      </trkpt>
      <trkpt lat="46.442862404510379" lon="8.739959467202425">
        <ele>1979.01</ele>
        <time>2018-03-25T11:59:17Z</time>
      </trkpt>
      <trkpt lat="46.442868355661631" lon="8.740008836612105">
        <ele>1978.53</ele>
        <time>2018-03-25T11:59:21Z</time>
      </trkpt>
      <trkpt lat="46.442860895767808" lon="8.740119310095906">
        <ele>1977.5699999999999</ele>
        <time>2018-03-25T11:59:29Z</time>
      </trkpt>
      <trkpt lat="46.442849412560463" lon="8.740278817713261">
        <ele>1977.0899999999999</ele>
        <time>2018-03-25T11:59:41Z</time>
      </trkpt>
      <trkpt lat="46.442845640704036" lon="8.740410581231117">
        <ele>1976.1300000000001</ele>
        <time>2018-03-25T11:59:51Z</time>
      </trkpt>
      <trkpt lat="46.442851759493351" lon="8.740543434396386">
        <ele>1975.1700000000001</ele>
        <time>2018-03-25T12:00:01Z</time>
      </trkpt>
      <trkpt lat="46.442842707037926" lon="8.740577716380358">
        <ele>1974.6900000000001</ele>
        <time>2018-03-25T12:00:09Z</time>
      </trkpt>
      <trkpt lat="46.442817142233253" lon="8.74059054069221">
        <ele>1974.6900000000001</ele>
        <time>2018-03-25T12:00:19Z</time>
      </trkpt>
      <trkpt lat="46.442825524136424" lon="8.740563467144966">
        <ele>1973.72</ele>
        <time>2018-03-25T12:00:28Z</time>
      </trkpt>
      <trkpt lat="46.442831978201866" lon="8.740578135475516">
        <ele>1973.72</ele>
        <time>2018-03-25T12:00:49Z</time>
      </trkpt>
      <trkpt lat="46.442840024828911" lon="8.740574447438121">
        <ele>1973.72</ele>
        <time>2018-03-25T12:01:02Z</time>
      </trkpt>
      <trkpt lat="46.442847652360797" lon="8.740585930645466">
        <ele>1974.2</ele>
        <time>2018-03-25T12:01:10Z</time>
      </trkpt>
      <trkpt lat="46.442836169153452" lon="8.740596240386367">
        <ele>1975.1700000000001</ele>
        <time>2018-03-25T12:01:22Z</time>
      </trkpt>
      <trkpt lat="46.44284488633275" lon="8.740577297285199">
        <ele>1974.6900000000001</ele>
        <time>2018-03-25T12:01:33Z</time>
      </trkpt>
      <trkpt lat="46.442819321528077" lon="8.740577045828104">
        <ele>1975.1700000000001</ele>
        <time>2018-03-25T12:01:46Z</time>
      </trkpt>
      <trkpt lat="46.442822171375155" lon="8.740554498508573">
        <ele>1973.72</ele>
        <time>2018-03-25T12:01:55Z</time>
      </trkpt>
      <trkpt lat="46.442815717309713" lon="8.740549217909575">
        <ele>1973.24</ele>
        <time>2018-03-25T12:02:19Z</time>
      </trkpt>
      <trkpt lat="46.442830637097359" lon="8.740520467981696">
        <ele>1973.24</ele>
        <time>2018-03-25T12:02:36Z</time>
      </trkpt>
      <trkpt lat="46.442852765321732" lon="8.740543099120259">
        <ele>1974.2</ele>
        <time>2018-03-25T12:02:55Z</time>
      </trkpt>
      <trkpt lat="46.442855531349778" lon="8.740548295900226">
        <ele>1974.6900000000001</ele>
        <time>2018-03-25T12:03:05Z</time>
      </trkpt>
      <trkpt lat="46.44282728433609" lon="8.740594983100891">
        <ele>1974.6900000000001</ele>
        <time>2018-03-25T12:03:19Z</time>
      </trkpt>
      <trkpt lat="46.442832816392183" lon="8.740711491554976">
        <ele>1974.2</ele>
        <time>2018-03-25T12:03:29Z</time>
      </trkpt>
      <trkpt lat="46.442833235487342" lon="8.740789275616407">
        <ele>1973.24</ele>
        <time>2018-03-25T12:03:38Z</time>
      </trkpt>
      <trkpt lat="46.442813957110047" lon="8.740890445187688">
        <ele>1971.8</ele>
        <time>2018-03-25T12:03:50Z</time>
      </trkpt>
      <trkpt lat="46.442789398133755" lon="8.740998152643442">
        <ele>1970.8399999999999</ele>
        <time>2018-03-25T12:04:00Z</time>
      </trkpt>
      <trkpt lat="46.442781183868647" lon="8.741033859550953">
        <ele>1970.8399999999999</ele>
        <time>2018-03-25T12:04:03Z</time>
      </trkpt>
      <trkpt lat="46.44274028018117" lon="8.741131005808711">
        <ele>1969.8800000000001</ele>
        <time>2018-03-25T12:04:12Z</time>
      </trkpt>
      <trkpt lat="46.442736508324742" lon="8.741265116259456">
        <ele>1969.4000000000001</ele>
        <time>2018-03-25T12:04:24Z</time>
      </trkpt>
      <trkpt lat="46.442705160006881" lon="8.741419091820717">
        <ele>1969.4000000000001</ele>
        <time>2018-03-25T12:04:35Z</time>
      </trkpt>
      <trkpt lat="46.442681020125747" lon="8.741474747657776">
        <ele>1968.9200000000001</ele>
        <time>2018-03-25T12:04:39Z</time>
      </trkpt>
      <trkpt lat="46.442656125873327" lon="8.741542641073465">
        <ele>1968.9200000000001</ele>
        <time>2018-03-25T12:04:44Z</time>
      </trkpt>
      <trkpt lat="46.442595105618238" lon="8.741669710725546">
        <ele>1968.4400000000001</ele>
        <time>2018-03-25T12:04:55Z</time>
      </trkpt>
      <trkpt lat="46.442544981837273" lon="8.741759900003672">
        <ele>1968.4400000000001</ele>
        <time>2018-03-25T12:05:04Z</time>
      </trkpt>
      <trkpt lat="46.44250625744462" lon="8.741833996027708">
        <ele>1968.4400000000001</ele>
        <time>2018-03-25T12:05:13Z</time>
      </trkpt>
      <trkpt lat="46.442479183897376" lon="8.741870289668441">
        <ele>1969.4000000000001</ele>
        <time>2018-03-25T12:05:21Z</time>
      </trkpt>
      <trkpt lat="46.442437693476677" lon="8.741959640756249">
        <ele>1971.3199999999999</ele>
        <time>2018-03-25T12:05:34Z</time>
      </trkpt>
      <trkpt lat="46.442409865558147" lon="8.741974141448736">
        <ele>1971.3199999999999</ele>
        <time>2018-03-25T12:05:43Z</time>
      </trkpt>
      <trkpt lat="46.442404417321086" lon="8.742030719295144">
        <ele>1972.28</ele>
        <time>2018-03-25T12:05:52Z</time>
      </trkpt>
      <trkpt lat="46.442367201671004" lon="8.742089560255408">
        <ele>1974.2</ele>
        <time>2018-03-25T12:06:03Z</time>
      </trkpt>
      <trkpt lat="46.442322274670005" lon="8.742126859724522">
        <ele>1976.1300000000001</ele>
        <time>2018-03-25T12:06:15Z</time>
      </trkpt>
      <trkpt lat="46.442311378195882" lon="8.742149826139212">
        <ele>1976.6099999999999</ele>
        <time>2018-03-25T12:06:22Z</time>
      </trkpt>
      <trkpt lat="46.4423000626266" lon="8.742151502519846">
        <ele>1977.5699999999999</ele>
        <time>2018-03-25T12:06:32Z</time>
      </trkpt>
      <trkpt lat="46.442259075120091" lon="8.7422005366534">
        <ele>1978.53</ele>
        <time>2018-03-25T12:06:49Z</time>
      </trkpt>
      <trkpt lat="46.442227559164166" lon="8.74224211089313">
        <ele>1979.49</ele>
        <time>2018-03-25T12:06:57Z</time>
      </trkpt>
      <trkpt lat="46.442206520587206" lon="8.74229290522635">
        <ele>1979.97</ele>
        <time>2018-03-25T12:07:05Z</time>
      </trkpt>
      <trkpt lat="46.442199479788542" lon="8.742288881912828">
        <ele>1979.97</ele>
        <time>2018-03-25T12:07:20Z</time>
      </trkpt>
      <trkpt lat="46.442190175876021" lon="8.742293827235699">
        <ele>1979.49</ele>
        <time>2018-03-25T12:07:32Z</time>
      </trkpt>
      <trkpt lat="46.442153714597225" lon="8.742339592427015">
        <ele>1979.97</ele>
        <time>2018-03-25T12:07:41Z</time>
      </trkpt>
      <trkpt lat="46.442145751789212" lon="8.742363061755896">
        <ele>1979.97</ele>
        <time>2018-03-25T12:07:59Z</time>
      </trkpt>
      <trkpt lat="46.442185062915087" lon="8.742371611297131">
        <ele>1979.97</ele>
        <time>2018-03-25T12:08:10Z</time>
      </trkpt>
      <trkpt lat="46.442273994907737" lon="8.742401115596294">
        <ele>1980.45</ele>
        <time>2018-03-25T12:08:19Z</time>
      </trkpt>
      <trkpt lat="46.442350940778852" lon="8.74246004037559">
        <ele>1980.9300000000001</ele>
        <time>2018-03-25T12:08:27Z</time>
      </trkpt>
      <trkpt lat="46.442366614937782" lon="8.742487449198961">
        <ele>1981.4100000000001</ele>
        <time>2018-03-25T12:08:30Z</time>
      </trkpt>
      <trkpt lat="46.44242512062192" lon="8.742572441697121">
        <ele>1982.8599999999999</ele>
        <time>2018-03-25T12:08:40Z</time>
      </trkpt>
      <trkpt lat="46.442407518625259" lon="8.742603035643697">
        <ele>1983.8199999999999</ele>
        <time>2018-03-25T12:08:49Z</time>
      </trkpt>
      <trkpt lat="46.442373571917415" lon="8.742607813328505">
        <ele>1983.8199999999999</ele>
        <time>2018-03-25T12:09:00Z</time>
      </trkpt>
      <trkpt lat="46.442426042631269" lon="8.742641173303127">
        <ele>1984.3</ele>
        <time>2018-03-25T12:09:08Z</time>
      </trkpt>
      <trkpt lat="46.442463593557477" lon="8.742688279598951">
        <ele>1985.26</ele>
        <time>2018-03-25T12:09:17Z</time>
      </trkpt>
      <trkpt lat="46.442478261888027" lon="8.742693224921823">
        <ele>1985.26</ele>
        <time>2018-03-25T12:09:29Z</time>
      </trkpt>
      <trkpt lat="46.442533163353801" lon="8.742744186893106">
        <ele>1985.74</ele>
        <time>2018-03-25T12:09:37Z</time>
      </trkpt>
      <trkpt lat="46.442604828625917" lon="8.742804704234004">
        <ele>1986.22</ele>
        <time>2018-03-25T12:09:47Z</time>
      </trkpt>
      <trkpt lat="46.442654114216566" lon="8.742866478860378">
        <ele>1987.1800000000001</ele>
        <time>2018-03-25T12:09:56Z</time>
      </trkpt>
      <trkpt lat="46.442717481404543" lon="8.742930348962545">
        <ele>1987.6600000000001</ele>
        <time>2018-03-25T12:10:06Z</time>
      </trkpt>
      <trkpt lat="46.442724438384175" lon="8.74293839558959">
        <ele>1987.6600000000001</ele>
        <time>2018-03-25T12:10:07Z</time>
      </trkpt>
      <trkpt lat="46.44278378225863" lon="8.743021292611957">
        <ele>1988.1400000000001</ele>
        <time>2018-03-25T12:10:17Z</time>
      </trkpt>
      <trkpt lat="46.442824518308043" lon="8.743072589859366">
        <ele>1988.1400000000001</ele>
        <time>2018-03-25T12:10:23Z</time>
      </trkpt>
      <trkpt lat="46.442889226600528" lon="8.743145260959864">
        <ele>1988.6199999999999</ele>
        <time>2018-03-25T12:10:33Z</time>
      </trkpt>
      <trkpt lat="46.442912276834249" lon="8.743166215717793">
        <ele>1989.0999999999999</ele>
        <time>2018-03-25T12:10:37Z</time>
      </trkpt>
      <trkpt lat="46.442968854680657" lon="8.743232684209943">
        <ele>1989.5899999999999</ele>
        <time>2018-03-25T12:10:46Z</time>
      </trkpt>
      <trkpt lat="46.443013278767467" lon="8.743273420259357">
        <ele>1990.0699999999999</ele>
        <time>2018-03-25T12:10:56Z</time>
      </trkpt>
      <trkpt lat="46.443032054230571" lon="8.743286998942494">
        <ele>1989.5899999999999</ele>
        <time>2018-03-25T12:10:59Z</time>
      </trkpt>
      <trkpt lat="46.443098355084658" lon="8.743355395272374">
        <ele>1990.0699999999999</ele>
        <time>2018-03-25T12:11:09Z</time>
      </trkpt>
      <trkpt lat="46.443161638453603" lon="8.743417588993907">
        <ele>1990.55</ele>
        <time>2018-03-25T12:11:18Z</time>
      </trkpt>
      <trkpt lat="46.443201033398509" lon="8.743447763845325">
        <ele>1990.55</ele>
        <time>2018-03-25T12:11:25Z</time>
      </trkpt>
      <trkpt lat="46.443247552961111" lon="8.743462013080716">
        <ele>1990.0699999999999</ele>
        <time>2018-03-25T12:11:36Z</time>
      </trkpt>
      <trkpt lat="46.443261886015534" lon="8.743475927039981">
        <ele>1990.55</ele>
        <time>2018-03-25T12:11:43Z</time>
      </trkpt>
      <trkpt lat="46.443239590153098" lon="8.743453631177545">
        <ele>1990.55</ele>
        <time>2018-03-25T12:11:54Z</time>
      </trkpt>
      <trkpt lat="46.443238751962781" lon="8.743464946746826">
        <ele>1989.5899999999999</ele>
        <time>2018-03-25T12:12:03Z</time>
      </trkpt>
      <trkpt lat="46.443257108330727" lon="8.743494283407927">
        <ele>1989.5899999999999</ele>
        <time>2018-03-25T12:12:23Z</time>
      </trkpt>
      <trkpt lat="46.443237327039242" lon="8.743482381105423">
        <ele>1989.5899999999999</ele>
        <time>2018-03-25T12:12:52Z</time>
      </trkpt>
      <trkpt lat="46.44325727596879" lon="8.743476429954171">
        <ele>1989.5899999999999</ele>
        <time>2018-03-25T12:12:56Z</time>
      </trkpt>
      <trkpt lat="46.443232633173466" lon="8.743478609248996">
        <ele>1992.95</ele>
        <time>2018-03-25T12:13:04Z</time>
      </trkpt>
      <trkpt lat="46.443222742527723" lon="8.743460504338145">
        <ele>1990.55</ele>
        <time>2018-03-25T12:13:20Z</time>
      </trkpt>
      <trkpt lat="46.443230034783483" lon="8.743447428569198">
        <ele>1990.55</ele>
        <time>2018-03-25T12:13:38Z</time>
      </trkpt>
      <trkpt lat="46.443226262927055" lon="8.743455307558179">
        <ele>1990.55</ele>
        <time>2018-03-25T12:13:55Z</time>
      </trkpt>
      <trkpt lat="46.443213019520044" lon="8.743456983938813">
        <ele>1990.55</ele>
        <time>2018-03-25T12:14:09Z</time>
      </trkpt>
      <trkpt lat="46.443223161622882" lon="8.743463270366192">
        <ele>1990.55</ele>
        <time>2018-03-25T12:14:22Z</time>
      </trkpt>
      <trkpt lat="46.443221317604184" lon="8.743464024737477">
        <ele>1990.55</ele>
        <time>2018-03-25T12:14:33Z</time>
      </trkpt>
      <trkpt lat="46.443223496899009" lon="8.743466204032302">
        <ele>1990.55</ele>
        <time>2018-03-25T12:14:51Z</time>
      </trkpt>
      <trkpt lat="46.443228693678975" lon="8.743466874584556">
        <ele>1991.03</ele>
        <time>2018-03-25T12:15:07Z</time>
      </trkpt>
      <trkpt lat="46.443217545747757" lon="8.743458995595574">
        <ele>1990.55</ele>
        <time>2018-03-25T12:15:22Z</time>
      </trkpt>
      <trkpt lat="46.443210756406188" lon="8.743447763845325">
        <ele>1991.03</ele>
        <time>2018-03-25T12:15:37Z</time>
      </trkpt>
      <trkpt lat="46.443221066147089" lon="8.743468970060349">
        <ele>1991.03</ele>
        <time>2018-03-25T12:15:55Z</time>
      </trkpt>
      <trkpt lat="46.443212600424886" lon="8.74346368946135">
        <ele>1991.03</ele>
        <time>2018-03-25T12:16:06Z</time>
      </trkpt>
      <trkpt lat="46.443217545747757" lon="8.74343971721828">
        <ele>1991.03</ele>
        <time>2018-03-25T12:16:30Z</time>
      </trkpt>
      <trkpt lat="46.443223664537072" lon="8.743460504338145">
        <ele>1991.03</ele>
        <time>2018-03-25T12:16:45Z</time>
      </trkpt>
      <trkpt lat="46.443216120824218" lon="8.743457486853004">
        <ele>1991.03</ele>
        <time>2018-03-25T12:17:00Z</time>
      </trkpt>
      <trkpt lat="46.443231794983149" lon="8.7434455845505">
        <ele>1991.03</ele>
        <time>2018-03-25T12:17:12Z</time>
      </trkpt>
      <trkpt lat="46.44322064705193" lon="8.743439968675375">
        <ele>1991.51</ele>
        <time>2018-03-25T12:17:38Z</time>
      </trkpt>
      <trkpt lat="46.443219725042582" lon="8.743456397205591">
        <ele>1991.03</ele>
        <time>2018-03-25T12:17:56Z</time>
      </trkpt>
      <trkpt lat="46.443244619295001" lon="8.743469640612602">
        <ele>1990.55</ele>
        <time>2018-03-25T12:18:15Z</time>
      </trkpt>
      <trkpt lat="46.443300610408187" lon="8.74351792037487">
        <ele>1990.55</ele>
        <time>2018-03-25T12:18:25Z</time>
      </trkpt>
      <trkpt lat="46.443313267081976" lon="8.743559494614601">
        <ele>1991.03</ele>
        <time>2018-03-25T12:18:33Z</time>
      </trkpt>
      <trkpt lat="46.443356685340405" lon="8.743640379980207">
        <ele>1990.55</ele>
        <time>2018-03-25T12:18:42Z</time>
      </trkpt>
      <trkpt lat="46.44339113496244" lon="8.743677847087383">
        <ele>1989.5899999999999</ele>
        <time>2018-03-25T12:18:48Z</time>
      </trkpt>
      <trkpt lat="46.443439330905676" lon="8.743773903697729">
        <ele>1988.1400000000001</ele>
        <time>2018-03-25T12:18:57Z</time>
      </trkpt>
      <trkpt lat="46.443431451916695" lon="8.743890412151814">
        <ele>1987.6600000000001</ele>
        <time>2018-03-25T12:19:07Z</time>
      </trkpt>
      <trkpt lat="46.443445114418864" lon="8.744023265317082">
        <ele>1986.7</ele>
        <time>2018-03-25T12:19:18Z</time>
      </trkpt>
      <trkpt lat="46.443451568484306" lon="8.744068946689367">
        <ele>1985.74</ele>
        <time>2018-03-25T12:19:22Z</time>
      </trkpt>
      <trkpt lat="46.443500015884638" lon="8.744208421558142">
        <ele>1984.3</ele>
        <time>2018-03-25T12:19:34Z</time>
      </trkpt>
      <trkpt lat="46.443540751934052" lon="8.744292492046952">
        <ele>1983.3399999999999</ele>
        <time>2018-03-25T12:19:41Z</time>
      </trkpt>
      <trkpt lat="46.443593222647905" lon="8.74446876347065">
        <ele>1981.9000000000001</ele>
        <time>2018-03-25T12:19:55Z</time>
      </trkpt>
      <trkpt lat="46.443632449954748" lon="8.744630450382829">
        <ele>1980.9300000000001</ele>
        <time>2018-03-25T12:20:08Z</time>
      </trkpt>
      <trkpt lat="46.443661283701658" lon="8.744758693501353">
        <ele>1979.97</ele>
        <time>2018-03-25T12:20:18Z</time>
      </trkpt>
      <trkpt lat="46.443672515451908" lon="8.744818707928062">
        <ele>1979.49</ele>
        <time>2018-03-25T12:20:23Z</time>
      </trkpt>
      <trkpt lat="46.443687183782458" lon="8.744946615770459">
        <ele>1977.0899999999999</ele>
        <time>2018-03-25T12:20:36Z</time>
      </trkpt>
      <trkpt lat="46.443684250116348" lon="8.744968492537737">
        <ele>1976.6099999999999</ele>
        <time>2018-03-25T12:20:50Z</time>
      </trkpt>
      <trkpt lat="46.443682322278619" lon="8.744979137554765">
        <ele>1977.0899999999999</ele>
        <time>2018-03-25T12:20:51Z</time>
      </trkpt>
      <trkpt lat="46.443691961467266" lon="8.745045019313693">
        <ele>1976.1300000000001</ele>
        <time>2018-03-25T12:20:57Z</time>
      </trkpt>
      <trkpt lat="46.443729093298316" lon="8.745206454768777">
        <ele>1974.2</ele>
        <time>2018-03-25T12:21:09Z</time>
      </trkpt>
      <trkpt lat="46.443758513778448" lon="8.745344839990139">
        <ele>1972.28</ele>
        <time>2018-03-25T12:21:19Z</time>
      </trkpt>
      <trkpt lat="46.44379572942853" lon="8.745476687327027">
        <ele>1970.8399999999999</ele>
        <time>2018-03-25T12:21:29Z</time>
      </trkpt>
      <trkpt lat="46.443836465477943" lon="8.7456473428756">
        <ele>1969.4000000000001</ele>
        <time>2018-03-25T12:21:41Z</time>
      </trkpt>
      <trkpt lat="46.443882063031197" lon="8.745777513831854">
        <ele>1967.48</ele>
        <time>2018-03-25T12:21:52Z</time>
      </trkpt>
      <trkpt lat="46.443884577602148" lon="8.745790673419833">
        <ele>1967.48</ele>
        <time>2018-03-25T12:21:53Z</time>
      </trkpt>
      <trkpt lat="46.443873010575771" lon="8.745932159945369">
        <ele>1966.03</ele>
        <time>2018-03-25T12:22:04Z</time>
      </trkpt>
      <trkpt lat="46.443890277296305" lon="8.746035844087601">
        <ele>1965.0699999999999</ele>
        <time>2018-03-25T12:22:13Z</time>
      </trkpt>
      <trkpt lat="46.443912573158741" lon="8.746164171025157">
        <ele>1964.1099999999999</ele>
        <time>2018-03-25T12:22:23Z</time>
      </trkpt>
      <trkpt lat="46.44391592592001" lon="8.746274057775736">
        <ele>1962.1900000000001</ele>
        <time>2018-03-25T12:22:33Z</time>
      </trkpt>
      <trkpt lat="46.44391005858779" lon="8.74630942940712">
        <ele>1961.71</ele>
        <time>2018-03-25T12:22:35Z</time>
      </trkpt>
      <trkpt lat="46.443906873464584" lon="8.746404983103275">
        <ele>1959.3</ele>
        <time>2018-03-25T12:22:45Z</time>
      </trkpt>
      <trkpt lat="46.443886337801814" lon="8.746457705274224">
        <ele>1958.8199999999999</ele>
        <time>2018-03-25T12:22:50Z</time>
      </trkpt>
      <trkpt lat="46.443855743855238" lon="8.746547140181065">
        <ele>1956.9000000000001</ele>
        <time>2018-03-25T12:22:57Z</time>
      </trkpt>
      <trkpt lat="46.443814504891634" lon="8.746699439361692">
        <ele>1954.02</ele>
        <time>2018-03-25T12:23:08Z</time>
      </trkpt>
      <trkpt lat="46.443812409415841" lon="8.7467145267874">
        <ele>1953.54</ele>
        <time>2018-03-25T12:23:09Z</time>
      </trkpt>
      <trkpt lat="46.443787263706326" lon="8.746829023584724">
        <ele>1951.1300000000001</ele>
        <time>2018-03-25T12:23:17Z</time>
      </trkpt>
      <trkpt lat="46.443783659487963" lon="8.746841344982386">
        <ele>1950.6500000000001</ele>
        <time>2018-03-25T12:23:18Z</time>
      </trkpt>
      <trkpt lat="46.443781144917011" lon="8.74687235802412">
        <ele>1950.1700000000001</ele>
        <time>2018-03-25T12:23:20Z</time>
      </trkpt>
      <trkpt lat="46.443709898740053" lon="8.7470374815166">
        <ele>1946.8099999999999</ele>
        <time>2018-03-25T12:23:32Z</time>
      </trkpt>
      <trkpt lat="46.443675700575113" lon="8.747148709371686">
        <ele>1944.4000000000001</ele>
        <time>2018-03-25T12:23:40Z</time>
      </trkpt>
      <trkpt lat="46.443666061386466" lon="8.747179303318262">
        <ele>1943.4400000000001</ele>
        <time>2018-03-25T12:23:42Z</time>
      </trkpt>
      <trkpt lat="46.443620966747403" lon="8.747343672439456">
        <ele>1940.0799999999999</ele>
        <time>2018-03-25T12:23:53Z</time>
      </trkpt>
      <trkpt lat="46.443611662834883" lon="8.747383486479521">
        <ele>1939.5999999999999</ele>
        <time>2018-03-25T12:23:56Z</time>
      </trkpt>
      <trkpt lat="46.443600179627538" lon="8.747474933043122">
        <ele>1938.1600000000001</ele>
        <time>2018-03-25T12:24:02Z</time>
      </trkpt>
      <trkpt lat="46.443567490205169" lon="8.747653216123581">
        <ele>1935.27</ele>
        <time>2018-03-25T12:24:14Z</time>
      </trkpt>
      <trkpt lat="46.443501356989145" lon="8.74782077036798">
        <ele>1932.3900000000001</ele>
        <time>2018-03-25T12:24:25Z</time>
      </trkpt>
      <trkpt lat="46.443464560434222" lon="8.747905259951949">
        <ele>1931.4300000000001</ele>
        <time>2018-03-25T12:24:31Z</time>
      </trkpt>
      <trkpt lat="46.443454585969448" lon="8.748067785054445">
        <ele>1930.46</ele>
        <time>2018-03-25T12:24:42Z</time>
      </trkpt>
      <trkpt lat="46.443466739729047" lon="8.748196447268128">
        <ele>1930.46</ele>
        <time>2018-03-25T12:24:50Z</time>
      </trkpt>
      <trkpt lat="46.443463386967778" lon="8.748223185539246">
        <ele>1930.95</ele>
        <time>2018-03-25T12:24:52Z</time>
      </trkpt>
      <trkpt lat="46.44344394095242" lon="8.748298455029726">
        <ele>1930.95</ele>
        <time>2018-03-25T12:25:03Z</time>
      </trkpt>
      <trkpt lat="46.443422315642238" lon="8.748381184414029">
        <ele>1930.46</ele>
        <time>2018-03-25T12:25:09Z</time>
      </trkpt>
      <trkpt lat="46.443401528522372" lon="8.748437846079469">
        <ele>1929.98</ele>
        <time>2018-03-25T12:25:13Z</time>
      </trkpt>
      <trkpt lat="46.443338328972459" lon="8.748544296249747">
        <ele>1926.6199999999999</ele>
        <time>2018-03-25T12:25:22Z</time>
      </trkpt>
      <trkpt lat="46.44331494346261" lon="8.748575812205672">
        <ele>1925.1800000000001</ele>
        <time>2018-03-25T12:25:25Z</time>
      </trkpt>
      <trkpt lat="46.443261047825217" lon="8.748683268204331">
        <ele>1921.8099999999999</ele>
        <time>2018-03-25T12:25:34Z</time>
      </trkpt>
      <trkpt lat="46.443228777498007" lon="8.748782593756914">
        <ele>1918.9300000000001</ele>
        <time>2018-03-25T12:25:41Z</time>
      </trkpt>
      <trkpt lat="46.443188544362783" lon="8.748889463022351">
        <ele>1916.04</ele>
        <time>2018-03-25T12:25:49Z</time>
      </trkpt>
      <trkpt lat="46.443149317055941" lon="8.74903698451817">
        <ele>1912.6800000000001</ele>
        <time>2018-03-25T12:25:59Z</time>
      </trkpt>
      <trkpt lat="46.443120315670967" lon="8.749069338664413">
        <ele>1911.72</ele>
        <time>2018-03-25T12:26:02Z</time>
      </trkpt>
      <trkpt lat="46.44306767731905" lon="8.74917084351182">
        <ele>1910.76</ele>
        <time>2018-03-25T12:26:11Z</time>
      </trkpt>
      <trkpt lat="46.443063402548432" lon="8.749252483248711">
        <ele>1909.8</ele>
        <time>2018-03-25T12:26:16Z</time>
      </trkpt>
      <trkpt lat="46.443043202161789" lon="8.749364297837019">
        <ele>1908.3499999999999</ele>
        <time>2018-03-25T12:26:23Z</time>
      </trkpt>
      <trkpt lat="46.443026438355446" lon="8.749518189579248">
        <ele>1906.9100000000001</ele>
        <time>2018-03-25T12:26:33Z</time>
      </trkpt>
      <trkpt lat="46.443014955148101" lon="8.749645343050361">
        <ele>1905.95</ele>
        <time>2018-03-25T12:26:42Z</time>
      </trkpt>
      <trkpt lat="46.443016799166799" lon="8.749780626967549">
        <ele>1905.47</ele>
        <time>2018-03-25T12:26:51Z</time>
      </trkpt>
      <trkpt lat="46.443020654842257" lon="8.749889256432653">
        <ele>1904.99</ele>
        <time>2018-03-25T12:27:00Z</time>
      </trkpt>
      <trkpt lat="46.443026438355446" lon="8.749978775158525">
        <ele>1904.99</ele>
        <time>2018-03-25T12:27:09Z</time>
      </trkpt>
      <trkpt lat="46.443009506911039" lon="8.750041136518121">
        <ele>1903.55</ele>
        <time>2018-03-25T12:27:21Z</time>
      </trkpt>
      <trkpt lat="46.443022415041924" lon="8.750127302482724">
        <ele>1902.1099999999999</ele>
        <time>2018-03-25T12:27:28Z</time>
      </trkpt>
      <trkpt lat="46.443032808601856" lon="8.750264514237642">
        <ele>1900.1800000000001</ele>
        <time>2018-03-25T12:27:37Z</time>
      </trkpt>
      <trkpt lat="46.443036077544093" lon="8.750350009649992">
        <ele>1898.26</ele>
        <time>2018-03-25T12:27:42Z</time>
      </trkpt>
      <trkpt lat="46.443054266273975" lon="8.750483449548483">
        <ele>1897.3</ele>
        <time>2018-03-25T12:27:52Z</time>
      </trkpt>
      <trkpt lat="46.443076226860285" lon="8.75061621889472">
        <ele>1895.3800000000001</ele>
        <time>2018-03-25T12:28:01Z</time>
      </trkpt>
      <trkpt lat="46.443074215203524" lon="8.750755190849304">
        <ele>1893.9300000000001</ele>
        <time>2018-03-25T12:28:11Z</time>
      </trkpt>
      <trkpt lat="46.443092990666628" lon="8.750848062336445">
        <ele>1892.49</ele>
        <time>2018-03-25T12:28:17Z</time>
      </trkpt>
      <trkpt lat="46.443090559914708" lon="8.750896509736776">
        <ele>1892.01</ele>
        <time>2018-03-25T12:28:21Z</time>
      </trkpt>
      <trkpt lat="46.443090559914708" lon="8.751015532761812">
        <ele>1890.5699999999999</ele>
        <time>2018-03-25T12:28:29Z</time>
      </trkpt>
      <trkpt lat="46.44309164956212" lon="8.751109158620238">
        <ele>1889.1300000000001</ele>
        <time>2018-03-25T12:28:35Z</time>
      </trkpt>
      <trkpt lat="46.443103635683656" lon="8.751192474737763">
        <ele>1888.1700000000001</ele>
        <time>2018-03-25T12:28:40Z</time>
      </trkpt>
      <trkpt lat="46.443137247115374" lon="8.7513477075845">
        <ele>1884.8</ele>
        <time>2018-03-25T12:28:50Z</time>
      </trkpt>
      <trkpt lat="46.443137498572469" lon="8.751416271552444">
        <ele>1882.8800000000001</ele>
        <time>2018-03-25T12:28:54Z</time>
      </trkpt>
      <trkpt lat="46.443127021193504" lon="8.751530600711703">
        <ele>1880.48</ele>
        <time>2018-03-25T12:29:03Z</time>
      </trkpt>
      <trkpt lat="46.443112688139081" lon="8.751642750576139">
        <ele>1878.55</ele>
        <time>2018-03-25T12:29:12Z</time>
      </trkpt>
      <trkpt lat="46.443112101405859" lon="8.751780465245247">
        <ele>1877.5899999999999</ele>
        <time>2018-03-25T12:29:22Z</time>
      </trkpt>
      <trkpt lat="46.443114196881652" lon="8.751883143559098">
        <ele>1875.6700000000001</ele>
        <time>2018-03-25T12:29:31Z</time>
      </trkpt>
      <trkpt lat="46.443104473873973" lon="8.751901919022203">
        <ele>1872.79</ele>
        <time>2018-03-25T12:29:39Z</time>
      </trkpt>
      <trkpt lat="46.44309894181788" lon="8.751907031983137">
        <ele>1872.79</ele>
        <time>2018-03-25T12:29:40Z</time>
      </trkpt>
      <trkpt lat="46.443086201325059" lon="8.751916335895658">
        <ele>1874.23</ele>
        <time>2018-03-25T12:29:45Z</time>
      </trkpt>
      <trkpt lat="46.443099360913038" lon="8.75192865729332">
        <ele>1874.71</ele>
        <time>2018-03-25T12:29:55Z</time>
      </trkpt>
      <trkpt lat="46.443104390054941" lon="8.751940811052918">
        <ele>1874.71</ele>
        <time>2018-03-25T12:30:03Z</time>
      </trkpt>
      <trkpt lat="46.443101288750768" lon="8.751938128843904">
        <ele>1874.71</ele>
        <time>2018-03-25T12:30:14Z</time>
      </trkpt>
      <trkpt lat="46.443098103627563" lon="8.751936201006174">
        <ele>1874.71</ele>
        <time>2018-03-25T12:30:29Z</time>
      </trkpt>
      <trkpt lat="46.443112688139081" lon="8.7519296631217">
        <ele>1875.1900000000001</ele>
        <time>2018-03-25T12:30:42Z</time>
      </trkpt>
      <trkpt lat="46.44309114664793" lon="8.751950953155756">
        <ele>1875.1900000000001</ele>
        <time>2018-03-25T12:31:00Z</time>
      </trkpt>
      <trkpt lat="46.443116208538413" lon="8.751929830759764">
        <ele>1875.1900000000001</ele>
        <time>2018-03-25T12:31:27Z</time>
      </trkpt>
      <trkpt lat="46.443129116669297" lon="8.751948438584805">
        <ele>1875.1900000000001</ele>
        <time>2018-03-25T12:31:45Z</time>
      </trkpt>
      <trkpt lat="46.443151663988829" lon="8.751939386129379">
        <ele>1875.6700000000001</ele>
        <time>2018-03-25T12:32:07Z</time>
      </trkpt>
      <trkpt lat="46.443149568513036" lon="8.751927400007844">
        <ele>1875.6700000000001</ele>
        <time>2018-03-25T12:32:27Z</time>
      </trkpt>
      <trkpt lat="46.443139091134071" lon="8.751925053074956">
        <ele>1875.6700000000001</ele>
        <time>2018-03-25T12:32:38Z</time>
      </trkpt>
      <trkpt lat="46.443136828020215" lon="8.751916419714689">
        <ele>1876.1500000000001</ele>
        <time>2018-03-25T12:32:55Z</time>
      </trkpt>
      <trkpt lat="46.443133475258946" lon="8.751924298703671">
        <ele>1874.23</ele>
        <time>2018-03-25T12:32:58Z</time>
      </trkpt>
      <trkpt lat="46.44313020631671" lon="8.75193159095943">
        <ele>1876.1500000000001</ele>
        <time>2018-03-25T12:33:01Z</time>
      </trkpt>
      <trkpt lat="46.443125093355775" lon="8.751935446634889">
        <ele>1875.6700000000001</ele>
        <time>2018-03-25T12:33:06Z</time>
      </trkpt>
      <trkpt lat="46.443121656775475" lon="8.751930668950081">
        <ele>1875.1900000000001</ele>
        <time>2018-03-25T12:33:22Z</time>
      </trkpt>
      <trkpt lat="46.443105060607195" lon="8.751945253461599">
        <ele>1876.1500000000001</ele>
        <time>2018-03-25T12:33:36Z</time>
      </trkpt>
      <trkpt lat="46.443129535764456" lon="8.751964699476957">
        <ele>1876.1500000000001</ele>
        <time>2018-03-25T12:33:49Z</time>
      </trkpt>
      <trkpt lat="46.443133810535073" lon="8.751967046409845">
        <ele>1876.1500000000001</ele>
        <time>2018-03-25T12:34:06Z</time>
      </trkpt>
      <trkpt lat="46.443145126104355" lon="8.751974171027541">
        <ele>1876.1500000000001</ele>
        <time>2018-03-25T12:34:19Z</time>
      </trkpt>
      <trkpt lat="46.443146718665957" lon="8.751957155764103">
        <ele>1876.1500000000001</ele>
        <time>2018-03-25T12:34:37Z</time>
      </trkpt>
      <trkpt lat="46.443141605705023" lon="8.751970566809177">
        <ele>1876.6300000000001</ele>
        <time>2018-03-25T12:34:50Z</time>
      </trkpt>
      <trkpt lat="46.44311461597681" lon="8.751976601779461">
        <ele>1876.1500000000001</ele>
        <time>2018-03-25T12:35:02Z</time>
      </trkpt>
      <trkpt lat="46.443104892969131" lon="8.751976601779461">
        <ele>1876.6300000000001</ele>
        <time>2018-03-25T12:35:20Z</time>
      </trkpt>
      <trkpt lat="46.443108078092337" lon="8.751989929005504">
        <ele>1876.6300000000001</ele>
        <time>2018-03-25T12:35:37Z</time>
      </trkpt>
      <trkpt lat="46.443087123334408" lon="8.751986157149077">
        <ele>1876.6300000000001</ele>
        <time>2018-03-25T12:35:53Z</time>
      </trkpt>
      <trkpt lat="46.443138085305691" lon="8.751948270946741">
        <ele>1877.1099999999999</ele>
        <time>2018-03-25T12:36:15Z</time>
      </trkpt>
      <trkpt lat="46.443152166903019" lon="8.751935949549079">
        <ele>1877.1099999999999</ele>
        <time>2018-03-25T12:36:32Z</time>
      </trkpt>
      <trkpt lat="46.44315904006362" lon="8.751921784132719">
        <ele>1877.1099999999999</ele>
        <time>2018-03-25T12:36:56Z</time>
      </trkpt>
      <trkpt lat="46.44312484189868" lon="8.751961598172784">
        <ele>1877.5899999999999</ele>
        <time>2018-03-25T12:37:15Z</time>
      </trkpt>
      <trkpt lat="46.44311704672873" lon="8.752014068886638">
        <ele>1876.6300000000001</ele>
        <time>2018-03-25T12:37:25Z</time>
      </trkpt>
      <trkpt lat="46.4430823456496" lon="8.752070059999824">
        <ele>1874.23</ele>
        <time>2018-03-25T12:37:33Z</time>
      </trkpt>
      <trkpt lat="46.443081004545093" lon="8.752155639231205">
        <ele>1871.3399999999999</ele>
        <time>2018-03-25T12:37:44Z</time>
      </trkpt>
      <trkpt lat="46.443076897412539" lon="8.752240967005491">
        <ele>1868.9400000000001</ele>
        <time>2018-03-25T12:37:54Z</time>
      </trkpt>
      <trkpt lat="46.4430564455688" lon="8.752321852371097">
        <ele>1866.54</ele>
        <time>2018-03-25T12:38:03Z</time>
      </trkpt>
      <trkpt lat="46.443038256838918" lon="8.752425871789455">
        <ele>1863.6500000000001</ele>
        <time>2018-03-25T12:38:14Z</time>
      </trkpt>
      <trkpt lat="46.443040771409869" lon="8.752493346109986">
        <ele>1861.73</ele>
        <time>2018-03-25T12:38:22Z</time>
      </trkpt>
      <trkpt lat="46.443043705075979" lon="8.752582697197795">
        <ele>1859.3299999999999</ele>
        <time>2018-03-25T12:38:32Z</time>
      </trkpt>
      <trkpt lat="46.443069018423557" lon="8.752691494300962">
        <ele>1857.4000000000001</ele>
        <time>2018-03-25T12:38:43Z</time>
      </trkpt>
      <trkpt lat="46.443098522722721" lon="8.752758884802461">
        <ele>1855.96</ele>
        <time>2018-03-25T12:38:52Z</time>
      </trkpt>
      <trkpt lat="46.443132050335407" lon="8.752874806523323">
        <ele>1853.5599999999999</ele>
        <time>2018-03-25T12:39:04Z</time>
      </trkpt>
      <trkpt lat="46.443149233236909" lon="8.753027692437172">
        <ele>1850.6800000000001</ele>
        <time>2018-03-25T12:39:16Z</time>
      </trkpt>
      <trkpt lat="46.443192902952433" lon="8.75311897136271">
        <ele>1850.6800000000001</ele>
        <time>2018-03-25T12:39:28Z</time>
      </trkpt>
      <trkpt lat="46.443232214078307" lon="8.753194659948349">
        <ele>1850.1900000000001</ele>
        <time>2018-03-25T12:39:37Z</time>
      </trkpt>
      <trkpt lat="46.443266412243247" lon="8.75330169685185">
        <ele>1848.75</ele>
        <time>2018-03-25T12:39:47Z</time>
      </trkpt>
      <trkpt lat="46.443298263475299" lon="8.753347881138325">
        <ele>1847.3099999999999</ele>
        <time>2018-03-25T12:39:52Z</time>
      </trkpt>
      <trkpt lat="46.443338748067617" lon="8.753464808687568">
        <ele>1845.8699999999999</ele>
        <time>2018-03-25T12:40:02Z</time>
      </trkpt>
      <trkpt lat="46.443361630663276" lon="8.753500347957015">
        <ele>1844.4300000000001</ele>
        <time>2018-03-25T12:40:11Z</time>
      </trkpt>
      <trkpt lat="46.443370012566447" lon="8.753508226945996">
        <ele>1842.02</ele>
        <time>2018-03-25T12:40:20Z</time>
      </trkpt>
      <trkpt lat="46.443405216559768" lon="8.753555165603757">
        <ele>1840.0999999999999</ele>
        <time>2018-03-25T12:40:28Z</time>
      </trkpt>
      <trkpt lat="46.443450730293989" lon="8.753589112311602">
        <ele>1837.7</ele>
        <time>2018-03-25T12:40:36Z</time>
      </trkpt>
      <trkpt lat="46.443494567647576" lon="8.753596991300583">
        <ele>1835.29</ele>
        <time>2018-03-25T12:40:46Z</time>
      </trkpt>
      <trkpt lat="46.443493729457259" lon="8.753660274669528">
        <ele>1833.3699999999999</ele>
        <time>2018-03-25T12:40:55Z</time>
      </trkpt>
      <trkpt lat="46.443490963429213" lon="8.753662034869194">
        <ele>1832.8900000000001</ele>
        <time>2018-03-25T12:41:04Z</time>
      </trkpt>
      <trkpt lat="46.443474283441901" lon="8.753727246075869">
        <ele>1831.9300000000001</ele>
        <time>2018-03-25T12:41:15Z</time>
      </trkpt>
      <trkpt lat="46.443476462736726" lon="8.753762366250157">
        <ele>1830.49</ele>
        <time>2018-03-25T12:41:25Z</time>
      </trkpt>
      <trkpt lat="46.443473780527711" lon="8.753775944933295">
        <ele>1830.01</ele>
        <time>2018-03-25T12:41:27Z</time>
      </trkpt>
      <trkpt lat="46.443404210731387" lon="8.753812154754996">
        <ele>1828.0799999999999</ele>
        <time>2018-03-25T12:41:37Z</time>
      </trkpt>
      <trkpt lat="46.443401612341404" lon="8.753894129768014">
        <ele>1825.2</ele>
        <time>2018-03-25T12:41:48Z</time>
      </trkpt>
      <trkpt lat="46.443449556827545" lon="8.753937212750316">
        <ele>1822.3199999999999</ele>
        <time>2018-03-25T12:41:56Z</time>
      </trkpt>
      <trkpt lat="46.443517031148076" lon="8.753911899402738">
        <ele>1821.3499999999999</ele>
        <time>2018-03-25T12:42:07Z</time>
      </trkpt>
      <trkpt lat="46.443586684763432" lon="8.753918940201402">
        <ele>1819.4300000000001</ele>
        <time>2018-03-25T12:42:18Z</time>
      </trkpt>
      <trkpt lat="46.443633791059256" lon="8.753912402316928">
        <ele>1818.47</ele>
        <time>2018-03-25T12:42:24Z</time>
      </trkpt>
      <trkpt lat="46.443752981722355" lon="8.753900332376361">
        <ele>1816.0699999999999</ele>
        <time>2018-03-25T12:42:38Z</time>
      </trkpt>
      <trkpt lat="46.443827832117677" lon="8.753875689581037">
        <ele>1814.6300000000001</ele>
        <time>2018-03-25T12:42:48Z</time>
      </trkpt>
      <trkpt lat="46.443836549296975" lon="8.753865798935294">
        <ele>1814.6300000000001</ele>
        <time>2018-03-25T12:42:50Z</time>
      </trkpt>
      <trkpt lat="46.443904861807823" lon="8.753802850842476">
        <ele>1812.22</ele>
        <time>2018-03-25T12:43:00Z</time>
      </trkpt>
      <trkpt lat="46.443967390805483" lon="8.753764042630792">
        <ele>1810.3</ele>
        <time>2018-03-25T12:43:10Z</time>
      </trkpt>
      <trkpt lat="46.444033775478601" lon="8.753749039024115">
        <ele>1808.8599999999999</ele>
        <time>2018-03-25T12:43:17Z</time>
      </trkpt>
      <trkpt lat="46.444077780470252" lon="8.753762952983379">
        <ele>1807.4200000000001</ele>
        <time>2018-03-25T12:43:21Z</time>
      </trkpt>
      <trkpt lat="46.444142404943705" lon="8.753771837800741">
        <ele>1805.97</ele>
        <time>2018-03-25T12:43:27Z</time>
      </trkpt>
      <trkpt lat="46.444162018597126" lon="8.753796061500907">
        <ele>1805.01</ele>
        <time>2018-03-25T12:43:29Z</time>
      </trkpt>
      <trkpt lat="46.444182889536023" lon="8.753842078149319">
        <ele>1804.05</ele>
        <time>2018-03-25T12:43:33Z</time>
      </trkpt>
      <trkpt lat="46.444215746596456" lon="8.753871917724609">
        <ele>1803.5699999999999</ele>
        <time>2018-03-25T12:43:37Z</time>
      </trkpt>
      <trkpt lat="46.444248603656888" lon="8.753925058990717">
        <ele>1802.6099999999999</ele>
        <time>2018-03-25T12:43:47Z</time>
      </trkpt>
      <trkpt lat="46.444253716617823" lon="8.753925561904907">
        <ele>1802.6099999999999</ele>
        <time>2018-03-25T12:44:01Z</time>
      </trkpt>
      <trkpt lat="46.444240054115653" lon="8.753927322104573">
        <ele>1803.0899999999999</ele>
        <time>2018-03-25T12:44:04Z</time>
      </trkpt>
      <trkpt lat="46.444252207875252" lon="8.753964621573687">
        <ele>1802.1300000000001</ele>
        <time>2018-03-25T12:44:08Z</time>
      </trkpt>
      <trkpt lat="46.444297386333346" lon="8.754089511930943">
        <ele>1802.1300000000001</ele>
        <time>2018-03-25T12:44:18Z</time>
      </trkpt>
      <trkpt lat="46.444313982501626" lon="8.75411968678236">
        <ele>1801.6500000000001</ele>
        <time>2018-03-25T12:44:21Z</time>
      </trkpt>
      <trkpt lat="46.444378271698952" lon="8.754211971536279">
        <ele>1799.73</ele>
        <time>2018-03-25T12:44:30Z</time>
      </trkpt>
      <trkpt lat="46.44443585537374" lon="8.754319930449128">
        <ele>1797.8</ele>
        <time>2018-03-25T12:44:39Z</time>
      </trkpt>
      <trkpt lat="46.444513639435172" lon="8.754409030079842">
        <ele>1796.8399999999999</ele>
        <time>2018-03-25T12:44:51Z</time>
      </trkpt>
      <trkpt lat="46.444591926410794" lon="8.754450436681509">
        <ele>1794.9200000000001</ele>
        <time>2018-03-25T12:45:03Z</time>
      </trkpt>
      <trkpt lat="46.444634171202779" lon="8.754498464986682">
        <ele>1793</ele>
        <time>2018-03-25T12:45:13Z</time>
      </trkpt>
      <trkpt lat="46.444649258628488" lon="8.754440043121576">
        <ele>1790.5899999999999</ele>
        <time>2018-03-25T12:45:22Z</time>
      </trkpt>
      <trkpt lat="46.444715894758701" lon="8.754391428083181">
        <ele>1788.1900000000001</ele>
        <time>2018-03-25T12:45:33Z</time>
      </trkpt>
      <trkpt lat="46.444765515625477" lon="8.754361923784018">
        <ele>1786.75</ele>
        <time>2018-03-25T12:45:42Z</time>
      </trkpt>
      <trkpt lat="46.444785799831152" lon="8.754348596557975">
        <ele>1785.79</ele>
        <time>2018-03-25T12:45:50Z</time>
      </trkpt>
      <trkpt lat="46.444848664104939" lon="8.754338705912232">
        <ele>1783.8599999999999</ele>
        <time>2018-03-25T12:46:03Z</time>
      </trkpt>
      <trkpt lat="46.444884706288576" lon="8.754318589344621">
        <ele>1784.3399999999999</ele>
        <time>2018-03-25T12:46:20Z</time>
      </trkpt>
      <trkpt lat="46.444889232516289" lon="8.75432931818068">
        <ele>1782.4200000000001</ele>
        <time>2018-03-25T12:46:32Z</time>
      </trkpt>
      <trkpt lat="46.444901470094919" lon="8.754316829144955">
        <ele>1780.5</ele>
        <time>2018-03-25T12:46:38Z</time>
      </trkpt>
      <trkpt lat="46.444897949695587" lon="8.754262179136276">
        <ele>1779.0599999999999</ele>
        <time>2018-03-25T12:46:45Z</time>
      </trkpt>
      <trkpt lat="46.444929717108607" lon="8.754188502207398">
        <ele>1777.1300000000001</ele>
        <time>2018-03-25T12:46:54Z</time>
      </trkpt>
      <trkpt lat="46.444960730150342" lon="8.754154052585363">
        <ele>1776.6500000000001</ele>
        <time>2018-03-25T12:47:02Z</time>
      </trkpt>
      <trkpt lat="46.444999454542994" lon="8.754107365384698">
        <ele>1775.6900000000001</ele>
        <time>2018-03-25T12:47:16Z</time>
      </trkpt>
      <trkpt lat="46.445016134530306" lon="8.754093199968338">
        <ele>1777.1300000000001</ele>
        <time>2018-03-25T12:47:28Z</time>
      </trkpt>
      <trkpt lat="46.445042621344328" lon="8.754089176654816">
        <ele>1774.25</ele>
        <time>2018-03-25T12:47:39Z</time>
      </trkpt>
      <trkpt lat="46.445045890286565" lon="8.75407425686717">
        <ele>1774.73</ele>
        <time>2018-03-25T12:47:53Z</time>
      </trkpt>
      <trkpt lat="46.445035832002759" lon="8.754110718145967">
        <ele>1774.73</ele>
        <time>2018-03-25T12:48:09Z</time>
      </trkpt>
      <trkpt lat="46.445053350180387" lon="8.754075597971678">
        <ele>1774.25</ele>
        <time>2018-03-25T12:48:20Z</time>
      </trkpt>
      <trkpt lat="46.445106156170368" lon="8.754055816680193">
        <ele>1773.29</ele>
        <time>2018-03-25T12:48:29Z</time>
      </trkpt>
      <trkpt lat="46.445144629105926" lon="8.754086242988706">
        <ele>1771.8499999999999</ele>
        <time>2018-03-25T12:48:43Z</time>
      </trkpt>
      <trkpt lat="46.445139935240149" lon="8.754121949896216">
        <ele>1770.4100000000001</ele>
        <time>2018-03-25T12:48:51Z</time>
      </trkpt>
      <trkpt lat="46.445131553336978" lon="8.754209037870169">
        <ele>1768.96</ele>
        <time>2018-03-25T12:49:01Z</time>
      </trkpt>
      <trkpt lat="46.445122081786394" lon="8.754219934344292">
        <ele>1768.48</ele>
        <time>2018-03-25T12:49:09Z</time>
      </trkpt>
      <trkpt lat="46.445154435932636" lon="8.754215156659484">
        <ele>1765.1199999999999</ele>
        <time>2018-03-25T12:49:17Z</time>
      </trkpt>
      <trkpt lat="46.445158207789063" lon="8.75420325435698">
        <ele>1764.6400000000001</ele>
        <time>2018-03-25T12:49:28Z</time>
      </trkpt>
      <trkpt lat="46.44516340456903" lon="8.754176516085863">
        <ele>1763.6800000000001</ele>
        <time>2018-03-25T12:49:32Z</time>
      </trkpt>
      <trkpt lat="46.445195088163018" lon="8.754127733409405">
        <ele>1760.79</ele>
        <time>2018-03-25T12:49:42Z</time>
      </trkpt>
      <trkpt lat="46.445243787020445" lon="8.754091775044799">
        <ele>1760.3099999999999</ele>
        <time>2018-03-25T12:49:53Z</time>
      </trkpt>
      <trkpt lat="46.445302292704582" lon="8.754094457253814">
        <ele>1759.8299999999999</ele>
        <time>2018-03-25T12:50:07Z</time>
      </trkpt>
      <trkpt lat="46.445337496697903" lon="8.754166793078184">
        <ele>1756.47</ele>
        <time>2018-03-25T12:50:18Z</time>
      </trkpt>
      <trkpt lat="46.445313105359674" lon="8.754167798906565">
        <ele>1756.47</ele>
        <time>2018-03-25T12:50:29Z</time>
      </trkpt>
      <trkpt lat="46.4453100040555" lon="8.754150364547968">
        <ele>1755.5</ele>
        <time>2018-03-25T12:50:41Z</time>
      </trkpt>
      <trkpt lat="46.445337915793061" lon="8.754097307100892">
        <ele>1755.02</ele>
        <time>2018-03-25T12:50:51Z</time>
      </trkpt>
      <trkpt lat="46.445387033745646" lon="8.754090098664165">
        <ele>1754.54</ele>
        <time>2018-03-25T12:51:02Z</time>
      </trkpt>
      <trkpt lat="46.445408994331956" lon="8.754069311544299">
        <ele>1754.54</ele>
        <time>2018-03-25T12:51:14Z</time>
      </trkpt>
      <trkpt lat="46.445452580228448" lon="8.754046848043799">
        <ele>1754.54</ele>
        <time>2018-03-25T12:51:27Z</time>
      </trkpt>
      <trkpt lat="46.445464985445142" lon="8.75404785387218">
        <ele>1754.0599999999999</ele>
        <time>2018-03-25T12:51:29Z</time>
      </trkpt>
      <trkpt lat="46.445488538593054" lon="8.754026060923934">
        <ele>1752.1400000000001</ele>
        <time>2018-03-25T12:51:40Z</time>
      </trkpt>
      <trkpt lat="46.445482922717929" lon="8.753990018740296">
        <ele>1750.22</ele>
        <time>2018-03-25T12:51:50Z</time>
      </trkpt>
      <trkpt lat="46.445543523877859" lon="8.75396428629756">
        <ele>1747.8099999999999</ele>
        <time>2018-03-25T12:52:00Z</time>
      </trkpt>
      <trkpt lat="46.445582751184702" lon="8.753919694572687">
        <ele>1745.4100000000001</ele>
        <time>2018-03-25T12:52:08Z</time>
      </trkpt>
      <trkpt lat="46.445614937692881" lon="8.753868816420436">
        <ele>1743.49</ele>
        <time>2018-03-25T12:52:17Z</time>
      </trkpt>
      <trkpt lat="46.445620134472847" lon="8.753801258280873">
        <ele>1741.0799999999999</ele>
        <time>2018-03-25T12:52:26Z</time>
      </trkpt>
      <trkpt lat="46.445667492225766" lon="8.753732275217772">
        <ele>1739.1600000000001</ele>
        <time>2018-03-25T12:52:36Z</time>
      </trkpt>
      <trkpt lat="46.44573412835598" lon="8.75367796048522">
        <ele>1737.24</ele>
        <time>2018-03-25T12:52:46Z</time>
      </trkpt>
      <trkpt lat="46.445775283500552" lon="8.753610067069531">
        <ele>1734.3599999999999</ele>
        <time>2018-03-25T12:52:55Z</time>
      </trkpt>
      <trkpt lat="46.44579665735364" lon="8.753577880561352">
        <ele>1733.3900000000001</ele>
        <time>2018-03-25T12:53:08Z</time>
      </trkpt>
      <trkpt lat="46.445849882438779" lon="8.753539826720953">
        <ele>1732.9100000000001</ele>
        <time>2018-03-25T12:53:22Z</time>
      </trkpt>
      <trkpt lat="46.445899335667491" lon="8.753507221117616">
        <ele>1730.99</ele>
        <time>2018-03-25T12:53:32Z</time>
      </trkpt>
      <trkpt lat="46.445931773632765" lon="8.753486853092909">
        <ele>1728.5899999999999</ele>
        <time>2018-03-25T12:53:42Z</time>
      </trkpt>
      <trkpt lat="46.445999080315232" lon="8.753447458148003">
        <ele>1726.1800000000001</ele>
        <time>2018-03-25T12:53:50Z</time>
      </trkpt>
      <trkpt lat="46.446014754474163" lon="8.753394400700927">
        <ele>1723.3</ele>
        <time>2018-03-25T12:53:59Z</time>
      </trkpt>
      <trkpt lat="46.446003103628755" lon="8.753343187272549">
        <ele>1720.4200000000001</ele>
        <time>2018-03-25T12:54:07Z</time>
      </trkpt>
      <trkpt lat="46.446008048951626" lon="8.753307983279228">
        <ele>1718.49</ele>
        <time>2018-03-25T12:54:16Z</time>
      </trkpt>
      <trkpt lat="46.446020286530256" lon="8.753314018249512">
        <ele>1718.01</ele>
        <time>2018-03-25T12:54:17Z</time>
      </trkpt>
      <trkpt lat="46.446118606254458" lon="8.753282334655523">
        <ele>1714.6500000000001</ele>
        <time>2018-03-25T12:54:26Z</time>
      </trkpt>
      <trkpt lat="46.446284484118223" lon="8.753280993551016">
        <ele>1712.25</ele>
        <time>2018-03-25T12:54:36Z</time>
      </trkpt>
      <trkpt lat="46.446343576535583" lon="8.753273282200098">
        <ele>1709.8399999999999</ele>
        <time>2018-03-25T12:54:44Z</time>
      </trkpt>
      <trkpt lat="46.446368806064129" lon="8.753186361864209">
        <ele>1707.4400000000001</ele>
        <time>2018-03-25T12:54:52Z</time>
      </trkpt>
      <trkpt lat="46.446369979530573" lon="8.753154342994094">
        <ele>1706.48</ele>
        <time>2018-03-25T12:54:56Z</time>
      </trkpt>
      <trkpt lat="46.446460168808699" lon="8.753076558932662">
        <ele>1704.0699999999999</ele>
        <time>2018-03-25T12:55:08Z</time>
      </trkpt>
      <trkpt lat="46.446526469662786" lon="8.753131628036499">
        <ele>1702.1500000000001</ele>
        <time>2018-03-25T12:55:19Z</time>
      </trkpt>
      <trkpt lat="46.446534851565957" lon="8.753104135394096">
        <ele>1700.23</ele>
        <time>2018-03-25T12:55:27Z</time>
      </trkpt>
      <trkpt lat="46.44652470946312" lon="8.753052921965718">
        <ele>1698.3099999999999</ele>
        <time>2018-03-25T12:55:35Z</time>
      </trkpt>
      <trkpt lat="46.446515237912536" lon="8.752969605848193">
        <ele>1697.8299999999999</ele>
        <time>2018-03-25T12:55:43Z</time>
      </trkpt>
      <trkpt lat="46.446517165750265" lon="8.752915626391769">
        <ele>1697.3399999999999</ele>
        <time>2018-03-25T12:55:47Z</time>
      </trkpt>
      <trkpt lat="46.446518842130899" lon="8.75284924171865">
        <ele>1696.8599999999999</ele>
        <time>2018-03-25T12:55:52Z</time>
      </trkpt>
      <trkpt lat="46.446563014760613" lon="8.752709766849876">
        <ele>1694.9400000000001</ele>
        <time>2018-03-25T12:56:03Z</time>
      </trkpt>
      <trkpt lat="46.446519931778312" lon="8.752688141539693">
        <ele>1693.98</ele>
        <time>2018-03-25T12:56:10Z</time>
      </trkpt>
      <trkpt lat="46.446504006162286" lon="8.752674479037523">
        <ele>1690.1400000000001</ele>
        <time>2018-03-25T12:56:19Z</time>
      </trkpt>
      <trkpt lat="46.446515070274472" lon="8.752612369135022">
        <ele>1688.21</ele>
        <time>2018-03-25T12:56:27Z</time>
      </trkpt>
      <trkpt lat="46.446575587615371" lon="8.752547828480601">
        <ele>1685.8099999999999</ele>
        <time>2018-03-25T12:56:37Z</time>
      </trkpt>
      <trkpt lat="46.446595285087824" lon="8.752474570646882">
        <ele>1684.8499999999999</ele>
        <time>2018-03-25T12:56:45Z</time>
      </trkpt>
      <trkpt lat="46.446661418303847" lon="8.752377005293965">
        <ele>1683.4100000000001</ele>
        <time>2018-03-25T12:56:58Z</time>
      </trkpt>
      <trkpt lat="46.446817154064775" lon="8.752245996147394">
        <ele>1681.96</ele>
        <time>2018-03-25T12:57:11Z</time>
      </trkpt>
      <trkpt lat="46.446893932297826" lon="8.752202745527029">
        <ele>1680.04</ele>
        <time>2018-03-25T12:57:19Z</time>
      </trkpt>
      <trkpt lat="46.446906756609678" lon="8.752206601202488">
        <ele>1678.1199999999999</ele>
        <time>2018-03-25T12:57:30Z</time>
      </trkpt>
      <trkpt lat="46.446865098550916" lon="8.75230148434639">
        <ele>1676.6800000000001</ele>
        <time>2018-03-25T12:57:38Z</time>
      </trkpt>
      <trkpt lat="46.446894770488143" lon="8.75225069001317">
        <ele>1674.75</ele>
        <time>2018-03-25T12:57:48Z</time>
      </trkpt>
      <trkpt lat="46.446864847093821" lon="8.752314141020179">
        <ele>1674.75</ele>
        <time>2018-03-25T12:58:00Z</time>
      </trkpt>
      <trkpt lat="46.446894938126206" lon="8.752307016402483">
        <ele>1674.75</ele>
        <time>2018-03-25T12:58:08Z</time>
      </trkpt>
      <trkpt lat="46.446900637820363" lon="8.752304501831532">
        <ele>1674.75</ele>
        <time>2018-03-25T12:58:23Z</time>
      </trkpt>
      <trkpt lat="46.446874737739563" lon="8.752276673913002">
        <ele>1673.79</ele>
        <time>2018-03-25T12:58:33Z</time>
      </trkpt>
      <trkpt lat="46.446878761053085" lon="8.75228245742619">
        <ele>1674.27</ele>
        <time>2018-03-25T12:58:52Z</time>
      </trkpt>
      <trkpt lat="46.446906756609678" lon="8.752260832116008">
        <ele>1674.27</ele>
        <time>2018-03-25T12:59:07Z</time>
      </trkpt>
      <trkpt lat="46.446866942569613" lon="8.752292348071933">
        <ele>1674.75</ele>
        <time>2018-03-25T12:59:15Z</time>
      </trkpt>
      <trkpt lat="46.446855878457427" lon="8.752332162111998">
        <ele>1674.75</ele>
        <time>2018-03-25T12:59:30Z</time>
      </trkpt>
      <trkpt lat="46.446913043037057" lon="8.752317577600479">
        <ele>1675.72</ele>
        <time>2018-03-25T12:59:43Z</time>
      </trkpt>
      <trkpt lat="46.446908432990313" lon="8.752294946461916">
        <ele>1674.75</ele>
        <time>2018-03-25T12:59:55Z</time>
      </trkpt>
      <trkpt lat="46.446917066350579" lon="8.75229561701417">
        <ele>1674.75</ele>
        <time>2018-03-25T13:00:09Z</time>
      </trkpt>
      <trkpt lat="46.446914467960596" lon="8.752297963947058">
        <ele>1675.23</ele>
        <time>2018-03-25T13:00:21Z</time>
      </trkpt>
      <trkpt lat="46.446922598406672" lon="8.752308608964086">
        <ele>1675.23</ele>
        <time>2018-03-25T13:00:29Z</time>
      </trkpt>
      <trkpt lat="46.446927459910512" lon="8.752295030280948">
        <ele>1675.23</ele>
        <time>2018-03-25T13:00:39Z</time>
      </trkpt>
      <trkpt lat="46.446941290050745" lon="8.752298299223185">
        <ele>1675.23</ele>
        <time>2018-03-25T13:00:51Z</time>
      </trkpt>
      <trkpt lat="46.446942295879126" lon="8.752288743853569">
        <ele>1675.23</ele>
        <time>2018-03-25T13:01:02Z</time>
      </trkpt>
      <trkpt lat="46.446958305314183" lon="8.75226728618145">
        <ele>1675.23</ele>
        <time>2018-03-25T13:01:18Z</time>
      </trkpt>
      <trkpt lat="46.447002897039056" lon="8.752323193475604">
        <ele>1672.8299999999999</ele>
        <time>2018-03-25T13:01:26Z</time>
      </trkpt>
      <trkpt lat="46.447079926729202" lon="8.752373233437538">
        <ele>1671.3900000000001</ele>
        <time>2018-03-25T13:01:35Z</time>
      </trkpt>
      <trkpt lat="46.447145221754909" lon="8.752416484057903">
        <ele>1670.9100000000001</ele>
        <time>2018-03-25T13:01:43Z</time>
      </trkpt>
      <trkpt lat="46.447223173454404" lon="8.752478258684278">
        <ele>1670.9100000000001</ele>
        <time>2018-03-25T13:01:53Z</time>
      </trkpt>
      <trkpt lat="46.447257623076439" lon="8.752508517354727">
        <ele>1670.4300000000001</ele>
        <time>2018-03-25T13:01:59Z</time>
      </trkpt>
      <trkpt lat="46.447312608361244" lon="8.752523604780436">
        <ele>1669.95</ele>
        <time>2018-03-25T13:02:05Z</time>
      </trkpt>
      <trkpt lat="46.447369940578938" lon="8.752578254789114">
        <ele>1669.95</ele>
        <time>2018-03-25T13:02:13Z</time>
      </trkpt>
      <trkpt lat="46.447396762669086" lon="8.752596946433187">
        <ele>1669.47</ele>
        <time>2018-03-25T13:02:17Z</time>
      </trkpt>
      <trkpt lat="46.447464069351554" lon="8.752657882869244">
        <ele>1669.47</ele>
        <time>2018-03-25T13:02:25Z</time>
      </trkpt>
      <trkpt lat="46.447535902261734" lon="8.752698451280594">
        <ele>1668.99</ele>
        <time>2018-03-25T13:02:33Z</time>
      </trkpt>
      <trkpt lat="46.447573872283101" lon="8.752716137096286">
        <ele>1668.99</ele>
        <time>2018-03-25T13:02:39Z</time>
      </trkpt>
      <trkpt lat="46.447621649131179" lon="8.752732900902629">
        <ele>1668.99</ele>
        <time>2018-03-25T13:02:44Z</time>
      </trkpt>
      <trkpt lat="46.447689710184932" lon="8.752752598375082">
        <ele>1668.99</ele>
        <time>2018-03-25T13:02:53Z</time>
      </trkpt>
      <trkpt lat="46.447725920006633" lon="8.752806661650538">
        <ele>1668.99</ele>
        <time>2018-03-25T13:03:01Z</time>
      </trkpt>
      <trkpt lat="46.447772104293108" lon="8.752922499552369">
        <ele>1668.99</ele>
        <time>2018-03-25T13:03:13Z</time>
      </trkpt>
      <trkpt lat="46.4478156901896" lon="8.753077732399106">
        <ele>1668.02</ele>
        <time>2018-03-25T13:03:25Z</time>
      </trkpt>
      <trkpt lat="46.447852989658713" lon="8.753175297752023">
        <ele>1667.54</ele>
        <time>2018-03-25T13:03:33Z</time>
      </trkpt>
      <trkpt lat="46.447853911668062" lon="8.753193067386746">
        <ele>1667.54</ele>
        <time>2018-03-25T13:03:35Z</time>
      </trkpt>
      <trkpt lat="46.447877967730165" lon="8.753321142867208">
        <ele>1667.0599999999999</ele>
        <time>2018-03-25T13:03:45Z</time>
      </trkpt>
      <trkpt lat="46.44769792445004" lon="8.753549549728632">
        <ele>1667.54</ele>
        <time>2018-03-25T13:03:58Z</time>
      </trkpt>
      <trkpt lat="46.447675125673413" lon="8.75359196215868">
        <ele>1667.54</ele>
        <time>2018-03-25T13:04:02Z</time>
      </trkpt>
      <trkpt lat="46.447641681879759" lon="8.753731939941645">
        <ele>1667.0599999999999</ele>
        <time>2018-03-25T13:04:13Z</time>
      </trkpt>
      <trkpt lat="46.447660457342863" lon="8.753762952983379">
        <ele>1666.5799999999999</ele>
        <time>2018-03-25T13:04:23Z</time>
      </trkpt>
      <trkpt lat="46.447656266391277" lon="8.753846604377031">
        <ele>1666.5799999999999</ele>
        <time>2018-03-25T13:04:34Z</time>
      </trkpt>
      <trkpt lat="46.447635227814317" lon="8.753982810303569">
        <ele>1665.6199999999999</ele>
        <time>2018-03-25T13:04:45Z</time>
      </trkpt>
      <trkpt lat="46.447639586403966" lon="8.754011811688542">
        <ele>1665.6199999999999</ele>
        <time>2018-03-25T13:04:47Z</time>
      </trkpt>
      <trkpt lat="46.447712844237685" lon="8.754044836387038">
        <ele>1664.6600000000001</ele>
        <time>2018-03-25T13:04:51Z</time>
      </trkpt>
      <trkpt lat="46.447770595550537" lon="8.754082387313247">
        <ele>1664.6600000000001</ele>
        <time>2018-03-25T13:04:56Z</time>
      </trkpt>
      <trkpt lat="46.447795405983925" lon="8.754133181646466">
        <ele>1663.22</ele>
        <time>2018-03-25T13:05:01Z</time>
      </trkpt>
      <trkpt lat="46.447806553915143" lon="8.75419445335865">
        <ele>1663.22</ele>
        <time>2018-03-25T13:05:05Z</time>
      </trkpt>
      <trkpt lat="46.44782398827374" lon="8.754219682887197">
        <ele>1662.74</ele>
        <time>2018-03-25T13:05:08Z</time>
      </trkpt>
      <trkpt lat="46.447824910283089" lon="8.754261843860149">
        <ele>1663.22</ele>
        <time>2018-03-25T13:05:12Z</time>
      </trkpt>
      <trkpt lat="46.447885930538177" lon="8.754402827471495">
        <ele>1662.26</ele>
        <time>2018-03-25T13:05:24Z</time>
      </trkpt>
      <trkpt lat="46.4479124173522" lon="8.754422776401043">
        <ele>1661.78</ele>
        <time>2018-03-25T13:05:26Z</time>
      </trkpt>
      <trkpt lat="46.448001936078072" lon="8.754469463601708">
        <ele>1662.26</ele>
        <time>2018-03-25T13:05:34Z</time>
      </trkpt>
      <trkpt lat="46.448039151728153" lon="8.754524365067482">
        <ele>1661.3</ele>
        <time>2018-03-25T13:05:39Z</time>
      </trkpt>
      <trkpt lat="46.448050132021308" lon="8.754544565454125">
        <ele>1660.8099999999999</ele>
        <time>2018-03-25T13:05:41Z</time>
      </trkpt>
      <trkpt lat="46.448062704876065" lon="8.754568034783006">
        <ele>1659.8499999999999</ele>
        <time>2018-03-25T13:05:43Z</time>
      </trkpt>
      <trkpt lat="46.448071757331491" lon="8.754619499668479">
        <ele>1659.3699999999999</ele>
        <time>2018-03-25T13:05:46Z</time>
      </trkpt>
      <trkpt lat="46.448072427883744" lon="8.754650261253119">
        <ele>1659.3699999999999</ele>
        <time>2018-03-25T13:05:48Z</time>
      </trkpt>
      <trkpt lat="46.448091119527817" lon="8.75468353740871">
        <ele>1658.8900000000001</ele>
        <time>2018-03-25T13:05:52Z</time>
      </trkpt>
      <trkpt lat="46.448115007951856" lon="8.754710191860795">
        <ele>1658.8900000000001</ele>
        <time>2018-03-25T13:05:55Z</time>
      </trkpt>
      <trkpt lat="46.448124898597598" lon="8.754831729456782">
        <ele>1658.4100000000001</ele>
        <time>2018-03-25T13:06:03Z</time>
      </trkpt>
      <trkpt lat="46.448141075670719" lon="8.754966426640749">
        <ele>1657.45</ele>
        <time>2018-03-25T13:06:13Z</time>
      </trkpt>
      <trkpt lat="46.448138142004609" lon="8.755052257329226">
        <ele>1656.49</ele>
        <time>2018-03-25T13:06:18Z</time>
      </trkpt>
      <trkpt lat="46.448122216388583" lon="8.755226852372289">
        <ele>1656.01</ele>
        <time>2018-03-25T13:06:30Z</time>
      </trkpt>
      <trkpt lat="46.448107045143843" lon="8.755354257300496">
        <ele>1655.05</ele>
        <time>2018-03-25T13:06:40Z</time>
      </trkpt>
      <trkpt lat="46.448130011558533" lon="8.755416870117188">
        <ele>1653.5999999999999</ele>
        <time>2018-03-25T13:06:47Z</time>
      </trkpt>
      <trkpt lat="46.448133112862706" lon="8.755444949492812">
        <ele>1653.5999999999999</ele>
        <time>2018-03-25T13:06:49Z</time>
      </trkpt>
      <trkpt lat="46.448129843920469" lon="8.755545532330871">
        <ele>1653.1199999999999</ele>
        <time>2018-03-25T13:06:54Z</time>
      </trkpt>
      <trkpt lat="46.448129005730152" lon="8.755738399922848">
        <ele>1650.72</ele>
        <time>2018-03-25T13:07:05Z</time>
      </trkpt>
      <trkpt lat="46.448149709030986" lon="8.755786428228021">
        <ele>1649.76</ele>
        <time>2018-03-25T13:07:09Z</time>
      </trkpt>
      <trkpt lat="46.448176698759198" lon="8.755905702710152">
        <ele>1647.8399999999999</ele>
        <time>2018-03-25T13:07:18Z</time>
      </trkpt>
      <trkpt lat="46.448201593011618" lon="8.755943672731519">
        <ele>1647.3599999999999</ele>
        <time>2018-03-25T13:07:21Z</time>
      </trkpt>
      <trkpt lat="46.448240568861365" lon="8.755973596125841">
        <ele>1646.8800000000001</ele>
        <time>2018-03-25T13:07:24Z</time>
      </trkpt>
      <trkpt lat="46.448273928835988" lon="8.755996227264404">
        <ele>1646.8800000000001</ele>
        <time>2018-03-25T13:07:27Z</time>
      </trkpt>
      <trkpt lat="46.448306869715452" lon="8.756064455956221">
        <ele>1645.4300000000001</ele>
        <time>2018-03-25T13:07:34Z</time>
      </trkpt>
      <trkpt lat="46.448334865272045" lon="8.756133187562227">
        <ele>1643.99</ele>
        <time>2018-03-25T13:07:41Z</time>
      </trkpt>
      <trkpt lat="46.448304522782564" lon="8.756259921938181">
        <ele>1641.5899999999999</ele>
        <time>2018-03-25T13:07:52Z</time>
      </trkpt>
      <trkpt lat="46.448297230526805" lon="8.756282301619649">
        <ele>1640.6300000000001</ele>
        <time>2018-03-25T13:08:02Z</time>
      </trkpt>
      <trkpt lat="46.448249705135822" lon="8.756312225013971">
        <ele>1640.6300000000001</ele>
        <time>2018-03-25T13:08:22Z</time>
      </trkpt>
      <trkpt lat="46.448234030976892" lon="8.756423788145185">
        <ele>1640.6300000000001</ele>
        <time>2018-03-25T13:08:42Z</time>
      </trkpt>
      <trkpt lat="46.448188265785575" lon="8.756500817835331">
        <ele>1638.7</ele>
        <time>2018-03-25T13:08:52Z</time>
      </trkpt>
      <trkpt lat="46.448165383189917" lon="8.756566448137164">
        <ele>1637.26</ele>
        <time>2018-03-25T13:09:01Z</time>
      </trkpt>
      <trkpt lat="46.448172843083739" lon="8.756653536111116">
        <ele>1634.8599999999999</ele>
        <time>2018-03-25T13:09:09Z</time>
      </trkpt>
      <trkpt lat="46.448206203058362" lon="8.756753532215953">
        <ele>1633.4200000000001</ele>
        <time>2018-03-25T13:09:20Z</time>
      </trkpt>
      <trkpt lat="46.448267474770546" lon="8.756857551634312">
        <ele>1631.49</ele>
        <time>2018-03-25T13:09:31Z</time>
      </trkpt>
      <trkpt lat="46.448280047625303" lon="8.756971713155508">
        <ele>1631.01</ele>
        <time>2018-03-25T13:09:39Z</time>
      </trkpt>
      <trkpt lat="46.448294129222631" lon="8.757089227437973">
        <ele>1629.5699999999999</ele>
        <time>2018-03-25T13:09:49Z</time>
      </trkpt>
      <trkpt lat="46.448302092030644" lon="8.757214955985546">
        <ele>1628.1300000000001</ele>
        <time>2018-03-25T13:09:59Z</time>
      </trkpt>
      <trkpt lat="46.44832287915051" lon="8.757320148870349">
        <ele>1626.6900000000001</ele>
        <time>2018-03-25T13:10:08Z</time>
      </trkpt>
      <trkpt lat="46.448329333215952" lon="8.757354347035289">
        <ele>1626.21</ele>
        <time>2018-03-25T13:10:10Z</time>
      </trkpt>
      <trkpt lat="46.448359172791243" lon="8.757428862154484">
        <ele>1623.8</ele>
        <time>2018-03-25T13:10:21Z</time>
      </trkpt>
      <trkpt lat="46.448375936597586" lon="8.757543191313744">
        <ele>1621.4000000000001</ele>
        <time>2018-03-25T13:10:30Z</time>
      </trkpt>
      <trkpt lat="46.448410302400589" lon="8.757701525464654">
        <ele>1619.48</ele>
        <time>2018-03-25T13:10:42Z</time>
      </trkpt>
      <trkpt lat="46.448439974337816" lon="8.757817782461643">
        <ele>1618.52</ele>
        <time>2018-03-25T13:10:53Z</time>
      </trkpt>
      <trkpt lat="46.44845137372613" lon="8.757864469662309">
        <ele>1617.0699999999999</ele>
        <time>2018-03-25T13:10:59Z</time>
      </trkpt>
      <trkpt lat="46.448447182774544" lon="8.757963376119733">
        <ele>1615.1500000000001</ele>
        <time>2018-03-25T13:11:09Z</time>
      </trkpt>
      <trkpt lat="46.448448775336146" lon="8.757974775508046">
        <ele>1615.1500000000001</ele>
        <time>2018-03-25T13:11:10Z</time>
      </trkpt>
      <trkpt lat="46.448477860540152" lon="8.758058259263635">
        <ele>1615.1500000000001</ele>
        <time>2018-03-25T13:11:17Z</time>
      </trkpt>
      <trkpt lat="46.448501497507095" lon="8.758203098550439">
        <ele>1613.71</ele>
        <time>2018-03-25T13:11:28Z</time>
      </trkpt>
      <trkpt lat="46.448549022898078" lon="8.758303429931402">
        <ele>1611.79</ele>
        <time>2018-03-25T13:11:37Z</time>
      </trkpt>
      <trkpt lat="46.448576096445322" lon="8.758379202336073">
        <ele>1610.8299999999999</ele>
        <time>2018-03-25T13:11:43Z</time>
      </trkpt>
      <trkpt lat="46.44860434345901" lon="8.758474672213197">
        <ele>1608.9000000000001</ele>
        <time>2018-03-25T13:11:52Z</time>
      </trkpt>
      <trkpt lat="46.448647761717439" lon="8.758487915620208">
        <ele>1608.4200000000001</ele>
        <time>2018-03-25T13:11:55Z</time>
      </trkpt>
      <trkpt lat="46.448685480281711" lon="8.758536446839571">
        <ele>1607.9400000000001</ele>
        <time>2018-03-25T13:12:01Z</time>
      </trkpt>
      <trkpt lat="46.448680199682713" lon="8.758622612804174">
        <ele>1607.46</ele>
        <time>2018-03-25T13:12:07Z</time>
      </trkpt>
      <trkpt lat="46.448771730065346" lon="8.758709700778127">
        <ele>1606.02</ele>
        <time>2018-03-25T13:12:17Z</time>
      </trkpt>
      <trkpt lat="46.448856303468347" lon="8.758787233382464">
        <ele>1604.0999999999999</ele>
        <time>2018-03-25T13:12:28Z</time>
      </trkpt>
      <trkpt lat="46.448847921565175" lon="8.758854120969772">
        <ele>1602.1700000000001</ele>
        <time>2018-03-25T13:12:38Z</time>
      </trkpt>
      <trkpt lat="46.448886729776859" lon="8.758926456794143">
        <ele>1600.73</ele>
        <time>2018-03-25T13:12:46Z</time>
      </trkpt>
      <trkpt lat="46.448907852172852" lon="8.758942633867264">
        <ele>1599.29</ele>
        <time>2018-03-25T13:12:49Z</time>
      </trkpt>
      <trkpt lat="46.448939787223935" lon="8.759022010490298">
        <ele>1597.8499999999999</ele>
        <time>2018-03-25T13:12:58Z</time>
      </trkpt>
      <trkpt lat="46.448994437232614" lon="8.759078253060579">
        <ele>1594.96</ele>
        <time>2018-03-25T13:13:07Z</time>
      </trkpt>
      <trkpt lat="46.449008267372847" lon="8.759108679369092">
        <ele>1594.48</ele>
        <time>2018-03-25T13:13:09Z</time>
      </trkpt>
      <trkpt lat="46.449058055877686" lon="8.759180093184114">
        <ele>1592.5599999999999</ele>
        <time>2018-03-25T13:13:15Z</time>
      </trkpt>
      <trkpt lat="46.449065767228603" lon="8.759188391268253">
        <ele>1592.5599999999999</ele>
        <time>2018-03-25T13:13:16Z</time>
      </trkpt>
      <trkpt lat="46.449095942080021" lon="8.759236419573426">
        <ele>1591.1199999999999</ele>
        <time>2018-03-25T13:13:20Z</time>
      </trkpt>
      <trkpt lat="46.449164422228932" lon="8.759291153401136">
        <ele>1589.2</ele>
        <time>2018-03-25T13:13:28Z</time>
      </trkpt>
      <trkpt lat="46.449207086116076" lon="8.75931185670197">
        <ele>1588.72</ele>
        <time>2018-03-25T13:13:33Z</time>
      </trkpt>
      <trkpt lat="46.44921412691474" lon="8.759396262466908">
        <ele>1586.3099999999999</ele>
        <time>2018-03-25T13:13:39Z</time>
      </trkpt>
      <trkpt lat="46.449269028380513" lon="8.759469101205468">
        <ele>1584.8699999999999</ele>
        <time>2018-03-25T13:13:44Z</time>
      </trkpt>
      <trkpt lat="46.449316050857306" lon="8.759554428979754">
        <ele>1582.47</ele>
        <time>2018-03-25T13:13:52Z</time>
      </trkpt>
      <trkpt lat="46.449365755543113" lon="8.759589130058885">
        <ele>1581.51</ele>
        <time>2018-03-25T13:14:01Z</time>
      </trkpt>
      <trkpt lat="46.449357457458973" lon="8.759613437578082">
        <ele>1581.03</ele>
        <time>2018-03-25T13:14:14Z</time>
      </trkpt>
      <trkpt lat="46.4493387658149" lon="8.759681330993772">
        <ele>1581.51</ele>
        <time>2018-03-25T13:14:27Z</time>
      </trkpt>
      <trkpt lat="46.449347902089357" lon="8.759714523330331">
        <ele>1580.54</ele>
        <time>2018-03-25T13:14:30Z</time>
      </trkpt>
      <trkpt lat="46.449370197951794" lon="8.759715110063553">
        <ele>1580.0599999999999</ele>
        <time>2018-03-25T13:14:32Z</time>
      </trkpt>
      <trkpt lat="46.449477905407548" lon="8.759711254388094">
        <ele>1577.6600000000001</ele>
        <time>2018-03-25T13:14:41Z</time>
      </trkpt>
      <trkpt lat="46.449553510174155" lon="8.759715780615807">
        <ele>1576.7</ele>
        <time>2018-03-25T13:14:49Z</time>
      </trkpt>
      <trkpt lat="46.449573375284672" lon="8.75978778116405">
        <ele>1574.78</ele>
        <time>2018-03-25T13:14:56Z</time>
      </trkpt>
      <trkpt lat="46.449587708339095" lon="8.759808400645852">
        <ele>1574.78</ele>
        <time>2018-03-25T13:15:00Z</time>
      </trkpt>
      <trkpt lat="46.44966272637248" lon="8.759822314605117">
        <ele>1574.3</ele>
        <time>2018-03-25T13:15:08Z</time>
      </trkpt>
      <trkpt lat="46.449729278683662" lon="8.759875539690256">
        <ele>1573.8199999999999</ele>
        <time>2018-03-25T13:15:16Z</time>
      </trkpt>
      <trkpt lat="46.4497359842062" lon="8.759913090616465">
        <ele>1573.3299999999999</ele>
        <time>2018-03-25T13:15:26Z</time>
      </trkpt>
      <trkpt lat="46.449764147400856" lon="8.759976625442505">
        <ele>1571.4100000000001</ele>
        <time>2018-03-25T13:15:35Z</time>
      </trkpt>
      <trkpt lat="46.449768505990505" lon="8.760048961266875">
        <ele>1570.9300000000001</ele>
        <time>2018-03-25T13:15:43Z</time>
      </trkpt>
      <trkpt lat="46.449787029996514" lon="8.760036136955023">
        <ele>1569.49</ele>
        <time>2018-03-25T13:15:45Z</time>
      </trkpt>
      <trkpt lat="46.449822736904025" lon="8.760097492486239">
        <ele>1568.53</ele>
        <time>2018-03-25T13:15:52Z</time>
      </trkpt>
      <trkpt lat="46.449808990582824" lon="8.76013470813632">
        <ele>1568.53</ele>
        <time>2018-03-25T13:15:55Z</time>
      </trkpt>
      <trkpt lat="46.449743192642927" lon="8.760273009538651">
        <ele>1567.5699999999999</ele>
        <time>2018-03-25T13:16:06Z</time>
      </trkpt>
      <trkpt lat="46.449749059975147" lon="8.760311231017113">
        <ele>1567.5699999999999</ele>
        <time>2018-03-25T13:16:11Z</time>
      </trkpt>
      <trkpt lat="46.449807398021221" lon="8.760465541854501">
        <ele>1566.6099999999999</ele>
        <time>2018-03-25T13:16:22Z</time>
      </trkpt>
      <trkpt lat="46.44981418736279" lon="8.760485323145986">
        <ele>1566.1199999999999</ele>
        <time>2018-03-25T13:16:25Z</time>
      </trkpt>
      <trkpt lat="46.4498205576092" lon="8.760579787194729">
        <ele>1565.1600000000001</ele>
        <time>2018-03-25T13:16:33Z</time>
      </trkpt>
      <trkpt lat="46.449811588972807" lon="8.760702246800065">
        <ele>1563.24</ele>
        <time>2018-03-25T13:16:45Z</time>
      </trkpt>
      <trkpt lat="46.449815193191171" lon="8.760799057781696">
        <ele>1563.24</ele>
        <time>2018-03-25T13:16:51Z</time>
      </trkpt>
      <trkpt lat="46.449834136292338" lon="8.760852282866836">
        <ele>1562.76</ele>
        <time>2018-03-25T13:16:53Z</time>
      </trkpt>
      <trkpt lat="46.449906639754772" lon="8.760948926210403">
        <ele>1561.8</ele>
        <time>2018-03-25T13:16:59Z</time>
      </trkpt>
      <trkpt lat="46.449973778799176" lon="8.761081779375672">
        <ele>1559.4000000000001</ele>
        <time>2018-03-25T13:17:10Z</time>
      </trkpt>
      <trkpt lat="46.449985094368458" lon="8.761110864579678">
        <ele>1559.4000000000001</ele>
        <time>2018-03-25T13:17:13Z</time>
      </trkpt>
      <trkpt lat="46.449996242299676" lon="8.761118827387691">
        <ele>1559.4000000000001</ele>
        <time>2018-03-25T13:17:14Z</time>
      </trkpt>
      <trkpt lat="46.449993895366788" lon="8.761160653084517">
        <ele>1559.4000000000001</ele>
        <time>2018-03-25T13:17:16Z</time>
      </trkpt>
      <trkpt lat="46.450029434636235" lon="8.761214800179005">
        <ele>1557.95</ele>
        <time>2018-03-25T13:17:23Z</time>
      </trkpt>
      <trkpt lat="46.450050305575132" lon="8.761225026100874">
        <ele>1557.47</ele>
        <time>2018-03-25T13:17:25Z</time>
      </trkpt>
      <trkpt lat="46.450119204819202" lon="8.761318819597364">
        <ele>1556.99</ele>
        <time>2018-03-25T13:17:34Z</time>
      </trkpt>
      <trkpt lat="46.45015231333673" lon="8.761334158480167">
        <ele>1556.03</ele>
        <time>2018-03-25T13:17:38Z</time>
      </trkpt>
      <trkpt lat="46.450173603370786" lon="8.761357879266143">
        <ele>1555.55</ele>
        <time>2018-03-25T13:17:39Z</time>
      </trkpt>
      <trkpt lat="46.45019581541419" lon="8.761361399665475">
        <ele>1555.0699999999999</ele>
        <time>2018-03-25T13:17:40Z</time>
      </trkpt>
      <trkpt lat="46.450207466259599" lon="8.761372128501535">
        <ele>1555.0699999999999</ele>
        <time>2018-03-25T13:17:41Z</time>
      </trkpt>
      <trkpt lat="46.450284076854587" lon="8.761454606428742">
        <ele>1554.1099999999999</ele>
        <time>2018-03-25T13:17:49Z</time>
      </trkpt>
      <trkpt lat="46.450288603082299" lon="8.761475225910544">
        <ele>1553.6300000000001</ele>
        <time>2018-03-25T13:17:51Z</time>
      </trkpt>
      <trkpt lat="46.450297823175788" lon="8.761512273922563">
        <ele>1553.6300000000001</ele>
        <time>2018-03-25T13:17:54Z</time>
      </trkpt>
      <trkpt lat="46.450303690508008" lon="8.761524260044098">
        <ele>1553.6300000000001</ele>
        <time>2018-03-25T13:17:55Z</time>
      </trkpt>
      <trkpt lat="46.450365548953414" lon="8.761612856760621">
        <ele>1552.6700000000001</ele>
        <time>2018-03-25T13:18:04Z</time>
      </trkpt>
      <trkpt lat="46.450397567823529" lon="8.761710170656443">
        <ele>1551.71</ele>
        <time>2018-03-25T13:18:11Z</time>
      </trkpt>
      <trkpt lat="46.45041860640049" lon="8.761732382699847">
        <ele>1551.71</ele>
        <time>2018-03-25T13:18:13Z</time>
      </trkpt>
      <trkpt lat="46.450454480946064" lon="8.76181703992188">
        <ele>1550.26</ele>
        <time>2018-03-25T13:18:19Z</time>
      </trkpt>
      <trkpt lat="46.450449787080288" lon="8.761935811489821">
        <ele>1548.8199999999999</ele>
        <time>2018-03-25T13:18:28Z</time>
      </trkpt>
      <trkpt lat="46.450461270287633" lon="8.76194017007947">
        <ele>1548.3399999999999</ele>
        <time>2018-03-25T13:18:30Z</time>
      </trkpt>
      <trkpt lat="46.450539976358414" lon="8.762043099850416">
        <ele>1546.4200000000001</ele>
        <time>2018-03-25T13:18:41Z</time>
      </trkpt>
      <trkpt lat="46.450583143159747" lon="8.762135552242398">
        <ele>1544.98</ele>
        <time>2018-03-25T13:18:51Z</time>
      </trkpt>
      <trkpt lat="46.450614407658577" lon="8.762171929702163">
        <ele>1544.98</ele>
        <time>2018-03-25T13:18:55Z</time>
      </trkpt>
      <trkpt lat="46.450618430972099" lon="8.762188022956252">
        <ele>1544.98</ele>
        <time>2018-03-25T13:18:56Z</time>
      </trkpt>
      <trkpt lat="46.450626142323017" lon="8.762220041826367">
        <ele>1544.5</ele>
        <time>2018-03-25T13:18:57Z</time>
      </trkpt>
      <trkpt lat="46.450635613873601" lon="8.762247785925865">
        <ele>1544.01</ele>
        <time>2018-03-25T13:18:59Z</time>
      </trkpt>
      <trkpt lat="46.450646342709661" lon="8.762260526418686">
        <ele>1544.01</ele>
        <time>2018-03-25T13:19:00Z</time>
      </trkpt>
      <trkpt lat="46.450651623308659" lon="8.762277709320188">
        <ele>1544.01</ele>
        <time>2018-03-25T13:19:01Z</time>
      </trkpt>
      <trkpt lat="46.450731921941042" lon="8.762288521975279">
        <ele>1543.05</ele>
        <time>2018-03-25T13:19:07Z</time>
      </trkpt>
      <trkpt lat="46.450743656605482" lon="8.76229690387845">
        <ele>1543.05</ele>
        <time>2018-03-25T13:19:08Z</time>
      </trkpt>
      <trkpt lat="46.45077190361917" lon="8.762326408177614">
        <ele>1542.5699999999999</ele>
        <time>2018-03-25T13:19:12Z</time>
      </trkpt>
      <trkpt lat="46.4508808683604" lon="8.762397989630699">
        <ele>1541.1300000000001</ele>
        <time>2018-03-25T13:19:21Z</time>
      </trkpt>
      <trkpt lat="46.450939206406474" lon="8.762478539720178">
        <ele>1540.1700000000001</ele>
        <time>2018-03-25T13:19:28Z</time>
      </trkpt>
      <trkpt lat="46.450975080952048" lon="8.762509720399976">
        <ele>1539.6900000000001</ele>
        <time>2018-03-25T13:19:32Z</time>
      </trkpt>
      <trkpt lat="46.451011374592781" lon="8.762531345710158">
        <ele>1539.21</ele>
        <time>2018-03-25T13:19:36Z</time>
      </trkpt>
      <trkpt lat="46.451046243309975" lon="8.762541403993964">
        <ele>1538.73</ele>
        <time>2018-03-25T13:19:39Z</time>
      </trkpt>
      <trkpt lat="46.45107583142817" lon="8.762540817260742">
        <ele>1538.25</ele>
        <time>2018-03-25T13:19:41Z</time>
      </trkpt>
      <trkpt lat="46.451139030978084" lon="8.762580966576934">
        <ele>1537.29</ele>
        <time>2018-03-25T13:19:47Z</time>
      </trkpt>
      <trkpt lat="46.451178006827831" lon="8.762576943263412">
        <ele>1537.29</ele>
        <time>2018-03-25T13:19:50Z</time>
      </trkpt>
      <trkpt lat="46.451214384287596" lon="8.762587420642376">
        <ele>1537.29</ele>
        <time>2018-03-25T13:19:53Z</time>
      </trkpt>
      <trkpt lat="46.451232489198446" lon="8.762611309066415">
        <ele>1536.8</ele>
        <time>2018-03-25T13:19:56Z</time>
      </trkpt>
      <trkpt lat="46.45126685500145" lon="8.762631257995963">
        <ele>1537.29</ele>
        <time>2018-03-25T13:20:01Z</time>
      </trkpt>
      <trkpt lat="46.451311111450195" lon="8.762663193047047">
        <ele>1536.8</ele>
        <time>2018-03-25T13:20:04Z</time>
      </trkpt>
      <trkpt lat="46.451416471973062" lon="8.762715077027679">
        <ele>1535.8399999999999</ele>
        <time>2018-03-25T13:20:14Z</time>
      </trkpt>
      <trkpt lat="46.451484281569719" lon="8.762717926874757">
        <ele>1534.8800000000001</ele>
        <time>2018-03-25T13:20:22Z</time>
      </trkpt>
      <trkpt lat="46.451524430885911" lon="8.762710718438029">
        <ele>1534.8800000000001</ele>
        <time>2018-03-25T13:20:26Z</time>
      </trkpt>
      <trkpt lat="46.451564831659198" lon="8.76275422051549">
        <ele>1534.4000000000001</ele>
        <time>2018-03-25T13:20:32Z</time>
      </trkpt>
      <trkpt lat="46.45158788189292" lon="8.762787664309144">
        <ele>1533.9200000000001</ele>
        <time>2018-03-25T13:20:44Z</time>
      </trkpt>
      <trkpt lat="46.451552426442504" lon="8.762842230498791">
        <ele>1533.9200000000001</ele>
        <time>2018-03-25T13:21:00Z</time>
      </trkpt>
      <trkpt lat="46.451528454199433" lon="8.762901742011309">
        <ele>1533.4400000000001</ele>
        <time>2018-03-25T13:21:11Z</time>
      </trkpt>
      <trkpt lat="46.451533567160368" lon="8.762904675677419">
        <ele>1533.9200000000001</ele>
        <time>2018-03-25T13:21:25Z</time>
      </trkpt>
      <trkpt lat="46.451572962105274" lon="8.762896796688438">
        <ele>1533.9200000000001</ele>
        <time>2018-03-25T13:21:34Z</time>
      </trkpt>
      <trkpt lat="46.451580757275224" lon="8.762878272682428">
        <ele>1532.96</ele>
        <time>2018-03-25T13:21:50Z</time>
      </trkpt>
      <trkpt lat="46.451504481956363" lon="8.762993104755878">
        <ele>1533.9200000000001</ele>
        <time>2018-03-25T13:22:05Z</time>
      </trkpt>
      <trkpt lat="46.451652087271214" lon="8.762945998460054">
        <ele>1534.4000000000001</ele>
        <time>2018-03-25T13:22:16Z</time>
      </trkpt>
      <trkpt lat="46.451685279607773" lon="8.762948261573911">
        <ele>1534.4000000000001</ele>
        <time>2018-03-25T13:22:19Z</time>
      </trkpt>
      <trkpt lat="46.451726267114282" lon="8.763015316799283">
        <ele>1532.96</ele>
        <time>2018-03-25T13:22:28Z</time>
      </trkpt>
      <trkpt lat="46.451749233528972" lon="8.763076588511467">
        <ele>1532</ele>
        <time>2018-03-25T13:22:37Z</time>
      </trkpt>
      <trkpt lat="46.451791729778051" lon="8.763126293197274">
        <ele>1532</ele>
        <time>2018-03-25T13:22:45Z</time>
      </trkpt>
      <trkpt lat="46.451807906851172" lon="8.763157054781914">
        <ele>1531.04</ele>
        <time>2018-03-25T13:22:48Z</time>
      </trkpt>
      <trkpt lat="46.451841350644827" lon="8.763171806931496">
        <ele>1531.04</ele>
        <time>2018-03-25T13:22:51Z</time>
      </trkpt>
      <trkpt lat="46.451885439455509" lon="8.763243136927486">
        <ele>1530.5599999999999</ele>
        <time>2018-03-25T13:22:57Z</time>
      </trkpt>
      <trkpt lat="46.451939418911934" lon="8.763260990381241">
        <ele>1530.0799999999999</ele>
        <time>2018-03-25T13:23:01Z</time>
      </trkpt>
      <trkpt lat="46.451985603198409" lon="8.763301055878401">
        <ele>1529.5899999999999</ele>
        <time>2018-03-25T13:23:07Z</time>
      </trkpt>
      <trkpt lat="46.452015107497573" lon="8.763351682573557">
        <ele>1529.1099999999999</ele>
        <time>2018-03-25T13:23:12Z</time>
      </trkpt>
      <trkpt lat="46.452029775828123" lon="8.763350592926145">
        <ele>1529.1099999999999</ele>
        <time>2018-03-25T13:23:13Z</time>
      </trkpt>
      <trkpt lat="46.452068164944649" lon="8.763396106660366">
        <ele>1528.1500000000001</ele>
        <time>2018-03-25T13:23:17Z</time>
      </trkpt>
      <trkpt lat="46.452091382816434" lon="8.763409517705441">
        <ele>1528.1500000000001</ele>
        <time>2018-03-25T13:23:19Z</time>
      </trkpt>
      <trkpt lat="46.452120384201407" lon="8.763472130522132">
        <ele>1527.6700000000001</ele>
        <time>2018-03-25T13:23:23Z</time>
      </trkpt>
      <trkpt lat="46.452114684507251" lon="8.763527451083064">
        <ele>1527.6700000000001</ele>
        <time>2018-03-25T13:23:27Z</time>
      </trkpt>
      <trkpt lat="46.452135723084211" lon="8.763547567650676">
        <ele>1527.1900000000001</ele>
        <time>2018-03-25T13:23:30Z</time>
      </trkpt>
      <trkpt lat="46.452174615114927" lon="8.763585621491075">
        <ele>1527.1900000000001</ele>
        <time>2018-03-25T13:23:36Z</time>
      </trkpt>
      <trkpt lat="46.45219087600708" lon="8.763608084991574">
        <ele>1526.23</ele>
        <time>2018-03-25T13:23:41Z</time>
      </trkpt>
      <trkpt lat="46.452234545722604" lon="8.763637421652675">
        <ele>1525.75</ele>
        <time>2018-03-25T13:23:44Z</time>
      </trkpt>
      <trkpt lat="46.452349880710244" lon="8.763707159087062">
        <ele>1525.75</ele>
        <time>2018-03-25T13:23:55Z</time>
      </trkpt>
      <trkpt lat="46.452363291755319" lon="8.76370950601995">
        <ele>1525.75</ele>
        <time>2018-03-25T13:23:56Z</time>
      </trkpt>
      <trkpt lat="46.452377205714583" lon="8.763714535161853">
        <ele>1525.27</ele>
        <time>2018-03-25T13:23:57Z</time>
      </trkpt>
      <trkpt lat="46.452398244291544" lon="8.763723336160183">
        <ele>1525.27</ele>
        <time>2018-03-25T13:23:59Z</time>
      </trkpt>
      <trkpt lat="46.452450715005398" lon="8.763771867379546">
        <ele>1524.79</ele>
        <time>2018-03-25T13:24:06Z</time>
      </trkpt>
      <trkpt lat="46.452489104121923" lon="8.763825176283717">
        <ele>1524.79</ele>
        <time>2018-03-25T13:24:14Z</time>
      </trkpt>
      <trkpt lat="46.452484913170338" lon="8.763923496007919">
        <ele>1523.8299999999999</ele>
        <time>2018-03-25T13:24:20Z</time>
      </trkpt>
      <trkpt lat="46.45254953764379" lon="8.764067832380533">
        <ele>1521.4200000000001</ele>
        <time>2018-03-25T13:24:33Z</time>
      </trkpt>
      <trkpt lat="46.452627992257476" lon="8.764164559543133">
        <ele>1521.4200000000001</ele>
        <time>2018-03-25T13:24:41Z</time>
      </trkpt>
      <trkpt lat="46.452669482678175" lon="8.764232872053981">
        <ele>1520.9400000000001</ele>
        <time>2018-03-25T13:24:46Z</time>
      </trkpt>
      <trkpt lat="46.45268096588552" lon="8.764261202886701">
        <ele>1520.9400000000001</ele>
        <time>2018-03-25T13:24:48Z</time>
      </trkpt>
      <trkpt lat="46.452713739126921" lon="8.764431439340115">
        <ele>1519.98</ele>
        <time>2018-03-25T13:24:59Z</time>
      </trkpt>
      <trkpt lat="46.452677277848125" lon="8.764478964731097">
        <ele>1519.98</ele>
        <time>2018-03-25T13:25:06Z</time>
      </trkpt>
      <trkpt lat="46.452679457142949" lon="8.764487681910396">
        <ele>1519.98</ele>
        <time>2018-03-25T13:25:07Z</time>
      </trkpt>
      <trkpt lat="46.452688090503216" lon="8.764511486515403">
        <ele>1519.98</ele>
        <time>2018-03-25T13:25:09Z</time>
      </trkpt>
      <trkpt lat="46.452690353617072" lon="8.764525065198541">
        <ele>1519.98</ele>
        <time>2018-03-25T13:25:10Z</time>
      </trkpt>
      <trkpt lat="46.452695969492197" lon="8.764536967501044">
        <ele>1519.5</ele>
        <time>2018-03-25T13:25:11Z</time>
      </trkpt>
      <trkpt lat="46.452699406072497" lon="8.764551719650626">
        <ele>1519.98</ele>
        <time>2018-03-25T13:25:12Z</time>
      </trkpt>
      <trkpt lat="46.452713068574667" lon="8.764640651643276">
        <ele>1519.02</ele>
        <time>2018-03-25T13:25:18Z</time>
      </trkpt>
      <trkpt lat="46.45278506912291" lon="8.764745173975825">
        <ele>1519.5</ele>
        <time>2018-03-25T13:25:25Z</time>
      </trkpt>
      <trkpt lat="46.452785488218069" lon="8.76476981677115">
        <ele>1519.5</ele>
        <time>2018-03-25T13:25:27Z</time>
      </trkpt>
      <trkpt lat="46.452788924798369" lon="8.764782724902034">
        <ele>1519.5</ele>
        <time>2018-03-25T13:25:28Z</time>
      </trkpt>
      <trkpt lat="46.452805353328586" lon="8.764861514791846">
        <ele>1518.54</ele>
        <time>2018-03-25T13:25:33Z</time>
      </trkpt>
      <trkpt lat="46.452810550108552" lon="8.764872243627906">
        <ele>1518.54</ele>
        <time>2018-03-25T13:25:34Z</time>
      </trkpt>
      <trkpt lat="46.452813316136599" lon="8.764896634966135">
        <ele>1518.0599999999999</ele>
        <time>2018-03-25T13:25:36Z</time>
      </trkpt>
      <trkpt lat="46.452819854021072" lon="8.764910465106368">
        <ele>1518.0599999999999</ele>
        <time>2018-03-25T13:25:37Z</time>
      </trkpt>
      <trkpt lat="46.452828738838434" lon="8.764951704069972">
        <ele>1518.0599999999999</ele>
        <time>2018-03-25T13:25:40Z</time>
      </trkpt>
      <trkpt lat="46.452870313078165" lon="8.765015909448266">
        <ele>1517.5799999999999</ele>
        <time>2018-03-25T13:25:47Z</time>
      </trkpt>
      <trkpt lat="46.452894201502204" lon="8.765050526708365">
        <ele>1517.5799999999999</ele>
        <time>2018-03-25T13:25:50Z</time>
      </trkpt>
      <trkpt lat="46.452917251735926" lon="8.765090005472302">
        <ele>1517.0999999999999</ele>
        <time>2018-03-25T13:25:52Z</time>
      </trkpt>
      <trkpt lat="46.452924543991685" lon="8.765105344355106">
        <ele>1516.6199999999999</ele>
        <time>2018-03-25T13:25:53Z</time>
      </trkpt>
      <trkpt lat="46.452969219535589" lon="8.765146918594837">
        <ele>1515.6600000000001</ele>
        <time>2018-03-25T13:25:57Z</time>
      </trkpt>
      <trkpt lat="46.453078016638756" lon="8.765185223892331">
        <ele>1515.1800000000001</ele>
        <time>2018-03-25T13:26:07Z</time>
      </trkpt>
      <trkpt lat="46.453113220632076" lon="8.76520617865026">
        <ele>1515.1800000000001</ele>
        <time>2018-03-25T13:26:11Z</time>
      </trkpt>
      <trkpt lat="46.453136019408703" lon="8.765215650200844">
        <ele>1514.6900000000001</ele>
        <time>2018-03-25T13:26:13Z</time>
      </trkpt>
      <trkpt lat="46.453157644718885" lon="8.765225792303681">
        <ele>1514.21</ele>
        <time>2018-03-25T13:26:15Z</time>
      </trkpt>
      <trkpt lat="46.453243894502521" lon="8.765257559716702">
        <ele>1513.25</ele>
        <time>2018-03-25T13:26:22Z</time>
      </trkpt>
      <trkpt lat="46.453299466520548" lon="8.765324363484979">
        <ele>1512.77</ele>
        <time>2018-03-25T13:26:34Z</time>
      </trkpt>
      <trkpt lat="46.453375155106187" lon="8.765372978523374">
        <ele>1512.29</ele>
        <time>2018-03-25T13:26:41Z</time>
      </trkpt>
      <trkpt lat="46.45347741432488" lon="8.7654666043818">
        <ele>1510.8499999999999</ele>
        <time>2018-03-25T13:26:49Z</time>
      </trkpt>
      <trkpt lat="46.453510941937566" lon="8.765486050397158">
        <ele>1510.8499999999999</ele>
        <time>2018-03-25T13:26:52Z</time>
      </trkpt>
      <trkpt lat="46.453545978292823" lon="8.765531983226538">
        <ele>1510.3699999999999</ele>
        <time>2018-03-25T13:26:57Z</time>
      </trkpt>
      <trkpt lat="46.453632647171617" lon="8.765589650720358">
        <ele>1508.9300000000001</ele>
        <time>2018-03-25T13:27:07Z</time>
      </trkpt>
      <trkpt lat="46.453688722103834" lon="8.765647653490305">
        <ele>1507.97</ele>
        <time>2018-03-25T13:27:14Z</time>
      </trkpt>
      <trkpt lat="46.453793663531542" lon="8.765744296833873">
        <ele>1507.97</ele>
        <time>2018-03-25T13:27:26Z</time>
      </trkpt>
      <trkpt lat="46.453831549733877" lon="8.765816800296307">
        <ele>1507.97</ele>
        <time>2018-03-25T13:27:33Z</time>
      </trkpt>
      <trkpt lat="46.453843284398317" lon="8.765828534960747">
        <ele>1507.97</ele>
        <time>2018-03-25T13:27:35Z</time>
      </trkpt>
      <trkpt lat="46.453886115923524" lon="8.765837168321014">
        <ele>1507</ele>
        <time>2018-03-25T13:27:40Z</time>
      </trkpt>
      <trkpt lat="46.453895419836044" lon="8.765843119472265">
        <ele>1507</ele>
        <time>2018-03-25T13:27:41Z</time>
      </trkpt>
      <trkpt lat="46.454018130898476" lon="8.765862481668592">
        <ele>1506.04</ele>
        <time>2018-03-25T13:27:51Z</time>
      </trkpt>
      <trkpt lat="46.454020896926522" lon="8.765861978754401">
        <ele>1506.04</ele>
        <time>2018-03-25T13:27:52Z</time>
      </trkpt>
      <trkpt lat="46.454091388732195" lon="8.765879077836871">
        <ele>1505.5599999999999</ele>
        <time>2018-03-25T13:27:58Z</time>
      </trkpt>
      <trkpt lat="46.454115025699139" lon="8.765907157212496">
        <ele>1505.0799999999999</ele>
        <time>2018-03-25T13:28:01Z</time>
      </trkpt>
      <trkpt lat="46.4541654009372" lon="8.765923753380776">
        <ele>1504.5999999999999</ele>
        <time>2018-03-25T13:28:05Z</time>
      </trkpt>
      <trkpt lat="46.454268079251051" lon="8.766021989285946">
        <ele>1503.6400000000001</ele>
        <time>2018-03-25T13:28:16Z</time>
      </trkpt>
      <trkpt lat="46.454277969896793" lon="8.766026180237532">
        <ele>1503.6400000000001</ele>
        <time>2018-03-25T13:28:17Z</time>
      </trkpt>
      <trkpt lat="46.454294566065073" lon="8.766056606546044">
        <ele>1503.6400000000001</ele>
        <time>2018-03-25T13:28:20Z</time>
      </trkpt>
      <trkpt lat="46.454332284629345" lon="8.766177389770746">
        <ele>1502.6800000000001</ele>
        <time>2018-03-25T13:28:29Z</time>
      </trkpt>
      <trkpt lat="46.454287441447377" lon="8.766303705051541">
        <ele>1502.2</ele>
        <time>2018-03-25T13:28:37Z</time>
      </trkpt>
      <trkpt lat="46.454272605478764" lon="8.766409568488598">
        <ele>1501.24</ele>
        <time>2018-03-25T13:28:43Z</time>
      </trkpt>
      <trkpt lat="46.454235473647714" lon="8.766538146883249">
        <ele>1500.76</ele>
        <time>2018-03-25T13:28:49Z</time>
      </trkpt>
      <trkpt lat="46.454180823639035" lon="8.766668401658535">
        <ele>1500.27</ele>
        <time>2018-03-25T13:28:56Z</time>
      </trkpt>
      <trkpt lat="46.45417713560164" lon="8.766686338931322">
        <ele>1500.27</ele>
        <time>2018-03-25T13:28:57Z</time>
      </trkpt>
      <trkpt lat="46.454167747870088" lon="8.766724895685911">
        <ele>1500.27</ele>
        <time>2018-03-25T13:29:00Z</time>
      </trkpt>
      <trkpt lat="46.454169508069754" lon="8.766743252053857">
        <ele>1500.27</ele>
        <time>2018-03-25T13:29:01Z</time>
      </trkpt>
      <trkpt lat="46.454160874709487" lon="8.766778791323304">
        <ele>1499.79</ele>
        <time>2018-03-25T13:29:03Z</time>
      </trkpt>
      <trkpt lat="46.454163221642375" lon="8.766798740252852">
        <ele>1499.3099999999999</ele>
        <time>2018-03-25T13:29:04Z</time>
      </trkpt>
      <trkpt lat="46.454132124781609" lon="8.766986159607768">
        <ele>1498.3499999999999</ele>
        <time>2018-03-25T13:29:14Z</time>
      </trkpt>
      <trkpt lat="46.454130699858069" lon="8.767003761604428">
        <ele>1497.8699999999999</ele>
        <time>2018-03-25T13:29:15Z</time>
      </trkpt>
      <trkpt lat="46.454129191115499" lon="8.767021531239152">
        <ele>1497.8699999999999</ele>
        <time>2018-03-25T13:29:16Z</time>
      </trkpt>
      <trkpt lat="46.454117707908154" lon="8.767069224268198">
        <ele>1497.8699999999999</ele>
        <time>2018-03-25T13:29:19Z</time>
      </trkpt>
      <trkpt lat="46.454122485592961" lon="8.767161257565022">
        <ele>1497.8699999999999</ele>
        <time>2018-03-25T13:29:26Z</time>
      </trkpt>
      <trkpt lat="46.454111924394965" lon="8.767204843461514">
        <ele>1497.8699999999999</ele>
        <time>2018-03-25T13:29:35Z</time>
      </trkpt>
      <trkpt lat="46.454115612432361" lon="8.767241053283215">
        <ele>1497.8699999999999</ele>
        <time>2018-03-25T13:29:49Z</time>
      </trkpt>
      <trkpt lat="46.454145535826683" lon="8.767341719940305">
        <ele>1497.3900000000001</ele>
        <time>2018-03-25T13:30:01Z</time>
      </trkpt>
      <trkpt lat="46.454219212755561" lon="8.767376001924276">
        <ele>1497.8699999999999</ele>
        <time>2018-03-25T13:30:14Z</time>
      </trkpt>
      <trkpt lat="46.453597862273455" lon="8.767065368592739">
        <ele>1497.8699999999999</ele>
        <time>2018-03-25T13:30:29Z</time>
      </trkpt>
      <trkpt lat="46.453439192846417" lon="8.767105014994741">
        <ele>1497.3900000000001</ele>
        <time>2018-03-25T13:30:45Z</time>
      </trkpt>
      <trkpt lat="46.45335964858532" lon="8.767146924510598">
        <ele>1497.3900000000001</ele>
        <time>2018-03-25T13:30:58Z</time>
      </trkpt>
      <trkpt lat="46.453421842306852" lon="8.767099231481552">
        <ele>1496.9100000000001</ele>
        <time>2018-03-25T13:31:10Z</time>
      </trkpt>
      <trkpt lat="46.453397953882813" lon="8.767111971974373">
        <ele>1496.9100000000001</ele>
        <time>2018-03-25T13:31:24Z</time>
      </trkpt>
      <trkpt lat="46.453416561707854" lon="8.767118509858847">
        <ele>1496.4300000000001</ele>
        <time>2018-03-25T13:31:35Z</time>
      </trkpt>
      <trkpt lat="46.453390410169959" lon="8.767167879268527">
        <ele>1497.3900000000001</ele>
        <time>2018-03-25T13:31:50Z</time>
      </trkpt>
      <trkpt lat="46.453369790688157" lon="8.767161006107926">
        <ele>1496.9100000000001</ele>
        <time>2018-03-25T13:32:04Z</time>
      </trkpt>
      <trkpt lat="46.453371047973633" lon="8.767173159867525">
        <ele>1497.3900000000001</ele>
        <time>2018-03-25T13:32:18Z</time>
      </trkpt>
      <trkpt lat="46.453352021053433" lon="8.767149858176708">
        <ele>1496.4300000000001</ele>
        <time>2018-03-25T13:32:35Z</time>
      </trkpt>
      <trkpt lat="46.453264430165291" lon="8.767167963087559">
        <ele>1496.9100000000001</ele>
        <time>2018-03-25T13:32:49Z</time>
      </trkpt>
      <trkpt lat="46.453340537846088" lon="8.767173076048493">
        <ele>1496.9100000000001</ele>
        <time>2018-03-25T13:33:00Z</time>
      </trkpt>
      <trkpt lat="46.453351518139243" lon="8.767212554812431">
        <ele>1496.4300000000001</ele>
        <time>2018-03-25T13:33:12Z</time>
      </trkpt>
      <trkpt lat="46.453357636928558" lon="8.767220936715603">
        <ele>1496.4300000000001</ele>
        <time>2018-03-25T13:33:13Z</time>
      </trkpt>
      <trkpt lat="46.453365935012698" lon="8.767293943092227">
        <ele>1496.4300000000001</ele>
        <time>2018-03-25T13:33:18Z</time>
      </trkpt>
      <trkpt lat="46.453359061852098" lon="8.767425790429115">
        <ele>1495.47</ele>
        <time>2018-03-25T13:33:28Z</time>
      </trkpt>
      <trkpt lat="46.453357385471463" lon="8.767615724354982">
        <ele>1494.51</ele>
        <time>2018-03-25T13:33:41Z</time>
      </trkpt>
      <trkpt lat="46.45336015149951" lon="8.767646150663495">
        <ele>1494.03</ele>
        <time>2018-03-25T13:33:43Z</time>
      </trkpt>
      <trkpt lat="46.453371131792665" lon="8.767732316628099">
        <ele>1494.03</ele>
        <time>2018-03-25T13:33:49Z</time>
      </trkpt>
      <trkpt lat="46.453436259180307" lon="8.767898613587022">
        <ele>1492.0999999999999</ele>
        <time>2018-03-25T13:34:02Z</time>
      </trkpt>
      <trkpt lat="46.453466350212693" lon="8.767958963289857">
        <ele>1490.6600000000001</ele>
        <time>2018-03-25T13:34:08Z</time>
      </trkpt>
      <trkpt lat="46.453498033806682" lon="8.76800405792892">
        <ele>1490.1800000000001</ele>
        <time>2018-03-25T13:34:13Z</time>
      </trkpt>
      <trkpt lat="46.453575985506177" lon="8.768027275800705">
        <ele>1489.7</ele>
        <time>2018-03-25T13:34:24Z</time>
      </trkpt>
      <trkpt lat="46.453650752082467" lon="8.768075723201037">
        <ele>1488.26</ele>
        <time>2018-03-25T13:34:33Z</time>
      </trkpt>
      <trkpt lat="46.45368117839098" lon="8.768054768443108">
        <ele>1487.3</ele>
        <time>2018-03-25T13:34:42Z</time>
      </trkpt>
      <trkpt lat="46.453846385702491" lon="8.768039681017399">
        <ele>1487.3</ele>
        <time>2018-03-25T13:34:54Z</time>
      </trkpt>
      <trkpt lat="46.453950656577945" lon="8.76806759275496">
        <ele>1485.3699999999999</ele>
        <time>2018-03-25T13:35:04Z</time>
      </trkpt>
      <trkpt lat="46.453981501981616" lon="8.768081339076161">
        <ele>1485.3699999999999</ele>
        <time>2018-03-25T13:35:07Z</time>
      </trkpt>
      <trkpt lat="46.454026512801647" lon="8.768090391531587">
        <ele>1485.3699999999999</ele>
        <time>2018-03-25T13:35:12Z</time>
      </trkpt>
      <trkpt lat="46.45410236902535" lon="8.768112352117896">
        <ele>1483.9300000000001</ele>
        <time>2018-03-25T13:35:19Z</time>
      </trkpt>
      <trkpt lat="46.454136315733194" lon="8.768183179199696">
        <ele>1482.49</ele>
        <time>2018-03-25T13:35:27Z</time>
      </trkpt>
      <trkpt lat="46.454150564968586" lon="8.768191896378994">
        <ele>1482.01</ele>
        <time>2018-03-25T13:35:29Z</time>
      </trkpt>
      <trkpt lat="46.454173363745213" lon="8.768228190019727">
        <ele>1481.05</ele>
        <time>2018-03-25T13:35:32Z</time>
      </trkpt>
      <trkpt lat="46.454204125329852" lon="8.768312679603696">
        <ele>1479.6099999999999</ele>
        <time>2018-03-25T13:35:39Z</time>
      </trkpt>
      <trkpt lat="46.454255171120167" lon="8.768481155857444">
        <ele>1476.72</ele>
        <time>2018-03-25T13:35:50Z</time>
      </trkpt>
      <trkpt lat="46.454328848049045" lon="8.768533878028393">
        <ele>1475.76</ele>
        <time>2018-03-25T13:35:56Z</time>
      </trkpt>
      <trkpt lat="46.454342845827341" lon="8.768553826957941">
        <ele>1475.28</ele>
        <time>2018-03-25T13:35:58Z</time>
      </trkpt>
      <trkpt lat="46.454416522756219" lon="8.768681483343244">
        <ele>1472.4000000000001</ele>
        <time>2018-03-25T13:36:10Z</time>
      </trkpt>
      <trkpt lat="46.454408895224333" lon="8.768742587417364">
        <ele>1472.4000000000001</ele>
        <time>2018-03-25T13:36:20Z</time>
      </trkpt>
      <trkpt lat="46.454498078674078" lon="8.76877217553556">
        <ele>1471.4400000000001</ele>
        <time>2018-03-25T13:36:29Z</time>
      </trkpt>
      <trkpt lat="46.454565636813641" lon="8.768739569932222">
        <ele>1471.4400000000001</ele>
        <time>2018-03-25T13:36:37Z</time>
      </trkpt>
      <trkpt lat="46.454670494422317" lon="8.768743593245745">
        <ele>1469.99</ele>
        <time>2018-03-25T13:36:45Z</time>
      </trkpt>
      <trkpt lat="46.45471315830946" lon="8.768749795854092">
        <ele>1469.51</ele>
        <time>2018-03-25T13:36:49Z</time>
      </trkpt>
      <trkpt lat="46.454810639843345" lon="8.76870671287179">
        <ele>1469.03</ele>
        <time>2018-03-25T13:37:00Z</time>
      </trkpt>
      <trkpt lat="46.454873336479068" lon="8.768711406737566">
        <ele>1469.03</ele>
        <time>2018-03-25T13:37:09Z</time>
      </trkpt>
      <trkpt lat="46.454921616241336" lon="8.768730601295829">
        <ele>1469.03</ele>
        <time>2018-03-25T13:37:16Z</time>
      </trkpt>
      <trkpt lat="46.454975595697761" lon="8.768791705369949">
        <ele>1468.0699999999999</ele>
        <time>2018-03-25T13:37:25Z</time>
      </trkpt>
      <trkpt lat="46.454986995086074" lon="8.76880151219666">
        <ele>1468.0699999999999</ele>
        <time>2018-03-25T13:37:26Z</time>
      </trkpt>
      <trkpt lat="46.455044411122799" lon="8.768831938505173">
        <ele>1467.5899999999999</ele>
        <time>2018-03-25T13:37:31Z</time>
      </trkpt>
      <trkpt lat="46.45508648827672" lon="8.768849289044738">
        <ele>1467.1099999999999</ele>
        <time>2018-03-25T13:37:35Z</time>
      </trkpt>
      <trkpt lat="46.455172402784228" lon="8.768890360370278">
        <ele>1465.6700000000001</ele>
        <time>2018-03-25T13:37:44Z</time>
      </trkpt>
      <trkpt lat="46.455202326178551" lon="8.768894718959928">
        <ele>1465.1900000000001</ele>
        <time>2018-03-25T13:37:47Z</time>
      </trkpt>
      <trkpt lat="46.455222778022289" lon="8.7688909471035">
        <ele>1465.1900000000001</ele>
        <time>2018-03-25T13:37:49Z</time>
      </trkpt>
      <trkpt lat="46.455311961472034" lon="8.768933191895485">
        <ele>1463.26</ele>
        <time>2018-03-25T13:38:00Z</time>
      </trkpt>
      <trkpt lat="46.455373652279377" lon="8.76903017051518">
        <ele>1462.3</ele>
        <time>2018-03-25T13:38:09Z</time>
      </trkpt>
      <trkpt lat="46.455395361408591" lon="8.769051292911172">
        <ele>1461.8199999999999</ele>
        <time>2018-03-25T13:38:12Z</time>
      </trkpt>
      <trkpt lat="46.455492256209254" lon="8.769037798047066">
        <ele>1461.8199999999999</ele>
        <time>2018-03-25T13:38:23Z</time>
      </trkpt>
      <trkpt lat="46.455593258142471" lon="8.769021537154913">
        <ele>1461.3399999999999</ele>
        <time>2018-03-25T13:38:34Z</time>
      </trkpt>
      <trkpt lat="46.455615470185876" lon="8.768983986228705">
        <ele>1460.8599999999999</ele>
        <time>2018-03-25T13:38:37Z</time>
      </trkpt>
      <trkpt lat="46.455637766048312" lon="8.768963115289807">
        <ele>1460.8599999999999</ele>
        <time>2018-03-25T13:38:41Z</time>
      </trkpt>
      <trkpt lat="46.455693086609244" lon="8.768900753930211">
        <ele>1460.3800000000001</ele>
        <time>2018-03-25T13:38:50Z</time>
      </trkpt>
      <trkpt lat="46.455759136006236" lon="8.768929252400994">
        <ele>1458.9400000000001</ele>
        <time>2018-03-25T13:39:01Z</time>
      </trkpt>
      <trkpt lat="46.455779923126101" lon="8.768940148875117">
        <ele>1459.4200000000001</ele>
        <time>2018-03-25T13:39:04Z</time>
      </trkpt>
      <trkpt lat="46.4558956772089" lon="8.768983483314514">
        <ele>1459.4200000000001</ele>
        <time>2018-03-25T13:39:15Z</time>
      </trkpt>
      <trkpt lat="46.45590933971107" lon="8.768997145816684">
        <ele>1459.4200000000001</ele>
        <time>2018-03-25T13:39:17Z</time>
      </trkpt>
      <trkpt lat="46.45596407353878" lon="8.769043330103159">
        <ele>1458.46</ele>
        <time>2018-03-25T13:39:23Z</time>
      </trkpt>
      <trkpt lat="46.456004809588194" lon="8.769058668985963">
        <ele>1457.98</ele>
        <time>2018-03-25T13:39:27Z</time>
      </trkpt>
      <trkpt lat="46.456096926704049" lon="8.76909420825541">
        <ele>1457.02</ele>
        <time>2018-03-25T13:39:37Z</time>
      </trkpt>
      <trkpt lat="46.45616440102458" lon="8.769146343693137">
        <ele>1456.05</ele>
        <time>2018-03-25T13:39:45Z</time>
      </trkpt>
      <trkpt lat="46.456183763220906" lon="8.769195377826691">
        <ele>1456.05</ele>
        <time>2018-03-25T13:39:54Z</time>
      </trkpt>
      <trkpt lat="46.45617269910872" lon="8.769202837720513">
        <ele>1456.05</ele>
        <time>2018-03-25T13:40:06Z</time>
      </trkpt>
      <trkpt lat="46.456194492056966" lon="8.769201664254069">
        <ele>1455.5699999999999</ele>
        <time>2018-03-25T13:40:08Z</time>
      </trkpt>
      <trkpt lat="46.456240843981504" lon="8.76922613941133">
        <ele>1455.5699999999999</ele>
        <time>2018-03-25T13:40:13Z</time>
      </trkpt>
      <trkpt lat="46.456284765154123" lon="8.769242819398642">
        <ele>1455.0899999999999</ele>
        <time>2018-03-25T13:40:18Z</time>
      </trkpt>
      <trkpt lat="46.456397166475654" lon="8.769292691722512">
        <ele>1453.6500000000001</ele>
        <time>2018-03-25T13:40:29Z</time>
      </trkpt>
      <trkpt lat="46.456500850617886" lon="8.769320687279105">
        <ele>1452.6900000000001</ele>
        <time>2018-03-25T13:40:38Z</time>
      </trkpt>
      <trkpt lat="46.45654602907598" lon="8.769349940121174">
        <ele>1451.73</ele>
        <time>2018-03-25T13:40:43Z</time>
      </trkpt>
      <trkpt lat="46.45656606182456" lon="8.76935756765306">
        <ele>1451.25</ele>
        <time>2018-03-25T13:40:45Z</time>
      </trkpt>
      <trkpt lat="46.456634709611535" lon="8.769406015053392">
        <ele>1449.8099999999999</ele>
        <time>2018-03-25T13:40:53Z</time>
      </trkpt>
      <trkpt lat="46.456677205860615" lon="8.76942009665072">
        <ele>1449.3199999999999</ele>
        <time>2018-03-25T13:40:59Z</time>
      </trkpt>
      <trkpt lat="46.456753062084317" lon="8.769410122185946">
        <ele>1448.8399999999999</ele>
        <time>2018-03-25T13:41:10Z</time>
      </trkpt>
      <trkpt lat="46.456783236935735" lon="8.769389586523175">
        <ele>1449.3199999999999</ele>
        <time>2018-03-25T13:41:17Z</time>
      </trkpt>
      <trkpt lat="46.456870995461941" lon="8.769401907920837">
        <ele>1449.3199999999999</ele>
        <time>2018-03-25T13:41:27Z</time>
      </trkpt>
      <trkpt lat="46.456927321851254" lon="8.769419342279434">
        <ele>1448.8399999999999</ele>
        <time>2018-03-25T13:41:33Z</time>
      </trkpt>
      <trkpt lat="46.457000831142068" lon="8.769439877942205">
        <ele>1447.8800000000001</ele>
        <time>2018-03-25T13:41:41Z</time>
      </trkpt>
      <trkpt lat="46.457112142816186" lon="8.769442392513156">
        <ele>1446.9200000000001</ele>
        <time>2018-03-25T13:41:52Z</time>
      </trkpt>
      <trkpt lat="46.457132510840893" lon="8.769420348107815">
        <ele>1446.4400000000001</ele>
        <time>2018-03-25T13:41:55Z</time>
      </trkpt>
      <trkpt lat="46.457174085080624" lon="8.769353963434696">
        <ele>1446.4400000000001</ele>
        <time>2018-03-25T13:42:03Z</time>
      </trkpt>
      <trkpt lat="46.457202415913343" lon="8.7693175021559">
        <ele>1445.96</ele>
        <time>2018-03-25T13:42:06Z</time>
      </trkpt>
      <trkpt lat="46.45731464959681" lon="8.769250027835369">
        <ele>1445.96</ele>
        <time>2018-03-25T13:42:16Z</time>
      </trkpt>
      <trkpt lat="46.457423027604818" lon="8.769213231280446">
        <ele>1445</ele>
        <time>2018-03-25T13:42:26Z</time>
      </trkpt>
      <trkpt lat="46.457521179690957" lon="8.769202753901482">
        <ele>1444.52</ele>
        <time>2018-03-25T13:42:34Z</time>
      </trkpt>
      <trkpt lat="46.457612123340368" lon="8.769178362563252">
        <ele>1443.0799999999999</ele>
        <time>2018-03-25T13:42:42Z</time>
      </trkpt>
      <trkpt lat="46.457688063383102" lon="8.769135447219014">
        <ele>1441.6300000000001</ele>
        <time>2018-03-25T13:42:52Z</time>
      </trkpt>
      <trkpt lat="46.45782426930964" lon="8.769127568230033">
        <ele>1441.1500000000001</ele>
        <time>2018-03-25T13:43:02Z</time>
      </trkpt>
      <trkpt lat="46.457913620397449" lon="8.769150283187628">
        <ele>1440.6700000000001</ele>
        <time>2018-03-25T13:43:11Z</time>
      </trkpt>
      <trkpt lat="46.458031553775072" lon="8.769122371450067">
        <ele>1440.1900000000001</ele>
        <time>2018-03-25T13:43:22Z</time>
      </trkpt>
      <trkpt lat="46.45810816437006" lon="8.769094543531537">
        <ele>1439.23</ele>
        <time>2018-03-25T13:43:30Z</time>
      </trkpt>
      <trkpt lat="46.458149822428823" lon="8.769090017303824">
        <ele>1439.71</ele>
        <time>2018-03-25T13:43:35Z</time>
      </trkpt>
      <trkpt lat="46.458198269829154" lon="8.769027488306165">
        <ele>1438.75</ele>
        <time>2018-03-25T13:43:41Z</time>
      </trkpt>
      <trkpt lat="46.458338582888246" lon="8.768950961530209">
        <ele>1436.8299999999999</ele>
        <time>2018-03-25T13:43:54Z</time>
      </trkpt>
      <trkpt lat="46.458459617570043" lon="8.76892707310617">
        <ele>1435.8699999999999</ele>
        <time>2018-03-25T13:44:05Z</time>
      </trkpt>
      <trkpt lat="46.458561876788735" lon="8.768874518573284">
        <ele>1435.3900000000001</ele>
        <time>2018-03-25T13:44:15Z</time>
      </trkpt>
      <trkpt lat="46.458658436313272" lon="8.768868902698159">
        <ele>1434.4200000000001</ele>
        <time>2018-03-25T13:44:23Z</time>
      </trkpt>
      <trkpt lat="46.458705374971032" lon="8.768886001780629">
        <ele>1433.9400000000001</ele>
        <time>2018-03-25T13:44:28Z</time>
      </trkpt>
      <trkpt lat="46.458797492086887" lon="8.768965126946569">
        <ele>1432.98</ele>
        <time>2018-03-25T13:44:38Z</time>
      </trkpt>
      <trkpt lat="46.458822470158339" lon="8.769013239070773">
        <ele>1432.5</ele>
        <time>2018-03-25T13:44:42Z</time>
      </trkpt>
      <trkpt lat="46.458932189270854" lon="8.769051628187299">
        <ele>1432.02</ele>
        <time>2018-03-25T13:44:52Z</time>
      </trkpt>
      <trkpt lat="46.458977200090885" lon="8.769075851887465">
        <ele>1431.54</ele>
        <time>2018-03-25T13:44:56Z</time>
      </trkpt>
      <trkpt lat="46.459095636382699" lon="8.76911667175591">
        <ele>1430.0999999999999</ele>
        <time>2018-03-25T13:45:06Z</time>
      </trkpt>
      <trkpt lat="46.459198649972677" lon="8.769165622070432">
        <ele>1428.6600000000001</ele>
        <time>2018-03-25T13:45:15Z</time>
      </trkpt>
      <trkpt lat="46.459280457347631" lon="8.769199065864086">
        <ele>1427.7</ele>
        <time>2018-03-25T13:45:23Z</time>
      </trkpt>
      <trkpt lat="46.459378525614738" lon="8.769251704216003">
        <ele>1426.73</ele>
        <time>2018-03-25T13:45:32Z</time>
      </trkpt>
      <trkpt lat="46.459459578618407" lon="8.769279448315501">
        <ele>1425.77</ele>
        <time>2018-03-25T13:45:40Z</time>
      </trkpt>
      <trkpt lat="46.459514144808054" lon="8.769297888502479">
        <ele>1425.29</ele>
        <time>2018-03-25T13:45:51Z</time>
      </trkpt>
      <trkpt lat="46.459598131477833" lon="8.769322112202644">
        <ele>1424.3299999999999</ele>
        <time>2018-03-25T13:45:58Z</time>
      </trkpt>
      <trkpt lat="46.459606932476163" lon="8.769324542954564">
        <ele>1423.8499999999999</ele>
        <time>2018-03-25T13:45:59Z</time>
      </trkpt>
      <trkpt lat="46.459705755114555" lon="8.769330997020006">
        <ele>1423.3699999999999</ele>
        <time>2018-03-25T13:46:08Z</time>
      </trkpt>
      <trkpt lat="46.459727045148611" lon="8.769332254305482">
        <ele>1423.3699999999999</ele>
        <time>2018-03-25T13:46:10Z</time>
      </trkpt>
      <trkpt lat="46.459751352667809" lon="8.769328650087118">
        <ele>1422.8900000000001</ele>
        <time>2018-03-25T13:46:12Z</time>
      </trkpt>
      <trkpt lat="46.459846738725901" lon="8.769367123022676">
        <ele>1421.45</ele>
        <time>2018-03-25T13:46:22Z</time>
      </trkpt>
      <trkpt lat="46.45987649448216" lon="8.76937760040164">
        <ele>1421.9300000000001</ele>
        <time>2018-03-25T13:46:31Z</time>
      </trkpt>
      <trkpt lat="46.459864089265466" lon="8.7693883292377">
        <ele>1420.97</ele>
        <time>2018-03-25T13:46:44Z</time>
      </trkpt>
      <trkpt lat="46.459861574694514" lon="8.769381539896131">
        <ele>1420.49</ele>
        <time>2018-03-25T13:46:58Z</time>
      </trkpt>
      <trkpt lat="46.459896443411708" lon="8.769391598179936">
        <ele>1420.49</ele>
        <time>2018-03-25T13:47:19Z</time>
      </trkpt>
      <trkpt lat="46.459912117570639" lon="8.769397381693125">
        <ele>1417.1199999999999</ele>
        <time>2018-03-25T13:47:24Z</time>
      </trkpt>
      <trkpt lat="46.459911866113544" lon="8.769392687827349">
        <ele>1420</ele>
        <time>2018-03-25T13:47:27Z</time>
      </trkpt>
      <trkpt lat="46.459924187511206" lon="8.7693883292377">
        <ele>1420.49</ele>
        <time>2018-03-25T13:47:38Z</time>
      </trkpt>
      <trkpt lat="46.45990046672523" lon="8.769387742504478">
        <ele>1420.97</ele>
        <time>2018-03-25T13:47:45Z</time>
      </trkpt>
      <trkpt lat="46.459895940497518" lon="8.769384305924177">
        <ele>1421.45</ele>
        <time>2018-03-25T13:47:56Z</time>
      </trkpt>
      <trkpt lat="46.459873644635081" lon="8.769404925405979">
        <ele>1421.45</ele>
        <time>2018-03-25T13:48:06Z</time>
      </trkpt>
      <trkpt lat="46.45985746756196" lon="8.769395789131522">
        <ele>1421.45</ele>
        <time>2018-03-25T13:48:21Z</time>
      </trkpt>
      <trkpt lat="46.459869369864464" lon="8.769387239590287">
        <ele>1420.97</ele>
        <time>2018-03-25T13:48:35Z</time>
      </trkpt>
      <trkpt lat="46.459872471168637" lon="8.769373660907149">
        <ele>1420.49</ele>
        <time>2018-03-25T13:48:47Z</time>
      </trkpt>
      <trkpt lat="46.459881942719221" lon="8.769357819110155">
        <ele>1420</ele>
        <time>2018-03-25T13:49:02Z</time>
      </trkpt>
      <trkpt lat="46.459880769252777" lon="8.769372571259737">
        <ele>1420.49</ele>
        <time>2018-03-25T13:49:17Z</time>
      </trkpt>
      <trkpt lat="46.459892587736249" lon="8.769400902092457">
        <ele>1420.97</ele>
        <time>2018-03-25T13:49:27Z</time>
      </trkpt>
      <trkpt lat="46.459890324622393" lon="8.769416576251388">
        <ele>1420.97</ele>
        <time>2018-03-25T13:49:38Z</time>
      </trkpt>
      <trkpt lat="46.45987163297832" lon="8.769430071115494">
        <ele>1420.97</ele>
        <time>2018-03-25T13:49:55Z</time>
      </trkpt>
      <trkpt lat="46.459907926619053" lon="8.769386820495129">
        <ele>1420.97</ele>
        <time>2018-03-25T13:50:09Z</time>
      </trkpt>
      <trkpt lat="46.459885882213712" lon="8.769395034760237">
        <ele>1420.49</ele>
        <time>2018-03-25T13:50:24Z</time>
      </trkpt>
      <trkpt lat="46.459901304915547" lon="8.769412133842707">
        <ele>1420.49</ele>
        <time>2018-03-25T13:50:34Z</time>
      </trkpt>
      <trkpt lat="46.45993173122406" lon="8.769412972033024">
        <ele>1420.49</ele>
        <time>2018-03-25T13:50:45Z</time>
      </trkpt>
      <trkpt lat="46.46004606038332" lon="8.769435603171587">
        <ele>1420.49</ele>
        <time>2018-03-25T13:50:56Z</time>
      </trkpt>
      <trkpt lat="46.460107835009694" lon="8.769470555707812">
        <ele>1420</ele>
        <time>2018-03-25T13:51:04Z</time>
      </trkpt>
      <trkpt lat="46.460102889686823" lon="8.769460329785943">
        <ele>1420</ele>
        <time>2018-03-25T13:51:16Z</time>
      </trkpt>
      <trkpt lat="46.460147397592664" lon="8.769482122734189">
        <ele>1419.52</ele>
        <time>2018-03-25T13:51:20Z</time>
      </trkpt>
      <trkpt lat="46.460232557728887" lon="8.76952076330781">
        <ele>1419.52</ele>
        <time>2018-03-25T13:51:29Z</time>
      </trkpt>
      <trkpt lat="46.460295086726546" lon="8.769574323669076">
        <ele>1420</ele>
        <time>2018-03-25T13:51:36Z</time>
      </trkpt>
      <trkpt lat="46.46032408811152" lon="8.769597290083766">
        <ele>1419.52</ele>
        <time>2018-03-25T13:51:39Z</time>
      </trkpt>
      <trkpt lat="46.460343198850751" lon="8.769617741927505">
        <ele>1419.52</ele>
        <time>2018-03-25T13:51:41Z</time>
      </trkpt>
      <trkpt lat="46.460428275167942" lon="8.769641295075417">
        <ele>1418.5599999999999</ele>
        <time>2018-03-25T13:51:49Z</time>
      </trkpt>
      <trkpt lat="46.460534976795316" lon="8.769695442169905">
        <ele>1418.0799999999999</ele>
        <time>2018-03-25T13:51:59Z</time>
      </trkpt>
      <trkpt lat="46.460539922118187" lon="8.769697118550539">
        <ele>1417.5999999999999</ele>
        <time>2018-03-25T13:52:00Z</time>
      </trkpt>
      <trkpt lat="46.460658442229033" lon="8.769700387492776">
        <ele>1417.5999999999999</ele>
        <time>2018-03-25T13:52:11Z</time>
      </trkpt>
      <trkpt lat="46.46075407974422" lon="8.769696364179254">
        <ele>1417.5999999999999</ele>
        <time>2018-03-25T13:52:21Z</time>
      </trkpt>
      <trkpt lat="46.460860362276435" lon="8.769702147692442">
        <ele>1416.6400000000001</ele>
        <time>2018-03-25T13:52:30Z</time>
      </trkpt>
      <trkpt lat="46.460972763597965" lon="8.76971086487174">
        <ele>1415.6800000000001</ele>
        <time>2018-03-25T13:52:40Z</time>
      </trkpt>
      <trkpt lat="46.461082482710481" lon="8.769722683355212">
        <ele>1415.2</ele>
        <time>2018-03-25T13:52:49Z</time>
      </trkpt>
      <trkpt lat="46.461133193224669" lon="8.769725868478417">
        <ele>1414.72</ele>
        <time>2018-03-25T13:52:54Z</time>
      </trkpt>
      <trkpt lat="46.461272751912475" lon="8.769729975610972">
        <ele>1412.79</ele>
        <time>2018-03-25T13:53:06Z</time>
      </trkpt>
      <trkpt lat="46.461378447711468" lon="8.769771633669734">
        <ele>1412.3099999999999</ele>
        <time>2018-03-25T13:53:15Z</time>
      </trkpt>
      <trkpt lat="46.46144307218492" lon="8.769840365275741">
        <ele>1412.3099999999999</ele>
        <time>2018-03-25T13:53:22Z</time>
      </trkpt>
      <trkpt lat="46.461464781314135" lon="8.769834497943521">
        <ele>1411.8299999999999</ele>
        <time>2018-03-25T13:53:24Z</time>
      </trkpt>
      <trkpt lat="46.461529238149524" lon="8.769807508215308">
        <ele>1411.3499999999999</ele>
        <time>2018-03-25T13:53:34Z</time>
      </trkpt>
      <trkpt lat="46.461644321680069" lon="8.769754450768232">
        <ele>1410.8699999999999</ele>
        <time>2018-03-25T13:53:44Z</time>
      </trkpt>
      <trkpt lat="46.461663348600268" lon="8.769740620627999">
        <ele>1410.8699999999999</ele>
        <time>2018-03-25T13:53:46Z</time>
      </trkpt>
      <trkpt lat="46.4617117960006" lon="8.769688820466399">
        <ele>1410.8699999999999</ele>
        <time>2018-03-25T13:53:51Z</time>
      </trkpt>
      <trkpt lat="46.461763931438327" lon="8.769638948142529">
        <ele>1410.3900000000001</ele>
        <time>2018-03-25T13:53:56Z</time>
      </trkpt>
      <trkpt lat="46.46179486066103" lon="8.769611455500126">
        <ele>1409.9100000000001</ele>
        <time>2018-03-25T13:54:00Z</time>
      </trkpt>
      <trkpt lat="46.461826208978891" lon="8.769596619531512">
        <ele>1409.4300000000001</ele>
        <time>2018-03-25T13:54:03Z</time>
      </trkpt>
      <trkpt lat="46.461885133758187" lon="8.769534006714821">
        <ele>1409.9100000000001</ele>
        <time>2018-03-25T13:54:10Z</time>
      </trkpt>
      <trkpt lat="46.461899634450674" lon="8.769513051956892">
        <ele>1409.9100000000001</ele>
        <time>2018-03-25T13:54:12Z</time>
      </trkpt>
      <trkpt lat="46.461988063529134" lon="8.769437447190285">
        <ele>1409.4300000000001</ele>
        <time>2018-03-25T13:54:22Z</time>
      </trkpt>
      <trkpt lat="46.462081437930465" lon="8.769378354772925">
        <ele>1408.47</ele>
        <time>2018-03-25T13:54:32Z</time>
      </trkpt>
      <trkpt lat="46.462151343002915" lon="8.76932236365974">
        <ele>1408.47</ele>
        <time>2018-03-25T13:54:38Z</time>
      </trkpt>
      <trkpt lat="46.462173638865352" lon="8.769307024776936">
        <ele>1408.47</ele>
        <time>2018-03-25T13:54:40Z</time>
      </trkpt>
      <trkpt lat="46.462257876992226" lon="8.769224295392633">
        <ele>1408.95</ele>
        <time>2018-03-25T13:54:49Z</time>
      </trkpt>
      <trkpt lat="46.46235678344965" lon="8.769158162176609">
        <ele>1407.51</ele>
        <time>2018-03-25T13:54:57Z</time>
      </trkpt>
      <trkpt lat="46.462502125650644" lon="8.769173584878445">
        <ele>1407.03</ele>
        <time>2018-03-25T13:55:08Z</time>
      </trkpt>
      <trkpt lat="46.46260597743094" lon="8.769211387261748">
        <ele>1406.0699999999999</ele>
        <time>2018-03-25T13:55:17Z</time>
      </trkpt>
      <trkpt lat="46.462612682953477" lon="8.769213315099478">
        <ele>1406.0699999999999</ele>
        <time>2018-03-25T13:55:18Z</time>
      </trkpt>
      <trkpt lat="46.462663225829601" lon="8.769209459424019">
        <ele>1405.5799999999999</ele>
        <time>2018-03-25T13:55:22Z</time>
      </trkpt>
      <trkpt lat="46.462801191955805" lon="8.769187750294805">
        <ele>1403.6600000000001</ele>
        <time>2018-03-25T13:55:34Z</time>
      </trkpt>
      <trkpt lat="46.462864056229591" lon="8.769157743081451">
        <ele>1403.1800000000001</ele>
        <time>2018-03-25T13:55:39Z</time>
      </trkpt>
      <trkpt lat="46.462959945201874" lon="8.769091106951237">
        <ele>1401.74</ele>
        <time>2018-03-25T13:55:47Z</time>
      </trkpt>
      <trkpt lat="46.463063796982169" lon="8.76904827542603">
        <ele>1400.78</ele>
        <time>2018-03-25T13:55:57Z</time>
      </trkpt>
      <trkpt lat="46.463178880512714" lon="8.7690360378474">
        <ele>1398.8599999999999</ele>
        <time>2018-03-25T13:56:07Z</time>
      </trkpt>
      <trkpt lat="46.463293628767133" lon="8.769076187163591">
        <ele>1397.8900000000001</ele>
        <time>2018-03-25T13:56:16Z</time>
      </trkpt>
      <trkpt lat="46.463414495810866" lon="8.769122203812003">
        <ele>1396.45</ele>
        <time>2018-03-25T13:56:26Z</time>
      </trkpt>
      <trkpt lat="46.46350309252739" lon="8.76913083717227">
        <ele>1396.45</ele>
        <time>2018-03-25T13:56:34Z</time>
      </trkpt>
      <trkpt lat="46.463527651503682" lon="8.769127735868096">
        <ele>1395.97</ele>
        <time>2018-03-25T13:56:36Z</time>
      </trkpt>
      <trkpt lat="46.463637538254261" lon="8.769091106951237">
        <ele>1395.01</ele>
        <time>2018-03-25T13:56:46Z</time>
      </trkpt>
      <trkpt lat="46.463759494945407" lon="8.769012317061424">
        <ele>1393.5699999999999</ele>
        <time>2018-03-25T13:56:58Z</time>
      </trkpt>
      <trkpt lat="46.463789250701666" lon="8.768972838297486">
        <ele>1393.0899999999999</ele>
        <time>2018-03-25T13:57:02Z</time>
      </trkpt>
      <trkpt lat="46.463829902932048" lon="8.768898909911513">
        <ele>1393.0899999999999</ele>
        <time>2018-03-25T13:57:09Z</time>
      </trkpt>
      <trkpt lat="46.463848678395152" lon="8.768871501088142">
        <ele>1393.0899999999999</ele>
        <time>2018-03-25T13:57:12Z</time>
      </trkpt>
      <trkpt lat="46.46393165923655" lon="8.768803859129548">
        <ele>1393.5699999999999</ele>
        <time>2018-03-25T13:57:21Z</time>
      </trkpt>
      <trkpt lat="46.463957307860255" lon="8.768791202455759">
        <ele>1393.5699999999999</ele>
        <time>2018-03-25T13:57:23Z</time>
      </trkpt>
      <trkpt lat="46.463974826037884" lon="8.768789358437061">
        <ele>1393.0899999999999</ele>
        <time>2018-03-25T13:57:25Z</time>
      </trkpt>
      <trkpt lat="46.464079851284623" lon="8.768758596852422">
        <ele>1391.6500000000001</ele>
        <time>2018-03-25T13:57:35Z</time>
      </trkpt>
      <trkpt lat="46.464089825749397" lon="8.768757088109851">
        <ele>1391.6500000000001</ele>
        <time>2018-03-25T13:57:36Z</time>
      </trkpt>
      <trkpt lat="46.464156294241548" lon="8.768725488334894">
        <ele>1390.2</ele>
        <time>2018-03-25T13:57:45Z</time>
      </trkpt>
      <trkpt lat="46.464218404144049" lon="8.768701935186982">
        <ele>1389.72</ele>
        <time>2018-03-25T13:57:53Z</time>
      </trkpt>
      <trkpt lat="46.464295601472259" lon="8.768679136410356">
        <ele>1388.28</ele>
        <time>2018-03-25T13:57:59Z</time>
      </trkpt>
      <trkpt lat="46.464364752173424" lon="8.768635634332895">
        <ele>1386.8399999999999</ele>
        <time>2018-03-25T13:58:06Z</time>
      </trkpt>
      <trkpt lat="46.464437171816826" lon="8.768577128648758">
        <ele>1386.3599999999999</ele>
        <time>2018-03-25T13:58:13Z</time>
      </trkpt>
      <trkpt lat="46.464469525963068" lon="8.768561789765954">
        <ele>1386.3599999999999</ele>
        <time>2018-03-25T13:58:17Z</time>
      </trkpt>
      <trkpt lat="46.464615957811475" lon="8.768560448661447">
        <ele>1385.4000000000001</ele>
        <time>2018-03-25T13:58:29Z</time>
      </trkpt>
      <trkpt lat="46.464663315564394" lon="8.768556090071797">
        <ele>1384.4400000000001</ele>
        <time>2018-03-25T13:58:33Z</time>
      </trkpt>
      <trkpt lat="46.464735148474574" lon="8.768535386770964">
        <ele>1383.47</ele>
        <time>2018-03-25T13:58:40Z</time>
      </trkpt>
      <trkpt lat="46.464760126546025" lon="8.768524071201682">
        <ele>1382.99</ele>
        <time>2018-03-25T13:58:42Z</time>
      </trkpt>
      <trkpt lat="46.464885771274567" lon="8.76850051805377">
        <ele>1381.55</ele>
        <time>2018-03-25T13:58:52Z</time>
      </trkpt>
      <trkpt lat="46.464912509545684" lon="8.768494483083487">
        <ele>1381.0699999999999</ele>
        <time>2018-03-25T13:58:54Z</time>
      </trkpt>
      <trkpt lat="46.465037316083908" lon="8.768463470041752">
        <ele>1378.6700000000001</ele>
        <time>2018-03-25T13:59:06Z</time>
      </trkpt>
      <trkpt lat="46.465082578361034" lon="8.768450981006026">
        <ele>1377.71</ele>
        <time>2018-03-25T13:59:16Z</time>
      </trkpt>
      <trkpt lat="46.465091966092587" lon="8.768444946035743">
        <ele>1377.23</ele>
        <time>2018-03-25T13:59:29Z</time>
      </trkpt>
      <trkpt lat="46.465117949992418" lon="8.768448047339916">
        <ele>1377.71</ele>
        <time>2018-03-25T13:59:48Z</time>
      </trkpt>
      <trkpt lat="46.465098252519965" lon="8.768436145037413">
        <ele>1377.23</ele>
        <time>2018-03-25T14:00:10Z</time>
      </trkpt>
      <trkpt lat="46.465084506198764" lon="8.768444191664457">
        <ele>1377.71</ele>
        <time>2018-03-25T14:00:22Z</time>
      </trkpt>
      <trkpt lat="46.465070843696594" lon="8.768470846116543">
        <ele>1377.71</ele>
        <time>2018-03-25T14:00:36Z</time>
      </trkpt>
      <trkpt lat="46.46508039906621" lon="8.768451735377312">
        <ele>1377.71</ele>
        <time>2018-03-25T14:00:46Z</time>
      </trkpt>
      <trkpt lat="46.46508676931262" lon="8.768482832238078">
        <ele>1377.71</ele>
        <time>2018-03-25T14:00:58Z</time>
      </trkpt>
      <trkpt lat="46.465077213943005" lon="8.768514599651098">
        <ele>1377.71</ele>
        <time>2018-03-25T14:01:15Z</time>
      </trkpt>
      <trkpt lat="46.465077549219131" lon="8.768504709005356">
        <ele>1377.71</ele>
        <time>2018-03-25T14:01:32Z</time>
      </trkpt>
      <trkpt lat="46.465063216164708" lon="8.768500937148929">
        <ele>1377.71</ele>
        <time>2018-03-25T14:01:47Z</time>
      </trkpt>
      <trkpt lat="46.465097079053521" lon="8.768486184999347">
        <ele>1376.75</ele>
        <time>2018-03-25T14:02:06Z</time>
      </trkpt>
      <trkpt lat="46.465096240863204" lon="8.768480150029063">
        <ele>1377.23</ele>
        <time>2018-03-25T14:02:19Z</time>
      </trkpt>
      <trkpt lat="46.465085260570049" lon="8.768481323495507">
        <ele>1377.71</ele>
        <time>2018-03-25T14:02:30Z</time>
      </trkpt>
      <trkpt lat="46.465107807889581" lon="8.768450561910868">
        <ele>1377.71</ele>
        <time>2018-03-25T14:02:44Z</time>
      </trkpt>
      <trkpt lat="46.465096157044172" lon="8.768480317667127">
        <ele>1377.71</ele>
        <time>2018-03-25T14:03:01Z</time>
      </trkpt>
      <trkpt lat="46.465087523683906" lon="8.768486184999347">
        <ele>1377.23</ele>
        <time>2018-03-25T14:03:12Z</time>
      </trkpt>
      <trkpt lat="46.46509020589292" lon="8.768486855551601">
        <ele>1377.23</ele>
        <time>2018-03-25T14:03:30Z</time>
      </trkpt>
      <trkpt lat="46.465102527290583" lon="8.768472438678145">
        <ele>1377.23</ele>
        <time>2018-03-25T14:03:49Z</time>
      </trkpt>
      <trkpt lat="46.465103700757027" lon="8.768498422577977">
        <ele>1377.23</ele>
        <time>2018-03-25T14:04:03Z</time>
      </trkpt>
      <trkpt lat="46.465098671615124" lon="8.768492136150599">
        <ele>1377.23</ele>
        <time>2018-03-25T14:04:10Z</time>
      </trkpt>
      <trkpt lat="46.465107221156359" lon="8.768500098958612">
        <ele>1377.23</ele>
        <time>2018-03-25T14:04:23Z</time>
      </trkpt>
      <trkpt lat="46.46509557031095" lon="8.768530189990997">
        <ele>1377.23</ele>
        <time>2018-03-25T14:04:37Z</time>
      </trkpt>
      <trkpt lat="46.465097749605775" lon="8.768536057323217">
        <ele>1377.23</ele>
        <time>2018-03-25T14:04:53Z</time>
      </trkpt>
      <trkpt lat="46.46509020589292" lon="8.768570339307189">
        <ele>1377.23</ele>
        <time>2018-03-25T14:05:11Z</time>
      </trkpt>
      <trkpt lat="46.46508626639843" lon="8.768596993759275">
        <ele>1377.23</ele>
        <time>2018-03-25T14:05:33Z</time>
      </trkpt>
      <trkpt lat="46.465122140944004" lon="8.768465146422386">
        <ele>1377.23</ele>
        <time>2018-03-25T14:05:49Z</time>
      </trkpt>
      <trkpt lat="46.465160697698593" lon="8.768376968801022">
        <ele>1376.75</ele>
        <time>2018-03-25T14:05:57Z</time>
      </trkpt>
      <trkpt lat="46.465183664113283" lon="8.768323073163629">
        <ele>1376.75</ele>
        <time>2018-03-25T14:06:08Z</time>
      </trkpt>
      <trkpt lat="46.465224819257855" lon="8.768264651298523">
        <ele>1377.23</ele>
        <time>2018-03-25T14:06:17Z</time>
      </trkpt>
      <trkpt lat="46.465284330770373" lon="8.768199775367975">
        <ele>1378.1900000000001</ele>
        <time>2018-03-25T14:06:25Z</time>
      </trkpt>
      <trkpt lat="46.465298244729638" lon="8.768156608566642">
        <ele>1378.1900000000001</ele>
        <time>2018-03-25T14:06:29Z</time>
      </trkpt>
      <trkpt lat="46.4653295930475" lon="8.768112938851118">
        <ele>1378.1900000000001</ele>
        <time>2018-03-25T14:06:34Z</time>
      </trkpt>
      <trkpt lat="46.465396815910935" lon="8.767987713217735">
        <ele>1379.6300000000001</ele>
        <time>2018-03-25T14:06:46Z</time>
      </trkpt>
      <trkpt lat="46.465436546131968" lon="8.767924597486854">
        <ele>1379.6300000000001</ele>
        <time>2018-03-25T14:06:52Z</time>
      </trkpt>
      <trkpt lat="46.465479545295238" lon="8.767807837575674">
        <ele>1380.5899999999999</ele>
        <time>2018-03-25T14:07:02Z</time>
      </trkpt>
      <trkpt lat="46.465506451204419" lon="8.76772116869688">
        <ele>1381.0699999999999</ele>
        <time>2018-03-25T14:07:10Z</time>
      </trkpt>
      <trkpt lat="46.465534446761012" lon="8.767588147893548">
        <ele>1381.55</ele>
        <time>2018-03-25T14:07:21Z</time>
      </trkpt>
      <trkpt lat="46.465535536408424" lon="8.767574653029442">
        <ele>1382.03</ele>
        <time>2018-03-25T14:07:22Z</time>
      </trkpt>
      <trkpt lat="46.46555338986218" lon="8.767544310539961">
        <ele>1382.03</ele>
        <time>2018-03-25T14:07:25Z</time>
      </trkpt>
      <trkpt lat="46.465678950771689" lon="8.767554871737957">
        <ele>1382.51</ele>
        <time>2018-03-25T14:07:36Z</time>
      </trkpt>
      <trkpt lat="46.46578112617135" lon="8.767597787082195">
        <ele>1382.03</ele>
        <time>2018-03-25T14:07:46Z</time>
      </trkpt>
      <trkpt lat="46.465882044285536" lon="8.767623268067837">
        <ele>1382.03</ele>
        <time>2018-03-25T14:07:56Z</time>
      </trkpt>
      <trkpt lat="46.465956391766667" lon="8.767640115693212">
        <ele>1382.51</ele>
        <time>2018-03-25T14:08:04Z</time>
      </trkpt>
      <trkpt lat="46.466072229668498" lon="8.767691999673843">
        <ele>1382.51</ele>
        <time>2018-03-25T14:08:15Z</time>
      </trkpt>
      <trkpt lat="46.466202232986689" lon="8.76768940128386">
        <ele>1382.51</ele>
        <time>2018-03-25T14:08:26Z</time>
      </trkpt>
      <trkpt lat="46.466297199949622" lon="8.767632991075516">
        <ele>1382.03</ele>
        <time>2018-03-25T14:08:36Z</time>
      </trkpt>
      <trkpt lat="46.466380851343274" lon="8.7675975356251">
        <ele>1382.03</ele>
        <time>2018-03-25T14:08:48Z</time>
      </trkpt>
      <trkpt lat="46.466462491080165" lon="8.767603570595384">
        <ele>1380.5899999999999</ele>
        <time>2018-03-25T14:09:00Z</time>
      </trkpt>
      <trkpt lat="46.466565085574985" lon="8.767612287774682">
        <ele>1379.1500000000001</ele>
        <time>2018-03-25T14:09:10Z</time>
      </trkpt>
      <trkpt lat="46.466626022011042" lon="8.767674397677183">
        <ele>1379.1500000000001</ele>
        <time>2018-03-25T14:09:17Z</time>
      </trkpt>
      <trkpt lat="46.46664940752089" lon="8.76768889836967">
        <ele>1379.1500000000001</ele>
        <time>2018-03-25T14:09:19Z</time>
      </trkpt>
      <trkpt lat="46.466742865741253" lon="8.767751846462488">
        <ele>1378.1900000000001</ele>
        <time>2018-03-25T14:09:29Z</time>
      </trkpt>
      <trkpt lat="46.466781171038747" lon="8.767758635804057">
        <ele>1376.75</ele>
        <time>2018-03-25T14:09:34Z</time>
      </trkpt>
      <trkpt lat="46.466862726956606" lon="8.767713960260153">
        <ele>1374.3399999999999</ele>
        <time>2018-03-25T14:09:44Z</time>
      </trkpt>
      <trkpt lat="46.466923663392663" lon="8.767701303586364">
        <ele>1372.4200000000001</ele>
        <time>2018-03-25T14:09:52Z</time>
      </trkpt>
      <trkpt lat="46.467030784115195" lon="8.767729382961988">
        <ele>1369.54</ele>
        <time>2018-03-25T14:10:03Z</time>
      </trkpt>
      <trkpt lat="46.467117285355926" lon="8.767681773751974">
        <ele>1366.6500000000001</ele>
        <time>2018-03-25T14:10:13Z</time>
      </trkpt>
      <trkpt lat="46.467201942577958" lon="8.76769526861608">
        <ele>1364.73</ele>
        <time>2018-03-25T14:10:20Z</time>
      </trkpt>
      <trkpt lat="46.467265980318189" lon="8.767740279436112">
        <ele>1362.8099999999999</ele>
        <time>2018-03-25T14:10:27Z</time>
      </trkpt>
      <trkpt lat="46.467384165152907" lon="8.767796186730266">
        <ele>1361.3599999999999</ele>
        <time>2018-03-25T14:10:38Z</time>
      </trkpt>
      <trkpt lat="46.467414423823357" lon="8.767787301912904">
        <ele>1360.4000000000001</ele>
        <time>2018-03-25T14:10:43Z</time>
      </trkpt>
      <trkpt lat="46.467466559261084" lon="8.767745643854141">
        <ele>1358.96</ele>
        <time>2018-03-25T14:10:51Z</time>
      </trkpt>
      <trkpt lat="46.467570327222347" lon="8.767682276666164">
        <ele>1357.52</ele>
        <time>2018-03-25T14:11:01Z</time>
      </trkpt>
      <trkpt lat="46.467655403539538" lon="8.767659058794379">
        <ele>1356.0799999999999</ele>
        <time>2018-03-25T14:11:09Z</time>
      </trkpt>
      <trkpt lat="46.467798817902803" lon="8.767698537558317">
        <ele>1354.6300000000001</ele>
        <time>2018-03-25T14:11:21Z</time>
      </trkpt>
      <trkpt lat="46.467809211462736" lon="8.767705829814076">
        <ele>1354.1500000000001</ele>
        <time>2018-03-25T14:11:22Z</time>
      </trkpt>
      <trkpt lat="46.467903004959226" lon="8.767770957201719">
        <ele>1351.75</ele>
        <time>2018-03-25T14:11:33Z</time>
      </trkpt>
      <trkpt lat="46.467944998294115" lon="8.767796689644456">
        <ele>1350.79</ele>
        <time>2018-03-25T14:11:41Z</time>
      </trkpt>
      <trkpt lat="46.468026051297784" lon="8.767832480370998">
        <ele>1348.8699999999999</ele>
        <time>2018-03-25T14:11:51Z</time>
      </trkpt>
      <trkpt lat="46.468176506459713" lon="8.767910348251462">
        <ele>1345.98</ele>
        <time>2018-03-25T14:12:02Z</time>
      </trkpt>
      <trkpt lat="46.46826284006238" lon="8.767895009368658">
        <ele>1342.6199999999999</ele>
        <time>2018-03-25T14:12:13Z</time>
      </trkpt>
      <trkpt lat="46.468385215848684" lon="8.767898445948958">
        <ele>1340.7</ele>
        <time>2018-03-25T14:12:23Z</time>
      </trkpt>
      <trkpt lat="46.468484038487077" lon="8.76789752393961">
        <ele>1338.77</ele>
        <time>2018-03-25T14:12:34Z</time>
      </trkpt>
      <trkpt lat="46.468538604676723" lon="8.767954772338271">
        <ele>1336.3699999999999</ele>
        <time>2018-03-25T14:12:45Z</time>
      </trkpt>
      <trkpt lat="46.468580011278391" lon="8.767981845885515">
        <ele>1335.8900000000001</ele>
        <time>2018-03-25T14:12:49Z</time>
      </trkpt>
      <trkpt lat="46.468655867502093" lon="8.768006740137935">
        <ele>1333.97</ele>
        <time>2018-03-25T14:13:00Z</time>
      </trkpt>
      <trkpt lat="46.468702973797917" lon="8.768097851425409">
        <ele>1331.5599999999999</ele>
        <time>2018-03-25T14:13:09Z</time>
      </trkpt>
      <trkpt lat="46.468787882477045" lon="8.768175635486841">
        <ele>1328.2</ele>
        <time>2018-03-25T14:13:18Z</time>
      </trkpt>
      <trkpt lat="46.468864325433969" lon="8.768293233588338">
        <ele>1326.28</ele>
        <time>2018-03-25T14:13:27Z</time>
      </trkpt>
      <trkpt lat="46.468917215242982" lon="8.768339334055781">
        <ele>1324.8299999999999</ele>
        <time>2018-03-25T14:13:37Z</time>
      </trkpt>
      <trkpt lat="46.46900212392211" lon="8.768378896638751">
        <ele>1322.9100000000001</ele>
        <time>2018-03-25T14:13:47Z</time>
      </trkpt>
      <trkpt lat="46.469056019559503" lon="8.768430529162288">
        <ele>1320.51</ele>
        <time>2018-03-25T14:13:56Z</time>
      </trkpt>
      <trkpt lat="46.469106897711754" lon="8.768445113673806">
        <ele>1318.5899999999999</ele>
        <time>2018-03-25T14:14:05Z</time>
      </trkpt>
      <trkpt lat="46.469169091433287" lon="8.768494315445423">
        <ele>1315.22</ele>
        <time>2018-03-25T14:14:16Z</time>
      </trkpt>
      <trkpt lat="46.469276882708073" lon="8.768526501953602">
        <ele>1312.3399999999999</ele>
        <time>2018-03-25T14:14:27Z</time>
      </trkpt>
      <trkpt lat="46.469345781952143" lon="8.7685542460531">
        <ele>1309.45</ele>
        <time>2018-03-25T14:14:36Z</time>
      </trkpt>
      <trkpt lat="46.469376627355814" lon="8.768570339307189">
        <ele>1307.53</ele>
        <time>2018-03-25T14:14:45Z</time>
      </trkpt>
      <trkpt lat="46.469442006200552" lon="8.768642172217369">
        <ele>1304.1700000000001</ele>
        <time>2018-03-25T14:14:54Z</time>
      </trkpt>
      <trkpt lat="46.469494141638279" lon="8.768650302663446">
        <ele>1303.2</ele>
        <time>2018-03-25T14:14:57Z</time>
      </trkpt>
      <trkpt lat="46.469607381150126" lon="8.768722638487816">
        <ele>1300.8</ele>
        <time>2018-03-25T14:15:08Z</time>
      </trkpt>
      <trkpt lat="46.46962272003293" lon="8.768736636266112">
        <ele>1300.8</ele>
        <time>2018-03-25T14:15:10Z</time>
      </trkpt>
      <trkpt lat="46.469658343121409" lon="8.768770415335894">
        <ele>1299.3599999999999</ele>
        <time>2018-03-25T14:15:14Z</time>
      </trkpt>
      <trkpt lat="46.469735037535429" lon="8.768866891041398">
        <ele>1296.96</ele>
        <time>2018-03-25T14:15:23Z</time>
      </trkpt>
      <trkpt lat="46.469799242913723" lon="8.768927743658423">
        <ele>1294.55</ele>
        <time>2018-03-25T14:15:31Z</time>
      </trkpt>
      <trkpt lat="46.469879373908043" lon="8.769019693136215">
        <ele>1291.6700000000001</ele>
        <time>2018-03-25T14:15:40Z</time>
      </trkpt>
      <trkpt lat="46.469904435798526" lon="8.769068391993642">
        <ele>1292.1500000000001</ele>
        <time>2018-03-25T14:15:44Z</time>
      </trkpt>
      <trkpt lat="46.469964953139424" lon="8.769197640940547">
        <ele>1290.71</ele>
        <time>2018-03-25T14:15:54Z</time>
      </trkpt>
      <trkpt lat="46.470038713887334" lon="8.769287578761578">
        <ele>1289.27</ele>
        <time>2018-03-25T14:16:05Z</time>
      </trkpt>
      <trkpt lat="46.470108367502689" lon="8.769330577924848">
        <ele>1288.78</ele>
        <time>2018-03-25T14:16:14Z</time>
      </trkpt>
      <trkpt lat="46.470170309767127" lon="8.769357316195965">
        <ele>1288.3</ele>
        <time>2018-03-25T14:16:24Z</time>
      </trkpt>
      <trkpt lat="46.470180032774806" lon="8.769424790516496">
        <ele>1287.8199999999999</ele>
        <time>2018-03-25T14:16:36Z</time>
      </trkpt>
      <trkpt lat="46.470209201797843" lon="8.769424790516496">
        <ele>1287.8199999999999</ele>
        <time>2018-03-25T14:16:47Z</time>
      </trkpt>
      <trkpt lat="46.470270557329059" lon="8.769359411671758">
        <ele>1284.9400000000001</ele>
        <time>2018-03-25T14:16:57Z</time>
      </trkpt>
      <trkpt lat="46.47036544047296" lon="8.769353963434696">
        <ele>1283.5</ele>
        <time>2018-03-25T14:17:07Z</time>
      </trkpt>
      <trkpt lat="46.470476668328047" lon="8.769370140507817">
        <ele>1280.6099999999999</ele>
        <time>2018-03-25T14:17:18Z</time>
      </trkpt>
      <trkpt lat="46.470564175397158" lon="8.76936687156558">
        <ele>1278.6900000000001</ele>
        <time>2018-03-25T14:17:26Z</time>
      </trkpt>
      <trkpt lat="46.470657885074615" lon="8.769385647028685">
        <ele>1275.8099999999999</ele>
        <time>2018-03-25T14:17:35Z</time>
      </trkpt>
      <trkpt lat="46.470720078796148" lon="8.7694176658988">
        <ele>1273.4000000000001</ele>
        <time>2018-03-25T14:17:43Z</time>
      </trkpt>
      <trkpt lat="46.470835413783789" lon="8.769430071115494">
        <ele>1271.48</ele>
        <time>2018-03-25T14:17:54Z</time>
      </trkpt>
      <trkpt lat="46.470916634425521" lon="8.769454043358564">
        <ele>1269.0799999999999</ele>
        <time>2018-03-25T14:18:03Z</time>
      </trkpt>
      <trkpt lat="46.470970446243882" lon="8.76949293538928">
        <ele>1268.1199999999999</ele>
        <time>2018-03-25T14:18:07Z</time>
      </trkpt>
      <trkpt lat="46.470987042412162" lon="8.769528558477759">
        <ele>1267.1600000000001</ele>
        <time>2018-03-25T14:18:18Z</time>
      </trkpt>
      <trkpt lat="46.471023336052895" lon="8.769613970071077">
        <ele>1265.71</ele>
        <time>2018-03-25T14:18:25Z</time>
      </trkpt>
      <trkpt lat="46.471066083759069" lon="8.769738860428333">
        <ele>1263.3099999999999</ele>
        <time>2018-03-25T14:18:34Z</time>
      </trkpt>
      <trkpt lat="46.47110472433269" lon="8.769884537905455">
        <ele>1260.9100000000001</ele>
        <time>2018-03-25T14:18:42Z</time>
      </trkpt>
      <trkpt lat="46.471121739596128" lon="8.769932650029659">
        <ele>1259.46</ele>
        <time>2018-03-25T14:18:45Z</time>
      </trkpt>
      <trkpt lat="46.471172953024507" lon="8.770099868997932">
        <ele>1256.5799999999999</ele>
        <time>2018-03-25T14:18:56Z</time>
      </trkpt>
      <trkpt lat="46.471229949966073" lon="8.770218137651682">
        <ele>1253.7</ele>
        <time>2018-03-25T14:19:07Z</time>
      </trkpt>
      <trkpt lat="46.471286276355386" lon="8.770374711602926">
        <ele>1251.29</ele>
        <time>2018-03-25T14:19:16Z</time>
      </trkpt>
      <trkpt lat="46.471322989091277" lon="8.770440509542823">
        <ele>1249.8499999999999</ele>
        <time>2018-03-25T14:19:21Z</time>
      </trkpt>
      <trkpt lat="46.471394989639521" lon="8.770599849522114">
        <ele>1247.45</ele>
        <time>2018-03-25T14:19:32Z</time>
      </trkpt>
      <trkpt lat="46.471455171704292" lon="8.770717615261674">
        <ele>1245.53</ele>
        <time>2018-03-25T14:19:42Z</time>
      </trkpt>
      <trkpt lat="46.471495991572738" lon="8.770813923329115">
        <ele>1244.0799999999999</ele>
        <time>2018-03-25T14:19:49Z</time>
      </trkpt>
      <trkpt lat="46.471571428701282" lon="8.771007377654314">
        <ele>1242.1600000000001</ele>
        <time>2018-03-25T14:19:59Z</time>
      </trkpt>
      <trkpt lat="46.471589533612132" lon="8.771177781745791">
        <ele>1240.24</ele>
        <time>2018-03-25T14:20:09Z</time>
      </trkpt>
      <trkpt lat="46.471607303246856" lon="8.771324465051293">
        <ele>1237.8299999999999</ele>
        <time>2018-03-25T14:20:17Z</time>
      </trkpt>
      <trkpt lat="46.47160948254168" lon="8.771336283534765">
        <ele>1237.8299999999999</ele>
        <time>2018-03-25T14:20:18Z</time>
      </trkpt>
      <trkpt lat="46.471611158922315" lon="8.771366709843278">
        <ele>1237.3499999999999</ele>
        <time>2018-03-25T14:20:20Z</time>
      </trkpt>
      <trkpt lat="46.471630856394768" lon="8.77141322940588">
        <ele>1235.4300000000001</ele>
        <time>2018-03-25T14:20:30Z</time>
      </trkpt>
      <trkpt lat="46.471658432856202" lon="8.771457653492689">
        <ele>1233.99</ele>
        <time>2018-03-25T14:20:39Z</time>
      </trkpt>
      <trkpt lat="46.471658935770392" lon="8.771442733705044">
        <ele>1232.55</ele>
        <time>2018-03-25T14:20:49Z</time>
      </trkpt>
      <trkpt lat="46.471688188612461" lon="8.771491600200534">
        <ele>1231.5899999999999</ele>
        <time>2018-03-25T14:20:59Z</time>
      </trkpt>
      <trkpt lat="46.471718698740005" lon="8.771567540243268">
        <ele>1230.6199999999999</ele>
        <time>2018-03-25T14:21:08Z</time>
      </trkpt>
      <trkpt lat="46.471715345978737" lon="8.771730065345764">
        <ele>1228.7</ele>
        <time>2018-03-25T14:21:21Z</time>
      </trkpt>
      <trkpt lat="46.471743928268552" lon="8.771812207996845">
        <ele>1228.22</ele>
        <time>2018-03-25T14:21:28Z</time>
      </trkpt>
      <trkpt lat="46.471851300448179" lon="8.772053774446249">
        <ele>1227.74</ele>
        <time>2018-03-25T14:21:38Z</time>
      </trkpt>
      <trkpt lat="46.471883989870548" lon="8.772165756672621">
        <ele>1226.3</ele>
        <time>2018-03-25T14:21:47Z</time>
      </trkpt>
      <trkpt lat="46.471901256591082" lon="8.772206325083971">
        <ele>1226.3</ele>
        <time>2018-03-25T14:21:50Z</time>
      </trkpt>
      <trkpt lat="46.47193780168891" lon="8.772316547110677">
        <ele>1224.8599999999999</ele>
        <time>2018-03-25T14:22:00Z</time>
      </trkpt>
      <trkpt lat="46.471944004297256" lon="8.772413693368435">
        <ele>1223.4200000000001</ele>
        <time>2018-03-25T14:22:09Z</time>
      </trkpt>
      <trkpt lat="46.471939980983734" lon="8.772496674209833">
        <ele>1221.97</ele>
        <time>2018-03-25T14:22:15Z</time>
      </trkpt>
      <trkpt lat="46.471966719254851" lon="8.772639082744718">
        <ele>1220.05</ele>
        <time>2018-03-25T14:22:26Z</time>
      </trkpt>
      <trkpt lat="46.471966551616788" lon="8.772650649771094">
        <ele>1219.5699999999999</ele>
        <time>2018-03-25T14:22:27Z</time>
      </trkpt>
      <trkpt lat="46.471964623779058" lon="8.772683087736368">
        <ele>1219.5699999999999</ele>
        <time>2018-03-25T14:22:29Z</time>
      </trkpt>
      <trkpt lat="46.471970239654183" lon="8.77276866696775">
        <ele>1218.1300000000001</ele>
        <time>2018-03-25T14:22:38Z</time>
      </trkpt>
      <trkpt lat="46.471970323473215" lon="8.772910321131349">
        <ele>1215.72</ele>
        <time>2018-03-25T14:22:49Z</time>
      </trkpt>
      <trkpt lat="46.471962779760361" lon="8.773035379126668">
        <ele>1214.28</ele>
        <time>2018-03-25T14:22:59Z</time>
      </trkpt>
      <trkpt lat="46.471967557445168" lon="8.773055579513311">
        <ele>1214.28</ele>
        <time>2018-03-25T14:23:01Z</time>
      </trkpt>
      <trkpt lat="46.47197250276804" lon="8.773189019411802">
        <ele>1212.8399999999999</ele>
        <time>2018-03-25T14:23:12Z</time>
      </trkpt>
      <trkpt lat="46.471971580758691" lon="8.773311981931329">
        <ele>1211.4000000000001</ele>
        <time>2018-03-25T14:23:22Z</time>
      </trkpt>
      <trkpt lat="46.471988428384066" lon="8.773444583639503">
        <ele>1209.96</ele>
        <time>2018-03-25T14:23:33Z</time>
      </trkpt>
      <trkpt lat="46.472050622105598" lon="8.773604175075889">
        <ele>1209</ele>
        <time>2018-03-25T14:23:45Z</time>
      </trkpt>
      <trkpt lat="46.472049029543996" lon="8.773717498406768">
        <ele>1208.03</ele>
        <time>2018-03-25T14:23:56Z</time>
      </trkpt>
      <trkpt lat="46.471996223554015" lon="8.773809866979718">
        <ele>1208.03</ele>
        <time>2018-03-25T14:24:05Z</time>
      </trkpt>
      <trkpt lat="46.471910309046507" lon="8.773876922205091">
        <ele>1205.1500000000001</ele>
        <time>2018-03-25T14:24:17Z</time>
      </trkpt>
      <trkpt lat="46.471898825839162" lon="8.773854291066527">
        <ele>1204.6700000000001</ele>
        <time>2018-03-25T14:24:23Z</time>
      </trkpt>
      <trkpt lat="46.471903100609779" lon="8.773829899728298">
        <ele>1204.6700000000001</ele>
        <time>2018-03-25T14:24:35Z</time>
      </trkpt>
      <trkpt lat="46.471908632665873" lon="8.773835431784391">
        <ele>1205.6300000000001</ele>
        <time>2018-03-25T14:24:44Z</time>
      </trkpt>
      <trkpt lat="46.471895389258862" lon="8.773854542523623">
        <ele>1205.1500000000001</ele>
        <time>2018-03-25T14:24:50Z</time>
      </trkpt>
      <trkpt lat="46.471785502508283" lon="8.773773405700922">
        <ele>1205.1500000000001</ele>
        <time>2018-03-25T14:25:01Z</time>
      </trkpt>
      <trkpt lat="46.471752813085914" lon="8.773761671036482">
        <ele>1205.1500000000001</ele>
        <time>2018-03-25T14:25:09Z</time>
      </trkpt>
      <trkpt lat="46.471770917996764" lon="8.773718420416117">
        <ele>1205.1500000000001</ele>
        <time>2018-03-25T14:25:20Z</time>
      </trkpt>
      <trkpt lat="46.471769828349352" lon="8.773737782612443">
        <ele>1204.1900000000001</ele>
        <time>2018-03-25T14:25:28Z</time>
      </trkpt>
      <trkpt lat="46.471772426739335" lon="8.773759240284562">
        <ele>1204.6700000000001</ele>
        <time>2018-03-25T14:25:40Z</time>
      </trkpt>
      <trkpt lat="46.471761865541339" lon="8.773772232234478">
        <ele>1204.1900000000001</ele>
        <time>2018-03-25T14:25:49Z</time>
      </trkpt>
      <trkpt lat="46.471754740923643" lon="8.77378648146987">
        <ele>1203.71</ele>
        <time>2018-03-25T14:25:59Z</time>
      </trkpt>
      <trkpt lat="46.471746107563376" lon="8.773767706006765">
        <ele>1203.71</ele>
        <time>2018-03-25T14:26:20Z</time>
      </trkpt>
      <trkpt lat="46.471774857491255" lon="8.77377038821578">
        <ele>1204.1900000000001</ele>
        <time>2018-03-25T14:26:36Z</time>
      </trkpt>
      <trkpt lat="46.471792543306947" lon="8.773774579167366">
        <ele>1203.71</ele>
        <time>2018-03-25T14:26:59Z</time>
      </trkpt>
      <trkpt lat="46.471788352355361" lon="8.77375865355134">
        <ele>1203.71</ele>
        <time>2018-03-25T14:27:22Z</time>
      </trkpt>
      <trkpt lat="46.47178047336638" lon="8.77374155446887">
        <ele>1203.71</ele>
        <time>2018-03-25T14:27:36Z</time>
      </trkpt>
      <trkpt lat="46.47178684361279" lon="8.773713558912277">
        <ele>1203.71</ele>
        <time>2018-03-25T14:28:02Z</time>
      </trkpt>
      <trkpt lat="46.47180587053299" lon="8.773748008534312">
        <ele>1204.1900000000001</ele>
        <time>2018-03-25T14:28:20Z</time>
      </trkpt>
      <trkpt lat="46.471782485023141" lon="8.773748259991407">
        <ele>1204.1900000000001</ele>
        <time>2018-03-25T14:28:33Z</time>
      </trkpt>
      <trkpt lat="46.471753064543009" lon="8.773776339367032">
        <ele>1204.1900000000001</ele>
        <time>2018-03-25T14:28:56Z</time>
      </trkpt>
      <trkpt lat="46.471780724823475" lon="8.773761671036482">
        <ele>1204.1900000000001</ele>
        <time>2018-03-25T14:29:16Z</time>
      </trkpt>
      <trkpt lat="46.471776114776731" lon="8.773791426792741">
        <ele>1204.1900000000001</ele>
        <time>2018-03-25T14:29:35Z</time>
      </trkpt>
      <trkpt lat="46.471797991544008" lon="8.773803077638149">
        <ele>1204.1900000000001</ele>
        <time>2018-03-25T14:30:03Z</time>
      </trkpt>
      <trkpt lat="46.471811067312956" lon="8.773817578330636">
        <ele>1204.1900000000001</ele>
        <time>2018-03-25T14:30:26Z</time>
      </trkpt>
      <trkpt lat="46.471790531650186" lon="8.773811794817448">
        <ele>1204.1900000000001</ele>
        <time>2018-03-25T14:30:49Z</time>
      </trkpt>
      <trkpt lat="46.471812073141336" lon="8.773787738755345">
        <ele>1204.6700000000001</ele>
        <time>2018-03-25T14:31:09Z</time>
      </trkpt>
      <trkpt lat="46.471832357347012" lon="8.7738021556288">
        <ele>1204.6700000000001</ele>
        <time>2018-03-25T14:31:28Z</time>
      </trkpt>
      <trkpt lat="46.471805535256863" lon="8.773802993819118">
        <ele>1204.6700000000001</ele>
        <time>2018-03-25T14:31:50Z</time>
      </trkpt>
      <trkpt lat="46.471770750358701" lon="8.773755133152008">
        <ele>1204.6700000000001</ele>
        <time>2018-03-25T14:32:11Z</time>
      </trkpt>
      <trkpt lat="46.471765888854861" lon="8.773768041282892">
        <ele>1204.6700000000001</ele>
        <time>2018-03-25T14:32:28Z</time>
      </trkpt>
      <trkpt lat="46.471777455881238" lon="8.773756809532642">
        <ele>1204.6700000000001</ele>
        <time>2018-03-25T14:32:43Z</time>
      </trkpt>
      <trkpt lat="46.471833363175392" lon="8.773723281919956">
        <ele>1204.6700000000001</ele>
        <time>2018-03-25T14:33:04Z</time>
      </trkpt>
      <trkpt lat="46.471819868311286" lon="8.773736525326967">
        <ele>1204.6700000000001</ele>
        <time>2018-03-25T14:33:23Z</time>
      </trkpt>
      <trkpt lat="46.471810480579734" lon="8.773762257769704">
        <ele>1205.1500000000001</ele>
        <time>2018-03-25T14:33:38Z</time>
      </trkpt>
      <trkpt lat="46.471817018464208" lon="8.773756893351674">
        <ele>1205.1500000000001</ele>
        <time>2018-03-25T14:33:59Z</time>
      </trkpt>
      <trkpt lat="46.471821293234825" lon="8.773734765127301">
        <ele>1205.1500000000001</ele>
        <time>2018-03-25T14:34:13Z</time>
      </trkpt>
      <trkpt lat="46.471816347911954" lon="8.773726550862193">
        <ele>1205.1500000000001</ele>
        <time>2018-03-25T14:34:32Z</time>
      </trkpt>
      <trkpt lat="46.471795728430152" lon="8.7737503554672">
        <ele>1204.6700000000001</ele>
        <time>2018-03-25T14:34:57Z</time>
      </trkpt>
      <trkpt lat="46.471773684024811" lon="8.773752618581057">
        <ele>1205.1500000000001</ele>
        <time>2018-03-25T14:35:12Z</time>
      </trkpt>
      <trkpt lat="46.471789861097932" lon="8.773734262213111">
        <ele>1205.1500000000001</ele>
        <time>2018-03-25T14:35:25Z</time>
      </trkpt>
    </trkseg>
  </trk>

</gpx>